<?xml version="1.0" encoding="UTF-8" standalone="no" ?>
<gpx xmlns="http://www.topografix.com/GPX/1/1" xmlns:xsi="http://www.w3.org/2001/XMLSchema-instance" xsi:schemaLocation="http://www.topografix.com/GPX/1/1 http://www.topografix.com/GPX/1/1/gpx.xsd" version="1.1" creator="VisuGPX - https://www.visugpx.com">
  <metadata>
    <name>Les trois châteaux</name>
    <desc><![CDATA[Les châteaux de Compeyre, Lugagnac et Cabrières ainsi que les paysages des Grands Causses. Bonne petite rando.]]></desc>
  </metadata>
  <trk>
    <name><![CDATA[Les trois châteaux on GPSies.com]]></name>
    <trkseg>
      <trkpt lat="44.1032" lon="3.08803">
        <ele>356</ele>
        <time>2010-01-01T00:00:00Z</time>
      </trkpt>
      <trkpt lat="44.10323" lon="3.08813">
        <ele>356</ele>
        <time>2010-01-01T00:00:02Z</time>
      </trkpt>
      <trkpt lat="44.10329" lon="3.08822">
        <ele>357</ele>
        <time>2010-01-01T00:00:06Z</time>
      </trkpt>
      <trkpt lat="44.10335" lon="3.08831">
        <ele>357</ele>
        <time>2010-01-01T00:00:09Z</time>
      </trkpt>
      <trkpt lat="44.10341" lon="3.08838">
        <ele>358</ele>
        <time>2010-01-01T00:00:13Z</time>
      </trkpt>
      <trkpt lat="44.10348" lon="3.08845">
        <ele>359</ele>
        <time>2010-01-01T00:00:16Z</time>
      </trkpt>
      <trkpt lat="44.10355" lon="3.08851">
        <ele>359</ele>
        <time>2010-01-01T00:00:19Z</time>
      </trkpt>
      <trkpt lat="44.10363" lon="3.08854">
        <ele>360</ele>
        <time>2010-01-01T00:00:23Z</time>
      </trkpt>
      <trkpt lat="44.1037" lon="3.08855">
        <ele>360</ele>
        <time>2010-01-01T00:00:26Z</time>
      </trkpt>
      <trkpt lat="44.10378" lon="3.08856">
        <ele>359</ele>
        <time>2010-01-01T00:00:29Z</time>
      </trkpt>
      <trkpt lat="44.10386" lon="3.08856">
        <ele>359</ele>
        <time>2010-01-01T00:00:32Z</time>
      </trkpt>
      <trkpt lat="44.10394" lon="3.08856">
        <ele>358</ele>
        <time>2010-01-01T00:00:35Z</time>
      </trkpt>
      <trkpt lat="44.10403" lon="3.08856">
        <ele>358</ele>
        <time>2010-01-01T00:00:39Z</time>
      </trkpt>
      <trkpt lat="44.10411" lon="3.08856">
        <ele>358</ele>
        <time>2010-01-01T00:00:42Z</time>
      </trkpt>
      <trkpt lat="44.1042" lon="3.08856">
        <ele>358</ele>
        <time>2010-01-01T00:00:45Z</time>
      </trkpt>
      <trkpt lat="44.10429" lon="3.08856">
        <ele>358</ele>
        <time>2010-01-01T00:00:49Z</time>
      </trkpt>
      <trkpt lat="44.10437" lon="3.08856">
        <ele>358</ele>
        <time>2010-01-01T00:00:52Z</time>
      </trkpt>
      <trkpt lat="44.10446" lon="3.08856">
        <ele>358</ele>
        <time>2010-01-01T00:00:56Z</time>
      </trkpt>
      <trkpt lat="44.10454" lon="3.08857">
        <ele>358</ele>
        <time>2010-01-01T00:00:59Z</time>
      </trkpt>
      <trkpt lat="44.10463" lon="3.08857">
        <ele>359</ele>
        <time>2010-01-01T00:01:03Z</time>
      </trkpt>
      <trkpt lat="44.10471" lon="3.08856">
        <ele>359</ele>
        <time>2010-01-01T00:01:06Z</time>
      </trkpt>
      <trkpt lat="44.10479" lon="3.08856">
        <ele>360</ele>
        <time>2010-01-01T00:01:09Z</time>
      </trkpt>
      <trkpt lat="44.10487" lon="3.08854">
        <ele>360</ele>
        <time>2010-01-01T00:01:13Z</time>
      </trkpt>
      <trkpt lat="44.10496" lon="3.08853">
        <ele>360</ele>
        <time>2010-01-01T00:01:16Z</time>
      </trkpt>
      <trkpt lat="44.10505" lon="3.08851">
        <ele>360</ele>
        <time>2010-01-01T00:01:19Z</time>
      </trkpt>
      <trkpt lat="44.10513" lon="3.08848">
        <ele>360</ele>
        <time>2010-01-01T00:01:23Z</time>
      </trkpt>
      <trkpt lat="44.10521" lon="3.08845">
        <ele>360</ele>
        <time>2010-01-01T00:01:26Z</time>
      </trkpt>
      <trkpt lat="44.1053" lon="3.08842">
        <ele>361</ele>
        <time>2010-01-01T00:01:30Z</time>
      </trkpt>
      <trkpt lat="44.10538" lon="3.08839">
        <ele>361</ele>
        <time>2010-01-01T00:01:33Z</time>
      </trkpt>
      <trkpt lat="44.10547" lon="3.08836">
        <ele>361</ele>
        <time>2010-01-01T00:01:37Z</time>
      </trkpt>
      <trkpt lat="44.10555" lon="3.08833">
        <ele>360</ele>
        <time>2010-01-01T00:01:41Z</time>
      </trkpt>
      <trkpt lat="44.10564" lon="3.08829">
        <ele>360</ele>
        <time>2010-01-01T00:01:44Z</time>
      </trkpt>
      <trkpt lat="44.10572" lon="3.08825">
        <ele>360</ele>
        <time>2010-01-01T00:01:48Z</time>
      </trkpt>
      <trkpt lat="44.1058" lon="3.08821">
        <ele>360</ele>
        <time>2010-01-01T00:01:51Z</time>
      </trkpt>
      <trkpt lat="44.10589" lon="3.08817">
        <ele>360</ele>
        <time>2010-01-01T00:01:55Z</time>
      </trkpt>
      <trkpt lat="44.10596" lon="3.08813">
        <ele>360</ele>
        <time>2010-01-01T00:01:58Z</time>
      </trkpt>
      <trkpt lat="44.10604" lon="3.08808">
        <ele>360</ele>
        <time>2010-01-01T00:02:01Z</time>
      </trkpt>
      <trkpt lat="44.10613" lon="3.08804">
        <ele>359</ele>
        <time>2010-01-01T00:02:05Z</time>
      </trkpt>
      <trkpt lat="44.10621" lon="3.088">
        <ele>360</ele>
        <time>2010-01-01T00:02:09Z</time>
      </trkpt>
      <trkpt lat="44.10629" lon="3.08797">
        <ele>359</ele>
        <time>2010-01-01T00:02:12Z</time>
      </trkpt>
      <trkpt lat="44.10638" lon="3.08794">
        <ele>359</ele>
        <time>2010-01-01T00:02:15Z</time>
      </trkpt>
      <trkpt lat="44.10647" lon="3.08793">
        <ele>360</ele>
        <time>2010-01-01T00:02:19Z</time>
      </trkpt>
      <trkpt lat="44.10655" lon="3.0879">
        <ele>360</ele>
        <time>2010-01-01T00:02:22Z</time>
      </trkpt>
      <trkpt lat="44.10664" lon="3.08788">
        <ele>361</ele>
        <time>2010-01-01T00:02:26Z</time>
      </trkpt>
      <trkpt lat="44.10672" lon="3.08786">
        <ele>361</ele>
        <time>2010-01-01T00:02:29Z</time>
      </trkpt>
      <trkpt lat="44.10681" lon="3.08785">
        <ele>361</ele>
        <time>2010-01-01T00:02:33Z</time>
      </trkpt>
      <trkpt lat="44.1069" lon="3.08783">
        <ele>362</ele>
        <time>2010-01-01T00:02:36Z</time>
      </trkpt>
      <trkpt lat="44.10699" lon="3.08781">
        <ele>362</ele>
        <time>2010-01-01T00:02:40Z</time>
      </trkpt>
      <trkpt lat="44.10707" lon="3.0878">
        <ele>363</ele>
        <time>2010-01-01T00:02:43Z</time>
      </trkpt>
      <trkpt lat="44.10716" lon="3.0878">
        <ele>363</ele>
        <time>2010-01-01T00:02:47Z</time>
      </trkpt>
      <trkpt lat="44.10725" lon="3.08779">
        <ele>364</ele>
        <time>2010-01-01T00:02:50Z</time>
      </trkpt>
      <trkpt lat="44.10734" lon="3.08779">
        <ele>364</ele>
        <time>2010-01-01T00:02:54Z</time>
      </trkpt>
      <trkpt lat="44.10742" lon="3.08779">
        <ele>364</ele>
        <time>2010-01-01T00:02:57Z</time>
      </trkpt>
      <trkpt lat="44.1075" lon="3.08778">
        <ele>365</ele>
        <time>2010-01-01T00:03:01Z</time>
      </trkpt>
      <trkpt lat="44.10759" lon="3.08778">
        <ele>365</ele>
        <time>2010-01-01T00:03:04Z</time>
      </trkpt>
      <trkpt lat="44.10767" lon="3.08778">
        <ele>365</ele>
        <time>2010-01-01T00:03:07Z</time>
      </trkpt>
      <trkpt lat="44.10776" lon="3.08778">
        <ele>364</ele>
        <time>2010-01-01T00:03:11Z</time>
      </trkpt>
      <trkpt lat="44.10784" lon="3.08778">
        <ele>364</ele>
        <time>2010-01-01T00:03:14Z</time>
      </trkpt>
      <trkpt lat="44.10793" lon="3.08777">
        <ele>363</ele>
        <time>2010-01-01T00:03:18Z</time>
      </trkpt>
      <trkpt lat="44.10802" lon="3.08777">
        <ele>363</ele>
        <time>2010-01-01T00:03:21Z</time>
      </trkpt>
      <trkpt lat="44.1081" lon="3.08776">
        <ele>362</ele>
        <time>2010-01-01T00:03:25Z</time>
      </trkpt>
      <trkpt lat="44.10819" lon="3.08775">
        <ele>362</ele>
        <time>2010-01-01T00:03:28Z</time>
      </trkpt>
      <trkpt lat="44.10827" lon="3.08773">
        <ele>362</ele>
        <time>2010-01-01T00:03:31Z</time>
      </trkpt>
      <trkpt lat="44.10835" lon="3.08772">
        <ele>362</ele>
        <time>2010-01-01T00:03:35Z</time>
      </trkpt>
      <trkpt lat="44.10844" lon="3.08771">
        <ele>362</ele>
        <time>2010-01-01T00:03:38Z</time>
      </trkpt>
      <trkpt lat="44.10854" lon="3.0877">
        <ele>362</ele>
        <time>2010-01-01T00:03:42Z</time>
      </trkpt>
      <trkpt lat="44.10863" lon="3.08768">
        <ele>362</ele>
        <time>2010-01-01T00:03:46Z</time>
      </trkpt>
      <trkpt lat="44.10873" lon="3.08766">
        <ele>362</ele>
        <time>2010-01-01T00:03:50Z</time>
      </trkpt>
      <trkpt lat="44.10882" lon="3.08764">
        <ele>362</ele>
        <time>2010-01-01T00:03:54Z</time>
      </trkpt>
      <trkpt lat="44.10891" lon="3.08762">
        <ele>362</ele>
        <time>2010-01-01T00:03:57Z</time>
      </trkpt>
      <trkpt lat="44.109" lon="3.08759">
        <ele>362</ele>
        <time>2010-01-01T00:04:01Z</time>
      </trkpt>
      <trkpt lat="44.10909" lon="3.08757">
        <ele>362</ele>
        <time>2010-01-01T00:04:05Z</time>
      </trkpt>
      <trkpt lat="44.10918" lon="3.08754">
        <ele>362</ele>
        <time>2010-01-01T00:04:08Z</time>
      </trkpt>
      <trkpt lat="44.10927" lon="3.08751">
        <ele>362</ele>
        <time>2010-01-01T00:04:12Z</time>
      </trkpt>
      <trkpt lat="44.10936" lon="3.08749">
        <ele>362</ele>
        <time>2010-01-01T00:04:16Z</time>
      </trkpt>
      <trkpt lat="44.10945" lon="3.08746">
        <ele>362</ele>
        <time>2010-01-01T00:04:19Z</time>
      </trkpt>
      <trkpt lat="44.10953" lon="3.08744">
        <ele>362</ele>
        <time>2010-01-01T00:04:23Z</time>
      </trkpt>
      <trkpt lat="44.10962" lon="3.08741">
        <ele>361</ele>
        <time>2010-01-01T00:04:26Z</time>
      </trkpt>
      <trkpt lat="44.1097" lon="3.08738">
        <ele>361</ele>
        <time>2010-01-01T00:04:30Z</time>
      </trkpt>
      <trkpt lat="44.10978" lon="3.08735">
        <ele>361</ele>
        <time>2010-01-01T00:04:33Z</time>
      </trkpt>
      <trkpt lat="44.10986" lon="3.08732">
        <ele>361</ele>
        <time>2010-01-01T00:04:36Z</time>
      </trkpt>
      <trkpt lat="44.10994" lon="3.08729">
        <ele>361</ele>
        <time>2010-01-01T00:04:39Z</time>
      </trkpt>
      <trkpt lat="44.11002" lon="3.08725">
        <ele>361</ele>
        <time>2010-01-01T00:04:43Z</time>
      </trkpt>
      <trkpt lat="44.11011" lon="3.08722">
        <ele>361</ele>
        <time>2010-01-01T00:04:47Z</time>
      </trkpt>
      <trkpt lat="44.11019" lon="3.08719">
        <ele>361</ele>
        <time>2010-01-01T00:04:50Z</time>
      </trkpt>
      <trkpt lat="44.11027" lon="3.08716">
        <ele>361</ele>
        <time>2010-01-01T00:04:53Z</time>
      </trkpt>
      <trkpt lat="44.11035" lon="3.08713">
        <ele>361</ele>
        <time>2010-01-01T00:04:57Z</time>
      </trkpt>
      <trkpt lat="44.11044" lon="3.08708">
        <ele>361</ele>
        <time>2010-01-01T00:05:00Z</time>
      </trkpt>
      <trkpt lat="44.11052" lon="3.08703">
        <ele>361</ele>
        <time>2010-01-01T00:05:04Z</time>
      </trkpt>
      <trkpt lat="44.1106" lon="3.08698">
        <ele>361</ele>
        <time>2010-01-01T00:05:07Z</time>
      </trkpt>
      <trkpt lat="44.11067" lon="3.08692">
        <ele>360</ele>
        <time>2010-01-01T00:05:11Z</time>
      </trkpt>
      <trkpt lat="44.11075" lon="3.08686">
        <ele>360</ele>
        <time>2010-01-01T00:05:15Z</time>
      </trkpt>
      <trkpt lat="44.11083" lon="3.0868">
        <ele>360</ele>
        <time>2010-01-01T00:05:18Z</time>
      </trkpt>
      <trkpt lat="44.11091" lon="3.08674">
        <ele>361</ele>
        <time>2010-01-01T00:05:22Z</time>
      </trkpt>
      <trkpt lat="44.11098" lon="3.08669">
        <ele>361</ele>
        <time>2010-01-01T00:05:25Z</time>
      </trkpt>
      <trkpt lat="44.11106" lon="3.08664">
        <ele>360</ele>
        <time>2010-01-01T00:05:28Z</time>
      </trkpt>
      <trkpt lat="44.11113" lon="3.08658">
        <ele>360</ele>
        <time>2010-01-01T00:05:32Z</time>
      </trkpt>
      <trkpt lat="44.11121" lon="3.08653">
        <ele>360</ele>
        <time>2010-01-01T00:05:35Z</time>
      </trkpt>
      <trkpt lat="44.11128" lon="3.08648">
        <ele>359</ele>
        <time>2010-01-01T00:05:39Z</time>
      </trkpt>
      <trkpt lat="44.11136" lon="3.08643">
        <ele>359</ele>
        <time>2010-01-01T00:05:42Z</time>
      </trkpt>
      <trkpt lat="44.11144" lon="3.08639">
        <ele>358</ele>
        <time>2010-01-01T00:05:45Z</time>
      </trkpt>
      <trkpt lat="44.11152" lon="3.08635">
        <ele>358</ele>
        <time>2010-01-01T00:05:49Z</time>
      </trkpt>
      <trkpt lat="44.1116" lon="3.08632">
        <ele>358</ele>
        <time>2010-01-01T00:05:52Z</time>
      </trkpt>
      <trkpt lat="44.11169" lon="3.08629">
        <ele>358</ele>
        <time>2010-01-01T00:05:56Z</time>
      </trkpt>
      <trkpt lat="44.11177" lon="3.08627">
        <ele>358</ele>
        <time>2010-01-01T00:05:59Z</time>
      </trkpt>
      <trkpt lat="44.11186" lon="3.08626">
        <ele>359</ele>
        <time>2010-01-01T00:06:02Z</time>
      </trkpt>
      <trkpt lat="44.11194" lon="3.08626">
        <ele>359</ele>
        <time>2010-01-01T00:06:06Z</time>
      </trkpt>
      <trkpt lat="44.11202" lon="3.08626">
        <ele>359</ele>
        <time>2010-01-01T00:06:09Z</time>
      </trkpt>
      <trkpt lat="44.11211" lon="3.08626">
        <ele>359</ele>
        <time>2010-01-01T00:06:12Z</time>
      </trkpt>
      <trkpt lat="44.11219" lon="3.08626">
        <ele>359</ele>
        <time>2010-01-01T00:06:16Z</time>
      </trkpt>
      <trkpt lat="44.11228" lon="3.08627">
        <ele>360</ele>
        <time>2010-01-01T00:06:19Z</time>
      </trkpt>
      <trkpt lat="44.11236" lon="3.08626">
        <ele>360</ele>
        <time>2010-01-01T00:06:23Z</time>
      </trkpt>
      <trkpt lat="44.11245" lon="3.08626">
        <ele>360</ele>
        <time>2010-01-01T00:06:26Z</time>
      </trkpt>
      <trkpt lat="44.11254" lon="3.08626">
        <ele>360</ele>
        <time>2010-01-01T00:06:30Z</time>
      </trkpt>
      <trkpt lat="44.11263" lon="3.08626">
        <ele>360</ele>
        <time>2010-01-01T00:06:33Z</time>
      </trkpt>
      <trkpt lat="44.11271" lon="3.08626">
        <ele>360</ele>
        <time>2010-01-01T00:06:37Z</time>
      </trkpt>
      <trkpt lat="44.1128" lon="3.08626">
        <ele>360</ele>
        <time>2010-01-01T00:06:40Z</time>
      </trkpt>
      <trkpt lat="44.11289" lon="3.08627">
        <ele>360</ele>
        <time>2010-01-01T00:06:44Z</time>
      </trkpt>
      <trkpt lat="44.11298" lon="3.08627">
        <ele>360</ele>
        <time>2010-01-01T00:06:47Z</time>
      </trkpt>
      <trkpt lat="44.11306" lon="3.08628">
        <ele>360</ele>
        <time>2010-01-01T00:06:51Z</time>
      </trkpt>
      <trkpt lat="44.11315" lon="3.0863">
        <ele>360</ele>
        <time>2010-01-01T00:06:54Z</time>
      </trkpt>
      <trkpt lat="44.11323" lon="3.08633">
        <ele>360</ele>
        <time>2010-01-01T00:06:58Z</time>
      </trkpt>
      <trkpt lat="44.11332" lon="3.08635">
        <ele>361</ele>
        <time>2010-01-01T00:07:01Z</time>
      </trkpt>
      <trkpt lat="44.11341" lon="3.08639">
        <ele>361</ele>
        <time>2010-01-01T00:07:05Z</time>
      </trkpt>
      <trkpt lat="44.11349" lon="3.08643">
        <ele>361</ele>
        <time>2010-01-01T00:07:08Z</time>
      </trkpt>
      <trkpt lat="44.11357" lon="3.08647">
        <ele>361</ele>
        <time>2010-01-01T00:07:12Z</time>
      </trkpt>
      <trkpt lat="44.11365" lon="3.0865">
        <ele>361</ele>
        <time>2010-01-01T00:07:15Z</time>
      </trkpt>
      <trkpt lat="44.11374" lon="3.08654">
        <ele>361</ele>
        <time>2010-01-01T00:07:19Z</time>
      </trkpt>
      <trkpt lat="44.11382" lon="3.08656">
        <ele>361</ele>
        <time>2010-01-01T00:07:22Z</time>
      </trkpt>
      <trkpt lat="44.11391" lon="3.08658">
        <ele>361</ele>
        <time>2010-01-01T00:07:26Z</time>
      </trkpt>
      <trkpt lat="44.11399" lon="3.0866">
        <ele>361</ele>
        <time>2010-01-01T00:07:29Z</time>
      </trkpt>
      <trkpt lat="44.11407" lon="3.08661">
        <ele>361</ele>
        <time>2010-01-01T00:07:32Z</time>
      </trkpt>
      <trkpt lat="44.11415" lon="3.08663">
        <ele>361</ele>
        <time>2010-01-01T00:07:35Z</time>
      </trkpt>
      <trkpt lat="44.11423" lon="3.08664">
        <ele>361</ele>
        <time>2010-01-01T00:07:39Z</time>
      </trkpt>
      <trkpt lat="44.11431" lon="3.08665">
        <ele>361</ele>
        <time>2010-01-01T00:07:42Z</time>
      </trkpt>
      <trkpt lat="44.11439" lon="3.08665">
        <ele>361</ele>
        <time>2010-01-01T00:07:45Z</time>
      </trkpt>
      <trkpt lat="44.11446" lon="3.08666">
        <ele>361</ele>
        <time>2010-01-01T00:07:48Z</time>
      </trkpt>
      <trkpt lat="44.1145" lon="3.08667">
        <ele>361</ele>
        <time>2010-01-01T00:07:50Z</time>
      </trkpt>
      <trkpt lat="44.11453" lon="3.08672">
        <ele>361</ele>
        <time>2010-01-01T00:07:52Z</time>
      </trkpt>
      <trkpt lat="44.11457" lon="3.08679">
        <ele>361</ele>
        <time>2010-01-01T00:07:54Z</time>
      </trkpt>
      <trkpt lat="44.11463" lon="3.08686">
        <ele>361</ele>
        <time>2010-01-01T00:07:57Z</time>
      </trkpt>
      <trkpt lat="44.11471" lon="3.0869">
        <ele>361</ele>
        <time>2010-01-01T00:08:01Z</time>
      </trkpt>
      <trkpt lat="44.11478" lon="3.08694">
        <ele>362</ele>
        <time>2010-01-01T00:08:03Z</time>
      </trkpt>
      <trkpt lat="44.11485" lon="3.08698">
        <ele>361</ele>
        <time>2010-01-01T00:08:07Z</time>
      </trkpt>
      <trkpt lat="44.11494" lon="3.08703">
        <ele>361</ele>
        <time>2010-01-01T00:08:10Z</time>
      </trkpt>
      <trkpt lat="44.11503" lon="3.08708">
        <ele>361</ele>
        <time>2010-01-01T00:08:14Z</time>
      </trkpt>
      <trkpt lat="44.11511" lon="3.08714">
        <ele>361</ele>
        <time>2010-01-01T00:08:18Z</time>
      </trkpt>
      <trkpt lat="44.1152" lon="3.08719">
        <ele>362</ele>
        <time>2010-01-01T00:08:22Z</time>
      </trkpt>
      <trkpt lat="44.11529" lon="3.08725">
        <ele>362</ele>
        <time>2010-01-01T00:08:26Z</time>
      </trkpt>
      <trkpt lat="44.11539" lon="3.0873">
        <ele>363</ele>
        <time>2010-01-01T00:08:30Z</time>
      </trkpt>
      <trkpt lat="44.11548" lon="3.08735">
        <ele>363</ele>
        <time>2010-01-01T00:08:34Z</time>
      </trkpt>
      <trkpt lat="44.11557" lon="3.08741">
        <ele>364</ele>
        <time>2010-01-01T00:08:38Z</time>
      </trkpt>
      <trkpt lat="44.11566" lon="3.08746">
        <ele>364</ele>
        <time>2010-01-01T00:08:42Z</time>
      </trkpt>
      <trkpt lat="44.11575" lon="3.08751">
        <ele>363</ele>
        <time>2010-01-01T00:08:46Z</time>
      </trkpt>
      <trkpt lat="44.11584" lon="3.08757">
        <ele>364</ele>
        <time>2010-01-01T00:08:50Z</time>
      </trkpt>
      <trkpt lat="44.11593" lon="3.08763">
        <ele>364</ele>
        <time>2010-01-01T00:08:54Z</time>
      </trkpt>
      <trkpt lat="44.11603" lon="3.08768">
        <ele>364</ele>
        <time>2010-01-01T00:08:58Z</time>
      </trkpt>
      <trkpt lat="44.11612" lon="3.08774">
        <ele>363</ele>
        <time>2010-01-01T00:09:02Z</time>
      </trkpt>
      <trkpt lat="44.11621" lon="3.0878">
        <ele>363</ele>
        <time>2010-01-01T00:09:06Z</time>
      </trkpt>
      <trkpt lat="44.1163" lon="3.08786">
        <ele>362</ele>
        <time>2010-01-01T00:09:10Z</time>
      </trkpt>
      <trkpt lat="44.1164" lon="3.08792">
        <ele>362</ele>
        <time>2010-01-01T00:09:14Z</time>
      </trkpt>
      <trkpt lat="44.11649" lon="3.08797">
        <ele>362</ele>
        <time>2010-01-01T00:09:18Z</time>
      </trkpt>
      <trkpt lat="44.11658" lon="3.08803">
        <ele>362</ele>
        <time>2010-01-01T00:09:22Z</time>
      </trkpt>
      <trkpt lat="44.11667" lon="3.0881">
        <ele>362</ele>
        <time>2010-01-01T00:09:26Z</time>
      </trkpt>
      <trkpt lat="44.11677" lon="3.08816">
        <ele>362</ele>
        <time>2010-01-01T00:09:30Z</time>
      </trkpt>
      <trkpt lat="44.11686" lon="3.08822">
        <ele>363</ele>
        <time>2010-01-01T00:09:35Z</time>
      </trkpt>
      <trkpt lat="44.11695" lon="3.08828">
        <ele>364</ele>
        <time>2010-01-01T00:09:39Z</time>
      </trkpt>
      <trkpt lat="44.11705" lon="3.08834">
        <ele>363</ele>
        <time>2010-01-01T00:09:43Z</time>
      </trkpt>
      <trkpt lat="44.11714" lon="3.0884">
        <ele>363</ele>
        <time>2010-01-01T00:09:47Z</time>
      </trkpt>
      <trkpt lat="44.11723" lon="3.08847">
        <ele>363</ele>
        <time>2010-01-01T00:09:51Z</time>
      </trkpt>
      <trkpt lat="44.11732" lon="3.08855">
        <ele>363</ele>
        <time>2010-01-01T00:09:55Z</time>
      </trkpt>
      <trkpt lat="44.1174" lon="3.08863">
        <ele>363</ele>
        <time>2010-01-01T00:09:59Z</time>
      </trkpt>
      <trkpt lat="44.11748" lon="3.08872">
        <ele>363</ele>
        <time>2010-01-01T00:10:03Z</time>
      </trkpt>
      <trkpt lat="44.11756" lon="3.08882">
        <ele>363</ele>
        <time>2010-01-01T00:10:08Z</time>
      </trkpt>
      <trkpt lat="44.11764" lon="3.08891">
        <ele>363</ele>
        <time>2010-01-01T00:10:12Z</time>
      </trkpt>
      <trkpt lat="44.11772" lon="3.08901">
        <ele>363</ele>
        <time>2010-01-01T00:10:16Z</time>
      </trkpt>
      <trkpt lat="44.1178" lon="3.0891">
        <ele>363</ele>
        <time>2010-01-01T00:10:20Z</time>
      </trkpt>
      <trkpt lat="44.11788" lon="3.0892">
        <ele>364</ele>
        <time>2010-01-01T00:10:24Z</time>
      </trkpt>
      <trkpt lat="44.11795" lon="3.08929">
        <ele>364</ele>
        <time>2010-01-01T00:10:29Z</time>
      </trkpt>
      <trkpt lat="44.11803" lon="3.08939">
        <ele>364</ele>
        <time>2010-01-01T00:10:33Z</time>
      </trkpt>
      <trkpt lat="44.1181" lon="3.08949">
        <ele>365</ele>
        <time>2010-01-01T00:10:37Z</time>
      </trkpt>
      <trkpt lat="44.11818" lon="3.08958">
        <ele>365</ele>
        <time>2010-01-01T00:10:41Z</time>
      </trkpt>
      <trkpt lat="44.11825" lon="3.08968">
        <ele>365</ele>
        <time>2010-01-01T00:10:45Z</time>
      </trkpt>
      <trkpt lat="44.11832" lon="3.08978">
        <ele>366</ele>
        <time>2010-01-01T00:10:49Z</time>
      </trkpt>
      <trkpt lat="44.11839" lon="3.08988">
        <ele>366</ele>
        <time>2010-01-01T00:10:53Z</time>
      </trkpt>
      <trkpt lat="44.11846" lon="3.08998">
        <ele>366</ele>
        <time>2010-01-01T00:10:57Z</time>
      </trkpt>
      <trkpt lat="44.11853" lon="3.09008">
        <ele>366</ele>
        <time>2010-01-01T00:11:01Z</time>
      </trkpt>
      <trkpt lat="44.1186" lon="3.09018">
        <ele>366</ele>
        <time>2010-01-01T00:11:05Z</time>
      </trkpt>
      <trkpt lat="44.11867" lon="3.09027">
        <ele>366</ele>
        <time>2010-01-01T00:11:09Z</time>
      </trkpt>
      <trkpt lat="44.11874" lon="3.09037">
        <ele>366</ele>
        <time>2010-01-01T00:11:13Z</time>
      </trkpt>
      <trkpt lat="44.11882" lon="3.09047">
        <ele>365</ele>
        <time>2010-01-01T00:11:17Z</time>
      </trkpt>
      <trkpt lat="44.11889" lon="3.09057">
        <ele>365</ele>
        <time>2010-01-01T00:11:21Z</time>
      </trkpt>
      <trkpt lat="44.11896" lon="3.09067">
        <ele>364</ele>
        <time>2010-01-01T00:11:25Z</time>
      </trkpt>
      <trkpt lat="44.11903" lon="3.09077">
        <ele>364</ele>
        <time>2010-01-01T00:11:29Z</time>
      </trkpt>
      <trkpt lat="44.1191" lon="3.09088">
        <ele>364</ele>
        <time>2010-01-01T00:11:33Z</time>
      </trkpt>
      <trkpt lat="44.11917" lon="3.09099">
        <ele>364</ele>
        <time>2010-01-01T00:11:37Z</time>
      </trkpt>
      <trkpt lat="44.11924" lon="3.09109">
        <ele>364</ele>
        <time>2010-01-01T00:11:41Z</time>
      </trkpt>
      <trkpt lat="44.1193" lon="3.09119">
        <ele>365</ele>
        <time>2010-01-01T00:11:45Z</time>
      </trkpt>
      <trkpt lat="44.11937" lon="3.09129">
        <ele>365</ele>
        <time>2010-01-01T00:11:49Z</time>
      </trkpt>
      <trkpt lat="44.11944" lon="3.09138">
        <ele>364</ele>
        <time>2010-01-01T00:11:53Z</time>
      </trkpt>
      <trkpt lat="44.11951" lon="3.09147">
        <ele>365</ele>
        <time>2010-01-01T00:11:57Z</time>
      </trkpt>
      <trkpt lat="44.11958" lon="3.09155">
        <ele>366</ele>
        <time>2010-01-01T00:12:00Z</time>
      </trkpt>
      <trkpt lat="44.11965" lon="3.09164">
        <ele>367</ele>
        <time>2010-01-01T00:12:04Z</time>
      </trkpt>
      <trkpt lat="44.11971" lon="3.09173">
        <ele>368</ele>
        <time>2010-01-01T00:12:08Z</time>
      </trkpt>
      <trkpt lat="44.11976" lon="3.09182">
        <ele>369</ele>
        <time>2010-01-01T00:12:11Z</time>
      </trkpt>
      <trkpt lat="44.11981" lon="3.09194">
        <ele>370</ele>
        <time>2010-01-01T00:12:15Z</time>
      </trkpt>
      <trkpt lat="44.11988" lon="3.09205">
        <ele>371</ele>
        <time>2010-01-01T00:12:19Z</time>
      </trkpt>
      <trkpt lat="44.11993" lon="3.09217">
        <ele>371</ele>
        <time>2010-01-01T00:12:23Z</time>
      </trkpt>
      <trkpt lat="44.11997" lon="3.09227">
        <ele>372</ele>
        <time>2010-01-01T00:12:27Z</time>
      </trkpt>
      <trkpt lat="44.12002" lon="3.09238">
        <ele>373</ele>
        <time>2010-01-01T00:12:30Z</time>
      </trkpt>
      <trkpt lat="44.12008" lon="3.09248">
        <ele>373</ele>
        <time>2010-01-01T00:12:34Z</time>
      </trkpt>
      <trkpt lat="44.12014" lon="3.09257">
        <ele>373</ele>
        <time>2010-01-01T00:12:38Z</time>
      </trkpt>
      <trkpt lat="44.12019" lon="3.09268">
        <ele>372</ele>
        <time>2010-01-01T00:12:41Z</time>
      </trkpt>
      <trkpt lat="44.12026" lon="3.09278">
        <ele>372</ele>
        <time>2010-01-01T00:12:45Z</time>
      </trkpt>
      <trkpt lat="44.12031" lon="3.09287">
        <ele>372</ele>
        <time>2010-01-01T00:12:49Z</time>
      </trkpt>
      <trkpt lat="44.12035" lon="3.09296">
        <ele>372</ele>
        <time>2010-01-01T00:12:52Z</time>
      </trkpt>
      <trkpt lat="44.12043" lon="3.09305">
        <ele>371</ele>
        <time>2010-01-01T00:12:56Z</time>
      </trkpt>
      <trkpt lat="44.12049" lon="3.09315">
        <ele>371</ele>
        <time>2010-01-01T00:13:00Z</time>
      </trkpt>
      <trkpt lat="44.12057" lon="3.09325">
        <ele>370</ele>
        <time>2010-01-01T00:13:04Z</time>
      </trkpt>
      <trkpt lat="44.12065" lon="3.09336">
        <ele>369</ele>
        <time>2010-01-01T00:13:08Z</time>
      </trkpt>
      <trkpt lat="44.12073" lon="3.09346">
        <ele>369</ele>
        <time>2010-01-01T00:13:13Z</time>
      </trkpt>
      <trkpt lat="44.1208" lon="3.09357">
        <ele>369</ele>
        <time>2010-01-01T00:13:17Z</time>
      </trkpt>
      <trkpt lat="44.12087" lon="3.09368">
        <ele>369</ele>
        <time>2010-01-01T00:13:21Z</time>
      </trkpt>
      <trkpt lat="44.12093" lon="3.09379">
        <ele>369</ele>
        <time>2010-01-01T00:13:25Z</time>
      </trkpt>
      <trkpt lat="44.12098" lon="3.09389">
        <ele>368</ele>
        <time>2010-01-01T00:13:29Z</time>
      </trkpt>
      <trkpt lat="44.12104" lon="3.094">
        <ele>368</ele>
        <time>2010-01-01T00:13:32Z</time>
      </trkpt>
      <trkpt lat="44.1211" lon="3.09411">
        <ele>368</ele>
        <time>2010-01-01T00:13:36Z</time>
      </trkpt>
      <trkpt lat="44.12115" lon="3.09422">
        <ele>368</ele>
        <time>2010-01-01T00:13:40Z</time>
      </trkpt>
      <trkpt lat="44.12121" lon="3.09432">
        <ele>368</ele>
        <time>2010-01-01T00:13:44Z</time>
      </trkpt>
      <trkpt lat="44.12127" lon="3.09443">
        <ele>368</ele>
        <time>2010-01-01T00:13:48Z</time>
      </trkpt>
      <trkpt lat="44.12132" lon="3.09454">
        <ele>368</ele>
        <time>2010-01-01T00:13:52Z</time>
      </trkpt>
      <trkpt lat="44.12138" lon="3.09465">
        <ele>368</ele>
        <time>2010-01-01T00:13:56Z</time>
      </trkpt>
      <trkpt lat="44.12144" lon="3.09476">
        <ele>368</ele>
        <time>2010-01-01T00:14:00Z</time>
      </trkpt>
      <trkpt lat="44.1215" lon="3.09487">
        <ele>368</ele>
        <time>2010-01-01T00:14:04Z</time>
      </trkpt>
      <trkpt lat="44.12157" lon="3.09498">
        <ele>367</ele>
        <time>2010-01-01T00:14:08Z</time>
      </trkpt>
      <trkpt lat="44.12163" lon="3.09508">
        <ele>367</ele>
        <time>2010-01-01T00:14:11Z</time>
      </trkpt>
      <trkpt lat="44.12169" lon="3.09518">
        <ele>367</ele>
        <time>2010-01-01T00:14:15Z</time>
      </trkpt>
      <trkpt lat="44.12176" lon="3.09527">
        <ele>367</ele>
        <time>2010-01-01T00:14:19Z</time>
      </trkpt>
      <trkpt lat="44.12183" lon="3.09537">
        <ele>367</ele>
        <time>2010-01-01T00:14:23Z</time>
      </trkpt>
      <trkpt lat="44.1219" lon="3.09546">
        <ele>367</ele>
        <time>2010-01-01T00:14:27Z</time>
      </trkpt>
      <trkpt lat="44.12197" lon="3.09555">
        <ele>367</ele>
        <time>2010-01-01T00:14:31Z</time>
      </trkpt>
      <trkpt lat="44.12205" lon="3.09564">
        <ele>368</ele>
        <time>2010-01-01T00:14:35Z</time>
      </trkpt>
      <trkpt lat="44.12212" lon="3.09573">
        <ele>369</ele>
        <time>2010-01-01T00:14:39Z</time>
      </trkpt>
      <trkpt lat="44.12219" lon="3.09581">
        <ele>369</ele>
        <time>2010-01-01T00:14:42Z</time>
      </trkpt>
      <trkpt lat="44.12227" lon="3.0959">
        <ele>369</ele>
        <time>2010-01-01T00:14:46Z</time>
      </trkpt>
      <trkpt lat="44.12234" lon="3.09599">
        <ele>369</ele>
        <time>2010-01-01T00:14:50Z</time>
      </trkpt>
      <trkpt lat="44.1224" lon="3.09608">
        <ele>369</ele>
        <time>2010-01-01T00:14:54Z</time>
      </trkpt>
      <trkpt lat="44.12247" lon="3.09617">
        <ele>369</ele>
        <time>2010-01-01T00:14:58Z</time>
      </trkpt>
      <trkpt lat="44.12255" lon="3.09626">
        <ele>369</ele>
        <time>2010-01-01T00:15:02Z</time>
      </trkpt>
      <trkpt lat="44.12263" lon="3.09634">
        <ele>370</ele>
        <time>2010-01-01T00:15:05Z</time>
      </trkpt>
      <trkpt lat="44.1227" lon="3.09643">
        <ele>371</ele>
        <time>2010-01-01T00:15:09Z</time>
      </trkpt>
      <trkpt lat="44.12277" lon="3.09652">
        <ele>371</ele>
        <time>2010-01-01T00:15:13Z</time>
      </trkpt>
      <trkpt lat="44.12285" lon="3.09662">
        <ele>373</ele>
        <time>2010-01-01T00:15:17Z</time>
      </trkpt>
      <trkpt lat="44.12292" lon="3.09671">
        <ele>373</ele>
        <time>2010-01-01T00:15:21Z</time>
      </trkpt>
      <trkpt lat="44.123" lon="3.0968">
        <ele>374</ele>
        <time>2010-01-01T00:15:25Z</time>
      </trkpt>
      <trkpt lat="44.12307" lon="3.09689">
        <ele>374</ele>
        <time>2010-01-01T00:15:29Z</time>
      </trkpt>
      <trkpt lat="44.12315" lon="3.09699">
        <ele>373</ele>
        <time>2010-01-01T00:15:33Z</time>
      </trkpt>
      <trkpt lat="44.12322" lon="3.09708">
        <ele>372</ele>
        <time>2010-01-01T00:15:37Z</time>
      </trkpt>
      <trkpt lat="44.12329" lon="3.09718">
        <ele>372</ele>
        <time>2010-01-01T00:15:41Z</time>
      </trkpt>
      <trkpt lat="44.12336" lon="3.0973">
        <ele>371</ele>
        <time>2010-01-01T00:15:46Z</time>
      </trkpt>
      <trkpt lat="44.12343" lon="3.09741">
        <ele>370</ele>
        <time>2010-01-01T00:15:50Z</time>
      </trkpt>
      <trkpt lat="44.12349" lon="3.09752">
        <ele>369</ele>
        <time>2010-01-01T00:15:54Z</time>
      </trkpt>
      <trkpt lat="44.12355" lon="3.09763">
        <ele>369</ele>
        <time>2010-01-01T00:15:58Z</time>
      </trkpt>
      <trkpt lat="44.1236" lon="3.09775">
        <ele>368</ele>
        <time>2010-01-01T00:16:02Z</time>
      </trkpt>
      <trkpt lat="44.12365" lon="3.09787">
        <ele>369</ele>
        <time>2010-01-01T00:16:06Z</time>
      </trkpt>
      <trkpt lat="44.12369" lon="3.09799">
        <ele>370</ele>
        <time>2010-01-01T00:16:10Z</time>
      </trkpt>
      <trkpt lat="44.12374" lon="3.09811">
        <ele>371</ele>
        <time>2010-01-01T00:16:13Z</time>
      </trkpt>
      <trkpt lat="44.12378" lon="3.09822">
        <ele>372</ele>
        <time>2010-01-01T00:16:17Z</time>
      </trkpt>
      <trkpt lat="44.12381" lon="3.09834">
        <ele>372</ele>
        <time>2010-01-01T00:16:21Z</time>
      </trkpt>
      <trkpt lat="44.12384" lon="3.09846">
        <ele>373</ele>
        <time>2010-01-01T00:16:25Z</time>
      </trkpt>
      <trkpt lat="44.12389" lon="3.09865">
        <ele>373</ele>
        <time>2010-01-01T00:16:30Z</time>
      </trkpt>
      <trkpt lat="44.12392" lon="3.09876">
        <ele>373</ele>
        <time>2010-01-01T00:16:34Z</time>
      </trkpt>
      <trkpt lat="44.12395" lon="3.09888">
        <ele>373</ele>
        <time>2010-01-01T00:16:37Z</time>
      </trkpt>
      <trkpt lat="44.12399" lon="3.099">
        <ele>374</ele>
        <time>2010-01-01T00:16:41Z</time>
      </trkpt>
      <trkpt lat="44.12403" lon="3.09911">
        <ele>374</ele>
        <time>2010-01-01T00:16:45Z</time>
      </trkpt>
      <trkpt lat="44.12408" lon="3.09922">
        <ele>375</ele>
        <time>2010-01-01T00:16:48Z</time>
      </trkpt>
      <trkpt lat="44.12413" lon="3.09932">
        <ele>375</ele>
        <time>2010-01-01T00:16:52Z</time>
      </trkpt>
      <trkpt lat="44.12419" lon="3.09943">
        <ele>376</ele>
        <time>2010-01-01T00:16:56Z</time>
      </trkpt>
      <trkpt lat="44.12425" lon="3.09954">
        <ele>375</ele>
        <time>2010-01-01T00:17:00Z</time>
      </trkpt>
      <trkpt lat="44.12431" lon="3.09964">
        <ele>375</ele>
        <time>2010-01-01T00:17:04Z</time>
      </trkpt>
      <trkpt lat="44.12438" lon="3.09974">
        <ele>374</ele>
        <time>2010-01-01T00:17:08Z</time>
      </trkpt>
      <trkpt lat="44.12444" lon="3.09983">
        <ele>374</ele>
        <time>2010-01-01T00:17:11Z</time>
      </trkpt>
      <trkpt lat="44.12451" lon="3.09992">
        <ele>374</ele>
        <time>2010-01-01T00:17:15Z</time>
      </trkpt>
      <trkpt lat="44.12458" lon="3.1">
        <ele>374</ele>
        <time>2010-01-01T00:17:18Z</time>
      </trkpt>
      <trkpt lat="44.12463" lon="3.10005">
        <ele>374</ele>
        <time>2010-01-01T00:17:21Z</time>
      </trkpt>
      <trkpt lat="44.12469" lon="3.1001">
        <ele>374</ele>
        <time>2010-01-01T00:17:24Z</time>
      </trkpt>
      <trkpt lat="44.12476" lon="3.10017">
        <ele>374</ele>
        <time>2010-01-01T00:17:27Z</time>
      </trkpt>
      <trkpt lat="44.1248" lon="3.10022">
        <ele>374</ele>
        <time>2010-01-01T00:17:30Z</time>
      </trkpt>
      <trkpt lat="44.12489" lon="3.10029">
        <ele>374</ele>
        <time>2010-01-01T00:17:34Z</time>
      </trkpt>
      <trkpt lat="44.12498" lon="3.10037">
        <ele>373</ele>
        <time>2010-01-01T00:17:38Z</time>
      </trkpt>
      <trkpt lat="44.1251" lon="3.10043">
        <ele>373</ele>
        <time>2010-01-01T00:17:43Z</time>
      </trkpt>
      <trkpt lat="44.12522" lon="3.10048">
        <ele>372</ele>
        <time>2010-01-01T00:17:48Z</time>
      </trkpt>
      <trkpt lat="44.12533" lon="3.10051">
        <ele>371</ele>
        <time>2010-01-01T00:17:53Z</time>
      </trkpt>
      <trkpt lat="44.12545" lon="3.10054">
        <ele>371</ele>
        <time>2010-01-01T00:17:57Z</time>
      </trkpt>
      <trkpt lat="44.12556" lon="3.10057">
        <ele>371</ele>
        <time>2010-01-01T00:18:02Z</time>
      </trkpt>
      <trkpt lat="44.12565" lon="3.10059">
        <ele>371</ele>
        <time>2010-01-01T00:18:06Z</time>
      </trkpt>
      <trkpt lat="44.12575" lon="3.10062">
        <ele>371</ele>
        <time>2010-01-01T00:18:10Z</time>
      </trkpt>
      <trkpt lat="44.12587" lon="3.10064">
        <ele>370</ele>
        <time>2010-01-01T00:18:14Z</time>
      </trkpt>
      <trkpt lat="44.12596" lon="3.10066">
        <ele>371</ele>
        <time>2010-01-01T00:18:18Z</time>
      </trkpt>
      <trkpt lat="44.12606" lon="3.10067">
        <ele>371</ele>
        <time>2010-01-01T00:18:22Z</time>
      </trkpt>
      <trkpt lat="44.12613" lon="3.10068">
        <ele>371</ele>
        <time>2010-01-01T00:18:25Z</time>
      </trkpt>
      <trkpt lat="44.12624" lon="3.10068">
        <ele>370</ele>
        <time>2010-01-01T00:18:29Z</time>
      </trkpt>
      <trkpt lat="44.12638" lon="3.10067">
        <ele>369</ele>
        <time>2010-01-01T00:18:35Z</time>
      </trkpt>
      <trkpt lat="44.1265" lon="3.10065">
        <ele>370</ele>
        <time>2010-01-01T00:18:40Z</time>
      </trkpt>
      <trkpt lat="44.12662" lon="3.10064">
        <ele>371</ele>
        <time>2010-01-01T00:18:44Z</time>
      </trkpt>
      <trkpt lat="44.12671" lon="3.10064">
        <ele>371</ele>
        <time>2010-01-01T00:18:48Z</time>
      </trkpt>
      <trkpt lat="44.1268" lon="3.10063">
        <ele>371</ele>
        <time>2010-01-01T00:18:52Z</time>
      </trkpt>
      <trkpt lat="44.1269" lon="3.10062">
        <ele>372</ele>
        <time>2010-01-01T00:18:56Z</time>
      </trkpt>
      <trkpt lat="44.12701" lon="3.10062">
        <ele>371</ele>
        <time>2010-01-01T00:19:00Z</time>
      </trkpt>
      <trkpt lat="44.12711" lon="3.10063">
        <ele>371</ele>
        <time>2010-01-01T00:19:04Z</time>
      </trkpt>
      <trkpt lat="44.12722" lon="3.10063">
        <ele>371</ele>
        <time>2010-01-01T00:19:09Z</time>
      </trkpt>
      <trkpt lat="44.12732" lon="3.10062">
        <ele>371</ele>
        <time>2010-01-01T00:19:13Z</time>
      </trkpt>
      <trkpt lat="44.12742" lon="3.1006">
        <ele>371</ele>
        <time>2010-01-01T00:19:17Z</time>
      </trkpt>
      <trkpt lat="44.12752" lon="3.10059">
        <ele>371</ele>
        <time>2010-01-01T00:19:21Z</time>
      </trkpt>
      <trkpt lat="44.12762" lon="3.10059">
        <ele>372</ele>
        <time>2010-01-01T00:19:25Z</time>
      </trkpt>
      <trkpt lat="44.12771" lon="3.1006">
        <ele>373</ele>
        <time>2010-01-01T00:19:28Z</time>
      </trkpt>
      <trkpt lat="44.12779" lon="3.10061">
        <ele>374</ele>
        <time>2010-01-01T00:19:31Z</time>
      </trkpt>
      <trkpt lat="44.12785" lon="3.1006">
        <ele>374</ele>
        <time>2010-01-01T00:19:34Z</time>
      </trkpt>
      <trkpt lat="44.12791" lon="3.10059">
        <ele>374</ele>
        <time>2010-01-01T00:19:36Z</time>
      </trkpt>
      <trkpt lat="44.12796" lon="3.10057">
        <ele>374</ele>
        <time>2010-01-01T00:19:38Z</time>
      </trkpt>
      <trkpt lat="44.128" lon="3.10056">
        <ele>374</ele>
        <time>2010-01-01T00:19:40Z</time>
      </trkpt>
      <trkpt lat="44.12804" lon="3.10055">
        <ele>374</ele>
        <time>2010-01-01T00:19:42Z</time>
      </trkpt>
      <trkpt lat="44.12809" lon="3.10054">
        <ele>375</ele>
        <time>2010-01-01T00:19:43Z</time>
      </trkpt>
      <trkpt lat="44.12813" lon="3.10054">
        <ele>375</ele>
        <time>2010-01-01T00:19:45Z</time>
      </trkpt>
      <trkpt lat="44.12817" lon="3.10053">
        <ele>375</ele>
        <time>2010-01-01T00:19:47Z</time>
      </trkpt>
      <trkpt lat="44.12822" lon="3.10051">
        <ele>376</ele>
        <time>2010-01-01T00:19:49Z</time>
      </trkpt>
      <trkpt lat="44.12826" lon="3.1005">
        <ele>376</ele>
        <time>2010-01-01T00:19:51Z</time>
      </trkpt>
      <trkpt lat="44.1283" lon="3.1005">
        <ele>376</ele>
        <time>2010-01-01T00:19:52Z</time>
      </trkpt>
      <trkpt lat="44.12834" lon="3.10049">
        <ele>377</ele>
        <time>2010-01-01T00:19:54Z</time>
      </trkpt>
      <trkpt lat="44.12838" lon="3.10048">
        <ele>377</ele>
        <time>2010-01-01T00:19:55Z</time>
      </trkpt>
      <trkpt lat="44.12843" lon="3.10048">
        <ele>378</ele>
        <time>2010-01-01T00:19:57Z</time>
      </trkpt>
      <trkpt lat="44.12846" lon="3.10047">
        <ele>378</ele>
        <time>2010-01-01T00:19:59Z</time>
      </trkpt>
      <trkpt lat="44.1285" lon="3.10047">
        <ele>379</ele>
        <time>2010-01-01T00:20:00Z</time>
      </trkpt>
      <trkpt lat="44.12855" lon="3.10047">
        <ele>380</ele>
        <time>2010-01-01T00:20:02Z</time>
      </trkpt>
      <trkpt lat="44.12859" lon="3.10046">
        <ele>380</ele>
        <time>2010-01-01T00:20:04Z</time>
      </trkpt>
      <trkpt lat="44.12863" lon="3.10045">
        <ele>381</ele>
        <time>2010-01-01T00:20:06Z</time>
      </trkpt>
      <trkpt lat="44.12868" lon="3.10045">
        <ele>380</ele>
        <time>2010-01-01T00:20:07Z</time>
      </trkpt>
      <trkpt lat="44.12872" lon="3.10043">
        <ele>380</ele>
        <time>2010-01-01T00:20:09Z</time>
      </trkpt>
      <trkpt lat="44.12876" lon="3.10042">
        <ele>379</ele>
        <time>2010-01-01T00:20:11Z</time>
      </trkpt>
      <trkpt lat="44.1288" lon="3.10039">
        <ele>379</ele>
        <time>2010-01-01T00:20:12Z</time>
      </trkpt>
      <trkpt lat="44.12884" lon="3.10037">
        <ele>378</ele>
        <time>2010-01-01T00:20:14Z</time>
      </trkpt>
      <trkpt lat="44.12889" lon="3.10035">
        <ele>378</ele>
        <time>2010-01-01T00:20:16Z</time>
      </trkpt>
      <trkpt lat="44.12893" lon="3.10033">
        <ele>377</ele>
        <time>2010-01-01T00:20:18Z</time>
      </trkpt>
      <trkpt lat="44.12897" lon="3.10031">
        <ele>377</ele>
        <time>2010-01-01T00:20:20Z</time>
      </trkpt>
      <trkpt lat="44.12903" lon="3.1003">
        <ele>377</ele>
        <time>2010-01-01T00:20:22Z</time>
      </trkpt>
      <trkpt lat="44.12907" lon="3.10028">
        <ele>377</ele>
        <time>2010-01-01T00:20:24Z</time>
      </trkpt>
      <trkpt lat="44.12912" lon="3.10027">
        <ele>376</ele>
        <time>2010-01-01T00:20:26Z</time>
      </trkpt>
      <trkpt lat="44.12917" lon="3.10025">
        <ele>376</ele>
        <time>2010-01-01T00:20:28Z</time>
      </trkpt>
      <trkpt lat="44.12922" lon="3.10024">
        <ele>376</ele>
        <time>2010-01-01T00:20:30Z</time>
      </trkpt>
      <trkpt lat="44.12927" lon="3.10023">
        <ele>376</ele>
        <time>2010-01-01T00:20:32Z</time>
      </trkpt>
      <trkpt lat="44.12932" lon="3.10023">
        <ele>376</ele>
        <time>2010-01-01T00:20:34Z</time>
      </trkpt>
      <trkpt lat="44.12937" lon="3.10025">
        <ele>377</ele>
        <time>2010-01-01T00:20:36Z</time>
      </trkpt>
      <trkpt lat="44.12941" lon="3.10029">
        <ele>377</ele>
        <time>2010-01-01T00:20:38Z</time>
      </trkpt>
      <trkpt lat="44.12944" lon="3.10033">
        <ele>378</ele>
        <time>2010-01-01T00:20:40Z</time>
      </trkpt>
      <trkpt lat="44.12946" lon="3.10039">
        <ele>380</ele>
        <time>2010-01-01T00:20:41Z</time>
      </trkpt>
      <trkpt lat="44.12947" lon="3.10045">
        <ele>381</ele>
        <time>2010-01-01T00:20:43Z</time>
      </trkpt>
      <trkpt lat="44.12948" lon="3.10051">
        <ele>382</ele>
        <time>2010-01-01T00:20:45Z</time>
      </trkpt>
      <trkpt lat="44.12947" lon="3.10056">
        <ele>383</ele>
        <time>2010-01-01T00:20:46Z</time>
      </trkpt>
      <trkpt lat="44.12946" lon="3.10062">
        <ele>384</ele>
        <time>2010-01-01T00:20:48Z</time>
      </trkpt>
      <trkpt lat="44.12944" lon="3.10066">
        <ele>384</ele>
        <time>2010-01-01T00:20:50Z</time>
      </trkpt>
      <trkpt lat="44.12941" lon="3.10069">
        <ele>385</ele>
        <time>2010-01-01T00:20:51Z</time>
      </trkpt>
      <trkpt lat="44.12937" lon="3.10073">
        <ele>385</ele>
        <time>2010-01-01T00:20:53Z</time>
      </trkpt>
      <trkpt lat="44.12934" lon="3.10075">
        <ele>385</ele>
        <time>2010-01-01T00:20:55Z</time>
      </trkpt>
      <trkpt lat="44.1293" lon="3.10078">
        <ele>385</ele>
        <time>2010-01-01T00:20:56Z</time>
      </trkpt>
      <trkpt lat="44.12927" lon="3.1008">
        <ele>386</ele>
        <time>2010-01-01T00:20:58Z</time>
      </trkpt>
      <trkpt lat="44.12923" lon="3.10082">
        <ele>386</ele>
        <time>2010-01-01T00:20:59Z</time>
      </trkpt>
      <trkpt lat="44.1292" lon="3.10085">
        <ele>386</ele>
        <time>2010-01-01T00:21:01Z</time>
      </trkpt>
      <trkpt lat="44.12917" lon="3.10087">
        <ele>386</ele>
        <time>2010-01-01T00:21:02Z</time>
      </trkpt>
      <trkpt lat="44.12914" lon="3.1009">
        <ele>387</ele>
        <time>2010-01-01T00:21:04Z</time>
      </trkpt>
      <trkpt lat="44.1291" lon="3.10091">
        <ele>387</ele>
        <time>2010-01-01T00:21:05Z</time>
      </trkpt>
      <trkpt lat="44.12907" lon="3.10092">
        <ele>387</ele>
        <time>2010-01-01T00:21:06Z</time>
      </trkpt>
      <trkpt lat="44.12904" lon="3.10094">
        <ele>388</ele>
        <time>2010-01-01T00:21:08Z</time>
      </trkpt>
      <trkpt lat="44.12901" lon="3.10097">
        <ele>389</ele>
        <time>2010-01-01T00:21:09Z</time>
      </trkpt>
      <trkpt lat="44.12899" lon="3.101">
        <ele>389</ele>
        <time>2010-01-01T00:21:10Z</time>
      </trkpt>
      <trkpt lat="44.12896" lon="3.10103">
        <ele>390</ele>
        <time>2010-01-01T00:21:12Z</time>
      </trkpt>
      <trkpt lat="44.12894" lon="3.10107">
        <ele>391</ele>
        <time>2010-01-01T00:21:13Z</time>
      </trkpt>
      <trkpt lat="44.12893" lon="3.10112">
        <ele>392</ele>
        <time>2010-01-01T00:21:15Z</time>
      </trkpt>
      <trkpt lat="44.12893" lon="3.10116">
        <ele>393</ele>
        <time>2010-01-01T00:21:16Z</time>
      </trkpt>
      <trkpt lat="44.12892" lon="3.1012">
        <ele>394</ele>
        <time>2010-01-01T00:21:17Z</time>
      </trkpt>
      <trkpt lat="44.12892" lon="3.10125">
        <ele>395</ele>
        <time>2010-01-01T00:21:18Z</time>
      </trkpt>
      <trkpt lat="44.12894" lon="3.10129">
        <ele>395</ele>
        <time>2010-01-01T00:21:20Z</time>
      </trkpt>
      <trkpt lat="44.12895" lon="3.10133">
        <ele>396</ele>
        <time>2010-01-01T00:21:21Z</time>
      </trkpt>
      <trkpt lat="44.12898" lon="3.10137">
        <ele>396</ele>
        <time>2010-01-01T00:21:22Z</time>
      </trkpt>
      <trkpt lat="44.129" lon="3.10141">
        <ele>397</ele>
        <time>2010-01-01T00:21:24Z</time>
      </trkpt>
      <trkpt lat="44.12902" lon="3.10144">
        <ele>397</ele>
        <time>2010-01-01T00:21:25Z</time>
      </trkpt>
      <trkpt lat="44.12905" lon="3.10147">
        <ele>397</ele>
        <time>2010-01-01T00:21:27Z</time>
      </trkpt>
      <trkpt lat="44.12907" lon="3.1015">
        <ele>398</ele>
        <time>2010-01-01T00:21:28Z</time>
      </trkpt>
      <trkpt lat="44.1291" lon="3.10154">
        <ele>399</ele>
        <time>2010-01-01T00:21:29Z</time>
      </trkpt>
      <trkpt lat="44.12912" lon="3.10158">
        <ele>399</ele>
        <time>2010-01-01T00:21:31Z</time>
      </trkpt>
      <trkpt lat="44.12914" lon="3.10162">
        <ele>400</ele>
        <time>2010-01-01T00:21:32Z</time>
      </trkpt>
      <trkpt lat="44.12916" lon="3.10167">
        <ele>401</ele>
        <time>2010-01-01T00:21:34Z</time>
      </trkpt>
      <trkpt lat="44.12918" lon="3.10171">
        <ele>401</ele>
        <time>2010-01-01T00:21:35Z</time>
      </trkpt>
      <trkpt lat="44.1292" lon="3.10175">
        <ele>402</ele>
        <time>2010-01-01T00:21:37Z</time>
      </trkpt>
      <trkpt lat="44.12922" lon="3.10179">
        <ele>402</ele>
        <time>2010-01-01T00:21:38Z</time>
      </trkpt>
      <trkpt lat="44.12924" lon="3.10184">
        <ele>403</ele>
        <time>2010-01-01T00:21:40Z</time>
      </trkpt>
      <trkpt lat="44.12926" lon="3.10188">
        <ele>403</ele>
        <time>2010-01-01T00:21:41Z</time>
      </trkpt>
      <trkpt lat="44.12928" lon="3.10192">
        <ele>404</ele>
        <time>2010-01-01T00:21:43Z</time>
      </trkpt>
      <trkpt lat="44.12931" lon="3.10196">
        <ele>404</ele>
        <time>2010-01-01T00:21:44Z</time>
      </trkpt>
      <trkpt lat="44.12933" lon="3.102">
        <ele>405</ele>
        <time>2010-01-01T00:21:46Z</time>
      </trkpt>
      <trkpt lat="44.12935" lon="3.10204">
        <ele>405</ele>
        <time>2010-01-01T00:21:47Z</time>
      </trkpt>
      <trkpt lat="44.12938" lon="3.10208">
        <ele>406</ele>
        <time>2010-01-01T00:21:49Z</time>
      </trkpt>
      <trkpt lat="44.1294" lon="3.10211">
        <ele>406</ele>
        <time>2010-01-01T00:21:50Z</time>
      </trkpt>
      <trkpt lat="44.12943" lon="3.10214">
        <ele>406</ele>
        <time>2010-01-01T00:21:51Z</time>
      </trkpt>
      <trkpt lat="44.12946" lon="3.10217">
        <ele>406</ele>
        <time>2010-01-01T00:21:53Z</time>
      </trkpt>
      <trkpt lat="44.1295" lon="3.10219">
        <ele>407</ele>
        <time>2010-01-01T00:21:54Z</time>
      </trkpt>
      <trkpt lat="44.12953" lon="3.10221">
        <ele>407</ele>
        <time>2010-01-01T00:21:56Z</time>
      </trkpt>
      <trkpt lat="44.12956" lon="3.10224">
        <ele>407</ele>
        <time>2010-01-01T00:21:57Z</time>
      </trkpt>
      <trkpt lat="44.12959" lon="3.10226">
        <ele>408</ele>
        <time>2010-01-01T00:21:59Z</time>
      </trkpt>
      <trkpt lat="44.12963" lon="3.10228">
        <ele>408</ele>
        <time>2010-01-01T00:22:00Z</time>
      </trkpt>
      <trkpt lat="44.12966" lon="3.10232">
        <ele>408</ele>
        <time>2010-01-01T00:22:02Z</time>
      </trkpt>
      <trkpt lat="44.12967" lon="3.10236">
        <ele>409</ele>
        <time>2010-01-01T00:22:03Z</time>
      </trkpt>
      <trkpt lat="44.12967" lon="3.10241">
        <ele>410</ele>
        <time>2010-01-01T00:22:05Z</time>
      </trkpt>
      <trkpt lat="44.12965" lon="3.10245">
        <ele>411</ele>
        <time>2010-01-01T00:22:06Z</time>
      </trkpt>
      <trkpt lat="44.12962" lon="3.10248">
        <ele>412</ele>
        <time>2010-01-01T00:22:07Z</time>
      </trkpt>
      <trkpt lat="44.12959" lon="3.10249">
        <ele>412</ele>
        <time>2010-01-01T00:22:09Z</time>
      </trkpt>
      <trkpt lat="44.12955" lon="3.10249">
        <ele>412</ele>
        <time>2010-01-01T00:22:10Z</time>
      </trkpt>
      <trkpt lat="44.12951" lon="3.10249">
        <ele>412</ele>
        <time>2010-01-01T00:22:12Z</time>
      </trkpt>
      <trkpt lat="44.12948" lon="3.10248">
        <ele>412</ele>
        <time>2010-01-01T00:22:13Z</time>
      </trkpt>
      <trkpt lat="44.12945" lon="3.10248">
        <ele>412</ele>
        <time>2010-01-01T00:22:14Z</time>
      </trkpt>
      <trkpt lat="44.12941" lon="3.10248">
        <ele>413</ele>
        <time>2010-01-01T00:22:16Z</time>
      </trkpt>
      <trkpt lat="44.12938" lon="3.10247">
        <ele>413</ele>
        <time>2010-01-01T00:22:17Z</time>
      </trkpt>
      <trkpt lat="44.12934" lon="3.10247">
        <ele>414</ele>
        <time>2010-01-01T00:22:18Z</time>
      </trkpt>
      <trkpt lat="44.12931" lon="3.10247">
        <ele>415</ele>
        <time>2010-01-01T00:22:20Z</time>
      </trkpt>
      <trkpt lat="44.12927" lon="3.10246">
        <ele>415</ele>
        <time>2010-01-01T00:22:21Z</time>
      </trkpt>
      <trkpt lat="44.12924" lon="3.10246">
        <ele>416</ele>
        <time>2010-01-01T00:22:23Z</time>
      </trkpt>
      <trkpt lat="44.1292" lon="3.10245">
        <ele>417</ele>
        <time>2010-01-01T00:22:24Z</time>
      </trkpt>
      <trkpt lat="44.12917" lon="3.10244">
        <ele>417</ele>
        <time>2010-01-01T00:22:26Z</time>
      </trkpt>
      <trkpt lat="44.12913" lon="3.10243">
        <ele>417</ele>
        <time>2010-01-01T00:22:27Z</time>
      </trkpt>
      <trkpt lat="44.1291" lon="3.10244">
        <ele>417</ele>
        <time>2010-01-01T00:22:28Z</time>
      </trkpt>
      <trkpt lat="44.12906" lon="3.10244">
        <ele>417</ele>
        <time>2010-01-01T00:22:30Z</time>
      </trkpt>
      <trkpt lat="44.12903" lon="3.10244">
        <ele>417</ele>
        <time>2010-01-01T00:22:31Z</time>
      </trkpt>
      <trkpt lat="44.129" lon="3.10245">
        <ele>417</ele>
        <time>2010-01-01T00:22:32Z</time>
      </trkpt>
      <trkpt lat="44.12896" lon="3.10246">
        <ele>417</ele>
        <time>2010-01-01T00:22:34Z</time>
      </trkpt>
      <trkpt lat="44.12893" lon="3.10247">
        <ele>417</ele>
        <time>2010-01-01T00:22:35Z</time>
      </trkpt>
      <trkpt lat="44.1289" lon="3.10248">
        <ele>417</ele>
        <time>2010-01-01T00:22:37Z</time>
      </trkpt>
      <trkpt lat="44.12887" lon="3.10249">
        <ele>417</ele>
        <time>2010-01-01T00:22:38Z</time>
      </trkpt>
      <trkpt lat="44.12883" lon="3.10251">
        <ele>416</ele>
        <time>2010-01-01T00:22:39Z</time>
      </trkpt>
      <trkpt lat="44.1288" lon="3.10252">
        <ele>416</ele>
        <time>2010-01-01T00:22:41Z</time>
      </trkpt>
      <trkpt lat="44.12878" lon="3.10254">
        <ele>416</ele>
        <time>2010-01-01T00:22:42Z</time>
      </trkpt>
      <trkpt lat="44.12875" lon="3.10256">
        <ele>416</ele>
        <time>2010-01-01T00:22:43Z</time>
      </trkpt>
      <trkpt lat="44.12873" lon="3.10259">
        <ele>417</ele>
        <time>2010-01-01T00:22:44Z</time>
      </trkpt>
      <trkpt lat="44.1287" lon="3.10261">
        <ele>417</ele>
        <time>2010-01-01T00:22:46Z</time>
      </trkpt>
      <trkpt lat="44.12867" lon="3.10263">
        <ele>417</ele>
        <time>2010-01-01T00:22:47Z</time>
      </trkpt>
      <trkpt lat="44.12864" lon="3.10265">
        <ele>417</ele>
        <time>2010-01-01T00:22:48Z</time>
      </trkpt>
      <trkpt lat="44.12861" lon="3.10268">
        <ele>417</ele>
        <time>2010-01-01T00:22:50Z</time>
      </trkpt>
      <trkpt lat="44.12859" lon="3.10273">
        <ele>419</ele>
        <time>2010-01-01T00:22:51Z</time>
      </trkpt>
      <trkpt lat="44.12858" lon="3.10277">
        <ele>420</ele>
        <time>2010-01-01T00:22:52Z</time>
      </trkpt>
      <trkpt lat="44.12856" lon="3.10281">
        <ele>421</ele>
        <time>2010-01-01T00:22:54Z</time>
      </trkpt>
      <trkpt lat="44.12854" lon="3.10285">
        <ele>422</ele>
        <time>2010-01-01T00:22:55Z</time>
      </trkpt>
      <trkpt lat="44.12852" lon="3.10288">
        <ele>422</ele>
        <time>2010-01-01T00:22:56Z</time>
      </trkpt>
      <trkpt lat="44.12851" lon="3.10293">
        <ele>424</ele>
        <time>2010-01-01T00:22:58Z</time>
      </trkpt>
      <trkpt lat="44.12854" lon="3.10296">
        <ele>425</ele>
        <time>2010-01-01T00:22:59Z</time>
      </trkpt>
      <trkpt lat="44.12858" lon="3.10295">
        <ele>425</ele>
        <time>2010-01-01T00:23:01Z</time>
      </trkpt>
      <trkpt lat="44.12861" lon="3.10294">
        <ele>425</ele>
        <time>2010-01-01T00:23:02Z</time>
      </trkpt>
      <trkpt lat="44.12864" lon="3.10293">
        <ele>425</ele>
        <time>2010-01-01T00:23:03Z</time>
      </trkpt>
      <trkpt lat="44.12866" lon="3.10291">
        <ele>425</ele>
        <time>2010-01-01T00:23:04Z</time>
      </trkpt>
      <trkpt lat="44.12868" lon="3.10288">
        <ele>425</ele>
        <time>2010-01-01T00:23:06Z</time>
      </trkpt>
      <trkpt lat="44.12872" lon="3.10287">
        <ele>425</ele>
        <time>2010-01-01T00:23:07Z</time>
      </trkpt>
      <trkpt lat="44.12875" lon="3.10285">
        <ele>425</ele>
        <time>2010-01-01T00:23:08Z</time>
      </trkpt>
      <trkpt lat="44.12878" lon="3.10283">
        <ele>425</ele>
        <time>2010-01-01T00:23:10Z</time>
      </trkpt>
      <trkpt lat="44.12881" lon="3.10282">
        <ele>425</ele>
        <time>2010-01-01T00:23:11Z</time>
      </trkpt>
      <trkpt lat="44.12885" lon="3.10281">
        <ele>426</ele>
        <time>2010-01-01T00:23:13Z</time>
      </trkpt>
      <trkpt lat="44.12889" lon="3.10281">
        <ele>427</ele>
        <time>2010-01-01T00:23:14Z</time>
      </trkpt>
      <trkpt lat="44.12893" lon="3.10281">
        <ele>427</ele>
        <time>2010-01-01T00:23:16Z</time>
      </trkpt>
      <trkpt lat="44.12896" lon="3.10281">
        <ele>427</ele>
        <time>2010-01-01T00:23:17Z</time>
      </trkpt>
      <trkpt lat="44.129" lon="3.10281">
        <ele>427</ele>
        <time>2010-01-01T00:23:19Z</time>
      </trkpt>
      <trkpt lat="44.12903" lon="3.10282">
        <ele>427</ele>
        <time>2010-01-01T00:23:20Z</time>
      </trkpt>
      <trkpt lat="44.12907" lon="3.10282">
        <ele>427</ele>
        <time>2010-01-01T00:23:21Z</time>
      </trkpt>
      <trkpt lat="44.12911" lon="3.10283">
        <ele>428</ele>
        <time>2010-01-01T00:23:23Z</time>
      </trkpt>
      <trkpt lat="44.12914" lon="3.10284">
        <ele>428</ele>
        <time>2010-01-01T00:23:24Z</time>
      </trkpt>
      <trkpt lat="44.12918" lon="3.10286">
        <ele>428</ele>
        <time>2010-01-01T00:23:26Z</time>
      </trkpt>
      <trkpt lat="44.12922" lon="3.10288">
        <ele>428</ele>
        <time>2010-01-01T00:23:28Z</time>
      </trkpt>
      <trkpt lat="44.12926" lon="3.1029">
        <ele>428</ele>
        <time>2010-01-01T00:23:29Z</time>
      </trkpt>
      <trkpt lat="44.1293" lon="3.10293">
        <ele>428</ele>
        <time>2010-01-01T00:23:31Z</time>
      </trkpt>
      <trkpt lat="44.12934" lon="3.10297">
        <ele>429</ele>
        <time>2010-01-01T00:23:33Z</time>
      </trkpt>
      <trkpt lat="44.12941" lon="3.10301">
        <ele>429</ele>
        <time>2010-01-01T00:23:36Z</time>
      </trkpt>
      <trkpt lat="44.1295" lon="3.10304">
        <ele>429</ele>
        <time>2010-01-01T00:23:40Z</time>
      </trkpt>
      <trkpt lat="44.12962" lon="3.10308">
        <ele>429</ele>
        <time>2010-01-01T00:23:45Z</time>
      </trkpt>
      <trkpt lat="44.12974" lon="3.10311">
        <ele>430</ele>
        <time>2010-01-01T00:23:50Z</time>
      </trkpt>
      <trkpt lat="44.12983" lon="3.10315">
        <ele>430</ele>
        <time>2010-01-01T00:23:53Z</time>
      </trkpt>
      <trkpt lat="44.12988" lon="3.10318">
        <ele>430</ele>
        <time>2010-01-01T00:23:55Z</time>
      </trkpt>
      <trkpt lat="44.12992" lon="3.10318">
        <ele>430</ele>
        <time>2010-01-01T00:23:57Z</time>
      </trkpt>
      <trkpt lat="44.12995" lon="3.10319">
        <ele>430</ele>
        <time>2010-01-01T00:23:58Z</time>
      </trkpt>
      <trkpt lat="44.12997" lon="3.1032">
        <ele>430</ele>
        <time>2010-01-01T00:23:59Z</time>
      </trkpt>
      <trkpt lat="44.13" lon="3.1032">
        <ele>430</ele>
        <time>2010-01-01T00:24:01Z</time>
      </trkpt>
      <trkpt lat="44.13004" lon="3.10322">
        <ele>431</ele>
        <time>2010-01-01T00:24:02Z</time>
      </trkpt>
      <trkpt lat="44.13008" lon="3.10324">
        <ele>431</ele>
        <time>2010-01-01T00:24:04Z</time>
      </trkpt>
      <trkpt lat="44.13012" lon="3.10326">
        <ele>432</ele>
        <time>2010-01-01T00:24:05Z</time>
      </trkpt>
      <trkpt lat="44.13015" lon="3.10327">
        <ele>432</ele>
        <time>2010-01-01T00:24:07Z</time>
      </trkpt>
      <trkpt lat="44.13019" lon="3.10329">
        <ele>432</ele>
        <time>2010-01-01T00:24:09Z</time>
      </trkpt>
      <trkpt lat="44.13024" lon="3.1033">
        <ele>433</ele>
        <time>2010-01-01T00:24:10Z</time>
      </trkpt>
      <trkpt lat="44.13028" lon="3.10332">
        <ele>433</ele>
        <time>2010-01-01T00:24:12Z</time>
      </trkpt>
      <trkpt lat="44.13032" lon="3.10333">
        <ele>434</ele>
        <time>2010-01-01T00:24:14Z</time>
      </trkpt>
      <trkpt lat="44.13036" lon="3.10335">
        <ele>435</ele>
        <time>2010-01-01T00:24:16Z</time>
      </trkpt>
      <trkpt lat="44.1304" lon="3.10336">
        <ele>435</ele>
        <time>2010-01-01T00:24:17Z</time>
      </trkpt>
      <trkpt lat="44.13044" lon="3.10338">
        <ele>436</ele>
        <time>2010-01-01T00:24:19Z</time>
      </trkpt>
      <trkpt lat="44.13049" lon="3.10339">
        <ele>437</ele>
        <time>2010-01-01T00:24:21Z</time>
      </trkpt>
      <trkpt lat="44.13053" lon="3.10341">
        <ele>438</ele>
        <time>2010-01-01T00:24:23Z</time>
      </trkpt>
      <trkpt lat="44.13057" lon="3.10342">
        <ele>438</ele>
        <time>2010-01-01T00:24:24Z</time>
      </trkpt>
      <trkpt lat="44.13061" lon="3.10343">
        <ele>439</ele>
        <time>2010-01-01T00:24:26Z</time>
      </trkpt>
      <trkpt lat="44.13065" lon="3.10344">
        <ele>439</ele>
        <time>2010-01-01T00:24:27Z</time>
      </trkpt>
      <trkpt lat="44.13069" lon="3.10345">
        <ele>439</ele>
        <time>2010-01-01T00:24:29Z</time>
      </trkpt>
      <trkpt lat="44.13073" lon="3.10345">
        <ele>439</ele>
        <time>2010-01-01T00:24:31Z</time>
      </trkpt>
      <trkpt lat="44.13076" lon="3.10347">
        <ele>440</ele>
        <time>2010-01-01T00:24:32Z</time>
      </trkpt>
      <trkpt lat="44.13081" lon="3.10348">
        <ele>440</ele>
        <time>2010-01-01T00:24:34Z</time>
      </trkpt>
      <trkpt lat="44.13086" lon="3.10349">
        <ele>441</ele>
        <time>2010-01-01T00:24:36Z</time>
      </trkpt>
      <trkpt lat="44.13091" lon="3.1035">
        <ele>441</ele>
        <time>2010-01-01T00:24:38Z</time>
      </trkpt>
      <trkpt lat="44.13097" lon="3.10351">
        <ele>441</ele>
        <time>2010-01-01T00:24:40Z</time>
      </trkpt>
      <trkpt lat="44.13102" lon="3.10352">
        <ele>441</ele>
        <time>2010-01-01T00:24:42Z</time>
      </trkpt>
      <trkpt lat="44.13107" lon="3.10353">
        <ele>441</ele>
        <time>2010-01-01T00:24:44Z</time>
      </trkpt>
      <trkpt lat="44.13112" lon="3.10354">
        <ele>441</ele>
        <time>2010-01-01T00:24:46Z</time>
      </trkpt>
      <trkpt lat="44.13117" lon="3.10354">
        <ele>441</ele>
        <time>2010-01-01T00:24:48Z</time>
      </trkpt>
      <trkpt lat="44.13122" lon="3.10356">
        <ele>441</ele>
        <time>2010-01-01T00:24:51Z</time>
      </trkpt>
      <trkpt lat="44.13128" lon="3.10357">
        <ele>441</ele>
        <time>2010-01-01T00:24:53Z</time>
      </trkpt>
      <trkpt lat="44.13134" lon="3.10358">
        <ele>441</ele>
        <time>2010-01-01T00:24:56Z</time>
      </trkpt>
      <trkpt lat="44.13141" lon="3.10358">
        <ele>440</ele>
        <time>2010-01-01T00:24:58Z</time>
      </trkpt>
      <trkpt lat="44.13146" lon="3.10356">
        <ele>440</ele>
        <time>2010-01-01T00:25:00Z</time>
      </trkpt>
      <trkpt lat="44.13151" lon="3.10357">
        <ele>439</ele>
        <time>2010-01-01T00:25:02Z</time>
      </trkpt>
      <trkpt lat="44.13158" lon="3.10359">
        <ele>439</ele>
        <time>2010-01-01T00:25:05Z</time>
      </trkpt>
      <trkpt lat="44.13163" lon="3.1036">
        <ele>439</ele>
        <time>2010-01-01T00:25:07Z</time>
      </trkpt>
      <trkpt lat="44.13168" lon="3.1036">
        <ele>439</ele>
        <time>2010-01-01T00:25:09Z</time>
      </trkpt>
      <trkpt lat="44.13173" lon="3.1036">
        <ele>439</ele>
        <time>2010-01-01T00:25:11Z</time>
      </trkpt>
      <trkpt lat="44.13178" lon="3.10361">
        <ele>439</ele>
        <time>2010-01-01T00:25:13Z</time>
      </trkpt>
      <trkpt lat="44.13184" lon="3.1036">
        <ele>439</ele>
        <time>2010-01-01T00:25:15Z</time>
      </trkpt>
      <trkpt lat="44.13192" lon="3.10358">
        <ele>438</ele>
        <time>2010-01-01T00:25:19Z</time>
      </trkpt>
      <trkpt lat="44.132" lon="3.10358">
        <ele>437</ele>
        <time>2010-01-01T00:25:22Z</time>
      </trkpt>
      <trkpt lat="44.13206" lon="3.10361">
        <ele>439</ele>
        <time>2010-01-01T00:25:25Z</time>
      </trkpt>
      <trkpt lat="44.13211" lon="3.10364">
        <ele>439</ele>
        <time>2010-01-01T00:25:27Z</time>
      </trkpt>
      <trkpt lat="44.13214" lon="3.10365">
        <ele>440</ele>
        <time>2010-01-01T00:25:28Z</time>
      </trkpt>
      <trkpt lat="44.13218" lon="3.10367">
        <ele>441</ele>
        <time>2010-01-01T00:25:30Z</time>
      </trkpt>
      <trkpt lat="44.13221" lon="3.10369">
        <ele>442</ele>
        <time>2010-01-01T00:25:31Z</time>
      </trkpt>
      <trkpt lat="44.13224" lon="3.1037">
        <ele>442</ele>
        <time>2010-01-01T00:25:32Z</time>
      </trkpt>
      <trkpt lat="44.13227" lon="3.10372">
        <ele>443</ele>
        <time>2010-01-01T00:25:34Z</time>
      </trkpt>
      <trkpt lat="44.1323" lon="3.10374">
        <ele>444</ele>
        <time>2010-01-01T00:25:35Z</time>
      </trkpt>
      <trkpt lat="44.13233" lon="3.10375">
        <ele>445</ele>
        <time>2010-01-01T00:25:36Z</time>
      </trkpt>
      <trkpt lat="44.13236" lon="3.10376">
        <ele>446</ele>
        <time>2010-01-01T00:25:37Z</time>
      </trkpt>
      <trkpt lat="44.13238" lon="3.10378">
        <ele>446</ele>
        <time>2010-01-01T00:25:38Z</time>
      </trkpt>
      <trkpt lat="44.13241" lon="3.10378">
        <ele>447</ele>
        <time>2010-01-01T00:25:39Z</time>
      </trkpt>
      <trkpt lat="44.13243" lon="3.10379">
        <ele>448</ele>
        <time>2010-01-01T00:25:40Z</time>
      </trkpt>
      <trkpt lat="44.13246" lon="3.10381">
        <ele>449</ele>
        <time>2010-01-01T00:25:42Z</time>
      </trkpt>
      <trkpt lat="44.13249" lon="3.10382">
        <ele>449</ele>
        <time>2010-01-01T00:25:43Z</time>
      </trkpt>
      <trkpt lat="44.13251" lon="3.10383">
        <ele>450</ele>
        <time>2010-01-01T00:25:44Z</time>
      </trkpt>
      <trkpt lat="44.13254" lon="3.10384">
        <ele>451</ele>
        <time>2010-01-01T00:25:45Z</time>
      </trkpt>
      <trkpt lat="44.13256" lon="3.10385">
        <ele>451</ele>
        <time>2010-01-01T00:25:46Z</time>
      </trkpt>
      <trkpt lat="44.13259" lon="3.10386">
        <ele>451</ele>
        <time>2010-01-01T00:25:47Z</time>
      </trkpt>
      <trkpt lat="44.13261" lon="3.10386">
        <ele>451</ele>
        <time>2010-01-01T00:25:48Z</time>
      </trkpt>
      <trkpt lat="44.13264" lon="3.10387">
        <ele>452</ele>
        <time>2010-01-01T00:25:49Z</time>
      </trkpt>
      <trkpt lat="44.13266" lon="3.10387">
        <ele>452</ele>
        <time>2010-01-01T00:25:50Z</time>
      </trkpt>
      <trkpt lat="44.13269" lon="3.10387">
        <ele>452</ele>
        <time>2010-01-01T00:25:51Z</time>
      </trkpt>
      <trkpt lat="44.13272" lon="3.10388">
        <ele>452</ele>
        <time>2010-01-01T00:25:52Z</time>
      </trkpt>
      <trkpt lat="44.13274" lon="3.10388">
        <ele>452</ele>
        <time>2010-01-01T00:25:53Z</time>
      </trkpt>
      <trkpt lat="44.13276" lon="3.10387">
        <ele>452</ele>
        <time>2010-01-01T00:25:54Z</time>
      </trkpt>
      <trkpt lat="44.13279" lon="3.10388">
        <ele>452</ele>
        <time>2010-01-01T00:25:55Z</time>
      </trkpt>
      <trkpt lat="44.13282" lon="3.10388">
        <ele>453</ele>
        <time>2010-01-01T00:25:56Z</time>
      </trkpt>
      <trkpt lat="44.13283" lon="3.10388">
        <ele>453</ele>
        <time>2010-01-01T00:25:57Z</time>
      </trkpt>
      <trkpt lat="44.13286" lon="3.10388">
        <ele>453</ele>
        <time>2010-01-01T00:25:58Z</time>
      </trkpt>
      <trkpt lat="44.13288" lon="3.10388">
        <ele>454</ele>
        <time>2010-01-01T00:25:59Z</time>
      </trkpt>
      <trkpt lat="44.1329" lon="3.10388">
        <ele>454</ele>
        <time>2010-01-01T00:26:00Z</time>
      </trkpt>
      <trkpt lat="44.13293" lon="3.10387">
        <ele>454</ele>
        <time>2010-01-01T00:26:01Z</time>
      </trkpt>
      <trkpt lat="44.13296" lon="3.10386">
        <ele>454</ele>
        <time>2010-01-01T00:26:02Z</time>
      </trkpt>
      <trkpt lat="44.13299" lon="3.10387">
        <ele>455</ele>
        <time>2010-01-01T00:26:03Z</time>
      </trkpt>
      <trkpt lat="44.13301" lon="3.10388">
        <ele>455</ele>
        <time>2010-01-01T00:26:04Z</time>
      </trkpt>
      <trkpt lat="44.13304" lon="3.10388">
        <ele>456</ele>
        <time>2010-01-01T00:26:05Z</time>
      </trkpt>
      <trkpt lat="44.13306" lon="3.10387">
        <ele>456</ele>
        <time>2010-01-01T00:26:06Z</time>
      </trkpt>
      <trkpt lat="44.13309" lon="3.10387">
        <ele>456</ele>
        <time>2010-01-01T00:26:07Z</time>
      </trkpt>
      <trkpt lat="44.13312" lon="3.10387">
        <ele>456</ele>
        <time>2010-01-01T00:26:08Z</time>
      </trkpt>
      <trkpt lat="44.13314" lon="3.10387">
        <ele>456</ele>
        <time>2010-01-01T00:26:09Z</time>
      </trkpt>
      <trkpt lat="44.13317" lon="3.10388">
        <ele>456</ele>
        <time>2010-01-01T00:26:10Z</time>
      </trkpt>
      <trkpt lat="44.1332" lon="3.10387">
        <ele>456</ele>
        <time>2010-01-01T00:26:12Z</time>
      </trkpt>
      <trkpt lat="44.13323" lon="3.10388">
        <ele>457</ele>
        <time>2010-01-01T00:26:13Z</time>
      </trkpt>
      <trkpt lat="44.13325" lon="3.10388">
        <ele>457</ele>
        <time>2010-01-01T00:26:14Z</time>
      </trkpt>
      <trkpt lat="44.13328" lon="3.10388">
        <ele>457</ele>
        <time>2010-01-01T00:26:15Z</time>
      </trkpt>
      <trkpt lat="44.1333" lon="3.10388">
        <ele>457</ele>
        <time>2010-01-01T00:26:16Z</time>
      </trkpt>
      <trkpt lat="44.13333" lon="3.10388">
        <ele>457</ele>
        <time>2010-01-01T00:26:17Z</time>
      </trkpt>
      <trkpt lat="44.13335" lon="3.10388">
        <ele>457</ele>
        <time>2010-01-01T00:26:18Z</time>
      </trkpt>
      <trkpt lat="44.13338" lon="3.10389">
        <ele>457</ele>
        <time>2010-01-01T00:26:19Z</time>
      </trkpt>
      <trkpt lat="44.1334" lon="3.1039">
        <ele>457</ele>
        <time>2010-01-01T00:26:20Z</time>
      </trkpt>
      <trkpt lat="44.13342" lon="3.1039">
        <ele>458</ele>
        <time>2010-01-01T00:26:21Z</time>
      </trkpt>
      <trkpt lat="44.13345" lon="3.10391">
        <ele>458</ele>
        <time>2010-01-01T00:26:22Z</time>
      </trkpt>
      <trkpt lat="44.13346" lon="3.10393">
        <ele>458</ele>
        <time>2010-01-01T00:26:22Z</time>
      </trkpt>
      <trkpt lat="44.13346" lon="3.10393">
        <ele>459</ele>
        <time>2010-01-01T00:26:23Z</time>
      </trkpt>
      <trkpt lat="44.13347" lon="3.10394">
        <ele>459</ele>
        <time>2010-01-01T00:26:23Z</time>
      </trkpt>
      <trkpt lat="44.13348" lon="3.10394">
        <ele>459</ele>
        <time>2010-01-01T00:26:23Z</time>
      </trkpt>
      <trkpt lat="44.1335" lon="3.10394">
        <ele>459</ele>
        <time>2010-01-01T00:26:24Z</time>
      </trkpt>
      <trkpt lat="44.13351" lon="3.10395">
        <ele>459</ele>
        <time>2010-01-01T00:26:25Z</time>
      </trkpt>
      <trkpt lat="44.13353" lon="3.10395">
        <ele>459</ele>
        <time>2010-01-01T00:26:25Z</time>
      </trkpt>
      <trkpt lat="44.13354" lon="3.10396">
        <ele>460</ele>
        <time>2010-01-01T00:26:26Z</time>
      </trkpt>
      <trkpt lat="44.13356" lon="3.10398">
        <ele>460</ele>
        <time>2010-01-01T00:26:27Z</time>
      </trkpt>
      <trkpt lat="44.13356" lon="3.104">
        <ele>461</ele>
        <time>2010-01-01T00:26:27Z</time>
      </trkpt>
      <trkpt lat="44.13356" lon="3.10401">
        <ele>462</ele>
        <time>2010-01-01T00:26:28Z</time>
      </trkpt>
      <trkpt lat="44.13354" lon="3.10403">
        <ele>463</ele>
        <time>2010-01-01T00:26:28Z</time>
      </trkpt>
      <trkpt lat="44.13354" lon="3.10403">
        <ele>463</ele>
        <time>2010-01-01T00:26:29Z</time>
      </trkpt>
      <trkpt lat="44.13353" lon="3.10404">
        <ele>464</ele>
        <time>2010-01-01T00:26:29Z</time>
      </trkpt>
      <trkpt lat="44.13353" lon="3.10405">
        <ele>464</ele>
        <time>2010-01-01T00:26:29Z</time>
      </trkpt>
      <trkpt lat="44.13352" lon="3.10405">
        <ele>464</ele>
        <time>2010-01-01T00:26:30Z</time>
      </trkpt>
      <trkpt lat="44.13351" lon="3.10408">
        <ele>466</ele>
        <time>2010-01-01T00:26:31Z</time>
      </trkpt>
      <trkpt lat="44.13352" lon="3.1041">
        <ele>467</ele>
        <time>2010-01-01T00:26:31Z</time>
      </trkpt>
      <trkpt lat="44.13353" lon="3.10411">
        <ele>467</ele>
        <time>2010-01-01T00:26:32Z</time>
      </trkpt>
      <trkpt lat="44.13355" lon="3.10412">
        <ele>468</ele>
        <time>2010-01-01T00:26:33Z</time>
      </trkpt>
      <trkpt lat="44.13356" lon="3.10413">
        <ele>468</ele>
        <time>2010-01-01T00:26:33Z</time>
      </trkpt>
      <trkpt lat="44.13357" lon="3.10414">
        <ele>468</ele>
        <time>2010-01-01T00:26:34Z</time>
      </trkpt>
      <trkpt lat="44.13359" lon="3.10415">
        <ele>469</ele>
        <time>2010-01-01T00:26:35Z</time>
      </trkpt>
      <trkpt lat="44.13361" lon="3.10415">
        <ele>469</ele>
        <time>2010-01-01T00:26:35Z</time>
      </trkpt>
      <trkpt lat="44.13363" lon="3.10415">
        <ele>468</ele>
        <time>2010-01-01T00:26:36Z</time>
      </trkpt>
      <trkpt lat="44.13364" lon="3.10414">
        <ele>468</ele>
        <time>2010-01-01T00:26:37Z</time>
      </trkpt>
      <trkpt lat="44.13365" lon="3.10414">
        <ele>468</ele>
        <time>2010-01-01T00:26:37Z</time>
      </trkpt>
      <trkpt lat="44.13366" lon="3.10413">
        <ele>468</ele>
        <time>2010-01-01T00:26:38Z</time>
      </trkpt>
      <trkpt lat="44.13369" lon="3.10414">
        <ele>468</ele>
        <time>2010-01-01T00:26:39Z</time>
      </trkpt>
      <trkpt lat="44.13371" lon="3.10414">
        <ele>468</ele>
        <time>2010-01-01T00:26:40Z</time>
      </trkpt>
      <trkpt lat="44.13373" lon="3.10414">
        <ele>468</ele>
        <time>2010-01-01T00:26:40Z</time>
      </trkpt>
      <trkpt lat="44.13375" lon="3.10415">
        <ele>468</ele>
        <time>2010-01-01T00:26:41Z</time>
      </trkpt>
      <trkpt lat="44.13377" lon="3.10415">
        <ele>468</ele>
        <time>2010-01-01T00:26:42Z</time>
      </trkpt>
      <trkpt lat="44.13378" lon="3.10417">
        <ele>469</ele>
        <time>2010-01-01T00:26:43Z</time>
      </trkpt>
      <trkpt lat="44.1338" lon="3.10419">
        <ele>470</ele>
        <time>2010-01-01T00:26:44Z</time>
      </trkpt>
      <trkpt lat="44.13381" lon="3.10421">
        <ele>470</ele>
        <time>2010-01-01T00:26:44Z</time>
      </trkpt>
      <trkpt lat="44.13382" lon="3.10424">
        <ele>471</ele>
        <time>2010-01-01T00:26:45Z</time>
      </trkpt>
      <trkpt lat="44.13383" lon="3.10426">
        <ele>472</ele>
        <time>2010-01-01T00:26:46Z</time>
      </trkpt>
      <trkpt lat="44.13383" lon="3.10429">
        <ele>473</ele>
        <time>2010-01-01T00:26:47Z</time>
      </trkpt>
      <trkpt lat="44.13384" lon="3.10431">
        <ele>473</ele>
        <time>2010-01-01T00:26:47Z</time>
      </trkpt>
      <trkpt lat="44.13385" lon="3.10433">
        <ele>474</ele>
        <time>2010-01-01T00:26:48Z</time>
      </trkpt>
      <trkpt lat="44.13386" lon="3.10436">
        <ele>475</ele>
        <time>2010-01-01T00:26:49Z</time>
      </trkpt>
      <trkpt lat="44.13386" lon="3.10438">
        <ele>476</ele>
        <time>2010-01-01T00:26:50Z</time>
      </trkpt>
      <trkpt lat="44.13386" lon="3.10438">
        <ele>476</ele>
        <time>2010-01-01T00:26:50Z</time>
      </trkpt>
      <trkpt lat="44.13386" lon="3.10438">
        <ele>476</ele>
        <time>2010-01-01T00:26:50Z</time>
      </trkpt>
      <trkpt lat="44.13389" lon="3.10446">
        <ele>478</ele>
        <time>2010-01-01T00:26:52Z</time>
      </trkpt>
      <trkpt lat="44.1339" lon="3.10449">
        <ele>478</ele>
        <time>2010-01-01T00:26:53Z</time>
      </trkpt>
      <trkpt lat="44.13391" lon="3.10453">
        <ele>479</ele>
        <time>2010-01-01T00:26:55Z</time>
      </trkpt>
      <trkpt lat="44.13392" lon="3.10457">
        <ele>479</ele>
        <time>2010-01-01T00:26:56Z</time>
      </trkpt>
      <trkpt lat="44.13393" lon="3.10461">
        <ele>480</ele>
        <time>2010-01-01T00:26:57Z</time>
      </trkpt>
      <trkpt lat="44.13395" lon="3.10465">
        <ele>481</ele>
        <time>2010-01-01T00:26:58Z</time>
      </trkpt>
      <trkpt lat="44.13397" lon="3.1047">
        <ele>481</ele>
        <time>2010-01-01T00:27:00Z</time>
      </trkpt>
      <trkpt lat="44.134" lon="3.10475">
        <ele>481</ele>
        <time>2010-01-01T00:27:02Z</time>
      </trkpt>
      <trkpt lat="44.13404" lon="3.10481">
        <ele>481</ele>
        <time>2010-01-01T00:27:04Z</time>
      </trkpt>
      <trkpt lat="44.1341" lon="3.10486">
        <ele>480</ele>
        <time>2010-01-01T00:27:07Z</time>
      </trkpt>
      <trkpt lat="44.13416" lon="3.10491">
        <ele>479</ele>
        <time>2010-01-01T00:27:10Z</time>
      </trkpt>
      <trkpt lat="44.13422" lon="3.10495">
        <ele>479</ele>
        <time>2010-01-01T00:27:12Z</time>
      </trkpt>
      <trkpt lat="44.13427" lon="3.10499">
        <ele>479</ele>
        <time>2010-01-01T00:27:15Z</time>
      </trkpt>
      <trkpt lat="44.13433" lon="3.10503">
        <ele>479</ele>
        <time>2010-01-01T00:27:17Z</time>
      </trkpt>
      <trkpt lat="44.13439" lon="3.10506">
        <ele>478</ele>
        <time>2010-01-01T00:27:20Z</time>
      </trkpt>
      <trkpt lat="44.13444" lon="3.10509">
        <ele>478</ele>
        <time>2010-01-01T00:27:22Z</time>
      </trkpt>
      <trkpt lat="44.1345" lon="3.10512">
        <ele>479</ele>
        <time>2010-01-01T00:27:25Z</time>
      </trkpt>
      <trkpt lat="44.13456" lon="3.10515">
        <ele>480</ele>
        <time>2010-01-01T00:27:27Z</time>
      </trkpt>
      <trkpt lat="44.13462" lon="3.10518">
        <ele>481</ele>
        <time>2010-01-01T00:27:30Z</time>
      </trkpt>
      <trkpt lat="44.13467" lon="3.1052">
        <ele>481</ele>
        <time>2010-01-01T00:27:32Z</time>
      </trkpt>
      <trkpt lat="44.13472" lon="3.10524">
        <ele>483</ele>
        <time>2010-01-01T00:27:34Z</time>
      </trkpt>
      <trkpt lat="44.13478" lon="3.10528">
        <ele>484</ele>
        <time>2010-01-01T00:27:37Z</time>
      </trkpt>
      <trkpt lat="44.13482" lon="3.1053">
        <ele>484</ele>
        <time>2010-01-01T00:27:39Z</time>
      </trkpt>
      <trkpt lat="44.13487" lon="3.10533">
        <ele>484</ele>
        <time>2010-01-01T00:27:41Z</time>
      </trkpt>
      <trkpt lat="44.13492" lon="3.10536">
        <ele>485</ele>
        <time>2010-01-01T00:27:43Z</time>
      </trkpt>
      <trkpt lat="44.13497" lon="3.10538">
        <ele>485</ele>
        <time>2010-01-01T00:27:45Z</time>
      </trkpt>
      <trkpt lat="44.13502" lon="3.10541">
        <ele>485</ele>
        <time>2010-01-01T00:27:47Z</time>
      </trkpt>
      <trkpt lat="44.13507" lon="3.10544">
        <ele>486</ele>
        <time>2010-01-01T00:27:49Z</time>
      </trkpt>
      <trkpt lat="44.13512" lon="3.10547">
        <ele>486</ele>
        <time>2010-01-01T00:27:51Z</time>
      </trkpt>
      <trkpt lat="44.13517" lon="3.1055">
        <ele>486</ele>
        <time>2010-01-01T00:27:54Z</time>
      </trkpt>
      <trkpt lat="44.13522" lon="3.10552">
        <ele>486</ele>
        <time>2010-01-01T00:27:56Z</time>
      </trkpt>
      <trkpt lat="44.13527" lon="3.10555">
        <ele>486</ele>
        <time>2010-01-01T00:27:58Z</time>
      </trkpt>
      <trkpt lat="44.13532" lon="3.10558">
        <ele>487</ele>
        <time>2010-01-01T00:28:00Z</time>
      </trkpt>
      <trkpt lat="44.13537" lon="3.10561">
        <ele>487</ele>
        <time>2010-01-01T00:28:02Z</time>
      </trkpt>
      <trkpt lat="44.13542" lon="3.10563">
        <ele>487</ele>
        <time>2010-01-01T00:28:04Z</time>
      </trkpt>
      <trkpt lat="44.13547" lon="3.10567">
        <ele>487</ele>
        <time>2010-01-01T00:28:06Z</time>
      </trkpt>
      <trkpt lat="44.13551" lon="3.10569">
        <ele>487</ele>
        <time>2010-01-01T00:28:09Z</time>
      </trkpt>
      <trkpt lat="44.13556" lon="3.10572">
        <ele>487</ele>
        <time>2010-01-01T00:28:10Z</time>
      </trkpt>
      <trkpt lat="44.13561" lon="3.10575">
        <ele>487</ele>
        <time>2010-01-01T00:28:13Z</time>
      </trkpt>
      <trkpt lat="44.13566" lon="3.10577">
        <ele>487</ele>
        <time>2010-01-01T00:28:15Z</time>
      </trkpt>
      <trkpt lat="44.13571" lon="3.1058">
        <ele>487</ele>
        <time>2010-01-01T00:28:17Z</time>
      </trkpt>
      <trkpt lat="44.13576" lon="3.10583">
        <ele>487</ele>
        <time>2010-01-01T00:28:19Z</time>
      </trkpt>
      <trkpt lat="44.13581" lon="3.10586">
        <ele>487</ele>
        <time>2010-01-01T00:28:21Z</time>
      </trkpt>
      <trkpt lat="44.13587" lon="3.10588">
        <ele>488</ele>
        <time>2010-01-01T00:28:24Z</time>
      </trkpt>
      <trkpt lat="44.13592" lon="3.10591">
        <ele>488</ele>
        <time>2010-01-01T00:28:26Z</time>
      </trkpt>
      <trkpt lat="44.13597" lon="3.10594">
        <ele>488</ele>
        <time>2010-01-01T00:28:28Z</time>
      </trkpt>
      <trkpt lat="44.13602" lon="3.10597">
        <ele>488</ele>
        <time>2010-01-01T00:28:30Z</time>
      </trkpt>
      <trkpt lat="44.13608" lon="3.106">
        <ele>488</ele>
        <time>2010-01-01T00:28:33Z</time>
      </trkpt>
      <trkpt lat="44.13613" lon="3.10602">
        <ele>488</ele>
        <time>2010-01-01T00:28:35Z</time>
      </trkpt>
      <trkpt lat="44.13618" lon="3.10606">
        <ele>488</ele>
        <time>2010-01-01T00:28:37Z</time>
      </trkpt>
      <trkpt lat="44.13624" lon="3.10609">
        <ele>488</ele>
        <time>2010-01-01T00:28:40Z</time>
      </trkpt>
      <trkpt lat="44.13629" lon="3.10613">
        <ele>488</ele>
        <time>2010-01-01T00:28:42Z</time>
      </trkpt>
      <trkpt lat="44.13635" lon="3.10616">
        <ele>488</ele>
        <time>2010-01-01T00:28:45Z</time>
      </trkpt>
      <trkpt lat="44.13641" lon="3.1062">
        <ele>488</ele>
        <time>2010-01-01T00:28:47Z</time>
      </trkpt>
      <trkpt lat="44.13647" lon="3.10625">
        <ele>488</ele>
        <time>2010-01-01T00:28:50Z</time>
      </trkpt>
      <trkpt lat="44.13654" lon="3.10628">
        <ele>488</ele>
        <time>2010-01-01T00:28:53Z</time>
      </trkpt>
      <trkpt lat="44.13661" lon="3.10632">
        <ele>488</ele>
        <time>2010-01-01T00:28:56Z</time>
      </trkpt>
      <trkpt lat="44.13669" lon="3.10636">
        <ele>487</ele>
        <time>2010-01-01T00:28:59Z</time>
      </trkpt>
      <trkpt lat="44.13678" lon="3.10641">
        <ele>487</ele>
        <time>2010-01-01T00:29:03Z</time>
      </trkpt>
      <trkpt lat="44.13688" lon="3.10648">
        <ele>486</ele>
        <time>2010-01-01T00:29:08Z</time>
      </trkpt>
      <trkpt lat="44.13699" lon="3.10656">
        <ele>485</ele>
        <time>2010-01-01T00:29:13Z</time>
      </trkpt>
      <trkpt lat="44.13711" lon="3.10665">
        <ele>485</ele>
        <time>2010-01-01T00:29:18Z</time>
      </trkpt>
      <trkpt lat="44.13724" lon="3.10672">
        <ele>484</ele>
        <time>2010-01-01T00:29:24Z</time>
      </trkpt>
      <trkpt lat="44.13739" lon="3.10677">
        <ele>482</ele>
        <time>2010-01-01T00:29:30Z</time>
      </trkpt>
      <trkpt lat="44.13756" lon="3.10682">
        <ele>480</ele>
        <time>2010-01-01T00:29:37Z</time>
      </trkpt>
      <trkpt lat="44.13773" lon="3.10684">
        <ele>477</ele>
        <time>2010-01-01T00:29:44Z</time>
      </trkpt>
      <trkpt lat="44.13791" lon="3.10686">
        <ele>475</ele>
        <time>2010-01-01T00:29:51Z</time>
      </trkpt>
      <trkpt lat="44.13807" lon="3.1069">
        <ele>474</ele>
        <time>2010-01-01T00:29:57Z</time>
      </trkpt>
      <trkpt lat="44.13822" lon="3.10693">
        <ele>474</ele>
        <time>2010-01-01T00:30:04Z</time>
      </trkpt>
      <trkpt lat="44.13835" lon="3.10692">
        <ele>473</ele>
        <time>2010-01-01T00:30:09Z</time>
      </trkpt>
      <trkpt lat="44.13846" lon="3.1068">
        <ele>473</ele>
        <time>2010-01-01T00:30:14Z</time>
      </trkpt>
      <trkpt lat="44.13855" lon="3.10664">
        <ele>473</ele>
        <time>2010-01-01T00:30:20Z</time>
      </trkpt>
      <trkpt lat="44.13865" lon="3.10656">
        <ele>472</ele>
        <time>2010-01-01T00:30:25Z</time>
      </trkpt>
      <trkpt lat="44.13877" lon="3.10664">
        <ele>471</ele>
        <time>2010-01-01T00:30:30Z</time>
      </trkpt>
      <trkpt lat="44.13889" lon="3.10676">
        <ele>471</ele>
        <time>2010-01-01T00:30:36Z</time>
      </trkpt>
      <trkpt lat="44.13902" lon="3.10689">
        <ele>469</ele>
        <time>2010-01-01T00:30:43Z</time>
      </trkpt>
      <trkpt lat="44.13916" lon="3.10703">
        <ele>468</ele>
        <time>2010-01-01T00:30:49Z</time>
      </trkpt>
      <trkpt lat="44.1393" lon="3.10716">
        <ele>467</ele>
        <time>2010-01-01T00:30:56Z</time>
      </trkpt>
      <trkpt lat="44.13943" lon="3.10728">
        <ele>466</ele>
        <time>2010-01-01T00:31:02Z</time>
      </trkpt>
      <trkpt lat="44.13955" lon="3.10739">
        <ele>466</ele>
        <time>2010-01-01T00:31:08Z</time>
      </trkpt>
      <trkpt lat="44.13967" lon="3.10752">
        <ele>465</ele>
        <time>2010-01-01T00:31:14Z</time>
      </trkpt>
      <trkpt lat="44.13976" lon="3.10767">
        <ele>466</ele>
        <time>2010-01-01T00:31:20Z</time>
      </trkpt>
      <trkpt lat="44.13984" lon="3.10782">
        <ele>466</ele>
        <time>2010-01-01T00:31:25Z</time>
      </trkpt>
      <trkpt lat="44.13992" lon="3.10797">
        <ele>466</ele>
        <time>2010-01-01T00:31:31Z</time>
      </trkpt>
      <trkpt lat="44.13998" lon="3.10813">
        <ele>466</ele>
        <time>2010-01-01T00:31:36Z</time>
      </trkpt>
      <trkpt lat="44.14006" lon="3.10827">
        <ele>467</ele>
        <time>2010-01-01T00:31:41Z</time>
      </trkpt>
      <trkpt lat="44.14014" lon="3.1084">
        <ele>466</ele>
        <time>2010-01-01T00:31:46Z</time>
      </trkpt>
      <trkpt lat="44.14022" lon="3.10854">
        <ele>465</ele>
        <time>2010-01-01T00:31:51Z</time>
      </trkpt>
      <trkpt lat="44.14029" lon="3.10868">
        <ele>465</ele>
        <time>2010-01-01T00:31:56Z</time>
      </trkpt>
      <trkpt lat="44.14036" lon="3.10883">
        <ele>464</ele>
        <time>2010-01-01T00:32:01Z</time>
      </trkpt>
      <trkpt lat="44.14042" lon="3.10897">
        <ele>465</ele>
        <time>2010-01-01T00:32:06Z</time>
      </trkpt>
      <trkpt lat="44.14048" lon="3.1091">
        <ele>466</ele>
        <time>2010-01-01T00:32:10Z</time>
      </trkpt>
      <trkpt lat="44.14053" lon="3.10922">
        <ele>467</ele>
        <time>2010-01-01T00:32:14Z</time>
      </trkpt>
      <trkpt lat="44.14059" lon="3.10932">
        <ele>467</ele>
        <time>2010-01-01T00:32:18Z</time>
      </trkpt>
      <trkpt lat="44.14066" lon="3.1094">
        <ele>467</ele>
        <time>2010-01-01T00:32:21Z</time>
      </trkpt>
      <trkpt lat="44.14073" lon="3.10947">
        <ele>467</ele>
        <time>2010-01-01T00:32:25Z</time>
      </trkpt>
      <trkpt lat="44.1408" lon="3.10956">
        <ele>467</ele>
        <time>2010-01-01T00:32:29Z</time>
      </trkpt>
      <trkpt lat="44.14086" lon="3.10966">
        <ele>467</ele>
        <time>2010-01-01T00:32:33Z</time>
      </trkpt>
      <trkpt lat="44.14093" lon="3.10978">
        <ele>467</ele>
        <time>2010-01-01T00:32:37Z</time>
      </trkpt>
      <trkpt lat="44.14098" lon="3.10991">
        <ele>467</ele>
        <time>2010-01-01T00:32:41Z</time>
      </trkpt>
      <trkpt lat="44.14101" lon="3.11005">
        <ele>468</ele>
        <time>2010-01-01T00:32:45Z</time>
      </trkpt>
      <trkpt lat="44.14102" lon="3.1102">
        <ele>469</ele>
        <time>2010-01-01T00:32:49Z</time>
      </trkpt>
      <trkpt lat="44.14102" lon="3.11033">
        <ele>470</ele>
        <time>2010-01-01T00:32:53Z</time>
      </trkpt>
      <trkpt lat="44.14102" lon="3.11045">
        <ele>471</ele>
        <time>2010-01-01T00:32:57Z</time>
      </trkpt>
      <trkpt lat="44.14102" lon="3.11056">
        <ele>472</ele>
        <time>2010-01-01T00:33:00Z</time>
      </trkpt>
      <trkpt lat="44.14102" lon="3.11066">
        <ele>473</ele>
        <time>2010-01-01T00:33:03Z</time>
      </trkpt>
      <trkpt lat="44.14104" lon="3.11074">
        <ele>473</ele>
        <time>2010-01-01T00:33:05Z</time>
      </trkpt>
      <trkpt lat="44.14105" lon="3.11083">
        <ele>474</ele>
        <time>2010-01-01T00:33:08Z</time>
      </trkpt>
      <trkpt lat="44.14106" lon="3.11091">
        <ele>474</ele>
        <time>2010-01-01T00:33:10Z</time>
      </trkpt>
      <trkpt lat="44.14109" lon="3.11099">
        <ele>475</ele>
        <time>2010-01-01T00:33:13Z</time>
      </trkpt>
      <trkpt lat="44.14112" lon="3.11106">
        <ele>475</ele>
        <time>2010-01-01T00:33:15Z</time>
      </trkpt>
      <trkpt lat="44.14114" lon="3.11114">
        <ele>476</ele>
        <time>2010-01-01T00:33:17Z</time>
      </trkpt>
      <trkpt lat="44.14113" lon="3.11121">
        <ele>476</ele>
        <time>2010-01-01T00:33:19Z</time>
      </trkpt>
      <trkpt lat="44.14113" lon="3.11129">
        <ele>477</ele>
        <time>2010-01-01T00:33:22Z</time>
      </trkpt>
      <trkpt lat="44.14113" lon="3.11136">
        <ele>478</ele>
        <time>2010-01-01T00:33:24Z</time>
      </trkpt>
      <trkpt lat="44.14112" lon="3.11143">
        <ele>479</ele>
        <time>2010-01-01T00:33:26Z</time>
      </trkpt>
      <trkpt lat="44.14112" lon="3.1115">
        <ele>479</ele>
        <time>2010-01-01T00:33:28Z</time>
      </trkpt>
      <trkpt lat="44.14113" lon="3.11156">
        <ele>480</ele>
        <time>2010-01-01T00:33:30Z</time>
      </trkpt>
      <trkpt lat="44.14114" lon="3.11163">
        <ele>480</ele>
        <time>2010-01-01T00:33:32Z</time>
      </trkpt>
      <trkpt lat="44.14115" lon="3.11169">
        <ele>480</ele>
        <time>2010-01-01T00:33:33Z</time>
      </trkpt>
      <trkpt lat="44.14118" lon="3.11175">
        <ele>481</ele>
        <time>2010-01-01T00:33:35Z</time>
      </trkpt>
      <trkpt lat="44.1412" lon="3.11181">
        <ele>482</ele>
        <time>2010-01-01T00:33:37Z</time>
      </trkpt>
      <trkpt lat="44.14122" lon="3.11186">
        <ele>482</ele>
        <time>2010-01-01T00:33:39Z</time>
      </trkpt>
      <trkpt lat="44.14124" lon="3.11192">
        <ele>483</ele>
        <time>2010-01-01T00:33:41Z</time>
      </trkpt>
      <trkpt lat="44.14127" lon="3.11196">
        <ele>483</ele>
        <time>2010-01-01T00:33:43Z</time>
      </trkpt>
      <trkpt lat="44.1413" lon="3.112">
        <ele>483</ele>
        <time>2010-01-01T00:33:44Z</time>
      </trkpt>
      <trkpt lat="44.14135" lon="3.11202">
        <ele>483</ele>
        <time>2010-01-01T00:33:46Z</time>
      </trkpt>
      <trkpt lat="44.1414" lon="3.11202">
        <ele>483</ele>
        <time>2010-01-01T00:33:48Z</time>
      </trkpt>
      <trkpt lat="44.14145" lon="3.112">
        <ele>483</ele>
        <time>2010-01-01T00:33:50Z</time>
      </trkpt>
      <trkpt lat="44.1415" lon="3.11198">
        <ele>483</ele>
        <time>2010-01-01T00:33:53Z</time>
      </trkpt>
      <trkpt lat="44.14155" lon="3.11195">
        <ele>483</ele>
        <time>2010-01-01T00:33:55Z</time>
      </trkpt>
      <trkpt lat="44.1416" lon="3.11191">
        <ele>483</ele>
        <time>2010-01-01T00:33:57Z</time>
      </trkpt>
      <trkpt lat="44.14165" lon="3.11186">
        <ele>483</ele>
        <time>2010-01-01T00:33:59Z</time>
      </trkpt>
      <trkpt lat="44.14169" lon="3.1118">
        <ele>482</ele>
        <time>2010-01-01T00:34:02Z</time>
      </trkpt>
      <trkpt lat="44.14174" lon="3.11176">
        <ele>482</ele>
        <time>2010-01-01T00:34:04Z</time>
      </trkpt>
      <trkpt lat="44.14179" lon="3.11171">
        <ele>482</ele>
        <time>2010-01-01T00:34:06Z</time>
      </trkpt>
      <trkpt lat="44.14183" lon="3.11166">
        <ele>482</ele>
        <time>2010-01-01T00:34:09Z</time>
      </trkpt>
      <trkpt lat="44.14188" lon="3.11162">
        <ele>482</ele>
        <time>2010-01-01T00:34:11Z</time>
      </trkpt>
      <trkpt lat="44.14194" lon="3.11158">
        <ele>482</ele>
        <time>2010-01-01T00:34:14Z</time>
      </trkpt>
      <trkpt lat="44.14199" lon="3.11153">
        <ele>483</ele>
        <time>2010-01-01T00:34:16Z</time>
      </trkpt>
      <trkpt lat="44.14204" lon="3.11149">
        <ele>483</ele>
        <time>2010-01-01T00:34:18Z</time>
      </trkpt>
      <trkpt lat="44.14209" lon="3.11144">
        <ele>484</ele>
        <time>2010-01-01T00:34:21Z</time>
      </trkpt>
      <trkpt lat="44.14214" lon="3.11139">
        <ele>484</ele>
        <time>2010-01-01T00:34:23Z</time>
      </trkpt>
      <trkpt lat="44.14219" lon="3.11134">
        <ele>485</ele>
        <time>2010-01-01T00:34:26Z</time>
      </trkpt>
      <trkpt lat="44.14223" lon="3.11129">
        <ele>485</ele>
        <time>2010-01-01T00:34:28Z</time>
      </trkpt>
      <trkpt lat="44.14228" lon="3.11124">
        <ele>485</ele>
        <time>2010-01-01T00:34:30Z</time>
      </trkpt>
      <trkpt lat="44.14232" lon="3.11119">
        <ele>485</ele>
        <time>2010-01-01T00:34:33Z</time>
      </trkpt>
      <trkpt lat="44.14237" lon="3.11115">
        <ele>486</ele>
        <time>2010-01-01T00:34:35Z</time>
      </trkpt>
      <trkpt lat="44.14242" lon="3.11111">
        <ele>486</ele>
        <time>2010-01-01T00:34:37Z</time>
      </trkpt>
      <trkpt lat="44.14246" lon="3.11106">
        <ele>486</ele>
        <time>2010-01-01T00:34:39Z</time>
      </trkpt>
      <trkpt lat="44.14251" lon="3.111">
        <ele>486</ele>
        <time>2010-01-01T00:34:42Z</time>
      </trkpt>
      <trkpt lat="44.14255" lon="3.11095">
        <ele>485</ele>
        <time>2010-01-01T00:34:44Z</time>
      </trkpt>
      <trkpt lat="44.1426" lon="3.11089">
        <ele>485</ele>
        <time>2010-01-01T00:34:47Z</time>
      </trkpt>
      <trkpt lat="44.14266" lon="3.11084">
        <ele>485</ele>
        <time>2010-01-01T00:34:49Z</time>
      </trkpt>
      <trkpt lat="44.14272" lon="3.11078">
        <ele>485</ele>
        <time>2010-01-01T00:34:52Z</time>
      </trkpt>
      <trkpt lat="44.14279" lon="3.11072">
        <ele>485</ele>
        <time>2010-01-01T00:34:56Z</time>
      </trkpt>
      <trkpt lat="44.14286" lon="3.11066">
        <ele>484</ele>
        <time>2010-01-01T00:34:59Z</time>
      </trkpt>
      <trkpt lat="44.14293" lon="3.11061">
        <ele>484</ele>
        <time>2010-01-01T00:35:02Z</time>
      </trkpt>
      <trkpt lat="44.143" lon="3.11055">
        <ele>483</ele>
        <time>2010-01-01T00:35:06Z</time>
      </trkpt>
      <trkpt lat="44.14308" lon="3.11051">
        <ele>483</ele>
        <time>2010-01-01T00:35:09Z</time>
      </trkpt>
      <trkpt lat="44.14317" lon="3.11048">
        <ele>483</ele>
        <time>2010-01-01T00:35:12Z</time>
      </trkpt>
      <trkpt lat="44.14326" lon="3.11046">
        <ele>483</ele>
        <time>2010-01-01T00:35:16Z</time>
      </trkpt>
      <trkpt lat="44.14335" lon="3.11044">
        <ele>483</ele>
        <time>2010-01-01T00:35:20Z</time>
      </trkpt>
      <trkpt lat="44.14344" lon="3.11042">
        <ele>484</ele>
        <time>2010-01-01T00:35:24Z</time>
      </trkpt>
      <trkpt lat="44.14352" lon="3.1104">
        <ele>486</ele>
        <time>2010-01-01T00:35:27Z</time>
      </trkpt>
      <trkpt lat="44.1436" lon="3.11038">
        <ele>486</ele>
        <time>2010-01-01T00:35:30Z</time>
      </trkpt>
      <trkpt lat="44.14366" lon="3.11037">
        <ele>487</ele>
        <time>2010-01-01T00:35:33Z</time>
      </trkpt>
      <trkpt lat="44.14372" lon="3.11036">
        <ele>487</ele>
        <time>2010-01-01T00:35:35Z</time>
      </trkpt>
      <trkpt lat="44.14378" lon="3.11035">
        <ele>488</ele>
        <time>2010-01-01T00:35:37Z</time>
      </trkpt>
      <trkpt lat="44.14384" lon="3.11035">
        <ele>488</ele>
        <time>2010-01-01T00:35:39Z</time>
      </trkpt>
      <trkpt lat="44.14389" lon="3.11034">
        <ele>488</ele>
        <time>2010-01-01T00:35:42Z</time>
      </trkpt>
      <trkpt lat="44.14395" lon="3.11033">
        <ele>489</ele>
        <time>2010-01-01T00:35:44Z</time>
      </trkpt>
      <trkpt lat="44.144" lon="3.11032">
        <ele>489</ele>
        <time>2010-01-01T00:35:46Z</time>
      </trkpt>
      <trkpt lat="44.14405" lon="3.11031">
        <ele>489</ele>
        <time>2010-01-01T00:35:48Z</time>
      </trkpt>
      <trkpt lat="44.14411" lon="3.1103">
        <ele>489</ele>
        <time>2010-01-01T00:35:50Z</time>
      </trkpt>
      <trkpt lat="44.14416" lon="3.11029">
        <ele>490</ele>
        <time>2010-01-01T00:35:53Z</time>
      </trkpt>
      <trkpt lat="44.14422" lon="3.11028">
        <ele>490</ele>
        <time>2010-01-01T00:35:55Z</time>
      </trkpt>
      <trkpt lat="44.14427" lon="3.11027">
        <ele>490</ele>
        <time>2010-01-01T00:35:57Z</time>
      </trkpt>
      <trkpt lat="44.14432" lon="3.11026">
        <ele>490</ele>
        <time>2010-01-01T00:35:59Z</time>
      </trkpt>
      <trkpt lat="44.14438" lon="3.11026">
        <ele>490</ele>
        <time>2010-01-01T00:36:01Z</time>
      </trkpt>
      <trkpt lat="44.14444" lon="3.11025">
        <ele>490</ele>
        <time>2010-01-01T00:36:04Z</time>
      </trkpt>
      <trkpt lat="44.14449" lon="3.11024">
        <ele>490</ele>
        <time>2010-01-01T00:36:06Z</time>
      </trkpt>
      <trkpt lat="44.14455" lon="3.11023">
        <ele>490</ele>
        <time>2010-01-01T00:36:08Z</time>
      </trkpt>
      <trkpt lat="44.1446" lon="3.11022">
        <ele>491</ele>
        <time>2010-01-01T00:36:10Z</time>
      </trkpt>
      <trkpt lat="44.14465" lon="3.11021">
        <ele>491</ele>
        <time>2010-01-01T00:36:12Z</time>
      </trkpt>
      <trkpt lat="44.1447" lon="3.1102">
        <ele>491</ele>
        <time>2010-01-01T00:36:15Z</time>
      </trkpt>
      <trkpt lat="44.14476" lon="3.11019">
        <ele>491</ele>
        <time>2010-01-01T00:36:17Z</time>
      </trkpt>
      <trkpt lat="44.14481" lon="3.11018">
        <ele>492</ele>
        <time>2010-01-01T00:36:19Z</time>
      </trkpt>
      <trkpt lat="44.14486" lon="3.11017">
        <ele>493</ele>
        <time>2010-01-01T00:36:21Z</time>
      </trkpt>
      <trkpt lat="44.14491" lon="3.11017">
        <ele>494</ele>
        <time>2010-01-01T00:36:23Z</time>
      </trkpt>
      <trkpt lat="44.14497" lon="3.11017">
        <ele>495</ele>
        <time>2010-01-01T00:36:25Z</time>
      </trkpt>
      <trkpt lat="44.14502" lon="3.11016">
        <ele>495</ele>
        <time>2010-01-01T00:36:27Z</time>
      </trkpt>
      <trkpt lat="44.14507" lon="3.11015">
        <ele>495</ele>
        <time>2010-01-01T00:36:29Z</time>
      </trkpt>
      <trkpt lat="44.14512" lon="3.11014">
        <ele>496</ele>
        <time>2010-01-01T00:36:31Z</time>
      </trkpt>
      <trkpt lat="44.14517" lon="3.11013">
        <ele>496</ele>
        <time>2010-01-01T00:36:33Z</time>
      </trkpt>
      <trkpt lat="44.14523" lon="3.11012">
        <ele>496</ele>
        <time>2010-01-01T00:36:36Z</time>
      </trkpt>
      <trkpt lat="44.14528" lon="3.11011">
        <ele>496</ele>
        <time>2010-01-01T00:36:38Z</time>
      </trkpt>
      <trkpt lat="44.14533" lon="3.1101">
        <ele>496</ele>
        <time>2010-01-01T00:36:40Z</time>
      </trkpt>
      <trkpt lat="44.14538" lon="3.11009">
        <ele>496</ele>
        <time>2010-01-01T00:36:42Z</time>
      </trkpt>
      <trkpt lat="44.14543" lon="3.11008">
        <ele>496</ele>
        <time>2010-01-01T00:36:44Z</time>
      </trkpt>
      <trkpt lat="44.14548" lon="3.11007">
        <ele>496</ele>
        <time>2010-01-01T00:36:46Z</time>
      </trkpt>
      <trkpt lat="44.14554" lon="3.11006">
        <ele>496</ele>
        <time>2010-01-01T00:36:48Z</time>
      </trkpt>
      <trkpt lat="44.1456" lon="3.11004">
        <ele>496</ele>
        <time>2010-01-01T00:36:51Z</time>
      </trkpt>
      <trkpt lat="44.14565" lon="3.11003">
        <ele>495</ele>
        <time>2010-01-01T00:36:53Z</time>
      </trkpt>
      <trkpt lat="44.14572" lon="3.11001">
        <ele>495</ele>
        <time>2010-01-01T00:36:56Z</time>
      </trkpt>
      <trkpt lat="44.14578" lon="3.11">
        <ele>495</ele>
        <time>2010-01-01T00:36:58Z</time>
      </trkpt>
      <trkpt lat="44.14585" lon="3.11">
        <ele>495</ele>
        <time>2010-01-01T00:37:01Z</time>
      </trkpt>
      <trkpt lat="44.14591" lon="3.10999">
        <ele>496</ele>
        <time>2010-01-01T00:37:03Z</time>
      </trkpt>
      <trkpt lat="44.14598" lon="3.10999">
        <ele>496</ele>
        <time>2010-01-01T00:37:06Z</time>
      </trkpt>
      <trkpt lat="44.14604" lon="3.11">
        <ele>496</ele>
        <time>2010-01-01T00:37:09Z</time>
      </trkpt>
      <trkpt lat="44.14611" lon="3.11001">
        <ele>497</ele>
        <time>2010-01-01T00:37:11Z</time>
      </trkpt>
      <trkpt lat="44.14617" lon="3.11001">
        <ele>497</ele>
        <time>2010-01-01T00:37:14Z</time>
      </trkpt>
      <trkpt lat="44.14623" lon="3.11001">
        <ele>497</ele>
        <time>2010-01-01T00:37:16Z</time>
      </trkpt>
      <trkpt lat="44.1463" lon="3.11">
        <ele>497</ele>
        <time>2010-01-01T00:37:19Z</time>
      </trkpt>
      <trkpt lat="44.14636" lon="3.10999">
        <ele>496</ele>
        <time>2010-01-01T00:37:21Z</time>
      </trkpt>
      <trkpt lat="44.14642" lon="3.10997">
        <ele>496</ele>
        <time>2010-01-01T00:37:24Z</time>
      </trkpt>
      <trkpt lat="44.14648" lon="3.10997">
        <ele>496</ele>
        <time>2010-01-01T00:37:26Z</time>
      </trkpt>
      <trkpt lat="44.14654" lon="3.10996">
        <ele>496</ele>
        <time>2010-01-01T00:37:29Z</time>
      </trkpt>
      <trkpt lat="44.1466" lon="3.10996">
        <ele>496</ele>
        <time>2010-01-01T00:37:31Z</time>
      </trkpt>
      <trkpt lat="44.14665" lon="3.10995">
        <ele>495</ele>
        <time>2010-01-01T00:37:33Z</time>
      </trkpt>
      <trkpt lat="44.14673" lon="3.10992">
        <ele>495</ele>
        <time>2010-01-01T00:37:36Z</time>
      </trkpt>
      <trkpt lat="44.14685" lon="3.10987">
        <ele>495</ele>
        <time>2010-01-01T00:37:41Z</time>
      </trkpt>
      <trkpt lat="44.14697" lon="3.10984">
        <ele>495</ele>
        <time>2010-01-01T00:37:46Z</time>
      </trkpt>
      <trkpt lat="44.14703" lon="3.10983">
        <ele>496</ele>
        <time>2010-01-01T00:37:49Z</time>
      </trkpt>
      <trkpt lat="44.14708" lon="3.10983">
        <ele>496</ele>
        <time>2010-01-01T00:37:51Z</time>
      </trkpt>
      <trkpt lat="44.14712" lon="3.10982">
        <ele>497</ele>
        <time>2010-01-01T00:37:52Z</time>
      </trkpt>
      <trkpt lat="44.14716" lon="3.10982">
        <ele>497</ele>
        <time>2010-01-01T00:37:54Z</time>
      </trkpt>
      <trkpt lat="44.14719" lon="3.10981">
        <ele>498</ele>
        <time>2010-01-01T00:37:55Z</time>
      </trkpt>
      <trkpt lat="44.14723" lon="3.1098">
        <ele>498</ele>
        <time>2010-01-01T00:37:57Z</time>
      </trkpt>
      <trkpt lat="44.14727" lon="3.10978">
        <ele>498</ele>
        <time>2010-01-01T00:37:58Z</time>
      </trkpt>
      <trkpt lat="44.1473" lon="3.10976">
        <ele>498</ele>
        <time>2010-01-01T00:38:00Z</time>
      </trkpt>
      <trkpt lat="44.14734" lon="3.10975">
        <ele>498</ele>
        <time>2010-01-01T00:38:01Z</time>
      </trkpt>
      <trkpt lat="44.14738" lon="3.10973">
        <ele>498</ele>
        <time>2010-01-01T00:38:03Z</time>
      </trkpt>
      <trkpt lat="44.14741" lon="3.10972">
        <ele>498</ele>
        <time>2010-01-01T00:38:04Z</time>
      </trkpt>
      <trkpt lat="44.14745" lon="3.1097">
        <ele>499</ele>
        <time>2010-01-01T00:38:06Z</time>
      </trkpt>
      <trkpt lat="44.14749" lon="3.10968">
        <ele>499</ele>
        <time>2010-01-01T00:38:08Z</time>
      </trkpt>
      <trkpt lat="44.14753" lon="3.10967">
        <ele>499</ele>
        <time>2010-01-01T00:38:09Z</time>
      </trkpt>
      <trkpt lat="44.14757" lon="3.10966">
        <ele>499</ele>
        <time>2010-01-01T00:38:11Z</time>
      </trkpt>
      <trkpt lat="44.14761" lon="3.10965">
        <ele>500</ele>
        <time>2010-01-01T00:38:12Z</time>
      </trkpt>
      <trkpt lat="44.14764" lon="3.10965">
        <ele>500</ele>
        <time>2010-01-01T00:38:14Z</time>
      </trkpt>
      <trkpt lat="44.14768" lon="3.10965">
        <ele>500</ele>
        <time>2010-01-01T00:38:15Z</time>
      </trkpt>
      <trkpt lat="44.14771" lon="3.10964">
        <ele>501</ele>
        <time>2010-01-01T00:38:16Z</time>
      </trkpt>
      <trkpt lat="44.14774" lon="3.10964">
        <ele>501</ele>
        <time>2010-01-01T00:38:18Z</time>
      </trkpt>
      <trkpt lat="44.14778" lon="3.10963">
        <ele>502</ele>
        <time>2010-01-01T00:38:19Z</time>
      </trkpt>
      <trkpt lat="44.14782" lon="3.10962">
        <ele>502</ele>
        <time>2010-01-01T00:38:21Z</time>
      </trkpt>
      <trkpt lat="44.14785" lon="3.10961">
        <ele>503</ele>
        <time>2010-01-01T00:38:22Z</time>
      </trkpt>
      <trkpt lat="44.14788" lon="3.1096">
        <ele>503</ele>
        <time>2010-01-01T00:38:24Z</time>
      </trkpt>
      <trkpt lat="44.14792" lon="3.10959">
        <ele>503</ele>
        <time>2010-01-01T00:38:25Z</time>
      </trkpt>
      <trkpt lat="44.14795" lon="3.10958">
        <ele>504</ele>
        <time>2010-01-01T00:38:26Z</time>
      </trkpt>
      <trkpt lat="44.14798" lon="3.10956">
        <ele>504</ele>
        <time>2010-01-01T00:38:28Z</time>
      </trkpt>
      <trkpt lat="44.14802" lon="3.10954">
        <ele>504</ele>
        <time>2010-01-01T00:38:29Z</time>
      </trkpt>
      <trkpt lat="44.14805" lon="3.10952">
        <ele>505</ele>
        <time>2010-01-01T00:38:31Z</time>
      </trkpt>
      <trkpt lat="44.14809" lon="3.10951">
        <ele>505</ele>
        <time>2010-01-01T00:38:32Z</time>
      </trkpt>
      <trkpt lat="44.14812" lon="3.10949">
        <ele>505</ele>
        <time>2010-01-01T00:38:34Z</time>
      </trkpt>
      <trkpt lat="44.14815" lon="3.10948">
        <ele>505</ele>
        <time>2010-01-01T00:38:35Z</time>
      </trkpt>
      <trkpt lat="44.14819" lon="3.10947">
        <ele>506</ele>
        <time>2010-01-01T00:38:36Z</time>
      </trkpt>
      <trkpt lat="44.14822" lon="3.10945">
        <ele>506</ele>
        <time>2010-01-01T00:38:38Z</time>
      </trkpt>
      <trkpt lat="44.14825" lon="3.10943">
        <ele>506</ele>
        <time>2010-01-01T00:38:39Z</time>
      </trkpt>
      <trkpt lat="44.14829" lon="3.10942">
        <ele>506</ele>
        <time>2010-01-01T00:38:41Z</time>
      </trkpt>
      <trkpt lat="44.14832" lon="3.10941">
        <ele>506</ele>
        <time>2010-01-01T00:38:42Z</time>
      </trkpt>
      <trkpt lat="44.14836" lon="3.1094">
        <ele>507</ele>
        <time>2010-01-01T00:38:44Z</time>
      </trkpt>
      <trkpt lat="44.1484" lon="3.10939">
        <ele>508</ele>
        <time>2010-01-01T00:38:45Z</time>
      </trkpt>
      <trkpt lat="44.14844" lon="3.10938">
        <ele>508</ele>
        <time>2010-01-01T00:38:47Z</time>
      </trkpt>
      <trkpt lat="44.14848" lon="3.10937">
        <ele>509</ele>
        <time>2010-01-01T00:38:48Z</time>
      </trkpt>
      <trkpt lat="44.14852" lon="3.10937">
        <ele>510</ele>
        <time>2010-01-01T00:38:50Z</time>
      </trkpt>
      <trkpt lat="44.14857" lon="3.10937">
        <ele>511</ele>
        <time>2010-01-01T00:38:52Z</time>
      </trkpt>
      <trkpt lat="44.14862" lon="3.10936">
        <ele>511</ele>
        <time>2010-01-01T00:38:54Z</time>
      </trkpt>
      <trkpt lat="44.14867" lon="3.10935">
        <ele>512</ele>
        <time>2010-01-01T00:38:56Z</time>
      </trkpt>
      <trkpt lat="44.14873" lon="3.10934">
        <ele>512</ele>
        <time>2010-01-01T00:38:58Z</time>
      </trkpt>
      <trkpt lat="44.14878" lon="3.10931">
        <ele>513</ele>
        <time>2010-01-01T00:39:01Z</time>
      </trkpt>
      <trkpt lat="44.14884" lon="3.10929">
        <ele>513</ele>
        <time>2010-01-01T00:39:03Z</time>
      </trkpt>
      <trkpt lat="44.1489" lon="3.10926">
        <ele>513</ele>
        <time>2010-01-01T00:39:06Z</time>
      </trkpt>
      <trkpt lat="44.14895" lon="3.10922">
        <ele>513</ele>
        <time>2010-01-01T00:39:08Z</time>
      </trkpt>
      <trkpt lat="44.149" lon="3.10918">
        <ele>513</ele>
        <time>2010-01-01T00:39:10Z</time>
      </trkpt>
      <trkpt lat="44.14906" lon="3.10914">
        <ele>512</ele>
        <time>2010-01-01T00:39:13Z</time>
      </trkpt>
      <trkpt lat="44.1491" lon="3.1091">
        <ele>513</ele>
        <time>2010-01-01T00:39:15Z</time>
      </trkpt>
      <trkpt lat="44.14915" lon="3.10906">
        <ele>513</ele>
        <time>2010-01-01T00:39:17Z</time>
      </trkpt>
      <trkpt lat="44.1492" lon="3.10903">
        <ele>513</ele>
        <time>2010-01-01T00:39:20Z</time>
      </trkpt>
      <trkpt lat="44.14925" lon="3.109">
        <ele>513</ele>
        <time>2010-01-01T00:39:22Z</time>
      </trkpt>
      <trkpt lat="44.1493" lon="3.10896">
        <ele>513</ele>
        <time>2010-01-01T00:39:24Z</time>
      </trkpt>
      <trkpt lat="44.14936" lon="3.10893">
        <ele>513</ele>
        <time>2010-01-01T00:39:26Z</time>
      </trkpt>
      <trkpt lat="44.14942" lon="3.1089">
        <ele>513</ele>
        <time>2010-01-01T00:39:29Z</time>
      </trkpt>
      <trkpt lat="44.14949" lon="3.10887">
        <ele>512</ele>
        <time>2010-01-01T00:39:32Z</time>
      </trkpt>
      <trkpt lat="44.14956" lon="3.10883">
        <ele>512</ele>
        <time>2010-01-01T00:39:35Z</time>
      </trkpt>
      <trkpt lat="44.14964" lon="3.1088">
        <ele>511</ele>
        <time>2010-01-01T00:39:38Z</time>
      </trkpt>
      <trkpt lat="44.14972" lon="3.10877">
        <ele>510</ele>
        <time>2010-01-01T00:39:41Z</time>
      </trkpt>
      <trkpt lat="44.1498" lon="3.10875">
        <ele>511</ele>
        <time>2010-01-01T00:39:45Z</time>
      </trkpt>
      <trkpt lat="44.1499" lon="3.10873">
        <ele>511</ele>
        <time>2010-01-01T00:39:49Z</time>
      </trkpt>
      <trkpt lat="44.15001" lon="3.10871">
        <ele>512</ele>
        <time>2010-01-01T00:39:53Z</time>
      </trkpt>
      <trkpt lat="44.15012" lon="3.10868">
        <ele>511</ele>
        <time>2010-01-01T00:39:58Z</time>
      </trkpt>
      <trkpt lat="44.15023" lon="3.10866">
        <ele>511</ele>
        <time>2010-01-01T00:40:02Z</time>
      </trkpt>
      <trkpt lat="44.15033" lon="3.10864">
        <ele>511</ele>
        <time>2010-01-01T00:40:06Z</time>
      </trkpt>
      <trkpt lat="44.15042" lon="3.10861">
        <ele>510</ele>
        <time>2010-01-01T00:40:10Z</time>
      </trkpt>
      <trkpt lat="44.15051" lon="3.10859">
        <ele>510</ele>
        <time>2010-01-01T00:40:14Z</time>
      </trkpt>
      <trkpt lat="44.15059" lon="3.10857">
        <ele>509</ele>
        <time>2010-01-01T00:40:17Z</time>
      </trkpt>
      <trkpt lat="44.15067" lon="3.10855">
        <ele>509</ele>
        <time>2010-01-01T00:40:20Z</time>
      </trkpt>
      <trkpt lat="44.15075" lon="3.10855">
        <ele>509</ele>
        <time>2010-01-01T00:40:23Z</time>
      </trkpt>
      <trkpt lat="44.15082" lon="3.10856">
        <ele>509</ele>
        <time>2010-01-01T00:40:26Z</time>
      </trkpt>
      <trkpt lat="44.15088" lon="3.10859">
        <ele>509</ele>
        <time>2010-01-01T00:40:29Z</time>
      </trkpt>
      <trkpt lat="44.15094" lon="3.10861">
        <ele>509</ele>
        <time>2010-01-01T00:40:31Z</time>
      </trkpt>
      <trkpt lat="44.151" lon="3.10864">
        <ele>508</ele>
        <time>2010-01-01T00:40:34Z</time>
      </trkpt>
      <trkpt lat="44.15105" lon="3.10868">
        <ele>508</ele>
        <time>2010-01-01T00:40:36Z</time>
      </trkpt>
      <trkpt lat="44.1511" lon="3.10871">
        <ele>507</ele>
        <time>2010-01-01T00:40:38Z</time>
      </trkpt>
      <trkpt lat="44.15114" lon="3.10876">
        <ele>506</ele>
        <time>2010-01-01T00:40:40Z</time>
      </trkpt>
      <trkpt lat="44.15119" lon="3.10881">
        <ele>505</ele>
        <time>2010-01-01T00:40:43Z</time>
      </trkpt>
      <trkpt lat="44.15123" lon="3.10882">
        <ele>504</ele>
        <time>2010-01-01T00:40:45Z</time>
      </trkpt>
      <trkpt lat="44.15128" lon="3.10877">
        <ele>503</ele>
        <time>2010-01-01T00:40:47Z</time>
      </trkpt>
      <trkpt lat="44.15135" lon="3.10873">
        <ele>502</ele>
        <time>2010-01-01T00:40:50Z</time>
      </trkpt>
      <trkpt lat="44.1514" lon="3.10867">
        <ele>502</ele>
        <time>2010-01-01T00:40:53Z</time>
      </trkpt>
      <trkpt lat="44.15146" lon="3.10863">
        <ele>501</ele>
        <time>2010-01-01T00:40:55Z</time>
      </trkpt>
      <trkpt lat="44.15152" lon="3.10859">
        <ele>499</ele>
        <time>2010-01-01T00:40:58Z</time>
      </trkpt>
      <trkpt lat="44.15158" lon="3.10855">
        <ele>498</ele>
        <time>2010-01-01T00:41:01Z</time>
      </trkpt>
      <trkpt lat="44.15164" lon="3.10851">
        <ele>496</ele>
        <time>2010-01-01T00:41:03Z</time>
      </trkpt>
      <trkpt lat="44.15169" lon="3.10848">
        <ele>495</ele>
        <time>2010-01-01T00:41:05Z</time>
      </trkpt>
      <trkpt lat="44.15175" lon="3.10843">
        <ele>494</ele>
        <time>2010-01-01T00:41:08Z</time>
      </trkpt>
      <trkpt lat="44.1518" lon="3.1084">
        <ele>493</ele>
        <time>2010-01-01T00:41:10Z</time>
      </trkpt>
      <trkpt lat="44.15184" lon="3.10835">
        <ele>492</ele>
        <time>2010-01-01T00:41:12Z</time>
      </trkpt>
      <trkpt lat="44.15189" lon="3.10833">
        <ele>492</ele>
        <time>2010-01-01T00:41:14Z</time>
      </trkpt>
      <trkpt lat="44.15196" lon="3.10828">
        <ele>491</ele>
        <time>2010-01-01T00:41:17Z</time>
      </trkpt>
      <trkpt lat="44.15202" lon="3.10824">
        <ele>488</ele>
        <time>2010-01-01T00:41:20Z</time>
      </trkpt>
      <trkpt lat="44.15207" lon="3.10818">
        <ele>487</ele>
        <time>2010-01-01T00:41:23Z</time>
      </trkpt>
      <trkpt lat="44.15212" lon="3.10812">
        <ele>485</ele>
        <time>2010-01-01T00:41:25Z</time>
      </trkpt>
      <trkpt lat="44.15218" lon="3.10806">
        <ele>483</ele>
        <time>2010-01-01T00:41:29Z</time>
      </trkpt>
      <trkpt lat="44.15223" lon="3.108">
        <ele>482</ele>
        <time>2010-01-01T00:41:31Z</time>
      </trkpt>
      <trkpt lat="44.15227" lon="3.10794">
        <ele>480</ele>
        <time>2010-01-01T00:41:33Z</time>
      </trkpt>
      <trkpt lat="44.15233" lon="3.10789">
        <ele>478</ele>
        <time>2010-01-01T00:41:36Z</time>
      </trkpt>
      <trkpt lat="44.15239" lon="3.10783">
        <ele>475</ele>
        <time>2010-01-01T00:41:39Z</time>
      </trkpt>
      <trkpt lat="44.15244" lon="3.10778">
        <ele>473</ele>
        <time>2010-01-01T00:41:42Z</time>
      </trkpt>
      <trkpt lat="44.15249" lon="3.10771">
        <ele>471</ele>
        <time>2010-01-01T00:41:45Z</time>
      </trkpt>
      <trkpt lat="44.15253" lon="3.10764">
        <ele>470</ele>
        <time>2010-01-01T00:41:47Z</time>
      </trkpt>
      <trkpt lat="44.15254" lon="3.10758">
        <ele>470</ele>
        <time>2010-01-01T00:41:49Z</time>
      </trkpt>
      <trkpt lat="44.15255" lon="3.10753">
        <ele>470</ele>
        <time>2010-01-01T00:41:50Z</time>
      </trkpt>
      <trkpt lat="44.15258" lon="3.10749">
        <ele>469</ele>
        <time>2010-01-01T00:41:52Z</time>
      </trkpt>
      <trkpt lat="44.1526" lon="3.10745">
        <ele>468</ele>
        <time>2010-01-01T00:41:53Z</time>
      </trkpt>
      <trkpt lat="44.15262" lon="3.1074">
        <ele>466</ele>
        <time>2010-01-01T00:41:55Z</time>
      </trkpt>
      <trkpt lat="44.15265" lon="3.10736">
        <ele>465</ele>
        <time>2010-01-01T00:41:57Z</time>
      </trkpt>
      <trkpt lat="44.15268" lon="3.10731">
        <ele>463</ele>
        <time>2010-01-01T00:41:59Z</time>
      </trkpt>
      <trkpt lat="44.15271" lon="3.10725">
        <ele>462</ele>
        <time>2010-01-01T00:42:01Z</time>
      </trkpt>
      <trkpt lat="44.15274" lon="3.10719">
        <ele>460</ele>
        <time>2010-01-01T00:42:03Z</time>
      </trkpt>
      <trkpt lat="44.15278" lon="3.10714">
        <ele>458</ele>
        <time>2010-01-01T00:42:05Z</time>
      </trkpt>
      <trkpt lat="44.15281" lon="3.10711">
        <ele>456</ele>
        <time>2010-01-01T00:42:06Z</time>
      </trkpt>
      <trkpt lat="44.15284" lon="3.10708">
        <ele>454</ele>
        <time>2010-01-01T00:42:08Z</time>
      </trkpt>
      <trkpt lat="44.15286" lon="3.10706">
        <ele>452</ele>
        <time>2010-01-01T00:42:09Z</time>
      </trkpt>
      <trkpt lat="44.15288" lon="3.10702">
        <ele>451</ele>
        <time>2010-01-01T00:42:10Z</time>
      </trkpt>
      <trkpt lat="44.15291" lon="3.10699">
        <ele>449</ele>
        <time>2010-01-01T00:42:12Z</time>
      </trkpt>
      <trkpt lat="44.15293" lon="3.10695">
        <ele>447</ele>
        <time>2010-01-01T00:42:13Z</time>
      </trkpt>
      <trkpt lat="44.15295" lon="3.1069">
        <ele>446</ele>
        <time>2010-01-01T00:42:15Z</time>
      </trkpt>
      <trkpt lat="44.15296" lon="3.10684">
        <ele>444</ele>
        <time>2010-01-01T00:42:16Z</time>
      </trkpt>
      <trkpt lat="44.15298" lon="3.10679">
        <ele>443</ele>
        <time>2010-01-01T00:42:18Z</time>
      </trkpt>
      <trkpt lat="44.15299" lon="3.10675">
        <ele>442</ele>
        <time>2010-01-01T00:42:19Z</time>
      </trkpt>
      <trkpt lat="44.15301" lon="3.10668">
        <ele>440</ele>
        <time>2010-01-01T00:42:21Z</time>
      </trkpt>
      <trkpt lat="44.15302" lon="3.10657">
        <ele>438</ele>
        <time>2010-01-01T00:42:25Z</time>
      </trkpt>
      <trkpt lat="44.15301" lon="3.10646">
        <ele>436</ele>
        <time>2010-01-01T00:42:28Z</time>
      </trkpt>
      <trkpt lat="44.15301" lon="3.10635">
        <ele>434</ele>
        <time>2010-01-01T00:42:31Z</time>
      </trkpt>
      <trkpt lat="44.15301" lon="3.10628">
        <ele>433</ele>
        <time>2010-01-01T00:42:33Z</time>
      </trkpt>
      <trkpt lat="44.15302" lon="3.10622">
        <ele>431</ele>
        <time>2010-01-01T00:42:35Z</time>
      </trkpt>
      <trkpt lat="44.15303" lon="3.10614">
        <ele>430</ele>
        <time>2010-01-01T00:42:37Z</time>
      </trkpt>
      <trkpt lat="44.15302" lon="3.10605">
        <ele>428</ele>
        <time>2010-01-01T00:42:40Z</time>
      </trkpt>
      <trkpt lat="44.15302" lon="3.10595">
        <ele>427</ele>
        <time>2010-01-01T00:42:43Z</time>
      </trkpt>
      <trkpt lat="44.15302" lon="3.10586">
        <ele>425</ele>
        <time>2010-01-01T00:42:45Z</time>
      </trkpt>
      <trkpt lat="44.15303" lon="3.10578">
        <ele>423</ele>
        <time>2010-01-01T00:42:47Z</time>
      </trkpt>
      <trkpt lat="44.15304" lon="3.1057">
        <ele>421</ele>
        <time>2010-01-01T00:42:50Z</time>
      </trkpt>
      <trkpt lat="44.15305" lon="3.10561">
        <ele>420</ele>
        <time>2010-01-01T00:42:52Z</time>
      </trkpt>
      <trkpt lat="44.15306" lon="3.10551">
        <ele>418</ele>
        <time>2010-01-01T00:42:55Z</time>
      </trkpt>
      <trkpt lat="44.15303" lon="3.1054">
        <ele>417</ele>
        <time>2010-01-01T00:42:59Z</time>
      </trkpt>
      <trkpt lat="44.15301" lon="3.10531">
        <ele>415</ele>
        <time>2010-01-01T00:43:01Z</time>
      </trkpt>
      <trkpt lat="44.153" lon="3.10521">
        <ele>414</ele>
        <time>2010-01-01T00:43:04Z</time>
      </trkpt>
      <trkpt lat="44.153" lon="3.10511">
        <ele>412</ele>
        <time>2010-01-01T00:43:07Z</time>
      </trkpt>
      <trkpt lat="44.153" lon="3.10498">
        <ele>409</ele>
        <time>2010-01-01T00:43:11Z</time>
      </trkpt>
      <trkpt lat="44.153" lon="3.10486">
        <ele>408</ele>
        <time>2010-01-01T00:43:14Z</time>
      </trkpt>
      <trkpt lat="44.153" lon="3.10474">
        <ele>406</ele>
        <time>2010-01-01T00:43:18Z</time>
      </trkpt>
      <trkpt lat="44.15301" lon="3.10465">
        <ele>405</ele>
        <time>2010-01-01T00:43:20Z</time>
      </trkpt>
      <trkpt lat="44.15302" lon="3.10455">
        <ele>404</ele>
        <time>2010-01-01T00:43:23Z</time>
      </trkpt>
      <trkpt lat="44.15302" lon="3.10446">
        <ele>403</ele>
        <time>2010-01-01T00:43:26Z</time>
      </trkpt>
      <trkpt lat="44.15302" lon="3.10439">
        <ele>402</ele>
        <time>2010-01-01T00:43:28Z</time>
      </trkpt>
      <trkpt lat="44.15302" lon="3.10432">
        <ele>400</ele>
        <time>2010-01-01T00:43:30Z</time>
      </trkpt>
      <trkpt lat="44.15302" lon="3.10428">
        <ele>400</ele>
        <time>2010-01-01T00:43:31Z</time>
      </trkpt>
      <trkpt lat="44.15302" lon="3.10426">
        <ele>400</ele>
        <time>2010-01-01T00:43:32Z</time>
      </trkpt>
      <trkpt lat="44.15303" lon="3.10426">
        <ele>399</ele>
        <time>2010-01-01T00:43:32Z</time>
      </trkpt>
      <trkpt lat="44.15303" lon="3.10424">
        <ele>399</ele>
        <time>2010-01-01T00:43:32Z</time>
      </trkpt>
      <trkpt lat="44.15304" lon="3.10423">
        <ele>399</ele>
        <time>2010-01-01T00:43:32Z</time>
      </trkpt>
      <trkpt lat="44.15303" lon="3.1042">
        <ele>398</ele>
        <time>2010-01-01T00:43:33Z</time>
      </trkpt>
      <trkpt lat="44.15303" lon="3.1042">
        <ele>398</ele>
        <time>2010-01-01T00:43:33Z</time>
      </trkpt>
      <trkpt lat="44.15303" lon="3.1042">
        <ele>398</ele>
        <time>2010-01-01T00:43:34Z</time>
      </trkpt>
      <trkpt lat="44.15305" lon="3.10409">
        <ele>396</ele>
        <time>2010-01-01T00:43:37Z</time>
      </trkpt>
      <trkpt lat="44.15306" lon="3.10406">
        <ele>396</ele>
        <time>2010-01-01T00:43:38Z</time>
      </trkpt>
      <trkpt lat="44.15305" lon="3.104">
        <ele>395</ele>
        <time>2010-01-01T00:43:40Z</time>
      </trkpt>
      <trkpt lat="44.15302" lon="3.10393">
        <ele>395</ele>
        <time>2010-01-01T00:43:42Z</time>
      </trkpt>
      <trkpt lat="44.15298" lon="3.10385">
        <ele>394</ele>
        <time>2010-01-01T00:43:45Z</time>
      </trkpt>
      <trkpt lat="44.15291" lon="3.10376">
        <ele>393</ele>
        <time>2010-01-01T00:43:49Z</time>
      </trkpt>
      <trkpt lat="44.15284" lon="3.10365">
        <ele>393</ele>
        <time>2010-01-01T00:43:53Z</time>
      </trkpt>
      <trkpt lat="44.15281" lon="3.1035">
        <ele>391</ele>
        <time>2010-01-01T00:43:57Z</time>
      </trkpt>
      <trkpt lat="44.15277" lon="3.10336">
        <ele>390</ele>
        <time>2010-01-01T00:44:01Z</time>
      </trkpt>
      <trkpt lat="44.15271" lon="3.10325">
        <ele>390</ele>
        <time>2010-01-01T00:44:05Z</time>
      </trkpt>
      <trkpt lat="44.15264" lon="3.10315">
        <ele>390</ele>
        <time>2010-01-01T00:44:09Z</time>
      </trkpt>
      <trkpt lat="44.15255" lon="3.10303">
        <ele>390</ele>
        <time>2010-01-01T00:44:14Z</time>
      </trkpt>
      <trkpt lat="44.15245" lon="3.10288">
        <ele>389</ele>
        <time>2010-01-01T00:44:20Z</time>
      </trkpt>
      <trkpt lat="44.15232" lon="3.10273">
        <ele>389</ele>
        <time>2010-01-01T00:44:27Z</time>
      </trkpt>
      <trkpt lat="44.15217" lon="3.10264">
        <ele>390</ele>
        <time>2010-01-01T00:44:34Z</time>
      </trkpt>
      <trkpt lat="44.15203" lon="3.10261">
        <ele>390</ele>
        <time>2010-01-01T00:44:39Z</time>
      </trkpt>
      <trkpt lat="44.15193" lon="3.1026">
        <ele>391</ele>
        <time>2010-01-01T00:44:43Z</time>
      </trkpt>
      <trkpt lat="44.15184" lon="3.1026">
        <ele>391</ele>
        <time>2010-01-01T00:44:47Z</time>
      </trkpt>
      <trkpt lat="44.15176" lon="3.10258">
        <ele>391</ele>
        <time>2010-01-01T00:44:50Z</time>
      </trkpt>
      <trkpt lat="44.15167" lon="3.10255">
        <ele>392</ele>
        <time>2010-01-01T00:44:54Z</time>
      </trkpt>
      <trkpt lat="44.15157" lon="3.10255">
        <ele>391</ele>
        <time>2010-01-01T00:44:58Z</time>
      </trkpt>
      <trkpt lat="44.15145" lon="3.10256">
        <ele>391</ele>
        <time>2010-01-01T00:45:03Z</time>
      </trkpt>
      <trkpt lat="44.15131" lon="3.10257">
        <ele>390</ele>
        <time>2010-01-01T00:45:08Z</time>
      </trkpt>
      <trkpt lat="44.15116" lon="3.10254">
        <ele>388</ele>
        <time>2010-01-01T00:45:14Z</time>
      </trkpt>
      <trkpt lat="44.15101" lon="3.10247">
        <ele>385</ele>
        <time>2010-01-01T00:45:21Z</time>
      </trkpt>
      <trkpt lat="44.15083" lon="3.10241">
        <ele>383</ele>
        <time>2010-01-01T00:45:28Z</time>
      </trkpt>
      <trkpt lat="44.15066" lon="3.10235">
        <ele>383</ele>
        <time>2010-01-01T00:45:35Z</time>
      </trkpt>
      <trkpt lat="44.15047" lon="3.10229">
        <ele>383</ele>
        <time>2010-01-01T00:45:43Z</time>
      </trkpt>
      <trkpt lat="44.15028" lon="3.10223">
        <ele>383</ele>
        <time>2010-01-01T00:45:51Z</time>
      </trkpt>
      <trkpt lat="44.15007" lon="3.10216">
        <ele>380</ele>
        <time>2010-01-01T00:45:59Z</time>
      </trkpt>
      <trkpt lat="44.14986" lon="3.10209">
        <ele>376</ele>
        <time>2010-01-01T00:46:08Z</time>
      </trkpt>
      <trkpt lat="44.14965" lon="3.10202">
        <ele>373</ele>
        <time>2010-01-01T00:46:16Z</time>
      </trkpt>
      <trkpt lat="44.1495" lon="3.10195">
        <ele>372</ele>
        <time>2010-01-01T00:46:23Z</time>
      </trkpt>
      <trkpt lat="44.14939" lon="3.10181">
        <ele>370</ele>
        <time>2010-01-01T00:46:29Z</time>
      </trkpt>
      <trkpt lat="44.14936" lon="3.10164">
        <ele>369</ele>
        <time>2010-01-01T00:46:34Z</time>
      </trkpt>
      <trkpt lat="44.14934" lon="3.10149">
        <ele>369</ele>
        <time>2010-01-01T00:46:38Z</time>
      </trkpt>
      <trkpt lat="44.14933" lon="3.10134">
        <ele>369</ele>
        <time>2010-01-01T00:46:42Z</time>
      </trkpt>
      <trkpt lat="44.14931" lon="3.10119">
        <ele>369</ele>
        <time>2010-01-01T00:46:47Z</time>
      </trkpt>
      <trkpt lat="44.14929" lon="3.10106">
        <ele>369</ele>
        <time>2010-01-01T00:46:51Z</time>
      </trkpt>
      <trkpt lat="44.14928" lon="3.10091">
        <ele>368</ele>
        <time>2010-01-01T00:46:55Z</time>
      </trkpt>
      <trkpt lat="44.14927" lon="3.10074">
        <ele>368</ele>
        <time>2010-01-01T00:47:00Z</time>
      </trkpt>
      <trkpt lat="44.1492" lon="3.10062">
        <ele>368</ele>
        <time>2010-01-01T00:47:05Z</time>
      </trkpt>
      <trkpt lat="44.14909" lon="3.10056">
        <ele>369</ele>
        <time>2010-01-01T00:47:09Z</time>
      </trkpt>
      <trkpt lat="44.14895" lon="3.10056">
        <ele>369</ele>
        <time>2010-01-01T00:47:15Z</time>
      </trkpt>
      <trkpt lat="44.14881" lon="3.10056">
        <ele>369</ele>
        <time>2010-01-01T00:47:20Z</time>
      </trkpt>
      <trkpt lat="44.14867" lon="3.10052">
        <ele>369</ele>
        <time>2010-01-01T00:47:26Z</time>
      </trkpt>
      <trkpt lat="44.14856" lon="3.10038">
        <ele>367</ele>
        <time>2010-01-01T00:47:32Z</time>
      </trkpt>
      <trkpt lat="44.14852" lon="3.10019">
        <ele>367</ele>
        <time>2010-01-01T00:47:38Z</time>
      </trkpt>
      <trkpt lat="44.14854" lon="3.09999">
        <ele>366</ele>
        <time>2010-01-01T00:47:44Z</time>
      </trkpt>
      <trkpt lat="44.14858" lon="3.09979">
        <ele>366</ele>
        <time>2010-01-01T00:47:49Z</time>
      </trkpt>
      <trkpt lat="44.14863" lon="3.09962">
        <ele>367</ele>
        <time>2010-01-01T00:47:55Z</time>
      </trkpt>
      <trkpt lat="44.14871" lon="3.09947">
        <ele>368</ele>
        <time>2010-01-01T00:48:00Z</time>
      </trkpt>
      <trkpt lat="44.1488" lon="3.09937">
        <ele>369</ele>
        <time>2010-01-01T00:48:05Z</time>
      </trkpt>
      <trkpt lat="44.14891" lon="3.0993">
        <ele>370</ele>
        <time>2010-01-01T00:48:10Z</time>
      </trkpt>
      <trkpt lat="44.14902" lon="3.09928">
        <ele>370</ele>
        <time>2010-01-01T00:48:14Z</time>
      </trkpt>
      <trkpt lat="44.14912" lon="3.09929">
        <ele>370</ele>
        <time>2010-01-01T00:48:18Z</time>
      </trkpt>
      <trkpt lat="44.14921" lon="3.0993">
        <ele>371</ele>
        <time>2010-01-01T00:48:22Z</time>
      </trkpt>
      <trkpt lat="44.14929" lon="3.09933">
        <ele>371</ele>
        <time>2010-01-01T00:48:25Z</time>
      </trkpt>
      <trkpt lat="44.14933" lon="3.0994">
        <ele>370</ele>
        <time>2010-01-01T00:48:27Z</time>
      </trkpt>
      <trkpt lat="44.14933" lon="3.09951">
        <ele>370</ele>
        <time>2010-01-01T00:48:31Z</time>
      </trkpt>
      <trkpt lat="44.14932" lon="3.09964">
        <ele>369</ele>
        <time>2010-01-01T00:48:34Z</time>
      </trkpt>
      <trkpt lat="44.14933" lon="3.09978">
        <ele>368</ele>
        <time>2010-01-01T00:48:38Z</time>
      </trkpt>
      <trkpt lat="44.14936" lon="3.09992">
        <ele>367</ele>
        <time>2010-01-01T00:48:43Z</time>
      </trkpt>
      <trkpt lat="44.14939" lon="3.10006">
        <ele>367</ele>
        <time>2010-01-01T00:48:47Z</time>
      </trkpt>
      <trkpt lat="44.14944" lon="3.10018">
        <ele>366</ele>
        <time>2010-01-01T00:48:51Z</time>
      </trkpt>
      <trkpt lat="44.14951" lon="3.10029">
        <ele>366</ele>
        <time>2010-01-01T00:48:55Z</time>
      </trkpt>
      <trkpt lat="44.14955" lon="3.10041">
        <ele>366</ele>
        <time>2010-01-01T00:48:59Z</time>
      </trkpt>
      <trkpt lat="44.14956" lon="3.10055">
        <ele>366</ele>
        <time>2010-01-01T00:49:03Z</time>
      </trkpt>
      <trkpt lat="44.14955" lon="3.10067">
        <ele>366</ele>
        <time>2010-01-01T00:49:06Z</time>
      </trkpt>
      <trkpt lat="44.14956" lon="3.10076">
        <ele>366</ele>
        <time>2010-01-01T00:49:09Z</time>
      </trkpt>
      <trkpt lat="44.14961" lon="3.10078">
        <ele>366</ele>
        <time>2010-01-01T00:49:11Z</time>
      </trkpt>
      <trkpt lat="44.14967" lon="3.10075">
        <ele>365</ele>
        <time>2010-01-01T00:49:13Z</time>
      </trkpt>
      <trkpt lat="44.14974" lon="3.10073">
        <ele>365</ele>
        <time>2010-01-01T00:49:16Z</time>
      </trkpt>
      <trkpt lat="44.14981" lon="3.10074">
        <ele>365</ele>
        <time>2010-01-01T00:49:19Z</time>
      </trkpt>
      <trkpt lat="44.14989" lon="3.10074">
        <ele>365</ele>
        <time>2010-01-01T00:49:22Z</time>
      </trkpt>
      <trkpt lat="44.14996" lon="3.10074">
        <ele>365</ele>
        <time>2010-01-01T00:49:25Z</time>
      </trkpt>
      <trkpt lat="44.15004" lon="3.10075">
        <ele>365</ele>
        <time>2010-01-01T00:49:28Z</time>
      </trkpt>
      <trkpt lat="44.15011" lon="3.10076">
        <ele>365</ele>
        <time>2010-01-01T00:49:31Z</time>
      </trkpt>
      <trkpt lat="44.15019" lon="3.10079">
        <ele>365</ele>
        <time>2010-01-01T00:49:34Z</time>
      </trkpt>
      <trkpt lat="44.15026" lon="3.10083">
        <ele>365</ele>
        <time>2010-01-01T00:49:37Z</time>
      </trkpt>
      <trkpt lat="44.15034" lon="3.10087">
        <ele>365</ele>
        <time>2010-01-01T00:49:41Z</time>
      </trkpt>
      <trkpt lat="44.15042" lon="3.10092">
        <ele>365</ele>
        <time>2010-01-01T00:49:44Z</time>
      </trkpt>
      <trkpt lat="44.1505" lon="3.10092">
        <ele>365</ele>
        <time>2010-01-01T00:49:47Z</time>
      </trkpt>
      <trkpt lat="44.15059" lon="3.10093">
        <ele>366</ele>
        <time>2010-01-01T00:49:51Z</time>
      </trkpt>
      <trkpt lat="44.15067" lon="3.10094">
        <ele>367</ele>
        <time>2010-01-01T00:49:54Z</time>
      </trkpt>
      <trkpt lat="44.15076" lon="3.10094">
        <ele>368</ele>
        <time>2010-01-01T00:49:58Z</time>
      </trkpt>
      <trkpt lat="44.15084" lon="3.10095">
        <ele>368</ele>
        <time>2010-01-01T00:50:01Z</time>
      </trkpt>
      <trkpt lat="44.15091" lon="3.10095">
        <ele>369</ele>
        <time>2010-01-01T00:50:04Z</time>
      </trkpt>
      <trkpt lat="44.15098" lon="3.10095">
        <ele>370</ele>
        <time>2010-01-01T00:50:07Z</time>
      </trkpt>
      <trkpt lat="44.15106" lon="3.10097">
        <ele>371</ele>
        <time>2010-01-01T00:50:10Z</time>
      </trkpt>
      <trkpt lat="44.15114" lon="3.10098">
        <ele>371</ele>
        <time>2010-01-01T00:50:13Z</time>
      </trkpt>
      <trkpt lat="44.15121" lon="3.101">
        <ele>372</ele>
        <time>2010-01-01T00:50:16Z</time>
      </trkpt>
      <trkpt lat="44.15129" lon="3.101">
        <ele>372</ele>
        <time>2010-01-01T00:50:19Z</time>
      </trkpt>
      <trkpt lat="44.15137" lon="3.10099">
        <ele>373</ele>
        <time>2010-01-01T00:50:22Z</time>
      </trkpt>
      <trkpt lat="44.15143" lon="3.10099">
        <ele>373</ele>
        <time>2010-01-01T00:50:25Z</time>
      </trkpt>
      <trkpt lat="44.15151" lon="3.10098">
        <ele>372</ele>
        <time>2010-01-01T00:50:28Z</time>
      </trkpt>
      <trkpt lat="44.15159" lon="3.10098">
        <ele>372</ele>
        <time>2010-01-01T00:50:31Z</time>
      </trkpt>
      <trkpt lat="44.15166" lon="3.10098">
        <ele>372</ele>
        <time>2010-01-01T00:50:34Z</time>
      </trkpt>
      <trkpt lat="44.15175" lon="3.10097">
        <ele>370</ele>
        <time>2010-01-01T00:50:37Z</time>
      </trkpt>
      <trkpt lat="44.15183" lon="3.10097">
        <ele>369</ele>
        <time>2010-01-01T00:50:41Z</time>
      </trkpt>
      <trkpt lat="44.15189" lon="3.10093">
        <ele>368</ele>
        <time>2010-01-01T00:50:43Z</time>
      </trkpt>
      <trkpt lat="44.15195" lon="3.10088">
        <ele>367</ele>
        <time>2010-01-01T00:50:46Z</time>
      </trkpt>
      <trkpt lat="44.15202" lon="3.10085">
        <ele>367</ele>
        <time>2010-01-01T00:50:49Z</time>
      </trkpt>
      <trkpt lat="44.1521" lon="3.10082">
        <ele>366</ele>
        <time>2010-01-01T00:50:52Z</time>
      </trkpt>
      <trkpt lat="44.15218" lon="3.10079">
        <ele>366</ele>
        <time>2010-01-01T00:50:56Z</time>
      </trkpt>
      <trkpt lat="44.15226" lon="3.10076">
        <ele>366</ele>
        <time>2010-01-01T00:50:59Z</time>
      </trkpt>
      <trkpt lat="44.15232" lon="3.10071">
        <ele>366</ele>
        <time>2010-01-01T00:51:02Z</time>
      </trkpt>
      <trkpt lat="44.15236" lon="3.10063">
        <ele>367</ele>
        <time>2010-01-01T00:51:05Z</time>
      </trkpt>
      <trkpt lat="44.15242" lon="3.10055">
        <ele>367</ele>
        <time>2010-01-01T00:51:08Z</time>
      </trkpt>
      <trkpt lat="44.1525" lon="3.10051">
        <ele>367</ele>
        <time>2010-01-01T00:51:11Z</time>
      </trkpt>
      <trkpt lat="44.15257" lon="3.10047">
        <ele>366</ele>
        <time>2010-01-01T00:51:14Z</time>
      </trkpt>
      <trkpt lat="44.15265" lon="3.10043">
        <ele>366</ele>
        <time>2010-01-01T00:51:18Z</time>
      </trkpt>
      <trkpt lat="44.15273" lon="3.10038">
        <ele>366</ele>
        <time>2010-01-01T00:51:21Z</time>
      </trkpt>
      <trkpt lat="44.1528" lon="3.10033">
        <ele>366</ele>
        <time>2010-01-01T00:51:24Z</time>
      </trkpt>
      <trkpt lat="44.15287" lon="3.10028">
        <ele>366</ele>
        <time>2010-01-01T00:51:27Z</time>
      </trkpt>
      <trkpt lat="44.15294" lon="3.10024">
        <ele>366</ele>
        <time>2010-01-01T00:51:31Z</time>
      </trkpt>
      <trkpt lat="44.15302" lon="3.10021">
        <ele>367</ele>
        <time>2010-01-01T00:51:34Z</time>
      </trkpt>
      <trkpt lat="44.15309" lon="3.10016">
        <ele>367</ele>
        <time>2010-01-01T00:51:37Z</time>
      </trkpt>
      <trkpt lat="44.15317" lon="3.10012">
        <ele>368</ele>
        <time>2010-01-01T00:51:40Z</time>
      </trkpt>
      <trkpt lat="44.15324" lon="3.10008">
        <ele>369</ele>
        <time>2010-01-01T00:51:43Z</time>
      </trkpt>
      <trkpt lat="44.15331" lon="3.10003">
        <ele>369</ele>
        <time>2010-01-01T00:51:47Z</time>
      </trkpt>
      <trkpt lat="44.15339" lon="3.1">
        <ele>369</ele>
        <time>2010-01-01T00:51:50Z</time>
      </trkpt>
      <trkpt lat="44.15347" lon="3.09997">
        <ele>369</ele>
        <time>2010-01-01T00:51:53Z</time>
      </trkpt>
      <trkpt lat="44.15354" lon="3.09992">
        <ele>369</ele>
        <time>2010-01-01T00:51:56Z</time>
      </trkpt>
      <trkpt lat="44.15362" lon="3.09989">
        <ele>369</ele>
        <time>2010-01-01T00:51:59Z</time>
      </trkpt>
      <trkpt lat="44.15369" lon="3.09985">
        <ele>368</ele>
        <time>2010-01-01T00:52:03Z</time>
      </trkpt>
      <trkpt lat="44.15377" lon="3.0998">
        <ele>368</ele>
        <time>2010-01-01T00:52:06Z</time>
      </trkpt>
      <trkpt lat="44.15384" lon="3.09976">
        <ele>367</ele>
        <time>2010-01-01T00:52:09Z</time>
      </trkpt>
      <trkpt lat="44.15392" lon="3.09972">
        <ele>366</ele>
        <time>2010-01-01T00:52:13Z</time>
      </trkpt>
      <trkpt lat="44.15399" lon="3.09967">
        <ele>366</ele>
        <time>2010-01-01T00:52:16Z</time>
      </trkpt>
      <trkpt lat="44.15406" lon="3.09964">
        <ele>365</ele>
        <time>2010-01-01T00:52:19Z</time>
      </trkpt>
      <trkpt lat="44.15414" lon="3.09963">
        <ele>365</ele>
        <time>2010-01-01T00:52:22Z</time>
      </trkpt>
      <trkpt lat="44.15423" lon="3.09964">
        <ele>365</ele>
        <time>2010-01-01T00:52:25Z</time>
      </trkpt>
      <trkpt lat="44.15431" lon="3.09967">
        <ele>365</ele>
        <time>2010-01-01T00:52:29Z</time>
      </trkpt>
      <trkpt lat="44.15439" lon="3.09967">
        <ele>365</ele>
        <time>2010-01-01T00:52:32Z</time>
      </trkpt>
      <trkpt lat="44.15447" lon="3.09965">
        <ele>365</ele>
        <time>2010-01-01T00:52:35Z</time>
      </trkpt>
      <trkpt lat="44.15458" lon="3.09961">
        <ele>365</ele>
        <time>2010-01-01T00:52:40Z</time>
      </trkpt>
      <trkpt lat="44.1547" lon="3.09959">
        <ele>366</ele>
        <time>2010-01-01T00:52:45Z</time>
      </trkpt>
      <trkpt lat="44.15482" lon="3.09957">
        <ele>366</ele>
        <time>2010-01-01T00:52:49Z</time>
      </trkpt>
      <trkpt lat="44.15493" lon="3.09955">
        <ele>367</ele>
        <time>2010-01-01T00:52:54Z</time>
      </trkpt>
      <trkpt lat="44.15504" lon="3.09954">
        <ele>367</ele>
        <time>2010-01-01T00:52:58Z</time>
      </trkpt>
      <trkpt lat="44.15513" lon="3.09953">
        <ele>367</ele>
        <time>2010-01-01T00:53:02Z</time>
      </trkpt>
      <trkpt lat="44.15522" lon="3.09952">
        <ele>367</ele>
        <time>2010-01-01T00:53:05Z</time>
      </trkpt>
      <trkpt lat="44.1553" lon="3.09952">
        <ele>367</ele>
        <time>2010-01-01T00:53:09Z</time>
      </trkpt>
      <trkpt lat="44.15538" lon="3.09953">
        <ele>368</ele>
        <time>2010-01-01T00:53:12Z</time>
      </trkpt>
      <trkpt lat="44.15546" lon="3.09953">
        <ele>368</ele>
        <time>2010-01-01T00:53:15Z</time>
      </trkpt>
      <trkpt lat="44.15553" lon="3.09951">
        <ele>369</ele>
        <time>2010-01-01T00:53:18Z</time>
      </trkpt>
      <trkpt lat="44.1556" lon="3.09951">
        <ele>370</ele>
        <time>2010-01-01T00:53:21Z</time>
      </trkpt>
      <trkpt lat="44.15568" lon="3.09951">
        <ele>370</ele>
        <time>2010-01-01T00:53:24Z</time>
      </trkpt>
      <trkpt lat="44.15575" lon="3.09953">
        <ele>371</ele>
        <time>2010-01-01T00:53:27Z</time>
      </trkpt>
      <trkpt lat="44.15583" lon="3.09955">
        <ele>371</ele>
        <time>2010-01-01T00:53:30Z</time>
      </trkpt>
      <trkpt lat="44.1559" lon="3.09958">
        <ele>371</ele>
        <time>2010-01-01T00:53:33Z</time>
      </trkpt>
      <trkpt lat="44.15598" lon="3.09961">
        <ele>372</ele>
        <time>2010-01-01T00:53:36Z</time>
      </trkpt>
      <trkpt lat="44.15606" lon="3.09963">
        <ele>372</ele>
        <time>2010-01-01T00:53:40Z</time>
      </trkpt>
      <trkpt lat="44.15613" lon="3.09965">
        <ele>372</ele>
        <time>2010-01-01T00:53:43Z</time>
      </trkpt>
      <trkpt lat="44.15621" lon="3.09968">
        <ele>372</ele>
        <time>2010-01-01T00:53:46Z</time>
      </trkpt>
      <trkpt lat="44.15628" lon="3.0997">
        <ele>372</ele>
        <time>2010-01-01T00:53:49Z</time>
      </trkpt>
      <trkpt lat="44.15636" lon="3.09973">
        <ele>372</ele>
        <time>2010-01-01T00:53:52Z</time>
      </trkpt>
      <trkpt lat="44.15644" lon="3.09975">
        <ele>372</ele>
        <time>2010-01-01T00:53:55Z</time>
      </trkpt>
      <trkpt lat="44.15651" lon="3.09978">
        <ele>371</ele>
        <time>2010-01-01T00:53:58Z</time>
      </trkpt>
      <trkpt lat="44.15658" lon="3.09983">
        <ele>371</ele>
        <time>2010-01-01T00:54:01Z</time>
      </trkpt>
      <trkpt lat="44.15665" lon="3.09987">
        <ele>370</ele>
        <time>2010-01-01T00:54:04Z</time>
      </trkpt>
      <trkpt lat="44.15671" lon="3.09992">
        <ele>369</ele>
        <time>2010-01-01T00:54:07Z</time>
      </trkpt>
      <trkpt lat="44.15676" lon="3.09992">
        <ele>369</ele>
        <time>2010-01-01T00:54:09Z</time>
      </trkpt>
      <trkpt lat="44.15681" lon="3.09989">
        <ele>369</ele>
        <time>2010-01-01T00:54:11Z</time>
      </trkpt>
      <trkpt lat="44.15686" lon="3.09985">
        <ele>370</ele>
        <time>2010-01-01T00:54:14Z</time>
      </trkpt>
      <trkpt lat="44.15691" lon="3.09981">
        <ele>370</ele>
        <time>2010-01-01T00:54:16Z</time>
      </trkpt>
      <trkpt lat="44.15695" lon="3.09976">
        <ele>371</ele>
        <time>2010-01-01T00:54:18Z</time>
      </trkpt>
      <trkpt lat="44.15699" lon="3.0997">
        <ele>372</ele>
        <time>2010-01-01T00:54:20Z</time>
      </trkpt>
      <trkpt lat="44.15703" lon="3.09966">
        <ele>372</ele>
        <time>2010-01-01T00:54:22Z</time>
      </trkpt>
      <trkpt lat="44.15705" lon="3.09962">
        <ele>373</ele>
        <time>2010-01-01T00:54:24Z</time>
      </trkpt>
      <trkpt lat="44.15707" lon="3.09957">
        <ele>373</ele>
        <time>2010-01-01T00:54:25Z</time>
      </trkpt>
      <trkpt lat="44.1571" lon="3.09952">
        <ele>374</ele>
        <time>2010-01-01T00:54:27Z</time>
      </trkpt>
      <trkpt lat="44.15714" lon="3.09947">
        <ele>374</ele>
        <time>2010-01-01T00:54:29Z</time>
      </trkpt>
      <trkpt lat="44.15717" lon="3.09942">
        <ele>375</ele>
        <time>2010-01-01T00:54:31Z</time>
      </trkpt>
      <trkpt lat="44.15721" lon="3.09937">
        <ele>375</ele>
        <time>2010-01-01T00:54:33Z</time>
      </trkpt>
      <trkpt lat="44.15721" lon="3.09934">
        <ele>375</ele>
        <time>2010-01-01T00:54:34Z</time>
      </trkpt>
      <trkpt lat="44.15719" lon="3.09931">
        <ele>375</ele>
        <time>2010-01-01T00:54:35Z</time>
      </trkpt>
      <trkpt lat="44.15718" lon="3.09926">
        <ele>375</ele>
        <time>2010-01-01T00:54:37Z</time>
      </trkpt>
      <trkpt lat="44.15719" lon="3.0992">
        <ele>375</ele>
        <time>2010-01-01T00:54:39Z</time>
      </trkpt>
      <trkpt lat="44.15719" lon="3.09915">
        <ele>376</ele>
        <time>2010-01-01T00:54:40Z</time>
      </trkpt>
      <trkpt lat="44.15717" lon="3.09912">
        <ele>376</ele>
        <time>2010-01-01T00:54:41Z</time>
      </trkpt>
      <trkpt lat="44.15715" lon="3.09913">
        <ele>376</ele>
        <time>2010-01-01T00:54:42Z</time>
      </trkpt>
      <trkpt lat="44.15709" lon="3.09912">
        <ele>376</ele>
        <time>2010-01-01T00:54:44Z</time>
      </trkpt>
      <trkpt lat="44.15704" lon="3.09911">
        <ele>376</ele>
        <time>2010-01-01T00:54:46Z</time>
      </trkpt>
      <trkpt lat="44.15702" lon="3.0991">
        <ele>376</ele>
        <time>2010-01-01T00:54:47Z</time>
      </trkpt>
      <trkpt lat="44.15704" lon="3.09909">
        <ele>376</ele>
        <time>2010-01-01T00:54:48Z</time>
      </trkpt>
      <trkpt lat="44.15707" lon="3.09909">
        <ele>376</ele>
        <time>2010-01-01T00:54:49Z</time>
      </trkpt>
      <trkpt lat="44.15711" lon="3.09909">
        <ele>376</ele>
        <time>2010-01-01T00:54:51Z</time>
      </trkpt>
      <trkpt lat="44.15714" lon="3.09908">
        <ele>376</ele>
        <time>2010-01-01T00:54:52Z</time>
      </trkpt>
      <trkpt lat="44.15716" lon="3.09907">
        <ele>376</ele>
        <time>2010-01-01T00:54:53Z</time>
      </trkpt>
      <trkpt lat="44.15719" lon="3.09911">
        <ele>375</ele>
        <time>2010-01-01T00:54:54Z</time>
      </trkpt>
      <trkpt lat="44.15722" lon="3.09915">
        <ele>375</ele>
        <time>2010-01-01T00:54:56Z</time>
      </trkpt>
      <trkpt lat="44.15725" lon="3.0992">
        <ele>375</ele>
        <time>2010-01-01T00:54:58Z</time>
      </trkpt>
      <trkpt lat="44.15728" lon="3.09925">
        <ele>375</ele>
        <time>2010-01-01T00:55:00Z</time>
      </trkpt>
      <trkpt lat="44.15732" lon="3.0993">
        <ele>374</ele>
        <time>2010-01-01T00:55:02Z</time>
      </trkpt>
      <trkpt lat="44.15736" lon="3.09936">
        <ele>374</ele>
        <time>2010-01-01T00:55:04Z</time>
      </trkpt>
      <trkpt lat="44.15739" lon="3.09941">
        <ele>373</ele>
        <time>2010-01-01T00:55:06Z</time>
      </trkpt>
      <trkpt lat="44.15743" lon="3.09947">
        <ele>373</ele>
        <time>2010-01-01T00:55:09Z</time>
      </trkpt>
      <trkpt lat="44.15748" lon="3.09953">
        <ele>373</ele>
        <time>2010-01-01T00:55:11Z</time>
      </trkpt>
      <trkpt lat="44.15752" lon="3.0996">
        <ele>372</ele>
        <time>2010-01-01T00:55:14Z</time>
      </trkpt>
      <trkpt lat="44.15757" lon="3.09968">
        <ele>372</ele>
        <time>2010-01-01T00:55:17Z</time>
      </trkpt>
      <trkpt lat="44.15762" lon="3.09978">
        <ele>372</ele>
        <time>2010-01-01T00:55:20Z</time>
      </trkpt>
      <trkpt lat="44.15766" lon="3.09989">
        <ele>372</ele>
        <time>2010-01-01T00:55:24Z</time>
      </trkpt>
      <trkpt lat="44.1577" lon="3.1">
        <ele>373</ele>
        <time>2010-01-01T00:55:27Z</time>
      </trkpt>
      <trkpt lat="44.15774" lon="3.1001">
        <ele>373</ele>
        <time>2010-01-01T00:55:31Z</time>
      </trkpt>
      <trkpt lat="44.15777" lon="3.10022">
        <ele>374</ele>
        <time>2010-01-01T00:55:34Z</time>
      </trkpt>
      <trkpt lat="44.15778" lon="3.10031">
        <ele>374</ele>
        <time>2010-01-01T00:55:37Z</time>
      </trkpt>
      <trkpt lat="44.15779" lon="3.10037">
        <ele>374</ele>
        <time>2010-01-01T00:55:39Z</time>
      </trkpt>
      <trkpt lat="44.1578" lon="3.10039">
        <ele>374</ele>
        <time>2010-01-01T00:55:39Z</time>
      </trkpt>
      <trkpt lat="44.1578" lon="3.10039">
        <ele>374</ele>
        <time>2010-01-01T00:55:39Z</time>
      </trkpt>
      <trkpt lat="44.1578" lon="3.10039">
        <ele>374</ele>
        <time>2010-01-01T00:55:39Z</time>
      </trkpt>
      <trkpt lat="44.15783" lon="3.10048">
        <ele>375</ele>
        <time>2010-01-01T00:55:42Z</time>
      </trkpt>
      <trkpt lat="44.15788" lon="3.10052">
        <ele>375</ele>
        <time>2010-01-01T00:55:45Z</time>
      </trkpt>
      <trkpt lat="44.15793" lon="3.10054">
        <ele>376</ele>
        <time>2010-01-01T00:55:47Z</time>
      </trkpt>
      <trkpt lat="44.15796" lon="3.10055">
        <ele>376</ele>
        <time>2010-01-01T00:55:48Z</time>
      </trkpt>
      <trkpt lat="44.15799" lon="3.10056">
        <ele>377</ele>
        <time>2010-01-01T00:55:49Z</time>
      </trkpt>
      <trkpt lat="44.15804" lon="3.10059">
        <ele>377</ele>
        <time>2010-01-01T00:55:51Z</time>
      </trkpt>
      <trkpt lat="44.15808" lon="3.1006">
        <ele>378</ele>
        <time>2010-01-01T00:55:53Z</time>
      </trkpt>
      <trkpt lat="44.15811" lon="3.10061">
        <ele>379</ele>
        <time>2010-01-01T00:55:54Z</time>
      </trkpt>
      <trkpt lat="44.15815" lon="3.10063">
        <ele>379</ele>
        <time>2010-01-01T00:55:56Z</time>
      </trkpt>
      <trkpt lat="44.15818" lon="3.10065">
        <ele>380</ele>
        <time>2010-01-01T00:55:57Z</time>
      </trkpt>
      <trkpt lat="44.15821" lon="3.10068">
        <ele>380</ele>
        <time>2010-01-01T00:55:59Z</time>
      </trkpt>
      <trkpt lat="44.15825" lon="3.1007">
        <ele>381</ele>
        <time>2010-01-01T00:56:00Z</time>
      </trkpt>
      <trkpt lat="44.15827" lon="3.10073">
        <ele>381</ele>
        <time>2010-01-01T00:56:02Z</time>
      </trkpt>
      <trkpt lat="44.1583" lon="3.10076">
        <ele>381</ele>
        <time>2010-01-01T00:56:03Z</time>
      </trkpt>
      <trkpt lat="44.15833" lon="3.10078">
        <ele>382</ele>
        <time>2010-01-01T00:56:04Z</time>
      </trkpt>
      <trkpt lat="44.15836" lon="3.10081">
        <ele>382</ele>
        <time>2010-01-01T00:56:06Z</time>
      </trkpt>
      <trkpt lat="44.15838" lon="3.10083">
        <ele>382</ele>
        <time>2010-01-01T00:56:07Z</time>
      </trkpt>
      <trkpt lat="44.15841" lon="3.10086">
        <ele>383</ele>
        <time>2010-01-01T00:56:08Z</time>
      </trkpt>
      <trkpt lat="44.15843" lon="3.10089">
        <ele>383</ele>
        <time>2010-01-01T00:56:09Z</time>
      </trkpt>
      <trkpt lat="44.15845" lon="3.10091">
        <ele>383</ele>
        <time>2010-01-01T00:56:11Z</time>
      </trkpt>
      <trkpt lat="44.15848" lon="3.10093">
        <ele>384</ele>
        <time>2010-01-01T00:56:12Z</time>
      </trkpt>
      <trkpt lat="44.1585" lon="3.10095">
        <ele>384</ele>
        <time>2010-01-01T00:56:13Z</time>
      </trkpt>
      <trkpt lat="44.15853" lon="3.10094">
        <ele>384</ele>
        <time>2010-01-01T00:56:14Z</time>
      </trkpt>
      <trkpt lat="44.15855" lon="3.10092">
        <ele>385</ele>
        <time>2010-01-01T00:56:15Z</time>
      </trkpt>
      <trkpt lat="44.15857" lon="3.10089">
        <ele>385</ele>
        <time>2010-01-01T00:56:16Z</time>
      </trkpt>
      <trkpt lat="44.15859" lon="3.10086">
        <ele>385</ele>
        <time>2010-01-01T00:56:17Z</time>
      </trkpt>
      <trkpt lat="44.1586" lon="3.10083">
        <ele>385</ele>
        <time>2010-01-01T00:56:18Z</time>
      </trkpt>
      <trkpt lat="44.15861" lon="3.1008">
        <ele>386</ele>
        <time>2010-01-01T00:56:19Z</time>
      </trkpt>
      <trkpt lat="44.15861" lon="3.10077">
        <ele>386</ele>
        <time>2010-01-01T00:56:20Z</time>
      </trkpt>
      <trkpt lat="44.15862" lon="3.10073">
        <ele>387</ele>
        <time>2010-01-01T00:56:21Z</time>
      </trkpt>
      <trkpt lat="44.15863" lon="3.1007">
        <ele>387</ele>
        <time>2010-01-01T00:56:22Z</time>
      </trkpt>
      <trkpt lat="44.15863" lon="3.10067">
        <ele>388</ele>
        <time>2010-01-01T00:56:23Z</time>
      </trkpt>
      <trkpt lat="44.15864" lon="3.10064">
        <ele>388</ele>
        <time>2010-01-01T00:56:24Z</time>
      </trkpt>
      <trkpt lat="44.15865" lon="3.10061">
        <ele>389</ele>
        <time>2010-01-01T00:56:25Z</time>
      </trkpt>
      <trkpt lat="44.15867" lon="3.10058">
        <ele>390</ele>
        <time>2010-01-01T00:56:26Z</time>
      </trkpt>
      <trkpt lat="44.15868" lon="3.10056">
        <ele>390</ele>
        <time>2010-01-01T00:56:27Z</time>
      </trkpt>
      <trkpt lat="44.1587" lon="3.10054">
        <ele>391</ele>
        <time>2010-01-01T00:56:28Z</time>
      </trkpt>
      <trkpt lat="44.15871" lon="3.10051">
        <ele>391</ele>
        <time>2010-01-01T00:56:29Z</time>
      </trkpt>
      <trkpt lat="44.15872" lon="3.10048">
        <ele>392</ele>
        <time>2010-01-01T00:56:29Z</time>
      </trkpt>
      <trkpt lat="44.15873" lon="3.10045">
        <ele>392</ele>
        <time>2010-01-01T00:56:30Z</time>
      </trkpt>
      <trkpt lat="44.15875" lon="3.10043">
        <ele>393</ele>
        <time>2010-01-01T00:56:31Z</time>
      </trkpt>
      <trkpt lat="44.15876" lon="3.10041">
        <ele>394</ele>
        <time>2010-01-01T00:56:32Z</time>
      </trkpt>
      <trkpt lat="44.15877" lon="3.10038">
        <ele>394</ele>
        <time>2010-01-01T00:56:33Z</time>
      </trkpt>
      <trkpt lat="44.15879" lon="3.10036">
        <ele>395</ele>
        <time>2010-01-01T00:56:34Z</time>
      </trkpt>
      <trkpt lat="44.1588" lon="3.10034">
        <ele>395</ele>
        <time>2010-01-01T00:56:35Z</time>
      </trkpt>
      <trkpt lat="44.15882" lon="3.10031">
        <ele>396</ele>
        <time>2010-01-01T00:56:36Z</time>
      </trkpt>
      <trkpt lat="44.15883" lon="3.10028">
        <ele>397</ele>
        <time>2010-01-01T00:56:37Z</time>
      </trkpt>
      <trkpt lat="44.15885" lon="3.10026">
        <ele>397</ele>
        <time>2010-01-01T00:56:38Z</time>
      </trkpt>
      <trkpt lat="44.15887" lon="3.10023">
        <ele>398</ele>
        <time>2010-01-01T00:56:39Z</time>
      </trkpt>
      <trkpt lat="44.15888" lon="3.1002">
        <ele>398</ele>
        <time>2010-01-01T00:56:40Z</time>
      </trkpt>
      <trkpt lat="44.1589" lon="3.10018">
        <ele>399</ele>
        <time>2010-01-01T00:56:41Z</time>
      </trkpt>
      <trkpt lat="44.1589" lon="3.10014">
        <ele>399</ele>
        <time>2010-01-01T00:56:42Z</time>
      </trkpt>
      <trkpt lat="44.1589" lon="3.10011">
        <ele>399</ele>
        <time>2010-01-01T00:56:43Z</time>
      </trkpt>
      <trkpt lat="44.1589" lon="3.10007">
        <ele>399</ele>
        <time>2010-01-01T00:56:44Z</time>
      </trkpt>
      <trkpt lat="44.15891" lon="3.10003">
        <ele>399</ele>
        <time>2010-01-01T00:56:45Z</time>
      </trkpt>
      <trkpt lat="44.1589" lon="3.09999">
        <ele>399</ele>
        <time>2010-01-01T00:56:46Z</time>
      </trkpt>
      <trkpt lat="44.15889" lon="3.09995">
        <ele>398</ele>
        <time>2010-01-01T00:56:47Z</time>
      </trkpt>
      <trkpt lat="44.15888" lon="3.09991">
        <ele>398</ele>
        <time>2010-01-01T00:56:49Z</time>
      </trkpt>
      <trkpt lat="44.15887" lon="3.09986">
        <ele>397</ele>
        <time>2010-01-01T00:56:50Z</time>
      </trkpt>
      <trkpt lat="44.15886" lon="3.09982">
        <ele>397</ele>
        <time>2010-01-01T00:56:51Z</time>
      </trkpt>
      <trkpt lat="44.15885" lon="3.09977">
        <ele>397</ele>
        <time>2010-01-01T00:56:53Z</time>
      </trkpt>
      <trkpt lat="44.15886" lon="3.09973">
        <ele>397</ele>
        <time>2010-01-01T00:56:54Z</time>
      </trkpt>
      <trkpt lat="44.15886" lon="3.09968">
        <ele>396</ele>
        <time>2010-01-01T00:56:56Z</time>
      </trkpt>
      <trkpt lat="44.15887" lon="3.09963">
        <ele>396</ele>
        <time>2010-01-01T00:56:57Z</time>
      </trkpt>
      <trkpt lat="44.15888" lon="3.09958">
        <ele>396</ele>
        <time>2010-01-01T00:56:58Z</time>
      </trkpt>
      <trkpt lat="44.1589" lon="3.09953">
        <ele>396</ele>
        <time>2010-01-01T00:57:00Z</time>
      </trkpt>
      <trkpt lat="44.15892" lon="3.09949">
        <ele>397</ele>
        <time>2010-01-01T00:57:02Z</time>
      </trkpt>
      <trkpt lat="44.15895" lon="3.09945">
        <ele>397</ele>
        <time>2010-01-01T00:57:03Z</time>
      </trkpt>
      <trkpt lat="44.15897" lon="3.09943">
        <ele>397</ele>
        <time>2010-01-01T00:57:04Z</time>
      </trkpt>
      <trkpt lat="44.159" lon="3.09943">
        <ele>398</ele>
        <time>2010-01-01T00:57:05Z</time>
      </trkpt>
      <trkpt lat="44.15903" lon="3.09945">
        <ele>399</ele>
        <time>2010-01-01T00:57:06Z</time>
      </trkpt>
      <trkpt lat="44.15904" lon="3.09949">
        <ele>399</ele>
        <time>2010-01-01T00:57:07Z</time>
      </trkpt>
      <trkpt lat="44.15905" lon="3.09952">
        <ele>400</ele>
        <time>2010-01-01T00:57:09Z</time>
      </trkpt>
      <trkpt lat="44.15907" lon="3.09955">
        <ele>400</ele>
        <time>2010-01-01T00:57:10Z</time>
      </trkpt>
      <trkpt lat="44.15908" lon="3.09958">
        <ele>401</ele>
        <time>2010-01-01T00:57:11Z</time>
      </trkpt>
      <trkpt lat="44.15911" lon="3.09959">
        <ele>401</ele>
        <time>2010-01-01T00:57:12Z</time>
      </trkpt>
      <trkpt lat="44.15913" lon="3.0996">
        <ele>402</ele>
        <time>2010-01-01T00:57:13Z</time>
      </trkpt>
      <trkpt lat="44.15916" lon="3.09959">
        <ele>402</ele>
        <time>2010-01-01T00:57:14Z</time>
      </trkpt>
      <trkpt lat="44.15919" lon="3.09957">
        <ele>403</ele>
        <time>2010-01-01T00:57:15Z</time>
      </trkpt>
      <trkpt lat="44.15921" lon="3.09954">
        <ele>403</ele>
        <time>2010-01-01T00:57:16Z</time>
      </trkpt>
      <trkpt lat="44.15922" lon="3.09951">
        <ele>404</ele>
        <time>2010-01-01T00:57:17Z</time>
      </trkpt>
      <trkpt lat="44.15924" lon="3.09949">
        <ele>404</ele>
        <time>2010-01-01T00:57:18Z</time>
      </trkpt>
      <trkpt lat="44.15925" lon="3.09946">
        <ele>404</ele>
        <time>2010-01-01T00:57:19Z</time>
      </trkpt>
      <trkpt lat="44.15927" lon="3.09942">
        <ele>405</ele>
        <time>2010-01-01T00:57:21Z</time>
      </trkpt>
      <trkpt lat="44.15929" lon="3.09939">
        <ele>405</ele>
        <time>2010-01-01T00:57:22Z</time>
      </trkpt>
      <trkpt lat="44.15931" lon="3.09937">
        <ele>406</ele>
        <time>2010-01-01T00:57:23Z</time>
      </trkpt>
      <trkpt lat="44.15933" lon="3.09935">
        <ele>406</ele>
        <time>2010-01-01T00:57:24Z</time>
      </trkpt>
      <trkpt lat="44.15935" lon="3.09932">
        <ele>407</ele>
        <time>2010-01-01T00:57:25Z</time>
      </trkpt>
      <trkpt lat="44.15937" lon="3.09929">
        <ele>407</ele>
        <time>2010-01-01T00:57:26Z</time>
      </trkpt>
      <trkpt lat="44.15939" lon="3.09926">
        <ele>408</ele>
        <time>2010-01-01T00:57:27Z</time>
      </trkpt>
      <trkpt lat="44.15941" lon="3.09925">
        <ele>409</ele>
        <time>2010-01-01T00:57:28Z</time>
      </trkpt>
      <trkpt lat="44.15944" lon="3.09925">
        <ele>410</ele>
        <time>2010-01-01T00:57:29Z</time>
      </trkpt>
      <trkpt lat="44.15946" lon="3.09925">
        <ele>410</ele>
        <time>2010-01-01T00:57:30Z</time>
      </trkpt>
      <trkpt lat="44.15949" lon="3.09926">
        <ele>411</ele>
        <time>2010-01-01T00:57:31Z</time>
      </trkpt>
      <trkpt lat="44.15951" lon="3.09927">
        <ele>412</ele>
        <time>2010-01-01T00:57:32Z</time>
      </trkpt>
      <trkpt lat="44.15953" lon="3.09927">
        <ele>412</ele>
        <time>2010-01-01T00:57:33Z</time>
      </trkpt>
      <trkpt lat="44.15956" lon="3.09927">
        <ele>413</ele>
        <time>2010-01-01T00:57:34Z</time>
      </trkpt>
      <trkpt lat="44.15958" lon="3.09927">
        <ele>414</ele>
        <time>2010-01-01T00:57:35Z</time>
      </trkpt>
      <trkpt lat="44.15961" lon="3.09928">
        <ele>414</ele>
        <time>2010-01-01T00:57:36Z</time>
      </trkpt>
      <trkpt lat="44.15963" lon="3.09929">
        <ele>415</ele>
        <time>2010-01-01T00:57:37Z</time>
      </trkpt>
      <trkpt lat="44.15965" lon="3.0993">
        <ele>416</ele>
        <time>2010-01-01T00:57:38Z</time>
      </trkpt>
      <trkpt lat="44.15967" lon="3.09931">
        <ele>416</ele>
        <time>2010-01-01T00:57:39Z</time>
      </trkpt>
      <trkpt lat="44.1597" lon="3.09933">
        <ele>417</ele>
        <time>2010-01-01T00:57:40Z</time>
      </trkpt>
      <trkpt lat="44.15972" lon="3.09935">
        <ele>417</ele>
        <time>2010-01-01T00:57:41Z</time>
      </trkpt>
      <trkpt lat="44.15974" lon="3.09937">
        <ele>418</ele>
        <time>2010-01-01T00:57:42Z</time>
      </trkpt>
      <trkpt lat="44.15976" lon="3.09938">
        <ele>418</ele>
        <time>2010-01-01T00:57:43Z</time>
      </trkpt>
      <trkpt lat="44.15978" lon="3.09941">
        <ele>419</ele>
        <time>2010-01-01T00:57:44Z</time>
      </trkpt>
      <trkpt lat="44.1598" lon="3.09943">
        <ele>419</ele>
        <time>2010-01-01T00:57:45Z</time>
      </trkpt>
      <trkpt lat="44.15981" lon="3.09946">
        <ele>420</ele>
        <time>2010-01-01T00:57:46Z</time>
      </trkpt>
      <trkpt lat="44.15983" lon="3.09948">
        <ele>420</ele>
        <time>2010-01-01T00:57:47Z</time>
      </trkpt>
      <trkpt lat="44.15984" lon="3.09951">
        <ele>421</ele>
        <time>2010-01-01T00:57:48Z</time>
      </trkpt>
      <trkpt lat="44.15986" lon="3.09953">
        <ele>421</ele>
        <time>2010-01-01T00:57:49Z</time>
      </trkpt>
      <trkpt lat="44.15987" lon="3.09956">
        <ele>422</ele>
        <time>2010-01-01T00:57:50Z</time>
      </trkpt>
      <trkpt lat="44.15988" lon="3.09959">
        <ele>422</ele>
        <time>2010-01-01T00:57:51Z</time>
      </trkpt>
      <trkpt lat="44.15989" lon="3.09962">
        <ele>422</ele>
        <time>2010-01-01T00:57:52Z</time>
      </trkpt>
      <trkpt lat="44.15991" lon="3.09964">
        <ele>423</ele>
        <time>2010-01-01T00:57:53Z</time>
      </trkpt>
      <trkpt lat="44.15992" lon="3.09967">
        <ele>423</ele>
        <time>2010-01-01T00:57:54Z</time>
      </trkpt>
      <trkpt lat="44.15993" lon="3.0997">
        <ele>424</ele>
        <time>2010-01-01T00:57:55Z</time>
      </trkpt>
      <trkpt lat="44.15995" lon="3.09972">
        <ele>424</ele>
        <time>2010-01-01T00:57:55Z</time>
      </trkpt>
      <trkpt lat="44.15996" lon="3.09975">
        <ele>425</ele>
        <time>2010-01-01T00:57:56Z</time>
      </trkpt>
      <trkpt lat="44.15998" lon="3.09978">
        <ele>425</ele>
        <time>2010-01-01T00:57:57Z</time>
      </trkpt>
      <trkpt lat="44.15998" lon="3.0998">
        <ele>426</ele>
        <time>2010-01-01T00:57:58Z</time>
      </trkpt>
      <trkpt lat="44.15999" lon="3.09983">
        <ele>426</ele>
        <time>2010-01-01T00:57:59Z</time>
      </trkpt>
      <trkpt lat="44.16" lon="3.09986">
        <ele>426</ele>
        <time>2010-01-01T00:58:00Z</time>
      </trkpt>
      <trkpt lat="44.16001" lon="3.09989">
        <ele>427</ele>
        <time>2010-01-01T00:58:01Z</time>
      </trkpt>
      <trkpt lat="44.16001" lon="3.09993">
        <ele>427</ele>
        <time>2010-01-01T00:58:02Z</time>
      </trkpt>
      <trkpt lat="44.16002" lon="3.09996">
        <ele>428</ele>
        <time>2010-01-01T00:58:03Z</time>
      </trkpt>
      <trkpt lat="44.16003" lon="3.09999">
        <ele>428</ele>
        <time>2010-01-01T00:58:04Z</time>
      </trkpt>
      <trkpt lat="44.16003" lon="3.10002">
        <ele>429</ele>
        <time>2010-01-01T00:58:05Z</time>
      </trkpt>
      <trkpt lat="44.16004" lon="3.10006">
        <ele>429</ele>
        <time>2010-01-01T00:58:06Z</time>
      </trkpt>
      <trkpt lat="44.16004" lon="3.10009">
        <ele>429</ele>
        <time>2010-01-01T00:58:07Z</time>
      </trkpt>
      <trkpt lat="44.16004" lon="3.10012">
        <ele>430</ele>
        <time>2010-01-01T00:58:08Z</time>
      </trkpt>
      <trkpt lat="44.16004" lon="3.10016">
        <ele>430</ele>
        <time>2010-01-01T00:58:09Z</time>
      </trkpt>
      <trkpt lat="44.16005" lon="3.10019">
        <ele>430</ele>
        <time>2010-01-01T00:58:10Z</time>
      </trkpt>
      <trkpt lat="44.16006" lon="3.10022">
        <ele>431</ele>
        <time>2010-01-01T00:58:11Z</time>
      </trkpt>
      <trkpt lat="44.16007" lon="3.10025">
        <ele>431</ele>
        <time>2010-01-01T00:58:12Z</time>
      </trkpt>
      <trkpt lat="44.16008" lon="3.10028">
        <ele>432</ele>
        <time>2010-01-01T00:58:13Z</time>
      </trkpt>
      <trkpt lat="44.16009" lon="3.10031">
        <ele>432</ele>
        <time>2010-01-01T00:58:14Z</time>
      </trkpt>
      <trkpt lat="44.1601" lon="3.10035">
        <ele>432</ele>
        <time>2010-01-01T00:58:15Z</time>
      </trkpt>
      <trkpt lat="44.16011" lon="3.10037">
        <ele>433</ele>
        <time>2010-01-01T00:58:15Z</time>
      </trkpt>
      <trkpt lat="44.16012" lon="3.1004">
        <ele>433</ele>
        <time>2010-01-01T00:58:16Z</time>
      </trkpt>
      <trkpt lat="44.16013" lon="3.10042">
        <ele>434</ele>
        <time>2010-01-01T00:58:17Z</time>
      </trkpt>
      <trkpt lat="44.16015" lon="3.10045">
        <ele>434</ele>
        <time>2010-01-01T00:58:18Z</time>
      </trkpt>
      <trkpt lat="44.16016" lon="3.10048">
        <ele>435</ele>
        <time>2010-01-01T00:58:19Z</time>
      </trkpt>
      <trkpt lat="44.16017" lon="3.10051">
        <ele>435</ele>
        <time>2010-01-01T00:58:20Z</time>
      </trkpt>
      <trkpt lat="44.16017" lon="3.10054">
        <ele>435</ele>
        <time>2010-01-01T00:58:21Z</time>
      </trkpt>
      <trkpt lat="44.16018" lon="3.10057">
        <ele>436</ele>
        <time>2010-01-01T00:58:22Z</time>
      </trkpt>
      <trkpt lat="44.16019" lon="3.1006">
        <ele>436</ele>
        <time>2010-01-01T00:58:23Z</time>
      </trkpt>
      <trkpt lat="44.1602" lon="3.10063">
        <ele>437</ele>
        <time>2010-01-01T00:58:24Z</time>
      </trkpt>
      <trkpt lat="44.16021" lon="3.10066">
        <ele>437</ele>
        <time>2010-01-01T00:58:25Z</time>
      </trkpt>
      <trkpt lat="44.16022" lon="3.10069">
        <ele>437</ele>
        <time>2010-01-01T00:58:26Z</time>
      </trkpt>
      <trkpt lat="44.16025" lon="3.10073">
        <ele>438</ele>
        <time>2010-01-01T00:58:27Z</time>
      </trkpt>
      <trkpt lat="44.16026" lon="3.10076">
        <ele>439</ele>
        <time>2010-01-01T00:58:28Z</time>
      </trkpt>
      <trkpt lat="44.16028" lon="3.10078">
        <ele>439</ele>
        <time>2010-01-01T00:58:29Z</time>
      </trkpt>
      <trkpt lat="44.16029" lon="3.10081">
        <ele>440</ele>
        <time>2010-01-01T00:58:30Z</time>
      </trkpt>
      <trkpt lat="44.16031" lon="3.10083">
        <ele>441</ele>
        <time>2010-01-01T00:58:31Z</time>
      </trkpt>
      <trkpt lat="44.16033" lon="3.10086">
        <ele>441</ele>
        <time>2010-01-01T00:58:32Z</time>
      </trkpt>
      <trkpt lat="44.16034" lon="3.10088">
        <ele>442</ele>
        <time>2010-01-01T00:58:33Z</time>
      </trkpt>
      <trkpt lat="44.16036" lon="3.10091">
        <ele>442</ele>
        <time>2010-01-01T00:58:34Z</time>
      </trkpt>
      <trkpt lat="44.16037" lon="3.10094">
        <ele>443</ele>
        <time>2010-01-01T00:58:35Z</time>
      </trkpt>
      <trkpt lat="44.16039" lon="3.10097">
        <ele>443</ele>
        <time>2010-01-01T00:58:36Z</time>
      </trkpt>
      <trkpt lat="44.1604" lon="3.101">
        <ele>444</ele>
        <time>2010-01-01T00:58:37Z</time>
      </trkpt>
      <trkpt lat="44.16041" lon="3.10103">
        <ele>445</ele>
        <time>2010-01-01T00:58:38Z</time>
      </trkpt>
      <trkpt lat="44.16041" lon="3.10107">
        <ele>445</ele>
        <time>2010-01-01T00:58:39Z</time>
      </trkpt>
      <trkpt lat="44.16041" lon="3.10112">
        <ele>445</ele>
        <time>2010-01-01T00:58:41Z</time>
      </trkpt>
      <trkpt lat="44.16042" lon="3.10115">
        <ele>445</ele>
        <time>2010-01-01T00:58:42Z</time>
      </trkpt>
      <trkpt lat="44.16044" lon="3.10119">
        <ele>446</ele>
        <time>2010-01-01T00:58:43Z</time>
      </trkpt>
      <trkpt lat="44.16044" lon="3.10123">
        <ele>446</ele>
        <time>2010-01-01T00:58:44Z</time>
      </trkpt>
      <trkpt lat="44.16045" lon="3.10126">
        <ele>447</ele>
        <time>2010-01-01T00:58:45Z</time>
      </trkpt>
      <trkpt lat="44.16046" lon="3.1013">
        <ele>448</ele>
        <time>2010-01-01T00:58:46Z</time>
      </trkpt>
      <trkpt lat="44.16047" lon="3.10134">
        <ele>448</ele>
        <time>2010-01-01T00:58:47Z</time>
      </trkpt>
      <trkpt lat="44.16047" lon="3.10134">
        <ele>448</ele>
        <time>2010-01-01T00:58:48Z</time>
      </trkpt>
      <trkpt lat="44.16047" lon="3.10135">
        <ele>448</ele>
        <time>2010-01-01T00:58:48Z</time>
      </trkpt>
      <trkpt lat="44.16047" lon="3.10136">
        <ele>448</ele>
        <time>2010-01-01T00:58:48Z</time>
      </trkpt>
      <trkpt lat="44.16048" lon="3.1014">
        <ele>449</ele>
        <time>2010-01-01T00:58:49Z</time>
      </trkpt>
      <trkpt lat="44.16048" lon="3.10142">
        <ele>449</ele>
        <time>2010-01-01T00:58:50Z</time>
      </trkpt>
      <trkpt lat="44.16048" lon="3.10144">
        <ele>449</ele>
        <time>2010-01-01T00:58:50Z</time>
      </trkpt>
      <trkpt lat="44.16049" lon="3.10145">
        <ele>449</ele>
        <time>2010-01-01T00:58:51Z</time>
      </trkpt>
      <trkpt lat="44.1605" lon="3.10145">
        <ele>450</ele>
        <time>2010-01-01T00:58:52Z</time>
      </trkpt>
      <trkpt lat="44.16051" lon="3.10143">
        <ele>450</ele>
        <time>2010-01-01T00:58:52Z</time>
      </trkpt>
      <trkpt lat="44.16054" lon="3.10141">
        <ele>451</ele>
        <time>2010-01-01T00:58:53Z</time>
      </trkpt>
      <trkpt lat="44.16055" lon="3.10137">
        <ele>451</ele>
        <time>2010-01-01T00:58:55Z</time>
      </trkpt>
      <trkpt lat="44.16056" lon="3.10132">
        <ele>451</ele>
        <time>2010-01-01T00:58:56Z</time>
      </trkpt>
      <trkpt lat="44.16058" lon="3.10126">
        <ele>451</ele>
        <time>2010-01-01T00:58:58Z</time>
      </trkpt>
      <trkpt lat="44.1606" lon="3.10121">
        <ele>452</ele>
        <time>2010-01-01T00:58:59Z</time>
      </trkpt>
      <trkpt lat="44.16062" lon="3.10116">
        <ele>453</ele>
        <time>2010-01-01T00:59:01Z</time>
      </trkpt>
      <trkpt lat="44.16063" lon="3.1011">
        <ele>453</ele>
        <time>2010-01-01T00:59:03Z</time>
      </trkpt>
      <trkpt lat="44.16064" lon="3.10105">
        <ele>453</ele>
        <time>2010-01-01T00:59:04Z</time>
      </trkpt>
      <trkpt lat="44.16065" lon="3.10099">
        <ele>453</ele>
        <time>2010-01-01T00:59:06Z</time>
      </trkpt>
      <trkpt lat="44.16065" lon="3.10092">
        <ele>453</ele>
        <time>2010-01-01T00:59:08Z</time>
      </trkpt>
      <trkpt lat="44.16066" lon="3.10086">
        <ele>453</ele>
        <time>2010-01-01T00:59:10Z</time>
      </trkpt>
      <trkpt lat="44.16067" lon="3.1008">
        <ele>453</ele>
        <time>2010-01-01T00:59:12Z</time>
      </trkpt>
      <trkpt lat="44.16067" lon="3.10074">
        <ele>453</ele>
        <time>2010-01-01T00:59:13Z</time>
      </trkpt>
      <trkpt lat="44.16069" lon="3.10068">
        <ele>453</ele>
        <time>2010-01-01T00:59:15Z</time>
      </trkpt>
      <trkpt lat="44.1607" lon="3.10063">
        <ele>454</ele>
        <time>2010-01-01T00:59:17Z</time>
      </trkpt>
      <trkpt lat="44.16072" lon="3.10058">
        <ele>454</ele>
        <time>2010-01-01T00:59:18Z</time>
      </trkpt>
      <trkpt lat="44.16075" lon="3.10052">
        <ele>455</ele>
        <time>2010-01-01T00:59:20Z</time>
      </trkpt>
      <trkpt lat="44.16077" lon="3.10047">
        <ele>455</ele>
        <time>2010-01-01T00:59:22Z</time>
      </trkpt>
      <trkpt lat="44.16079" lon="3.10042">
        <ele>456</ele>
        <time>2010-01-01T00:59:24Z</time>
      </trkpt>
      <trkpt lat="44.16081" lon="3.10036">
        <ele>457</ele>
        <time>2010-01-01T00:59:26Z</time>
      </trkpt>
      <trkpt lat="44.16083" lon="3.1003">
        <ele>457</ele>
        <time>2010-01-01T00:59:28Z</time>
      </trkpt>
      <trkpt lat="44.16085" lon="3.10024">
        <ele>458</ele>
        <time>2010-01-01T00:59:30Z</time>
      </trkpt>
      <trkpt lat="44.16087" lon="3.10018">
        <ele>458</ele>
        <time>2010-01-01T00:59:31Z</time>
      </trkpt>
      <trkpt lat="44.16089" lon="3.10012">
        <ele>458</ele>
        <time>2010-01-01T00:59:33Z</time>
      </trkpt>
      <trkpt lat="44.1609" lon="3.10006">
        <ele>458</ele>
        <time>2010-01-01T00:59:35Z</time>
      </trkpt>
      <trkpt lat="44.16092" lon="3.1">
        <ele>458</ele>
        <time>2010-01-01T00:59:37Z</time>
      </trkpt>
      <trkpt lat="44.16093" lon="3.09993">
        <ele>457</ele>
        <time>2010-01-01T00:59:39Z</time>
      </trkpt>
      <trkpt lat="44.16095" lon="3.09986">
        <ele>457</ele>
        <time>2010-01-01T00:59:41Z</time>
      </trkpt>
      <trkpt lat="44.16097" lon="3.09979">
        <ele>457</ele>
        <time>2010-01-01T00:59:43Z</time>
      </trkpt>
      <trkpt lat="44.16099" lon="3.09973">
        <ele>458</ele>
        <time>2010-01-01T00:59:45Z</time>
      </trkpt>
      <trkpt lat="44.16101" lon="3.09966">
        <ele>458</ele>
        <time>2010-01-01T00:59:47Z</time>
      </trkpt>
      <trkpt lat="44.16105" lon="3.09961">
        <ele>458</ele>
        <time>2010-01-01T00:59:49Z</time>
      </trkpt>
      <trkpt lat="44.16108" lon="3.09956">
        <ele>458</ele>
        <time>2010-01-01T00:59:51Z</time>
      </trkpt>
      <trkpt lat="44.16111" lon="3.09951">
        <ele>458</ele>
        <time>2010-01-01T00:59:53Z</time>
      </trkpt>
      <trkpt lat="44.16114" lon="3.09946">
        <ele>458</ele>
        <time>2010-01-01T00:59:55Z</time>
      </trkpt>
      <trkpt lat="44.16117" lon="3.09941">
        <ele>458</ele>
        <time>2010-01-01T00:59:57Z</time>
      </trkpt>
      <trkpt lat="44.1612" lon="3.09937">
        <ele>458</ele>
        <time>2010-01-01T00:59:59Z</time>
      </trkpt>
      <trkpt lat="44.16123" lon="3.09933">
        <ele>458</ele>
        <time>2010-01-01T01:00:00Z</time>
      </trkpt>
      <trkpt lat="44.16125" lon="3.09933">
        <ele>458</ele>
        <time>2010-01-01T01:00:01Z</time>
      </trkpt>
      <trkpt lat="44.16126" lon="3.09936">
        <ele>459</ele>
        <time>2010-01-01T01:00:02Z</time>
      </trkpt>
      <trkpt lat="44.16127" lon="3.09938">
        <ele>460</ele>
        <time>2010-01-01T01:00:03Z</time>
      </trkpt>
      <trkpt lat="44.1613" lon="3.09938">
        <ele>461</ele>
        <time>2010-01-01T01:00:04Z</time>
      </trkpt>
      <trkpt lat="44.16133" lon="3.09939">
        <ele>462</ele>
        <time>2010-01-01T01:00:05Z</time>
      </trkpt>
      <trkpt lat="44.16134" lon="3.09939">
        <ele>462</ele>
        <time>2010-01-01T01:00:06Z</time>
      </trkpt>
      <trkpt lat="44.16136" lon="3.09939">
        <ele>463</ele>
        <time>2010-01-01T01:00:07Z</time>
      </trkpt>
      <trkpt lat="44.16137" lon="3.09937">
        <ele>462</ele>
        <time>2010-01-01T01:00:07Z</time>
      </trkpt>
      <trkpt lat="44.16136" lon="3.09937">
        <ele>462</ele>
        <time>2010-01-01T01:00:08Z</time>
      </trkpt>
      <trkpt lat="44.16133" lon="3.0994">
        <ele>462</ele>
        <time>2010-01-01T01:00:09Z</time>
      </trkpt>
      <trkpt lat="44.1613" lon="3.09943">
        <ele>462</ele>
        <time>2010-01-01T01:00:11Z</time>
      </trkpt>
      <trkpt lat="44.16127" lon="3.09946">
        <ele>462</ele>
        <time>2010-01-01T01:00:12Z</time>
      </trkpt>
      <trkpt lat="44.16126" lon="3.0995">
        <ele>462</ele>
        <time>2010-01-01T01:00:13Z</time>
      </trkpt>
      <trkpt lat="44.16124" lon="3.09955">
        <ele>462</ele>
        <time>2010-01-01T01:00:15Z</time>
      </trkpt>
      <trkpt lat="44.16123" lon="3.09961">
        <ele>463</ele>
        <time>2010-01-01T01:00:17Z</time>
      </trkpt>
      <trkpt lat="44.16123" lon="3.09967">
        <ele>464</ele>
        <time>2010-01-01T01:00:18Z</time>
      </trkpt>
      <trkpt lat="44.16122" lon="3.09972">
        <ele>464</ele>
        <time>2010-01-01T01:00:20Z</time>
      </trkpt>
      <trkpt lat="44.16122" lon="3.09979">
        <ele>465</ele>
        <time>2010-01-01T01:00:22Z</time>
      </trkpt>
      <trkpt lat="44.16122" lon="3.09986">
        <ele>465</ele>
        <time>2010-01-01T01:00:24Z</time>
      </trkpt>
      <trkpt lat="44.1612" lon="3.09993">
        <ele>465</ele>
        <time>2010-01-01T01:00:26Z</time>
      </trkpt>
      <trkpt lat="44.16119" lon="3.09999">
        <ele>465</ele>
        <time>2010-01-01T01:00:28Z</time>
      </trkpt>
      <trkpt lat="44.16117" lon="3.10005">
        <ele>465</ele>
        <time>2010-01-01T01:00:30Z</time>
      </trkpt>
      <trkpt lat="44.16116" lon="3.10012">
        <ele>465</ele>
        <time>2010-01-01T01:00:32Z</time>
      </trkpt>
      <trkpt lat="44.16114" lon="3.10018">
        <ele>465</ele>
        <time>2010-01-01T01:00:34Z</time>
      </trkpt>
      <trkpt lat="44.16113" lon="3.10024">
        <ele>465</ele>
        <time>2010-01-01T01:00:35Z</time>
      </trkpt>
      <trkpt lat="44.16112" lon="3.1003">
        <ele>465</ele>
        <time>2010-01-01T01:00:37Z</time>
      </trkpt>
      <trkpt lat="44.1611" lon="3.10035">
        <ele>465</ele>
        <time>2010-01-01T01:00:39Z</time>
      </trkpt>
      <trkpt lat="44.1611" lon="3.10041">
        <ele>466</ele>
        <time>2010-01-01T01:00:40Z</time>
      </trkpt>
      <trkpt lat="44.16107" lon="3.10046">
        <ele>466</ele>
        <time>2010-01-01T01:00:42Z</time>
      </trkpt>
      <trkpt lat="44.16105" lon="3.10051">
        <ele>466</ele>
        <time>2010-01-01T01:00:44Z</time>
      </trkpt>
      <trkpt lat="44.16104" lon="3.10057">
        <ele>466</ele>
        <time>2010-01-01T01:00:45Z</time>
      </trkpt>
      <trkpt lat="44.16102" lon="3.10063">
        <ele>466</ele>
        <time>2010-01-01T01:00:47Z</time>
      </trkpt>
      <trkpt lat="44.16098" lon="3.10068">
        <ele>465</ele>
        <time>2010-01-01T01:00:50Z</time>
      </trkpt>
      <trkpt lat="44.16094" lon="3.10074">
        <ele>464</ele>
        <time>2010-01-01T01:00:52Z</time>
      </trkpt>
      <trkpt lat="44.16093" lon="3.10081">
        <ele>464</ele>
        <time>2010-01-01T01:00:54Z</time>
      </trkpt>
      <trkpt lat="44.16091" lon="3.10089">
        <ele>464</ele>
        <time>2010-01-01T01:00:56Z</time>
      </trkpt>
      <trkpt lat="44.16089" lon="3.10097">
        <ele>464</ele>
        <time>2010-01-01T01:00:59Z</time>
      </trkpt>
      <trkpt lat="44.16087" lon="3.10104">
        <ele>463</ele>
        <time>2010-01-01T01:01:01Z</time>
      </trkpt>
      <trkpt lat="44.16087" lon="3.10109">
        <ele>463</ele>
        <time>2010-01-01T01:01:02Z</time>
      </trkpt>
      <trkpt lat="44.16086" lon="3.10115">
        <ele>463</ele>
        <time>2010-01-01T01:01:04Z</time>
      </trkpt>
      <trkpt lat="44.16086" lon="3.1012">
        <ele>464</ele>
        <time>2010-01-01T01:01:06Z</time>
      </trkpt>
      <trkpt lat="44.16085" lon="3.10125">
        <ele>464</ele>
        <time>2010-01-01T01:01:07Z</time>
      </trkpt>
      <trkpt lat="44.16085" lon="3.10128">
        <ele>463</ele>
        <time>2010-01-01T01:01:08Z</time>
      </trkpt>
      <trkpt lat="44.16085" lon="3.10131">
        <ele>464</ele>
        <time>2010-01-01T01:01:09Z</time>
      </trkpt>
      <trkpt lat="44.16087" lon="3.10128">
        <ele>465</ele>
        <time>2010-01-01T01:01:10Z</time>
      </trkpt>
      <trkpt lat="44.16088" lon="3.10123">
        <ele>465</ele>
        <time>2010-01-01T01:01:11Z</time>
      </trkpt>
      <trkpt lat="44.16088" lon="3.10118">
        <ele>464</ele>
        <time>2010-01-01T01:01:13Z</time>
      </trkpt>
      <trkpt lat="44.16088" lon="3.10116">
        <ele>464</ele>
        <time>2010-01-01T01:01:13Z</time>
      </trkpt>
      <trkpt lat="44.16088" lon="3.10115">
        <ele>464</ele>
        <time>2010-01-01T01:01:14Z</time>
      </trkpt>
      <trkpt lat="44.16088" lon="3.10115">
        <ele>464</ele>
        <time>2010-01-01T01:01:14Z</time>
      </trkpt>
      <trkpt lat="44.16085" lon="3.10124">
        <ele>463</ele>
        <time>2010-01-01T01:01:17Z</time>
      </trkpt>
      <trkpt lat="44.16085" lon="3.10128">
        <ele>463</ele>
        <time>2010-01-01T01:01:18Z</time>
      </trkpt>
      <trkpt lat="44.16086" lon="3.10132">
        <ele>464</ele>
        <time>2010-01-01T01:01:19Z</time>
      </trkpt>
      <trkpt lat="44.16088" lon="3.1013">
        <ele>465</ele>
        <time>2010-01-01T01:01:20Z</time>
      </trkpt>
      <trkpt lat="44.16091" lon="3.10127">
        <ele>467</ele>
        <time>2010-01-01T01:01:22Z</time>
      </trkpt>
      <trkpt lat="44.16095" lon="3.10127">
        <ele>468</ele>
        <time>2010-01-01T01:01:23Z</time>
      </trkpt>
      <trkpt lat="44.16097" lon="3.10128">
        <ele>470</ele>
        <time>2010-01-01T01:01:24Z</time>
      </trkpt>
      <trkpt lat="44.16099" lon="3.10131">
        <ele>471</ele>
        <time>2010-01-01T01:01:25Z</time>
      </trkpt>
      <trkpt lat="44.16099" lon="3.10134">
        <ele>471</ele>
        <time>2010-01-01T01:01:26Z</time>
      </trkpt>
      <trkpt lat="44.16098" lon="3.10139">
        <ele>471</ele>
        <time>2010-01-01T01:01:27Z</time>
      </trkpt>
      <trkpt lat="44.16099" lon="3.10144">
        <ele>472</ele>
        <time>2010-01-01T01:01:29Z</time>
      </trkpt>
      <trkpt lat="44.16098" lon="3.10149">
        <ele>472</ele>
        <time>2010-01-01T01:01:30Z</time>
      </trkpt>
      <trkpt lat="44.161" lon="3.10154">
        <ele>473</ele>
        <time>2010-01-01T01:01:31Z</time>
      </trkpt>
      <trkpt lat="44.161" lon="3.10157">
        <ele>473</ele>
        <time>2010-01-01T01:01:32Z</time>
      </trkpt>
      <trkpt lat="44.16099" lon="3.10157">
        <ele>473</ele>
        <time>2010-01-01T01:01:33Z</time>
      </trkpt>
      <trkpt lat="44.16099" lon="3.10159">
        <ele>472</ele>
        <time>2010-01-01T01:01:33Z</time>
      </trkpt>
      <trkpt lat="44.16099" lon="3.10161">
        <ele>473</ele>
        <time>2010-01-01T01:01:34Z</time>
      </trkpt>
      <trkpt lat="44.16099" lon="3.10164">
        <ele>473</ele>
        <time>2010-01-01T01:01:35Z</time>
      </trkpt>
      <trkpt lat="44.16099" lon="3.10166">
        <ele>473</ele>
        <time>2010-01-01T01:01:35Z</time>
      </trkpt>
      <trkpt lat="44.161" lon="3.10168">
        <ele>473</ele>
        <time>2010-01-01T01:01:36Z</time>
      </trkpt>
      <trkpt lat="44.16102" lon="3.1017">
        <ele>474</ele>
        <time>2010-01-01T01:01:37Z</time>
      </trkpt>
      <trkpt lat="44.16104" lon="3.10171">
        <ele>475</ele>
        <time>2010-01-01T01:01:38Z</time>
      </trkpt>
      <trkpt lat="44.16106" lon="3.10174">
        <ele>477</ele>
        <time>2010-01-01T01:01:39Z</time>
      </trkpt>
      <trkpt lat="44.16107" lon="3.10173">
        <ele>477</ele>
        <time>2010-01-01T01:01:40Z</time>
      </trkpt>
      <trkpt lat="44.16107" lon="3.1017">
        <ele>477</ele>
        <time>2010-01-01T01:01:41Z</time>
      </trkpt>
      <trkpt lat="44.16107" lon="3.10167">
        <ele>477</ele>
        <time>2010-01-01T01:01:42Z</time>
      </trkpt>
      <trkpt lat="44.16109" lon="3.10163">
        <ele>478</ele>
        <time>2010-01-01T01:01:43Z</time>
      </trkpt>
      <trkpt lat="44.16111" lon="3.10161">
        <ele>479</ele>
        <time>2010-01-01T01:01:44Z</time>
      </trkpt>
      <trkpt lat="44.16113" lon="3.10161">
        <ele>480</ele>
        <time>2010-01-01T01:01:45Z</time>
      </trkpt>
      <trkpt lat="44.16115" lon="3.10161">
        <ele>481</ele>
        <time>2010-01-01T01:01:46Z</time>
      </trkpt>
      <trkpt lat="44.16118" lon="3.1016">
        <ele>482</ele>
        <time>2010-01-01T01:01:47Z</time>
      </trkpt>
      <trkpt lat="44.1612" lon="3.10159">
        <ele>482</ele>
        <time>2010-01-01T01:01:48Z</time>
      </trkpt>
      <trkpt lat="44.16121" lon="3.10156">
        <ele>483</ele>
        <time>2010-01-01T01:01:49Z</time>
      </trkpt>
      <trkpt lat="44.16122" lon="3.10153">
        <ele>483</ele>
        <time>2010-01-01T01:01:50Z</time>
      </trkpt>
      <trkpt lat="44.16125" lon="3.10154">
        <ele>484</ele>
        <time>2010-01-01T01:01:51Z</time>
      </trkpt>
      <trkpt lat="44.16127" lon="3.10156">
        <ele>485</ele>
        <time>2010-01-01T01:01:52Z</time>
      </trkpt>
      <trkpt lat="44.16127" lon="3.10158">
        <ele>485</ele>
        <time>2010-01-01T01:01:53Z</time>
      </trkpt>
      <trkpt lat="44.16128" lon="3.1016">
        <ele>485</ele>
        <time>2010-01-01T01:01:53Z</time>
      </trkpt>
      <trkpt lat="44.1613" lon="3.1016">
        <ele>486</ele>
        <time>2010-01-01T01:01:54Z</time>
      </trkpt>
      <trkpt lat="44.16131" lon="3.10161">
        <ele>487</ele>
        <time>2010-01-01T01:01:55Z</time>
      </trkpt>
      <trkpt lat="44.16132" lon="3.10163">
        <ele>487</ele>
        <time>2010-01-01T01:01:55Z</time>
      </trkpt>
      <trkpt lat="44.16132" lon="3.10166">
        <ele>487</ele>
        <time>2010-01-01T01:01:56Z</time>
      </trkpt>
      <trkpt lat="44.16131" lon="3.1017">
        <ele>487</ele>
        <time>2010-01-01T01:01:57Z</time>
      </trkpt>
      <trkpt lat="44.16129" lon="3.10175">
        <ele>486</ele>
        <time>2010-01-01T01:01:59Z</time>
      </trkpt>
      <trkpt lat="44.16128" lon="3.10179">
        <ele>486</ele>
        <time>2010-01-01T01:02:00Z</time>
      </trkpt>
      <trkpt lat="44.16127" lon="3.10185">
        <ele>486</ele>
        <time>2010-01-01T01:02:02Z</time>
      </trkpt>
      <trkpt lat="44.16127" lon="3.1019">
        <ele>486</ele>
        <time>2010-01-01T01:02:03Z</time>
      </trkpt>
      <trkpt lat="44.16128" lon="3.10195">
        <ele>486</ele>
        <time>2010-01-01T01:02:05Z</time>
      </trkpt>
      <trkpt lat="44.16128" lon="3.102">
        <ele>486</ele>
        <time>2010-01-01T01:02:06Z</time>
      </trkpt>
      <trkpt lat="44.16128" lon="3.10204">
        <ele>486</ele>
        <time>2010-01-01T01:02:08Z</time>
      </trkpt>
      <trkpt lat="44.16128" lon="3.10209">
        <ele>485</ele>
        <time>2010-01-01T01:02:09Z</time>
      </trkpt>
      <trkpt lat="44.16129" lon="3.10213">
        <ele>485</ele>
        <time>2010-01-01T01:02:10Z</time>
      </trkpt>
      <trkpt lat="44.16129" lon="3.10217">
        <ele>485</ele>
        <time>2010-01-01T01:02:11Z</time>
      </trkpt>
      <trkpt lat="44.1613" lon="3.10221">
        <ele>485</ele>
        <time>2010-01-01T01:02:12Z</time>
      </trkpt>
      <trkpt lat="44.16131" lon="3.10225">
        <ele>485</ele>
        <time>2010-01-01T01:02:14Z</time>
      </trkpt>
      <trkpt lat="44.16132" lon="3.10228">
        <ele>485</ele>
        <time>2010-01-01T01:02:15Z</time>
      </trkpt>
      <trkpt lat="44.16133" lon="3.10232">
        <ele>485</ele>
        <time>2010-01-01T01:02:16Z</time>
      </trkpt>
      <trkpt lat="44.16134" lon="3.10236">
        <ele>485</ele>
        <time>2010-01-01T01:02:17Z</time>
      </trkpt>
      <trkpt lat="44.16135" lon="3.10239">
        <ele>484</ele>
        <time>2010-01-01T01:02:18Z</time>
      </trkpt>
      <trkpt lat="44.16136" lon="3.10243">
        <ele>484</ele>
        <time>2010-01-01T01:02:19Z</time>
      </trkpt>
      <trkpt lat="44.16138" lon="3.10247">
        <ele>485</ele>
        <time>2010-01-01T01:02:21Z</time>
      </trkpt>
      <trkpt lat="44.1614" lon="3.1025">
        <ele>485</ele>
        <time>2010-01-01T01:02:22Z</time>
      </trkpt>
      <trkpt lat="44.16142" lon="3.10253">
        <ele>485</ele>
        <time>2010-01-01T01:02:23Z</time>
      </trkpt>
      <trkpt lat="44.16143" lon="3.10257">
        <ele>485</ele>
        <time>2010-01-01T01:02:24Z</time>
      </trkpt>
      <trkpt lat="44.16145" lon="3.10259">
        <ele>485</ele>
        <time>2010-01-01T01:02:25Z</time>
      </trkpt>
      <trkpt lat="44.16147" lon="3.10263">
        <ele>484</ele>
        <time>2010-01-01T01:02:26Z</time>
      </trkpt>
      <trkpt lat="44.16148" lon="3.10266">
        <ele>484</ele>
        <time>2010-01-01T01:02:27Z</time>
      </trkpt>
      <trkpt lat="44.1615" lon="3.10269">
        <ele>484</ele>
        <time>2010-01-01T01:02:29Z</time>
      </trkpt>
      <trkpt lat="44.16152" lon="3.10273">
        <ele>484</ele>
        <time>2010-01-01T01:02:30Z</time>
      </trkpt>
      <trkpt lat="44.16156" lon="3.10279">
        <ele>484</ele>
        <time>2010-01-01T01:02:32Z</time>
      </trkpt>
      <trkpt lat="44.1616" lon="3.10283">
        <ele>484</ele>
        <time>2010-01-01T01:02:34Z</time>
      </trkpt>
      <trkpt lat="44.16165" lon="3.10287">
        <ele>484</ele>
        <time>2010-01-01T01:02:37Z</time>
      </trkpt>
      <trkpt lat="44.1617" lon="3.10293">
        <ele>484</ele>
        <time>2010-01-01T01:02:39Z</time>
      </trkpt>
      <trkpt lat="44.16175" lon="3.10297">
        <ele>485</ele>
        <time>2010-01-01T01:02:42Z</time>
      </trkpt>
      <trkpt lat="44.16182" lon="3.10297">
        <ele>486</ele>
        <time>2010-01-01T01:02:44Z</time>
      </trkpt>
      <trkpt lat="44.16187" lon="3.10298">
        <ele>488</ele>
        <time>2010-01-01T01:02:46Z</time>
      </trkpt>
      <trkpt lat="44.1619" lon="3.10299">
        <ele>488</ele>
        <time>2010-01-01T01:02:48Z</time>
      </trkpt>
      <trkpt lat="44.16194" lon="3.10301">
        <ele>489</ele>
        <time>2010-01-01T01:02:49Z</time>
      </trkpt>
      <trkpt lat="44.16198" lon="3.10301">
        <ele>489</ele>
        <time>2010-01-01T01:02:51Z</time>
      </trkpt>
      <trkpt lat="44.16203" lon="3.10302">
        <ele>489</ele>
        <time>2010-01-01T01:02:53Z</time>
      </trkpt>
      <trkpt lat="44.16207" lon="3.10301">
        <ele>490</ele>
        <time>2010-01-01T01:02:55Z</time>
      </trkpt>
      <trkpt lat="44.16213" lon="3.103">
        <ele>491</ele>
        <time>2010-01-01T01:02:57Z</time>
      </trkpt>
      <trkpt lat="44.16218" lon="3.10298">
        <ele>492</ele>
        <time>2010-01-01T01:02:59Z</time>
      </trkpt>
      <trkpt lat="44.16222" lon="3.10296">
        <ele>493</ele>
        <time>2010-01-01T01:03:01Z</time>
      </trkpt>
      <trkpt lat="44.16226" lon="3.10292">
        <ele>494</ele>
        <time>2010-01-01T01:03:03Z</time>
      </trkpt>
      <trkpt lat="44.1623" lon="3.10288">
        <ele>495</ele>
        <time>2010-01-01T01:03:05Z</time>
      </trkpt>
      <trkpt lat="44.16233" lon="3.10286">
        <ele>495</ele>
        <time>2010-01-01T01:03:06Z</time>
      </trkpt>
      <trkpt lat="44.16239" lon="3.10286">
        <ele>494</ele>
        <time>2010-01-01T01:03:08Z</time>
      </trkpt>
      <trkpt lat="44.16245" lon="3.10285">
        <ele>494</ele>
        <time>2010-01-01T01:03:11Z</time>
      </trkpt>
      <trkpt lat="44.16251" lon="3.10284">
        <ele>493</ele>
        <time>2010-01-01T01:03:13Z</time>
      </trkpt>
      <trkpt lat="44.16257" lon="3.10282">
        <ele>493</ele>
        <time>2010-01-01T01:03:16Z</time>
      </trkpt>
      <trkpt lat="44.16265" lon="3.10282">
        <ele>492</ele>
        <time>2010-01-01T01:03:19Z</time>
      </trkpt>
      <trkpt lat="44.16273" lon="3.10284">
        <ele>490</ele>
        <time>2010-01-01T01:03:22Z</time>
      </trkpt>
      <trkpt lat="44.16281" lon="3.10289">
        <ele>488</ele>
        <time>2010-01-01T01:03:26Z</time>
      </trkpt>
      <trkpt lat="44.16289" lon="3.10295">
        <ele>484</ele>
        <time>2010-01-01T01:03:29Z</time>
      </trkpt>
      <trkpt lat="44.16298" lon="3.10301">
        <ele>481</ele>
        <time>2010-01-01T01:03:33Z</time>
      </trkpt>
      <trkpt lat="44.16308" lon="3.10303">
        <ele>479</ele>
        <time>2010-01-01T01:03:38Z</time>
      </trkpt>
      <trkpt lat="44.16317" lon="3.10303">
        <ele>479</ele>
        <time>2010-01-01T01:03:41Z</time>
      </trkpt>
      <trkpt lat="44.16325" lon="3.10306">
        <ele>478</ele>
        <time>2010-01-01T01:03:44Z</time>
      </trkpt>
      <trkpt lat="44.16331" lon="3.10311">
        <ele>476</ele>
        <time>2010-01-01T01:03:47Z</time>
      </trkpt>
      <trkpt lat="44.16337" lon="3.10314">
        <ele>475</ele>
        <time>2010-01-01T01:03:50Z</time>
      </trkpt>
      <trkpt lat="44.16343" lon="3.10318">
        <ele>474</ele>
        <time>2010-01-01T01:03:52Z</time>
      </trkpt>
      <trkpt lat="44.16348" lon="3.10322">
        <ele>474</ele>
        <time>2010-01-01T01:03:55Z</time>
      </trkpt>
      <trkpt lat="44.16357" lon="3.10324">
        <ele>473</ele>
        <time>2010-01-01T01:03:58Z</time>
      </trkpt>
      <trkpt lat="44.16367" lon="3.10323">
        <ele>473</ele>
        <time>2010-01-01T01:04:02Z</time>
      </trkpt>
      <trkpt lat="44.16374" lon="3.10325">
        <ele>473</ele>
        <time>2010-01-01T01:04:05Z</time>
      </trkpt>
      <trkpt lat="44.16379" lon="3.10328">
        <ele>472</ele>
        <time>2010-01-01T01:04:07Z</time>
      </trkpt>
      <trkpt lat="44.16385" lon="3.10333">
        <ele>472</ele>
        <time>2010-01-01T01:04:10Z</time>
      </trkpt>
      <trkpt lat="44.1639" lon="3.10339">
        <ele>471</ele>
        <time>2010-01-01T01:04:13Z</time>
      </trkpt>
      <trkpt lat="44.16395" lon="3.10344">
        <ele>471</ele>
        <time>2010-01-01T01:04:15Z</time>
      </trkpt>
      <trkpt lat="44.16399" lon="3.10349">
        <ele>471</ele>
        <time>2010-01-01T01:04:17Z</time>
      </trkpt>
      <trkpt lat="44.16405" lon="3.10353">
        <ele>471</ele>
        <time>2010-01-01T01:04:20Z</time>
      </trkpt>
      <trkpt lat="44.16411" lon="3.10356">
        <ele>472</ele>
        <time>2010-01-01T01:04:23Z</time>
      </trkpt>
      <trkpt lat="44.16417" lon="3.10359">
        <ele>472</ele>
        <time>2010-01-01T01:04:25Z</time>
      </trkpt>
      <trkpt lat="44.16423" lon="3.10362">
        <ele>472</ele>
        <time>2010-01-01T01:04:28Z</time>
      </trkpt>
      <trkpt lat="44.16428" lon="3.10365">
        <ele>472</ele>
        <time>2010-01-01T01:04:30Z</time>
      </trkpt>
      <trkpt lat="44.16433" lon="3.10368">
        <ele>472</ele>
        <time>2010-01-01T01:04:32Z</time>
      </trkpt>
      <trkpt lat="44.16438" lon="3.10367">
        <ele>473</ele>
        <time>2010-01-01T01:04:34Z</time>
      </trkpt>
      <trkpt lat="44.16443" lon="3.10366">
        <ele>473</ele>
        <time>2010-01-01T01:04:36Z</time>
      </trkpt>
      <trkpt lat="44.16448" lon="3.10364">
        <ele>475</ele>
        <time>2010-01-01T01:04:38Z</time>
      </trkpt>
      <trkpt lat="44.16452" lon="3.10362">
        <ele>476</ele>
        <time>2010-01-01T01:04:40Z</time>
      </trkpt>
      <trkpt lat="44.16456" lon="3.10361">
        <ele>477</ele>
        <time>2010-01-01T01:04:42Z</time>
      </trkpt>
      <trkpt lat="44.16461" lon="3.1036">
        <ele>478</ele>
        <time>2010-01-01T01:04:43Z</time>
      </trkpt>
      <trkpt lat="44.16465" lon="3.1036">
        <ele>478</ele>
        <time>2010-01-01T01:04:45Z</time>
      </trkpt>
      <trkpt lat="44.16469" lon="3.10362">
        <ele>479</ele>
        <time>2010-01-01T01:04:47Z</time>
      </trkpt>
      <trkpt lat="44.16473" lon="3.10366">
        <ele>479</ele>
        <time>2010-01-01T01:04:49Z</time>
      </trkpt>
      <trkpt lat="44.16476" lon="3.1037">
        <ele>479</ele>
        <time>2010-01-01T01:04:50Z</time>
      </trkpt>
      <trkpt lat="44.16479" lon="3.10374">
        <ele>479</ele>
        <time>2010-01-01T01:04:52Z</time>
      </trkpt>
      <trkpt lat="44.16483" lon="3.10377">
        <ele>480</ele>
        <time>2010-01-01T01:04:54Z</time>
      </trkpt>
      <trkpt lat="44.16486" lon="3.10379">
        <ele>481</ele>
        <time>2010-01-01T01:04:55Z</time>
      </trkpt>
      <trkpt lat="44.1649" lon="3.1038">
        <ele>482</ele>
        <time>2010-01-01T01:04:57Z</time>
      </trkpt>
      <trkpt lat="44.16494" lon="3.10382">
        <ele>483</ele>
        <time>2010-01-01T01:04:59Z</time>
      </trkpt>
      <trkpt lat="44.16497" lon="3.10386">
        <ele>484</ele>
        <time>2010-01-01T01:05:00Z</time>
      </trkpt>
      <trkpt lat="44.165" lon="3.10391">
        <ele>484</ele>
        <time>2010-01-01T01:05:02Z</time>
      </trkpt>
      <trkpt lat="44.16502" lon="3.10396">
        <ele>484</ele>
        <time>2010-01-01T01:05:04Z</time>
      </trkpt>
      <trkpt lat="44.16504" lon="3.10401">
        <ele>484</ele>
        <time>2010-01-01T01:05:05Z</time>
      </trkpt>
      <trkpt lat="44.16506" lon="3.10406">
        <ele>484</ele>
        <time>2010-01-01T01:05:07Z</time>
      </trkpt>
      <trkpt lat="44.16509" lon="3.1041">
        <ele>484</ele>
        <time>2010-01-01T01:05:09Z</time>
      </trkpt>
      <trkpt lat="44.16512" lon="3.10415">
        <ele>485</ele>
        <time>2010-01-01T01:05:11Z</time>
      </trkpt>
      <trkpt lat="44.16514" lon="3.1042">
        <ele>485</ele>
        <time>2010-01-01T01:05:12Z</time>
      </trkpt>
      <trkpt lat="44.16517" lon="3.10424">
        <ele>485</ele>
        <time>2010-01-01T01:05:14Z</time>
      </trkpt>
      <trkpt lat="44.1652" lon="3.10428">
        <ele>485</ele>
        <time>2010-01-01T01:05:16Z</time>
      </trkpt>
      <trkpt lat="44.16523" lon="3.1043">
        <ele>486</ele>
        <time>2010-01-01T01:05:17Z</time>
      </trkpt>
      <trkpt lat="44.16527" lon="3.10431">
        <ele>487</ele>
        <time>2010-01-01T01:05:18Z</time>
      </trkpt>
      <trkpt lat="44.1653" lon="3.10433">
        <ele>487</ele>
        <time>2010-01-01T01:05:20Z</time>
      </trkpt>
      <trkpt lat="44.16534" lon="3.10434">
        <ele>488</ele>
        <time>2010-01-01T01:05:22Z</time>
      </trkpt>
      <trkpt lat="44.16538" lon="3.10437">
        <ele>489</ele>
        <time>2010-01-01T01:05:23Z</time>
      </trkpt>
      <trkpt lat="44.16541" lon="3.1044">
        <ele>489</ele>
        <time>2010-01-01T01:05:25Z</time>
      </trkpt>
      <trkpt lat="44.16543" lon="3.10443">
        <ele>489</ele>
        <time>2010-01-01T01:05:26Z</time>
      </trkpt>
      <trkpt lat="44.16545" lon="3.10445">
        <ele>490</ele>
        <time>2010-01-01T01:05:27Z</time>
      </trkpt>
      <trkpt lat="44.16547" lon="3.10448">
        <ele>490</ele>
        <time>2010-01-01T01:05:28Z</time>
      </trkpt>
      <trkpt lat="44.1655" lon="3.1045">
        <ele>490</ele>
        <time>2010-01-01T01:05:29Z</time>
      </trkpt>
      <trkpt lat="44.16553" lon="3.1045">
        <ele>491</ele>
        <time>2010-01-01T01:05:30Z</time>
      </trkpt>
      <trkpt lat="44.16555" lon="3.1045">
        <ele>491</ele>
        <time>2010-01-01T01:05:31Z</time>
      </trkpt>
      <trkpt lat="44.16558" lon="3.1045">
        <ele>492</ele>
        <time>2010-01-01T01:05:33Z</time>
      </trkpt>
      <trkpt lat="44.16559" lon="3.1045">
        <ele>492</ele>
        <time>2010-01-01T01:05:33Z</time>
      </trkpt>
      <trkpt lat="44.16561" lon="3.1045">
        <ele>493</ele>
        <time>2010-01-01T01:05:34Z</time>
      </trkpt>
      <trkpt lat="44.16562" lon="3.10451">
        <ele>493</ele>
        <time>2010-01-01T01:05:34Z</time>
      </trkpt>
      <trkpt lat="44.16564" lon="3.1045">
        <ele>494</ele>
        <time>2010-01-01T01:05:35Z</time>
      </trkpt>
      <trkpt lat="44.16565" lon="3.1045">
        <ele>494</ele>
        <time>2010-01-01T01:05:36Z</time>
      </trkpt>
      <trkpt lat="44.16567" lon="3.10449">
        <ele>495</ele>
        <time>2010-01-01T01:05:36Z</time>
      </trkpt>
      <trkpt lat="44.16568" lon="3.10449">
        <ele>495</ele>
        <time>2010-01-01T01:05:37Z</time>
      </trkpt>
      <trkpt lat="44.1657" lon="3.10449">
        <ele>495</ele>
        <time>2010-01-01T01:05:38Z</time>
      </trkpt>
      <trkpt lat="44.16571" lon="3.10448">
        <ele>496</ele>
        <time>2010-01-01T01:05:38Z</time>
      </trkpt>
      <trkpt lat="44.16573" lon="3.10448">
        <ele>496</ele>
        <time>2010-01-01T01:05:39Z</time>
      </trkpt>
      <trkpt lat="44.16574" lon="3.10447">
        <ele>497</ele>
        <time>2010-01-01T01:05:39Z</time>
      </trkpt>
      <trkpt lat="44.16576" lon="3.10447">
        <ele>497</ele>
        <time>2010-01-01T01:05:40Z</time>
      </trkpt>
      <trkpt lat="44.16577" lon="3.10446">
        <ele>498</ele>
        <time>2010-01-01T01:05:41Z</time>
      </trkpt>
      <trkpt lat="44.16579" lon="3.10446">
        <ele>498</ele>
        <time>2010-01-01T01:05:41Z</time>
      </trkpt>
      <trkpt lat="44.1658" lon="3.10446">
        <ele>499</ele>
        <time>2010-01-01T01:05:42Z</time>
      </trkpt>
      <trkpt lat="44.16581" lon="3.10446">
        <ele>499</ele>
        <time>2010-01-01T01:05:42Z</time>
      </trkpt>
      <trkpt lat="44.16583" lon="3.10446">
        <ele>499</ele>
        <time>2010-01-01T01:05:43Z</time>
      </trkpt>
      <trkpt lat="44.16584" lon="3.10447">
        <ele>500</ele>
        <time>2010-01-01T01:05:43Z</time>
      </trkpt>
      <trkpt lat="44.16585" lon="3.10449">
        <ele>500</ele>
        <time>2010-01-01T01:05:44Z</time>
      </trkpt>
      <trkpt lat="44.16586" lon="3.1045">
        <ele>500</ele>
        <time>2010-01-01T01:05:45Z</time>
      </trkpt>
      <trkpt lat="44.16587" lon="3.10452">
        <ele>500</ele>
        <time>2010-01-01T01:05:45Z</time>
      </trkpt>
      <trkpt lat="44.16588" lon="3.10453">
        <ele>500</ele>
        <time>2010-01-01T01:05:46Z</time>
      </trkpt>
      <trkpt lat="44.16589" lon="3.10455">
        <ele>501</ele>
        <time>2010-01-01T01:05:46Z</time>
      </trkpt>
      <trkpt lat="44.1659" lon="3.10457">
        <ele>501</ele>
        <time>2010-01-01T01:05:47Z</time>
      </trkpt>
      <trkpt lat="44.16592" lon="3.10459">
        <ele>501</ele>
        <time>2010-01-01T01:05:48Z</time>
      </trkpt>
      <trkpt lat="44.16593" lon="3.1046">
        <ele>502</ele>
        <time>2010-01-01T01:05:49Z</time>
      </trkpt>
      <trkpt lat="44.16595" lon="3.10462">
        <ele>502</ele>
        <time>2010-01-01T01:05:49Z</time>
      </trkpt>
      <trkpt lat="44.16596" lon="3.10463">
        <ele>503</ele>
        <time>2010-01-01T01:05:50Z</time>
      </trkpt>
      <trkpt lat="44.16598" lon="3.10465">
        <ele>503</ele>
        <time>2010-01-01T01:05:51Z</time>
      </trkpt>
      <trkpt lat="44.16599" lon="3.10466">
        <ele>503</ele>
        <time>2010-01-01T01:05:52Z</time>
      </trkpt>
      <trkpt lat="44.16601" lon="3.10468">
        <ele>504</ele>
        <time>2010-01-01T01:05:52Z</time>
      </trkpt>
      <trkpt lat="44.16602" lon="3.10469">
        <ele>504</ele>
        <time>2010-01-01T01:05:53Z</time>
      </trkpt>
      <trkpt lat="44.16604" lon="3.10471">
        <ele>505</ele>
        <time>2010-01-01T01:05:54Z</time>
      </trkpt>
      <trkpt lat="44.16606" lon="3.10472">
        <ele>505</ele>
        <time>2010-01-01T01:05:55Z</time>
      </trkpt>
      <trkpt lat="44.16608" lon="3.10472">
        <ele>506</ele>
        <time>2010-01-01T01:05:56Z</time>
      </trkpt>
      <trkpt lat="44.16609" lon="3.10473">
        <ele>506</ele>
        <time>2010-01-01T01:05:56Z</time>
      </trkpt>
      <trkpt lat="44.16611" lon="3.10473">
        <ele>506</ele>
        <time>2010-01-01T01:05:57Z</time>
      </trkpt>
      <trkpt lat="44.16612" lon="3.10474">
        <ele>507</ele>
        <time>2010-01-01T01:05:57Z</time>
      </trkpt>
      <trkpt lat="44.16614" lon="3.10474">
        <ele>507</ele>
        <time>2010-01-01T01:05:58Z</time>
      </trkpt>
      <trkpt lat="44.16616" lon="3.10475">
        <ele>508</ele>
        <time>2010-01-01T01:05:59Z</time>
      </trkpt>
      <trkpt lat="44.16618" lon="3.10475">
        <ele>508</ele>
        <time>2010-01-01T01:06:00Z</time>
      </trkpt>
      <trkpt lat="44.1662" lon="3.10476">
        <ele>509</ele>
        <time>2010-01-01T01:06:00Z</time>
      </trkpt>
      <trkpt lat="44.16621" lon="3.10477">
        <ele>509</ele>
        <time>2010-01-01T01:06:01Z</time>
      </trkpt>
      <trkpt lat="44.16623" lon="3.10479">
        <ele>509</ele>
        <time>2010-01-01T01:06:02Z</time>
      </trkpt>
      <trkpt lat="44.16625" lon="3.10481">
        <ele>510</ele>
        <time>2010-01-01T01:06:03Z</time>
      </trkpt>
      <trkpt lat="44.16626" lon="3.10483">
        <ele>510</ele>
        <time>2010-01-01T01:06:04Z</time>
      </trkpt>
      <trkpt lat="44.16627" lon="3.10485">
        <ele>510</ele>
        <time>2010-01-01T01:06:04Z</time>
      </trkpt>
      <trkpt lat="44.16628" lon="3.10488">
        <ele>511</ele>
        <time>2010-01-01T01:06:05Z</time>
      </trkpt>
      <trkpt lat="44.16629" lon="3.10491">
        <ele>511</ele>
        <time>2010-01-01T01:06:06Z</time>
      </trkpt>
      <trkpt lat="44.16629" lon="3.10494">
        <ele>511</ele>
        <time>2010-01-01T01:06:07Z</time>
      </trkpt>
      <trkpt lat="44.16631" lon="3.10497">
        <ele>511</ele>
        <time>2010-01-01T01:06:08Z</time>
      </trkpt>
      <trkpt lat="44.16632" lon="3.105">
        <ele>512</ele>
        <time>2010-01-01T01:06:09Z</time>
      </trkpt>
      <trkpt lat="44.16634" lon="3.10501">
        <ele>512</ele>
        <time>2010-01-01T01:06:10Z</time>
      </trkpt>
      <trkpt lat="44.16636" lon="3.10503">
        <ele>513</ele>
        <time>2010-01-01T01:06:11Z</time>
      </trkpt>
      <trkpt lat="44.16637" lon="3.10506">
        <ele>513</ele>
        <time>2010-01-01T01:06:12Z</time>
      </trkpt>
      <trkpt lat="44.16639" lon="3.1051">
        <ele>513</ele>
        <time>2010-01-01T01:06:13Z</time>
      </trkpt>
      <trkpt lat="44.1664" lon="3.10514">
        <ele>514</ele>
        <time>2010-01-01T01:06:14Z</time>
      </trkpt>
      <trkpt lat="44.16642" lon="3.10518">
        <ele>515</ele>
        <time>2010-01-01T01:06:16Z</time>
      </trkpt>
      <trkpt lat="44.16644" lon="3.10523">
        <ele>515</ele>
        <time>2010-01-01T01:06:17Z</time>
      </trkpt>
      <trkpt lat="44.16645" lon="3.10529">
        <ele>516</ele>
        <time>2010-01-01T01:06:19Z</time>
      </trkpt>
      <trkpt lat="44.16646" lon="3.10535">
        <ele>516</ele>
        <time>2010-01-01T01:06:21Z</time>
      </trkpt>
      <trkpt lat="44.16646" lon="3.1054">
        <ele>516</ele>
        <time>2010-01-01T01:06:22Z</time>
      </trkpt>
      <trkpt lat="44.16647" lon="3.10546">
        <ele>516</ele>
        <time>2010-01-01T01:06:24Z</time>
      </trkpt>
      <trkpt lat="44.16647" lon="3.10552">
        <ele>516</ele>
        <time>2010-01-01T01:06:26Z</time>
      </trkpt>
      <trkpt lat="44.16648" lon="3.10558">
        <ele>516</ele>
        <time>2010-01-01T01:06:28Z</time>
      </trkpt>
      <trkpt lat="44.16649" lon="3.10565">
        <ele>516</ele>
        <time>2010-01-01T01:06:30Z</time>
      </trkpt>
      <trkpt lat="44.16649" lon="3.10572">
        <ele>516</ele>
        <time>2010-01-01T01:06:31Z</time>
      </trkpt>
      <trkpt lat="44.1665" lon="3.10578">
        <ele>516</ele>
        <time>2010-01-01T01:06:33Z</time>
      </trkpt>
      <trkpt lat="44.16651" lon="3.10585">
        <ele>517</ele>
        <time>2010-01-01T01:06:35Z</time>
      </trkpt>
      <trkpt lat="44.16652" lon="3.10591">
        <ele>517</ele>
        <time>2010-01-01T01:06:37Z</time>
      </trkpt>
      <trkpt lat="44.16653" lon="3.10598">
        <ele>518</ele>
        <time>2010-01-01T01:06:39Z</time>
      </trkpt>
      <trkpt lat="44.16655" lon="3.10604">
        <ele>518</ele>
        <time>2010-01-01T01:06:41Z</time>
      </trkpt>
      <trkpt lat="44.16656" lon="3.1061">
        <ele>519</ele>
        <time>2010-01-01T01:06:43Z</time>
      </trkpt>
      <trkpt lat="44.16657" lon="3.10617">
        <ele>520</ele>
        <time>2010-01-01T01:06:45Z</time>
      </trkpt>
      <trkpt lat="44.16658" lon="3.10623">
        <ele>520</ele>
        <time>2010-01-01T01:06:47Z</time>
      </trkpt>
      <trkpt lat="44.1666" lon="3.10629">
        <ele>520</ele>
        <time>2010-01-01T01:06:49Z</time>
      </trkpt>
      <trkpt lat="44.16661" lon="3.10636">
        <ele>520</ele>
        <time>2010-01-01T01:06:51Z</time>
      </trkpt>
      <trkpt lat="44.16662" lon="3.10642">
        <ele>521</ele>
        <time>2010-01-01T01:06:52Z</time>
      </trkpt>
      <trkpt lat="44.16662" lon="3.10649">
        <ele>521</ele>
        <time>2010-01-01T01:06:54Z</time>
      </trkpt>
      <trkpt lat="44.16663" lon="3.10655">
        <ele>522</ele>
        <time>2010-01-01T01:06:56Z</time>
      </trkpt>
      <trkpt lat="44.16664" lon="3.10662">
        <ele>523</ele>
        <time>2010-01-01T01:06:58Z</time>
      </trkpt>
      <trkpt lat="44.16666" lon="3.10668">
        <ele>523</ele>
        <time>2010-01-01T01:07:00Z</time>
      </trkpt>
      <trkpt lat="44.16668" lon="3.10674">
        <ele>524</ele>
        <time>2010-01-01T01:07:02Z</time>
      </trkpt>
      <trkpt lat="44.1667" lon="3.1068">
        <ele>524</ele>
        <time>2010-01-01T01:07:04Z</time>
      </trkpt>
      <trkpt lat="44.16673" lon="3.10685">
        <ele>524</ele>
        <time>2010-01-01T01:07:06Z</time>
      </trkpt>
      <trkpt lat="44.16676" lon="3.1069">
        <ele>525</ele>
        <time>2010-01-01T01:07:08Z</time>
      </trkpt>
      <trkpt lat="44.1668" lon="3.10693">
        <ele>525</ele>
        <time>2010-01-01T01:07:09Z</time>
      </trkpt>
      <trkpt lat="44.16683" lon="3.10698">
        <ele>525</ele>
        <time>2010-01-01T01:07:11Z</time>
      </trkpt>
      <trkpt lat="44.16686" lon="3.10703">
        <ele>525</ele>
        <time>2010-01-01T01:07:13Z</time>
      </trkpt>
      <trkpt lat="44.16689" lon="3.10708">
        <ele>525</ele>
        <time>2010-01-01T01:07:15Z</time>
      </trkpt>
      <trkpt lat="44.16693" lon="3.10712">
        <ele>526</ele>
        <time>2010-01-01T01:07:17Z</time>
      </trkpt>
      <trkpt lat="44.16697" lon="3.10716">
        <ele>526</ele>
        <time>2010-01-01T01:07:19Z</time>
      </trkpt>
      <trkpt lat="44.16702" lon="3.10718">
        <ele>527</ele>
        <time>2010-01-01T01:07:21Z</time>
      </trkpt>
      <trkpt lat="44.16707" lon="3.10719">
        <ele>527</ele>
        <time>2010-01-01T01:07:23Z</time>
      </trkpt>
      <trkpt lat="44.16712" lon="3.10719">
        <ele>528</ele>
        <time>2010-01-01T01:07:25Z</time>
      </trkpt>
      <trkpt lat="44.16718" lon="3.1072">
        <ele>528</ele>
        <time>2010-01-01T01:07:27Z</time>
      </trkpt>
      <trkpt lat="44.16723" lon="3.1072">
        <ele>529</ele>
        <time>2010-01-01T01:07:29Z</time>
      </trkpt>
      <trkpt lat="44.16728" lon="3.1072">
        <ele>529</ele>
        <time>2010-01-01T01:07:31Z</time>
      </trkpt>
      <trkpt lat="44.16731" lon="3.10719">
        <ele>530</ele>
        <time>2010-01-01T01:07:33Z</time>
      </trkpt>
      <trkpt lat="44.16731" lon="3.10719">
        <ele>530</ele>
        <time>2010-01-01T01:07:33Z</time>
      </trkpt>
      <trkpt lat="44.16731" lon="3.10719">
        <ele>530</ele>
        <time>2010-01-01T01:07:33Z</time>
      </trkpt>
      <trkpt lat="44.16731" lon="3.10719">
        <ele>530</ele>
        <time>2010-01-01T01:07:33Z</time>
      </trkpt>
      <trkpt lat="44.16739" lon="3.10724">
        <ele>530</ele>
        <time>2010-01-01T01:07:36Z</time>
      </trkpt>
      <trkpt lat="44.16744" lon="3.10727">
        <ele>530</ele>
        <time>2010-01-01T01:07:39Z</time>
      </trkpt>
      <trkpt lat="44.1675" lon="3.1073">
        <ele>530</ele>
        <time>2010-01-01T01:07:41Z</time>
      </trkpt>
      <trkpt lat="44.16758" lon="3.10734">
        <ele>529</ele>
        <time>2010-01-01T01:07:44Z</time>
      </trkpt>
      <trkpt lat="44.16765" lon="3.10738">
        <ele>529</ele>
        <time>2010-01-01T01:07:47Z</time>
      </trkpt>
      <trkpt lat="44.16773" lon="3.10741">
        <ele>529</ele>
        <time>2010-01-01T01:07:51Z</time>
      </trkpt>
      <trkpt lat="44.16782" lon="3.10742">
        <ele>530</ele>
        <time>2010-01-01T01:07:54Z</time>
      </trkpt>
      <trkpt lat="44.16792" lon="3.10745">
        <ele>530</ele>
        <time>2010-01-01T01:07:59Z</time>
      </trkpt>
      <trkpt lat="44.16803" lon="3.1075">
        <ele>530</ele>
        <time>2010-01-01T01:08:03Z</time>
      </trkpt>
      <trkpt lat="44.16813" lon="3.10757">
        <ele>530</ele>
        <time>2010-01-01T01:08:08Z</time>
      </trkpt>
      <trkpt lat="44.16824" lon="3.10763">
        <ele>530</ele>
        <time>2010-01-01T01:08:12Z</time>
      </trkpt>
      <trkpt lat="44.16835" lon="3.10769">
        <ele>530</ele>
        <time>2010-01-01T01:08:17Z</time>
      </trkpt>
      <trkpt lat="44.16845" lon="3.10778">
        <ele>530</ele>
        <time>2010-01-01T01:08:22Z</time>
      </trkpt>
      <trkpt lat="44.16854" lon="3.10791">
        <ele>528</ele>
        <time>2010-01-01T01:08:27Z</time>
      </trkpt>
      <trkpt lat="44.16861" lon="3.10805">
        <ele>527</ele>
        <time>2010-01-01T01:08:32Z</time>
      </trkpt>
      <trkpt lat="44.16869" lon="3.1082">
        <ele>525</ele>
        <time>2010-01-01T01:08:37Z</time>
      </trkpt>
      <trkpt lat="44.16877" lon="3.10833">
        <ele>524</ele>
        <time>2010-01-01T01:08:42Z</time>
      </trkpt>
      <trkpt lat="44.16885" lon="3.10846">
        <ele>523</ele>
        <time>2010-01-01T01:08:47Z</time>
      </trkpt>
      <trkpt lat="44.16895" lon="3.10858">
        <ele>523</ele>
        <time>2010-01-01T01:08:52Z</time>
      </trkpt>
      <trkpt lat="44.16904" lon="3.10867">
        <ele>524</ele>
        <time>2010-01-01T01:08:57Z</time>
      </trkpt>
      <trkpt lat="44.16913" lon="3.10876">
        <ele>525</ele>
        <time>2010-01-01T01:09:01Z</time>
      </trkpt>
      <trkpt lat="44.1692" lon="3.10883">
        <ele>525</ele>
        <time>2010-01-01T01:09:05Z</time>
      </trkpt>
      <trkpt lat="44.16926" lon="3.10889">
        <ele>526</ele>
        <time>2010-01-01T01:09:08Z</time>
      </trkpt>
      <trkpt lat="44.16932" lon="3.10894">
        <ele>526</ele>
        <time>2010-01-01T01:09:10Z</time>
      </trkpt>
      <trkpt lat="44.16937" lon="3.109">
        <ele>527</ele>
        <time>2010-01-01T01:09:13Z</time>
      </trkpt>
      <trkpt lat="44.16943" lon="3.10905">
        <ele>527</ele>
        <time>2010-01-01T01:09:16Z</time>
      </trkpt>
      <trkpt lat="44.16949" lon="3.1091">
        <ele>528</ele>
        <time>2010-01-01T01:09:19Z</time>
      </trkpt>
      <trkpt lat="44.16954" lon="3.10916">
        <ele>529</ele>
        <time>2010-01-01T01:09:21Z</time>
      </trkpt>
      <trkpt lat="44.16959" lon="3.10921">
        <ele>530</ele>
        <time>2010-01-01T01:09:24Z</time>
      </trkpt>
      <trkpt lat="44.16964" lon="3.10926">
        <ele>530</ele>
        <time>2010-01-01T01:09:26Z</time>
      </trkpt>
      <trkpt lat="44.16969" lon="3.10932">
        <ele>531</ele>
        <time>2010-01-01T01:09:29Z</time>
      </trkpt>
      <trkpt lat="44.16974" lon="3.10937">
        <ele>531</ele>
        <time>2010-01-01T01:09:31Z</time>
      </trkpt>
      <trkpt lat="44.16978" lon="3.10942">
        <ele>532</ele>
        <time>2010-01-01T01:09:33Z</time>
      </trkpt>
      <trkpt lat="44.16982" lon="3.10948">
        <ele>532</ele>
        <time>2010-01-01T01:09:36Z</time>
      </trkpt>
      <trkpt lat="44.16986" lon="3.10953">
        <ele>533</ele>
        <time>2010-01-01T01:09:38Z</time>
      </trkpt>
      <trkpt lat="44.16989" lon="3.10958">
        <ele>533</ele>
        <time>2010-01-01T01:09:40Z</time>
      </trkpt>
      <trkpt lat="44.16992" lon="3.10963">
        <ele>533</ele>
        <time>2010-01-01T01:09:42Z</time>
      </trkpt>
      <trkpt lat="44.16995" lon="3.10968">
        <ele>534</ele>
        <time>2010-01-01T01:09:44Z</time>
      </trkpt>
      <trkpt lat="44.16998" lon="3.10972">
        <ele>534</ele>
        <time>2010-01-01T01:09:45Z</time>
      </trkpt>
      <trkpt lat="44.17001" lon="3.10977">
        <ele>535</ele>
        <time>2010-01-01T01:09:47Z</time>
      </trkpt>
      <trkpt lat="44.17004" lon="3.10981">
        <ele>536</ele>
        <time>2010-01-01T01:09:49Z</time>
      </trkpt>
      <trkpt lat="44.17008" lon="3.10985">
        <ele>536</ele>
        <time>2010-01-01T01:09:51Z</time>
      </trkpt>
      <trkpt lat="44.17011" lon="3.1099">
        <ele>537</ele>
        <time>2010-01-01T01:09:53Z</time>
      </trkpt>
      <trkpt lat="44.17013" lon="3.10995">
        <ele>538</ele>
        <time>2010-01-01T01:09:54Z</time>
      </trkpt>
      <trkpt lat="44.17017" lon="3.10999">
        <ele>538</ele>
        <time>2010-01-01T01:09:56Z</time>
      </trkpt>
      <trkpt lat="44.1702" lon="3.11003">
        <ele>539</ele>
        <time>2010-01-01T01:09:58Z</time>
      </trkpt>
      <trkpt lat="44.17024" lon="3.11008">
        <ele>539</ele>
        <time>2010-01-01T01:10:00Z</time>
      </trkpt>
      <trkpt lat="44.17027" lon="3.11012">
        <ele>539</ele>
        <time>2010-01-01T01:10:02Z</time>
      </trkpt>
      <trkpt lat="44.1703" lon="3.11017">
        <ele>540</ele>
        <time>2010-01-01T01:10:04Z</time>
      </trkpt>
      <trkpt lat="44.17034" lon="3.11021">
        <ele>540</ele>
        <time>2010-01-01T01:10:06Z</time>
      </trkpt>
      <trkpt lat="44.17038" lon="3.11025">
        <ele>540</ele>
        <time>2010-01-01T01:10:07Z</time>
      </trkpt>
      <trkpt lat="44.17042" lon="3.11025">
        <ele>541</ele>
        <time>2010-01-01T01:10:09Z</time>
      </trkpt>
      <trkpt lat="44.17044" lon="3.1102">
        <ele>542</ele>
        <time>2010-01-01T01:10:11Z</time>
      </trkpt>
      <trkpt lat="44.17043" lon="3.11014">
        <ele>543</ele>
        <time>2010-01-01T01:10:12Z</time>
      </trkpt>
      <trkpt lat="44.17042" lon="3.11009">
        <ele>544</ele>
        <time>2010-01-01T01:10:14Z</time>
      </trkpt>
      <trkpt lat="44.17041" lon="3.11003">
        <ele>544</ele>
        <time>2010-01-01T01:10:15Z</time>
      </trkpt>
      <trkpt lat="44.1704" lon="3.10998">
        <ele>545</ele>
        <time>2010-01-01T01:10:17Z</time>
      </trkpt>
      <trkpt lat="44.17039" lon="3.10993">
        <ele>545</ele>
        <time>2010-01-01T01:10:19Z</time>
      </trkpt>
      <trkpt lat="44.17038" lon="3.10988">
        <ele>545</ele>
        <time>2010-01-01T01:10:20Z</time>
      </trkpt>
      <trkpt lat="44.17037" lon="3.10983">
        <ele>545</ele>
        <time>2010-01-01T01:10:22Z</time>
      </trkpt>
      <trkpt lat="44.17036" lon="3.10977">
        <ele>545</ele>
        <time>2010-01-01T01:10:23Z</time>
      </trkpt>
      <trkpt lat="44.17036" lon="3.10972">
        <ele>546</ele>
        <time>2010-01-01T01:10:25Z</time>
      </trkpt>
      <trkpt lat="44.17037" lon="3.10967">
        <ele>547</ele>
        <time>2010-01-01T01:10:26Z</time>
      </trkpt>
      <trkpt lat="44.1704" lon="3.10965">
        <ele>548</ele>
        <time>2010-01-01T01:10:28Z</time>
      </trkpt>
      <trkpt lat="44.17043" lon="3.10965">
        <ele>549</ele>
        <time>2010-01-01T01:10:29Z</time>
      </trkpt>
      <trkpt lat="44.17046" lon="3.10969">
        <ele>549</ele>
        <time>2010-01-01T01:10:31Z</time>
      </trkpt>
      <trkpt lat="44.17048" lon="3.10974">
        <ele>549</ele>
        <time>2010-01-01T01:10:32Z</time>
      </trkpt>
      <trkpt lat="44.1705" lon="3.10978">
        <ele>549</ele>
        <time>2010-01-01T01:10:34Z</time>
      </trkpt>
      <trkpt lat="44.17053" lon="3.10982">
        <ele>550</ele>
        <time>2010-01-01T01:10:35Z</time>
      </trkpt>
      <trkpt lat="44.17056" lon="3.10985">
        <ele>550</ele>
        <time>2010-01-01T01:10:37Z</time>
      </trkpt>
      <trkpt lat="44.17059" lon="3.10986">
        <ele>551</ele>
        <time>2010-01-01T01:10:38Z</time>
      </trkpt>
      <trkpt lat="44.17062" lon="3.10988">
        <ele>551</ele>
        <time>2010-01-01T01:10:39Z</time>
      </trkpt>
      <trkpt lat="44.17064" lon="3.10991">
        <ele>552</ele>
        <time>2010-01-01T01:10:41Z</time>
      </trkpt>
      <trkpt lat="44.17067" lon="3.10993">
        <ele>552</ele>
        <time>2010-01-01T01:10:42Z</time>
      </trkpt>
      <trkpt lat="44.1707" lon="3.10996">
        <ele>552</ele>
        <time>2010-01-01T01:10:43Z</time>
      </trkpt>
      <trkpt lat="44.17073" lon="3.10998">
        <ele>553</ele>
        <time>2010-01-01T01:10:45Z</time>
      </trkpt>
      <trkpt lat="44.17076" lon="3.11">
        <ele>553</ele>
        <time>2010-01-01T01:10:46Z</time>
      </trkpt>
      <trkpt lat="44.17079" lon="3.11003">
        <ele>553</ele>
        <time>2010-01-01T01:10:47Z</time>
      </trkpt>
      <trkpt lat="44.17082" lon="3.11006">
        <ele>553</ele>
        <time>2010-01-01T01:10:49Z</time>
      </trkpt>
      <trkpt lat="44.17085" lon="3.11009">
        <ele>553</ele>
        <time>2010-01-01T01:10:50Z</time>
      </trkpt>
      <trkpt lat="44.17088" lon="3.11011">
        <ele>553</ele>
        <time>2010-01-01T01:10:52Z</time>
      </trkpt>
      <trkpt lat="44.17091" lon="3.11014">
        <ele>554</ele>
        <time>2010-01-01T01:10:53Z</time>
      </trkpt>
      <trkpt lat="44.17095" lon="3.11017">
        <ele>554</ele>
        <time>2010-01-01T01:10:55Z</time>
      </trkpt>
      <trkpt lat="44.17098" lon="3.1102">
        <ele>554</ele>
        <time>2010-01-01T01:10:57Z</time>
      </trkpt>
      <trkpt lat="44.17102" lon="3.11023">
        <ele>555</ele>
        <time>2010-01-01T01:10:58Z</time>
      </trkpt>
      <trkpt lat="44.17105" lon="3.11026">
        <ele>555</ele>
        <time>2010-01-01T01:11:00Z</time>
      </trkpt>
      <trkpt lat="44.17108" lon="3.11029">
        <ele>555</ele>
        <time>2010-01-01T01:11:01Z</time>
      </trkpt>
      <trkpt lat="44.17112" lon="3.11032">
        <ele>556</ele>
        <time>2010-01-01T01:11:03Z</time>
      </trkpt>
      <trkpt lat="44.17115" lon="3.11035">
        <ele>556</ele>
        <time>2010-01-01T01:11:05Z</time>
      </trkpt>
      <trkpt lat="44.17119" lon="3.11038">
        <ele>556</ele>
        <time>2010-01-01T01:11:06Z</time>
      </trkpt>
      <trkpt lat="44.17122" lon="3.1104">
        <ele>556</ele>
        <time>2010-01-01T01:11:08Z</time>
      </trkpt>
      <trkpt lat="44.17126" lon="3.11043">
        <ele>556</ele>
        <time>2010-01-01T01:11:09Z</time>
      </trkpt>
      <trkpt lat="44.17129" lon="3.11047">
        <ele>555</ele>
        <time>2010-01-01T01:11:11Z</time>
      </trkpt>
      <trkpt lat="44.17132" lon="3.11049">
        <ele>555</ele>
        <time>2010-01-01T01:11:12Z</time>
      </trkpt>
      <trkpt lat="44.17135" lon="3.11052">
        <ele>555</ele>
        <time>2010-01-01T01:11:14Z</time>
      </trkpt>
      <trkpt lat="44.17139" lon="3.11054">
        <ele>555</ele>
        <time>2010-01-01T01:11:15Z</time>
      </trkpt>
      <trkpt lat="44.17142" lon="3.11057">
        <ele>555</ele>
        <time>2010-01-01T01:11:17Z</time>
      </trkpt>
      <trkpt lat="44.17146" lon="3.11059">
        <ele>556</ele>
        <time>2010-01-01T01:11:19Z</time>
      </trkpt>
      <trkpt lat="44.17149" lon="3.11061">
        <ele>556</ele>
        <time>2010-01-01T01:11:20Z</time>
      </trkpt>
      <trkpt lat="44.17153" lon="3.11063">
        <ele>557</ele>
        <time>2010-01-01T01:11:22Z</time>
      </trkpt>
      <trkpt lat="44.17156" lon="3.11064">
        <ele>557</ele>
        <time>2010-01-01T01:11:23Z</time>
      </trkpt>
      <trkpt lat="44.1716" lon="3.11065">
        <ele>558</ele>
        <time>2010-01-01T01:11:25Z</time>
      </trkpt>
      <trkpt lat="44.17164" lon="3.11067">
        <ele>558</ele>
        <time>2010-01-01T01:11:26Z</time>
      </trkpt>
      <trkpt lat="44.17167" lon="3.11068">
        <ele>558</ele>
        <time>2010-01-01T01:11:28Z</time>
      </trkpt>
      <trkpt lat="44.17171" lon="3.1107">
        <ele>558</ele>
        <time>2010-01-01T01:11:29Z</time>
      </trkpt>
      <trkpt lat="44.17175" lon="3.11071">
        <ele>558</ele>
        <time>2010-01-01T01:11:31Z</time>
      </trkpt>
      <trkpt lat="44.17179" lon="3.11072">
        <ele>558</ele>
        <time>2010-01-01T01:11:33Z</time>
      </trkpt>
      <trkpt lat="44.17183" lon="3.11072">
        <ele>558</ele>
        <time>2010-01-01T01:11:34Z</time>
      </trkpt>
      <trkpt lat="44.17187" lon="3.11071">
        <ele>559</ele>
        <time>2010-01-01T01:11:36Z</time>
      </trkpt>
      <trkpt lat="44.17191" lon="3.11068">
        <ele>560</ele>
        <time>2010-01-01T01:11:38Z</time>
      </trkpt>
      <trkpt lat="44.17195" lon="3.11064">
        <ele>561</ele>
        <time>2010-01-01T01:11:39Z</time>
      </trkpt>
      <trkpt lat="44.17197" lon="3.1106">
        <ele>562</ele>
        <time>2010-01-01T01:11:41Z</time>
      </trkpt>
      <trkpt lat="44.17199" lon="3.11055">
        <ele>563</ele>
        <time>2010-01-01T01:11:43Z</time>
      </trkpt>
      <trkpt lat="44.17201" lon="3.1105">
        <ele>564</ele>
        <time>2010-01-01T01:11:44Z</time>
      </trkpt>
      <trkpt lat="44.17204" lon="3.11045">
        <ele>565</ele>
        <time>2010-01-01T01:11:46Z</time>
      </trkpt>
      <trkpt lat="44.17206" lon="3.11041">
        <ele>566</ele>
        <time>2010-01-01T01:11:47Z</time>
      </trkpt>
      <trkpt lat="44.17209" lon="3.11036">
        <ele>567</ele>
        <time>2010-01-01T01:11:49Z</time>
      </trkpt>
      <trkpt lat="44.17212" lon="3.11032">
        <ele>568</ele>
        <time>2010-01-01T01:11:51Z</time>
      </trkpt>
      <trkpt lat="44.17214" lon="3.11028">
        <ele>568</ele>
        <time>2010-01-01T01:11:52Z</time>
      </trkpt>
      <trkpt lat="44.17217" lon="3.11024">
        <ele>569</ele>
        <time>2010-01-01T01:11:54Z</time>
      </trkpt>
      <trkpt lat="44.17219" lon="3.1102">
        <ele>569</ele>
        <time>2010-01-01T01:11:55Z</time>
      </trkpt>
      <trkpt lat="44.17222" lon="3.11016">
        <ele>570</ele>
        <time>2010-01-01T01:11:57Z</time>
      </trkpt>
      <trkpt lat="44.17225" lon="3.11013">
        <ele>570</ele>
        <time>2010-01-01T01:11:58Z</time>
      </trkpt>
      <trkpt lat="44.17229" lon="3.11011">
        <ele>570</ele>
        <time>2010-01-01T01:12:00Z</time>
      </trkpt>
      <trkpt lat="44.17234" lon="3.11011">
        <ele>570</ele>
        <time>2010-01-01T01:12:02Z</time>
      </trkpt>
      <trkpt lat="44.17238" lon="3.11011">
        <ele>570</ele>
        <time>2010-01-01T01:12:04Z</time>
      </trkpt>
      <trkpt lat="44.17243" lon="3.11012">
        <ele>569</ele>
        <time>2010-01-01T01:12:06Z</time>
      </trkpt>
      <trkpt lat="44.17247" lon="3.11015">
        <ele>569</ele>
        <time>2010-01-01T01:12:08Z</time>
      </trkpt>
      <trkpt lat="44.17251" lon="3.11018">
        <ele>568</ele>
        <time>2010-01-01T01:12:09Z</time>
      </trkpt>
      <trkpt lat="44.17255" lon="3.1102">
        <ele>569</ele>
        <time>2010-01-01T01:12:11Z</time>
      </trkpt>
      <trkpt lat="44.17259" lon="3.11023">
        <ele>569</ele>
        <time>2010-01-01T01:12:13Z</time>
      </trkpt>
      <trkpt lat="44.17262" lon="3.11027">
        <ele>569</ele>
        <time>2010-01-01T01:12:15Z</time>
      </trkpt>
      <trkpt lat="44.17266" lon="3.1103">
        <ele>570</ele>
        <time>2010-01-01T01:12:16Z</time>
      </trkpt>
      <trkpt lat="44.17269" lon="3.11033">
        <ele>570</ele>
        <time>2010-01-01T01:12:18Z</time>
      </trkpt>
      <trkpt lat="44.17273" lon="3.11036">
        <ele>570</ele>
        <time>2010-01-01T01:12:20Z</time>
      </trkpt>
      <trkpt lat="44.17277" lon="3.11039">
        <ele>570</ele>
        <time>2010-01-01T01:12:21Z</time>
      </trkpt>
      <trkpt lat="44.1728" lon="3.11041">
        <ele>570</ele>
        <time>2010-01-01T01:12:23Z</time>
      </trkpt>
      <trkpt lat="44.17284" lon="3.11044">
        <ele>571</ele>
        <time>2010-01-01T01:12:25Z</time>
      </trkpt>
      <trkpt lat="44.17288" lon="3.11047">
        <ele>571</ele>
        <time>2010-01-01T01:12:26Z</time>
      </trkpt>
      <trkpt lat="44.17292" lon="3.1105">
        <ele>571</ele>
        <time>2010-01-01T01:12:28Z</time>
      </trkpt>
      <trkpt lat="44.17296" lon="3.11053">
        <ele>572</ele>
        <time>2010-01-01T01:12:30Z</time>
      </trkpt>
      <trkpt lat="44.173" lon="3.11056">
        <ele>572</ele>
        <time>2010-01-01T01:12:32Z</time>
      </trkpt>
      <trkpt lat="44.17304" lon="3.11059">
        <ele>572</ele>
        <time>2010-01-01T01:12:34Z</time>
      </trkpt>
      <trkpt lat="44.17309" lon="3.11061">
        <ele>573</ele>
        <time>2010-01-01T01:12:36Z</time>
      </trkpt>
      <trkpt lat="44.17314" lon="3.11062">
        <ele>573</ele>
        <time>2010-01-01T01:12:38Z</time>
      </trkpt>
      <trkpt lat="44.17318" lon="3.11065">
        <ele>573</ele>
        <time>2010-01-01T01:12:40Z</time>
      </trkpt>
      <trkpt lat="44.17323" lon="3.11068">
        <ele>573</ele>
        <time>2010-01-01T01:12:42Z</time>
      </trkpt>
      <trkpt lat="44.17328" lon="3.11071">
        <ele>573</ele>
        <time>2010-01-01T01:12:44Z</time>
      </trkpt>
      <trkpt lat="44.17333" lon="3.11073">
        <ele>573</ele>
        <time>2010-01-01T01:12:46Z</time>
      </trkpt>
      <trkpt lat="44.17337" lon="3.11076">
        <ele>573</ele>
        <time>2010-01-01T01:12:48Z</time>
      </trkpt>
      <trkpt lat="44.17342" lon="3.11078">
        <ele>574</ele>
        <time>2010-01-01T01:12:50Z</time>
      </trkpt>
      <trkpt lat="44.17347" lon="3.11081">
        <ele>574</ele>
        <time>2010-01-01T01:12:52Z</time>
      </trkpt>
      <trkpt lat="44.17352" lon="3.11083">
        <ele>575</ele>
        <time>2010-01-01T01:12:54Z</time>
      </trkpt>
      <trkpt lat="44.17357" lon="3.11086">
        <ele>576</ele>
        <time>2010-01-01T01:12:57Z</time>
      </trkpt>
      <trkpt lat="44.17362" lon="3.11089">
        <ele>576</ele>
        <time>2010-01-01T01:12:59Z</time>
      </trkpt>
      <trkpt lat="44.17367" lon="3.11093">
        <ele>576</ele>
        <time>2010-01-01T01:13:01Z</time>
      </trkpt>
      <trkpt lat="44.17371" lon="3.11097">
        <ele>576</ele>
        <time>2010-01-01T01:13:03Z</time>
      </trkpt>
      <trkpt lat="44.17375" lon="3.11101">
        <ele>576</ele>
        <time>2010-01-01T01:13:05Z</time>
      </trkpt>
      <trkpt lat="44.1738" lon="3.11105">
        <ele>576</ele>
        <time>2010-01-01T01:13:07Z</time>
      </trkpt>
      <trkpt lat="44.17384" lon="3.11109">
        <ele>576</ele>
        <time>2010-01-01T01:13:09Z</time>
      </trkpt>
      <trkpt lat="44.17388" lon="3.11114">
        <ele>577</ele>
        <time>2010-01-01T01:13:11Z</time>
      </trkpt>
      <trkpt lat="44.17392" lon="3.11118">
        <ele>576</ele>
        <time>2010-01-01T01:13:13Z</time>
      </trkpt>
      <trkpt lat="44.17396" lon="3.11123">
        <ele>576</ele>
        <time>2010-01-01T01:13:15Z</time>
      </trkpt>
      <trkpt lat="44.174" lon="3.11129">
        <ele>575</ele>
        <time>2010-01-01T01:13:18Z</time>
      </trkpt>
      <trkpt lat="44.17404" lon="3.11135">
        <ele>575</ele>
        <time>2010-01-01T01:13:20Z</time>
      </trkpt>
      <trkpt lat="44.17408" lon="3.11141">
        <ele>575</ele>
        <time>2010-01-01T01:13:22Z</time>
      </trkpt>
      <trkpt lat="44.17412" lon="3.11147">
        <ele>575</ele>
        <time>2010-01-01T01:13:25Z</time>
      </trkpt>
      <trkpt lat="44.17416" lon="3.11154">
        <ele>575</ele>
        <time>2010-01-01T01:13:27Z</time>
      </trkpt>
      <trkpt lat="44.1742" lon="3.1116">
        <ele>575</ele>
        <time>2010-01-01T01:13:30Z</time>
      </trkpt>
      <trkpt lat="44.17424" lon="3.11167">
        <ele>576</ele>
        <time>2010-01-01T01:13:32Z</time>
      </trkpt>
      <trkpt lat="44.17428" lon="3.11173">
        <ele>576</ele>
        <time>2010-01-01T01:13:35Z</time>
      </trkpt>
      <trkpt lat="44.17432" lon="3.1118">
        <ele>576</ele>
        <time>2010-01-01T01:13:37Z</time>
      </trkpt>
      <trkpt lat="44.17436" lon="3.11186">
        <ele>576</ele>
        <time>2010-01-01T01:13:40Z</time>
      </trkpt>
      <trkpt lat="44.1744" lon="3.11192">
        <ele>577</ele>
        <time>2010-01-01T01:13:42Z</time>
      </trkpt>
      <trkpt lat="44.17444" lon="3.11198">
        <ele>578</ele>
        <time>2010-01-01T01:13:44Z</time>
      </trkpt>
      <trkpt lat="44.17448" lon="3.11204">
        <ele>577</ele>
        <time>2010-01-01T01:13:47Z</time>
      </trkpt>
      <trkpt lat="44.17452" lon="3.1121">
        <ele>577</ele>
        <time>2010-01-01T01:13:49Z</time>
      </trkpt>
      <trkpt lat="44.17456" lon="3.11216">
        <ele>577</ele>
        <time>2010-01-01T01:13:51Z</time>
      </trkpt>
      <trkpt lat="44.1746" lon="3.11222">
        <ele>578</ele>
        <time>2010-01-01T01:13:54Z</time>
      </trkpt>
      <trkpt lat="44.17464" lon="3.11228">
        <ele>578</ele>
        <time>2010-01-01T01:13:56Z</time>
      </trkpt>
      <trkpt lat="44.17468" lon="3.11234">
        <ele>578</ele>
        <time>2010-01-01T01:13:58Z</time>
      </trkpt>
      <trkpt lat="44.17472" lon="3.1124">
        <ele>578</ele>
        <time>2010-01-01T01:14:01Z</time>
      </trkpt>
      <trkpt lat="44.17475" lon="3.11246">
        <ele>578</ele>
        <time>2010-01-01T01:14:03Z</time>
      </trkpt>
      <trkpt lat="44.1748" lon="3.11251">
        <ele>578</ele>
        <time>2010-01-01T01:14:05Z</time>
      </trkpt>
      <trkpt lat="44.17484" lon="3.11256">
        <ele>578</ele>
        <time>2010-01-01T01:14:07Z</time>
      </trkpt>
      <trkpt lat="44.17488" lon="3.11261">
        <ele>579</ele>
        <time>2010-01-01T01:14:10Z</time>
      </trkpt>
      <trkpt lat="44.17493" lon="3.11265">
        <ele>580</ele>
        <time>2010-01-01T01:14:12Z</time>
      </trkpt>
      <trkpt lat="44.17499" lon="3.11267">
        <ele>581</ele>
        <time>2010-01-01T01:14:14Z</time>
      </trkpt>
      <trkpt lat="44.17506" lon="3.11268">
        <ele>582</ele>
        <time>2010-01-01T01:14:17Z</time>
      </trkpt>
      <trkpt lat="44.17512" lon="3.11266">
        <ele>583</ele>
        <time>2010-01-01T01:14:19Z</time>
      </trkpt>
      <trkpt lat="44.17517" lon="3.11263">
        <ele>583</ele>
        <time>2010-01-01T01:14:22Z</time>
      </trkpt>
      <trkpt lat="44.17522" lon="3.11259">
        <ele>584</ele>
        <time>2010-01-01T01:14:24Z</time>
      </trkpt>
      <trkpt lat="44.17528" lon="3.11254">
        <ele>585</ele>
        <time>2010-01-01T01:14:27Z</time>
      </trkpt>
      <trkpt lat="44.17534" lon="3.11249">
        <ele>585</ele>
        <time>2010-01-01T01:14:29Z</time>
      </trkpt>
      <trkpt lat="44.1754" lon="3.11244">
        <ele>585</ele>
        <time>2010-01-01T01:14:32Z</time>
      </trkpt>
      <trkpt lat="44.17546" lon="3.11241">
        <ele>584</ele>
        <time>2010-01-01T01:14:35Z</time>
      </trkpt>
      <trkpt lat="44.17553" lon="3.1124">
        <ele>584</ele>
        <time>2010-01-01T01:14:38Z</time>
      </trkpt>
      <trkpt lat="44.1756" lon="3.11239">
        <ele>584</ele>
        <time>2010-01-01T01:14:41Z</time>
      </trkpt>
      <trkpt lat="44.17567" lon="3.1124">
        <ele>584</ele>
        <time>2010-01-01T01:14:43Z</time>
      </trkpt>
      <trkpt lat="44.17573" lon="3.11242">
        <ele>584</ele>
        <time>2010-01-01T01:14:46Z</time>
      </trkpt>
      <trkpt lat="44.1758" lon="3.11245">
        <ele>584</ele>
        <time>2010-01-01T01:14:49Z</time>
      </trkpt>
      <trkpt lat="44.17586" lon="3.11248">
        <ele>584</ele>
        <time>2010-01-01T01:14:51Z</time>
      </trkpt>
      <trkpt lat="44.17592" lon="3.11252">
        <ele>584</ele>
        <time>2010-01-01T01:14:54Z</time>
      </trkpt>
      <trkpt lat="44.17598" lon="3.11256">
        <ele>584</ele>
        <time>2010-01-01T01:14:57Z</time>
      </trkpt>
      <trkpt lat="44.17604" lon="3.1126">
        <ele>584</ele>
        <time>2010-01-01T01:14:59Z</time>
      </trkpt>
      <trkpt lat="44.1761" lon="3.11264">
        <ele>584</ele>
        <time>2010-01-01T01:15:02Z</time>
      </trkpt>
      <trkpt lat="44.17615" lon="3.11267">
        <ele>584</ele>
        <time>2010-01-01T01:15:04Z</time>
      </trkpt>
      <trkpt lat="44.1762" lon="3.1127">
        <ele>585</ele>
        <time>2010-01-01T01:15:06Z</time>
      </trkpt>
      <trkpt lat="44.17625" lon="3.11273">
        <ele>585</ele>
        <time>2010-01-01T01:15:08Z</time>
      </trkpt>
      <trkpt lat="44.1763" lon="3.11276">
        <ele>585</ele>
        <time>2010-01-01T01:15:11Z</time>
      </trkpt>
      <trkpt lat="44.17635" lon="3.11279">
        <ele>586</ele>
        <time>2010-01-01T01:15:13Z</time>
      </trkpt>
      <trkpt lat="44.1764" lon="3.11282">
        <ele>586</ele>
        <time>2010-01-01T01:15:15Z</time>
      </trkpt>
      <trkpt lat="44.17645" lon="3.11286">
        <ele>587</ele>
        <time>2010-01-01T01:15:17Z</time>
      </trkpt>
      <trkpt lat="44.1765" lon="3.1129">
        <ele>587</ele>
        <time>2010-01-01T01:15:20Z</time>
      </trkpt>
      <trkpt lat="44.17656" lon="3.11293">
        <ele>588</ele>
        <time>2010-01-01T01:15:22Z</time>
      </trkpt>
      <trkpt lat="44.17661" lon="3.11296">
        <ele>588</ele>
        <time>2010-01-01T01:15:24Z</time>
      </trkpt>
      <trkpt lat="44.17666" lon="3.11299">
        <ele>589</ele>
        <time>2010-01-01T01:15:27Z</time>
      </trkpt>
      <trkpt lat="44.17671" lon="3.11301">
        <ele>589</ele>
        <time>2010-01-01T01:15:29Z</time>
      </trkpt>
      <trkpt lat="44.17676" lon="3.11304">
        <ele>590</ele>
        <time>2010-01-01T01:15:31Z</time>
      </trkpt>
      <trkpt lat="44.17681" lon="3.11306">
        <ele>590</ele>
        <time>2010-01-01T01:15:33Z</time>
      </trkpt>
      <trkpt lat="44.17686" lon="3.11309">
        <ele>590</ele>
        <time>2010-01-01T01:15:35Z</time>
      </trkpt>
      <trkpt lat="44.17691" lon="3.11311">
        <ele>591</ele>
        <time>2010-01-01T01:15:37Z</time>
      </trkpt>
      <trkpt lat="44.17696" lon="3.11313">
        <ele>591</ele>
        <time>2010-01-01T01:15:39Z</time>
      </trkpt>
      <trkpt lat="44.17701" lon="3.11315">
        <ele>591</ele>
        <time>2010-01-01T01:15:41Z</time>
      </trkpt>
      <trkpt lat="44.17706" lon="3.11317">
        <ele>591</ele>
        <time>2010-01-01T01:15:43Z</time>
      </trkpt>
      <trkpt lat="44.17711" lon="3.11319">
        <ele>591</ele>
        <time>2010-01-01T01:15:45Z</time>
      </trkpt>
      <trkpt lat="44.17716" lon="3.11322">
        <ele>592</ele>
        <time>2010-01-01T01:15:48Z</time>
      </trkpt>
      <trkpt lat="44.17721" lon="3.11323">
        <ele>592</ele>
        <time>2010-01-01T01:15:50Z</time>
      </trkpt>
      <trkpt lat="44.17726" lon="3.11326">
        <ele>592</ele>
        <time>2010-01-01T01:15:52Z</time>
      </trkpt>
      <trkpt lat="44.17731" lon="3.11328">
        <ele>592</ele>
        <time>2010-01-01T01:15:54Z</time>
      </trkpt>
      <trkpt lat="44.17736" lon="3.1133">
        <ele>592</ele>
        <time>2010-01-01T01:15:56Z</time>
      </trkpt>
      <trkpt lat="44.17741" lon="3.11331">
        <ele>591</ele>
        <time>2010-01-01T01:15:58Z</time>
      </trkpt>
      <trkpt lat="44.17746" lon="3.11333">
        <ele>591</ele>
        <time>2010-01-01T01:16:00Z</time>
      </trkpt>
      <trkpt lat="44.17751" lon="3.11333">
        <ele>592</ele>
        <time>2010-01-01T01:16:02Z</time>
      </trkpt>
      <trkpt lat="44.17756" lon="3.11332">
        <ele>592</ele>
        <time>2010-01-01T01:16:04Z</time>
      </trkpt>
      <trkpt lat="44.17761" lon="3.11331">
        <ele>593</ele>
        <time>2010-01-01T01:16:06Z</time>
      </trkpt>
      <trkpt lat="44.17767" lon="3.1133">
        <ele>593</ele>
        <time>2010-01-01T01:16:09Z</time>
      </trkpt>
      <trkpt lat="44.17772" lon="3.1133">
        <ele>594</ele>
        <time>2010-01-01T01:16:11Z</time>
      </trkpt>
      <trkpt lat="44.17778" lon="3.1133">
        <ele>594</ele>
        <time>2010-01-01T01:16:13Z</time>
      </trkpt>
      <trkpt lat="44.17783" lon="3.1133">
        <ele>595</ele>
        <time>2010-01-01T01:16:15Z</time>
      </trkpt>
      <trkpt lat="44.17788" lon="3.11329">
        <ele>596</ele>
        <time>2010-01-01T01:16:17Z</time>
      </trkpt>
      <trkpt lat="44.17794" lon="3.11328">
        <ele>597</ele>
        <time>2010-01-01T01:16:19Z</time>
      </trkpt>
      <trkpt lat="44.17799" lon="3.11328">
        <ele>598</ele>
        <time>2010-01-01T01:16:21Z</time>
      </trkpt>
      <trkpt lat="44.17804" lon="3.11327">
        <ele>598</ele>
        <time>2010-01-01T01:16:23Z</time>
      </trkpt>
      <trkpt lat="44.17809" lon="3.11327">
        <ele>599</ele>
        <time>2010-01-01T01:16:25Z</time>
      </trkpt>
      <trkpt lat="44.17814" lon="3.11327">
        <ele>600</ele>
        <time>2010-01-01T01:16:27Z</time>
      </trkpt>
      <trkpt lat="44.17819" lon="3.11326">
        <ele>600</ele>
        <time>2010-01-01T01:16:29Z</time>
      </trkpt>
      <trkpt lat="44.17824" lon="3.11326">
        <ele>601</ele>
        <time>2010-01-01T01:16:32Z</time>
      </trkpt>
      <trkpt lat="44.17829" lon="3.11326">
        <ele>602</ele>
        <time>2010-01-01T01:16:34Z</time>
      </trkpt>
      <trkpt lat="44.17834" lon="3.11327">
        <ele>602</ele>
        <time>2010-01-01T01:16:36Z</time>
      </trkpt>
      <trkpt lat="44.17839" lon="3.11328">
        <ele>602</ele>
        <time>2010-01-01T01:16:37Z</time>
      </trkpt>
      <trkpt lat="44.17844" lon="3.11329">
        <ele>602</ele>
        <time>2010-01-01T01:16:39Z</time>
      </trkpt>
      <trkpt lat="44.17849" lon="3.1133">
        <ele>603</ele>
        <time>2010-01-01T01:16:41Z</time>
      </trkpt>
      <trkpt lat="44.17853" lon="3.11332">
        <ele>603</ele>
        <time>2010-01-01T01:16:43Z</time>
      </trkpt>
      <trkpt lat="44.17858" lon="3.11334">
        <ele>603</ele>
        <time>2010-01-01T01:16:45Z</time>
      </trkpt>
      <trkpt lat="44.17862" lon="3.11335">
        <ele>603</ele>
        <time>2010-01-01T01:16:47Z</time>
      </trkpt>
      <trkpt lat="44.17867" lon="3.11338">
        <ele>603</ele>
        <time>2010-01-01T01:16:49Z</time>
      </trkpt>
      <trkpt lat="44.17872" lon="3.1134">
        <ele>603</ele>
        <time>2010-01-01T01:16:51Z</time>
      </trkpt>
      <trkpt lat="44.17876" lon="3.11343">
        <ele>603</ele>
        <time>2010-01-01T01:16:53Z</time>
      </trkpt>
      <trkpt lat="44.17881" lon="3.11345">
        <ele>604</ele>
        <time>2010-01-01T01:16:55Z</time>
      </trkpt>
      <trkpt lat="44.17886" lon="3.11348">
        <ele>604</ele>
        <time>2010-01-01T01:16:57Z</time>
      </trkpt>
      <trkpt lat="44.1789" lon="3.1135">
        <ele>605</ele>
        <time>2010-01-01T01:16:59Z</time>
      </trkpt>
      <trkpt lat="44.17894" lon="3.11352">
        <ele>605</ele>
        <time>2010-01-01T01:17:01Z</time>
      </trkpt>
      <trkpt lat="44.17898" lon="3.11355">
        <ele>606</ele>
        <time>2010-01-01T01:17:02Z</time>
      </trkpt>
      <trkpt lat="44.17902" lon="3.11357">
        <ele>607</ele>
        <time>2010-01-01T01:17:04Z</time>
      </trkpt>
      <trkpt lat="44.17906" lon="3.1136">
        <ele>607</ele>
        <time>2010-01-01T01:17:06Z</time>
      </trkpt>
      <trkpt lat="44.17911" lon="3.11362">
        <ele>608</ele>
        <time>2010-01-01T01:17:08Z</time>
      </trkpt>
      <trkpt lat="44.17915" lon="3.11365">
        <ele>609</ele>
        <time>2010-01-01T01:17:10Z</time>
      </trkpt>
      <trkpt lat="44.17919" lon="3.11367">
        <ele>609</ele>
        <time>2010-01-01T01:17:11Z</time>
      </trkpt>
      <trkpt lat="44.17923" lon="3.1137">
        <ele>610</ele>
        <time>2010-01-01T01:17:13Z</time>
      </trkpt>
      <trkpt lat="44.17927" lon="3.11372">
        <ele>610</ele>
        <time>2010-01-01T01:17:15Z</time>
      </trkpt>
      <trkpt lat="44.17931" lon="3.11374">
        <ele>610</ele>
        <time>2010-01-01T01:17:17Z</time>
      </trkpt>
      <trkpt lat="44.17935" lon="3.11377">
        <ele>611</ele>
        <time>2010-01-01T01:17:19Z</time>
      </trkpt>
      <trkpt lat="44.17939" lon="3.11379">
        <ele>611</ele>
        <time>2010-01-01T01:17:20Z</time>
      </trkpt>
      <trkpt lat="44.17944" lon="3.11382">
        <ele>611</ele>
        <time>2010-01-01T01:17:22Z</time>
      </trkpt>
      <trkpt lat="44.17948" lon="3.11384">
        <ele>611</ele>
        <time>2010-01-01T01:17:24Z</time>
      </trkpt>
      <trkpt lat="44.17952" lon="3.11387">
        <ele>611</ele>
        <time>2010-01-01T01:17:26Z</time>
      </trkpt>
      <trkpt lat="44.17956" lon="3.11389">
        <ele>611</ele>
        <time>2010-01-01T01:17:28Z</time>
      </trkpt>
      <trkpt lat="44.17961" lon="3.11392">
        <ele>611</ele>
        <time>2010-01-01T01:17:30Z</time>
      </trkpt>
      <trkpt lat="44.17965" lon="3.11394">
        <ele>611</ele>
        <time>2010-01-01T01:17:32Z</time>
      </trkpt>
      <trkpt lat="44.17969" lon="3.11397">
        <ele>611</ele>
        <time>2010-01-01T01:17:33Z</time>
      </trkpt>
      <trkpt lat="44.17974" lon="3.11399">
        <ele>611</ele>
        <time>2010-01-01T01:17:35Z</time>
      </trkpt>
      <trkpt lat="44.17978" lon="3.11402">
        <ele>611</ele>
        <time>2010-01-01T01:17:37Z</time>
      </trkpt>
      <trkpt lat="44.17982" lon="3.11405">
        <ele>611</ele>
        <time>2010-01-01T01:17:39Z</time>
      </trkpt>
      <trkpt lat="44.17986" lon="3.11407">
        <ele>611</ele>
        <time>2010-01-01T01:17:41Z</time>
      </trkpt>
      <trkpt lat="44.17991" lon="3.1141">
        <ele>612</ele>
        <time>2010-01-01T01:17:43Z</time>
      </trkpt>
      <trkpt lat="44.17995" lon="3.11413">
        <ele>612</ele>
        <time>2010-01-01T01:17:44Z</time>
      </trkpt>
      <trkpt lat="44.17999" lon="3.11415">
        <ele>612</ele>
        <time>2010-01-01T01:17:46Z</time>
      </trkpt>
      <trkpt lat="44.18004" lon="3.11417">
        <ele>613</ele>
        <time>2010-01-01T01:17:48Z</time>
      </trkpt>
      <trkpt lat="44.18009" lon="3.11419">
        <ele>614</ele>
        <time>2010-01-01T01:17:50Z</time>
      </trkpt>
      <trkpt lat="44.18013" lon="3.1142">
        <ele>615</ele>
        <time>2010-01-01T01:17:52Z</time>
      </trkpt>
      <trkpt lat="44.18018" lon="3.11422">
        <ele>615</ele>
        <time>2010-01-01T01:17:54Z</time>
      </trkpt>
      <trkpt lat="44.18023" lon="3.11423">
        <ele>616</ele>
        <time>2010-01-01T01:17:56Z</time>
      </trkpt>
      <trkpt lat="44.18028" lon="3.11425">
        <ele>617</ele>
        <time>2010-01-01T01:17:58Z</time>
      </trkpt>
      <trkpt lat="44.18033" lon="3.11427">
        <ele>617</ele>
        <time>2010-01-01T01:18:01Z</time>
      </trkpt>
      <trkpt lat="44.18038" lon="3.11429">
        <ele>618</ele>
        <time>2010-01-01T01:18:03Z</time>
      </trkpt>
      <trkpt lat="44.18044" lon="3.1143">
        <ele>618</ele>
        <time>2010-01-01T01:18:05Z</time>
      </trkpt>
      <trkpt lat="44.18049" lon="3.11432">
        <ele>619</ele>
        <time>2010-01-01T01:18:07Z</time>
      </trkpt>
      <trkpt lat="44.18055" lon="3.11433">
        <ele>619</ele>
        <time>2010-01-01T01:18:09Z</time>
      </trkpt>
      <trkpt lat="44.1806" lon="3.11435">
        <ele>619</ele>
        <time>2010-01-01T01:18:12Z</time>
      </trkpt>
      <trkpt lat="44.18066" lon="3.11437">
        <ele>619</ele>
        <time>2010-01-01T01:18:14Z</time>
      </trkpt>
      <trkpt lat="44.18071" lon="3.11438">
        <ele>619</ele>
        <time>2010-01-01T01:18:16Z</time>
      </trkpt>
      <trkpt lat="44.18077" lon="3.11439">
        <ele>619</ele>
        <time>2010-01-01T01:18:18Z</time>
      </trkpt>
      <trkpt lat="44.18082" lon="3.11439">
        <ele>619</ele>
        <time>2010-01-01T01:18:21Z</time>
      </trkpt>
      <trkpt lat="44.18088" lon="3.11439">
        <ele>619</ele>
        <time>2010-01-01T01:18:23Z</time>
      </trkpt>
      <trkpt lat="44.18094" lon="3.1144">
        <ele>619</ele>
        <time>2010-01-01T01:18:25Z</time>
      </trkpt>
      <trkpt lat="44.181" lon="3.1144">
        <ele>619</ele>
        <time>2010-01-01T01:18:28Z</time>
      </trkpt>
      <trkpt lat="44.18105" lon="3.1144">
        <ele>619</ele>
        <time>2010-01-01T01:18:30Z</time>
      </trkpt>
      <trkpt lat="44.18111" lon="3.1144">
        <ele>619</ele>
        <time>2010-01-01T01:18:32Z</time>
      </trkpt>
      <trkpt lat="44.18117" lon="3.11441">
        <ele>619</ele>
        <time>2010-01-01T01:18:34Z</time>
      </trkpt>
      <trkpt lat="44.18123" lon="3.11441">
        <ele>618</ele>
        <time>2010-01-01T01:18:37Z</time>
      </trkpt>
      <trkpt lat="44.18129" lon="3.11441">
        <ele>618</ele>
        <time>2010-01-01T01:18:39Z</time>
      </trkpt>
      <trkpt lat="44.18135" lon="3.11442">
        <ele>618</ele>
        <time>2010-01-01T01:18:41Z</time>
      </trkpt>
      <trkpt lat="44.1814" lon="3.11443">
        <ele>618</ele>
        <time>2010-01-01T01:18:44Z</time>
      </trkpt>
      <trkpt lat="44.18146" lon="3.11444">
        <ele>618</ele>
        <time>2010-01-01T01:18:46Z</time>
      </trkpt>
      <trkpt lat="44.18152" lon="3.11446">
        <ele>617</ele>
        <time>2010-01-01T01:18:49Z</time>
      </trkpt>
      <trkpt lat="44.18158" lon="3.11447">
        <ele>617</ele>
        <time>2010-01-01T01:18:51Z</time>
      </trkpt>
      <trkpt lat="44.18164" lon="3.11449">
        <ele>617</ele>
        <time>2010-01-01T01:18:53Z</time>
      </trkpt>
      <trkpt lat="44.18169" lon="3.11451">
        <ele>617</ele>
        <time>2010-01-01T01:18:56Z</time>
      </trkpt>
      <trkpt lat="44.18175" lon="3.11453">
        <ele>618</ele>
        <time>2010-01-01T01:18:58Z</time>
      </trkpt>
      <trkpt lat="44.1818" lon="3.11455">
        <ele>618</ele>
        <time>2010-01-01T01:19:00Z</time>
      </trkpt>
      <trkpt lat="44.18186" lon="3.11457">
        <ele>618</ele>
        <time>2010-01-01T01:19:02Z</time>
      </trkpt>
      <trkpt lat="44.18191" lon="3.11459">
        <ele>619</ele>
        <time>2010-01-01T01:19:05Z</time>
      </trkpt>
      <trkpt lat="44.18197" lon="3.11461">
        <ele>619</ele>
        <time>2010-01-01T01:19:07Z</time>
      </trkpt>
      <trkpt lat="44.18203" lon="3.11462">
        <ele>620</ele>
        <time>2010-01-01T01:19:09Z</time>
      </trkpt>
      <trkpt lat="44.18208" lon="3.11462">
        <ele>620</ele>
        <time>2010-01-01T01:19:11Z</time>
      </trkpt>
      <trkpt lat="44.18213" lon="3.11461">
        <ele>621</ele>
        <time>2010-01-01T01:19:13Z</time>
      </trkpt>
      <trkpt lat="44.18218" lon="3.1146">
        <ele>622</ele>
        <time>2010-01-01T01:19:16Z</time>
      </trkpt>
      <trkpt lat="44.18223" lon="3.11459">
        <ele>622</ele>
        <time>2010-01-01T01:19:18Z</time>
      </trkpt>
      <trkpt lat="44.18229" lon="3.11456">
        <ele>623</ele>
        <time>2010-01-01T01:19:20Z</time>
      </trkpt>
      <trkpt lat="44.18234" lon="3.11454">
        <ele>623</ele>
        <time>2010-01-01T01:19:22Z</time>
      </trkpt>
      <trkpt lat="44.1824" lon="3.11453">
        <ele>624</ele>
        <time>2010-01-01T01:19:24Z</time>
      </trkpt>
      <trkpt lat="44.18245" lon="3.11451">
        <ele>625</ele>
        <time>2010-01-01T01:19:27Z</time>
      </trkpt>
      <trkpt lat="44.18251" lon="3.11451">
        <ele>625</ele>
        <time>2010-01-01T01:19:29Z</time>
      </trkpt>
      <trkpt lat="44.18256" lon="3.1145">
        <ele>625</ele>
        <time>2010-01-01T01:19:31Z</time>
      </trkpt>
      <trkpt lat="44.18262" lon="3.11449">
        <ele>626</ele>
        <time>2010-01-01T01:19:33Z</time>
      </trkpt>
      <trkpt lat="44.18267" lon="3.11449">
        <ele>626</ele>
        <time>2010-01-01T01:19:36Z</time>
      </trkpt>
      <trkpt lat="44.18273" lon="3.11448">
        <ele>626</ele>
        <time>2010-01-01T01:19:38Z</time>
      </trkpt>
      <trkpt lat="44.18279" lon="3.11447">
        <ele>626</ele>
        <time>2010-01-01T01:19:40Z</time>
      </trkpt>
      <trkpt lat="44.18285" lon="3.11447">
        <ele>626</ele>
        <time>2010-01-01T01:19:43Z</time>
      </trkpt>
      <trkpt lat="44.18292" lon="3.11448">
        <ele>625</ele>
        <time>2010-01-01T01:19:46Z</time>
      </trkpt>
      <trkpt lat="44.18299" lon="3.11449">
        <ele>625</ele>
        <time>2010-01-01T01:19:48Z</time>
      </trkpt>
      <trkpt lat="44.18307" lon="3.11452">
        <ele>624</ele>
        <time>2010-01-01T01:19:52Z</time>
      </trkpt>
      <trkpt lat="44.18315" lon="3.11455">
        <ele>623</ele>
        <time>2010-01-01T01:19:55Z</time>
      </trkpt>
      <trkpt lat="44.18325" lon="3.11459">
        <ele>622</ele>
        <time>2010-01-01T01:19:59Z</time>
      </trkpt>
      <trkpt lat="44.18336" lon="3.11464">
        <ele>621</ele>
        <time>2010-01-01T01:20:04Z</time>
      </trkpt>
      <trkpt lat="44.18348" lon="3.1147">
        <ele>620</ele>
        <time>2010-01-01T01:20:09Z</time>
      </trkpt>
      <trkpt lat="44.18361" lon="3.11477">
        <ele>620</ele>
        <time>2010-01-01T01:20:14Z</time>
      </trkpt>
      <trkpt lat="44.18374" lon="3.11486">
        <ele>618</ele>
        <time>2010-01-01T01:20:20Z</time>
      </trkpt>
      <trkpt lat="44.18387" lon="3.11495">
        <ele>616</ele>
        <time>2010-01-01T01:20:26Z</time>
      </trkpt>
      <trkpt lat="44.18399" lon="3.11503">
        <ele>615</ele>
        <time>2010-01-01T01:20:31Z</time>
      </trkpt>
      <trkpt lat="44.18407" lon="3.1151">
        <ele>614</ele>
        <time>2010-01-01T01:20:35Z</time>
      </trkpt>
      <trkpt lat="44.18413" lon="3.11518">
        <ele>613</ele>
        <time>2010-01-01T01:20:38Z</time>
      </trkpt>
      <trkpt lat="44.18419" lon="3.11531">
        <ele>612</ele>
        <time>2010-01-01T01:20:43Z</time>
      </trkpt>
      <trkpt lat="44.18426" lon="3.11548">
        <ele>610</ele>
        <time>2010-01-01T01:20:48Z</time>
      </trkpt>
      <trkpt lat="44.18437" lon="3.11564">
        <ele>609</ele>
        <time>2010-01-01T01:20:55Z</time>
      </trkpt>
      <trkpt lat="44.18452" lon="3.11577">
        <ele>608</ele>
        <time>2010-01-01T01:21:02Z</time>
      </trkpt>
      <trkpt lat="44.18467" lon="3.1159">
        <ele>607</ele>
        <time>2010-01-01T01:21:09Z</time>
      </trkpt>
      <trkpt lat="44.1848" lon="3.11607">
        <ele>606</ele>
        <time>2010-01-01T01:21:16Z</time>
      </trkpt>
      <trkpt lat="44.18489" lon="3.11625">
        <ele>606</ele>
        <time>2010-01-01T01:21:22Z</time>
      </trkpt>
      <trkpt lat="44.18498" lon="3.11639">
        <ele>605</ele>
        <time>2010-01-01T01:21:28Z</time>
      </trkpt>
      <trkpt lat="44.18506" lon="3.11651">
        <ele>607</ele>
        <time>2010-01-01T01:21:33Z</time>
      </trkpt>
      <trkpt lat="44.18513" lon="3.1166">
        <ele>607</ele>
        <time>2010-01-01T01:21:37Z</time>
      </trkpt>
      <trkpt lat="44.18518" lon="3.11668">
        <ele>607</ele>
        <time>2010-01-01T01:21:40Z</time>
      </trkpt>
      <trkpt lat="44.18523" lon="3.11675">
        <ele>607</ele>
        <time>2010-01-01T01:21:42Z</time>
      </trkpt>
      <trkpt lat="44.18529" lon="3.11682">
        <ele>607</ele>
        <time>2010-01-01T01:21:45Z</time>
      </trkpt>
      <trkpt lat="44.18535" lon="3.11688">
        <ele>607</ele>
        <time>2010-01-01T01:21:48Z</time>
      </trkpt>
      <trkpt lat="44.18541" lon="3.11693">
        <ele>607</ele>
        <time>2010-01-01T01:21:51Z</time>
      </trkpt>
      <trkpt lat="44.18548" lon="3.11697">
        <ele>606</ele>
        <time>2010-01-01T01:21:54Z</time>
      </trkpt>
      <trkpt lat="44.18554" lon="3.117">
        <ele>606</ele>
        <time>2010-01-01T01:21:57Z</time>
      </trkpt>
      <trkpt lat="44.18561" lon="3.11704">
        <ele>606</ele>
        <time>2010-01-01T01:22:00Z</time>
      </trkpt>
      <trkpt lat="44.18567" lon="3.11706">
        <ele>606</ele>
        <time>2010-01-01T01:22:02Z</time>
      </trkpt>
      <trkpt lat="44.18573" lon="3.11707">
        <ele>606</ele>
        <time>2010-01-01T01:22:05Z</time>
      </trkpt>
      <trkpt lat="44.18579" lon="3.11708">
        <ele>606</ele>
        <time>2010-01-01T01:22:07Z</time>
      </trkpt>
      <trkpt lat="44.18586" lon="3.11709">
        <ele>607</ele>
        <time>2010-01-01T01:22:10Z</time>
      </trkpt>
      <trkpt lat="44.18593" lon="3.11708">
        <ele>607</ele>
        <time>2010-01-01T01:22:13Z</time>
      </trkpt>
      <trkpt lat="44.18599" lon="3.11706">
        <ele>607</ele>
        <time>2010-01-01T01:22:15Z</time>
      </trkpt>
      <trkpt lat="44.18605" lon="3.11704">
        <ele>608</ele>
        <time>2010-01-01T01:22:18Z</time>
      </trkpt>
      <trkpt lat="44.18608" lon="3.11703">
        <ele>608</ele>
        <time>2010-01-01T01:22:19Z</time>
      </trkpt>
      <trkpt lat="44.18609" lon="3.11702">
        <ele>608</ele>
        <time>2010-01-01T01:22:19Z</time>
      </trkpt>
      <trkpt lat="44.18609" lon="3.11702">
        <ele>608</ele>
        <time>2010-01-01T01:22:19Z</time>
      </trkpt>
      <trkpt lat="44.18613" lon="3.11702">
        <ele>608</ele>
        <time>2010-01-01T01:22:21Z</time>
      </trkpt>
      <trkpt lat="44.18618" lon="3.11699">
        <ele>609</ele>
        <time>2010-01-01T01:22:23Z</time>
      </trkpt>
      <trkpt lat="44.18624" lon="3.11696">
        <ele>609</ele>
        <time>2010-01-01T01:22:26Z</time>
      </trkpt>
      <trkpt lat="44.18629" lon="3.11693">
        <ele>610</ele>
        <time>2010-01-01T01:22:28Z</time>
      </trkpt>
      <trkpt lat="44.18635" lon="3.11688">
        <ele>611</ele>
        <time>2010-01-01T01:22:31Z</time>
      </trkpt>
      <trkpt lat="44.1864" lon="3.11682">
        <ele>612</ele>
        <time>2010-01-01T01:22:33Z</time>
      </trkpt>
      <trkpt lat="44.18645" lon="3.11674">
        <ele>613</ele>
        <time>2010-01-01T01:22:36Z</time>
      </trkpt>
      <trkpt lat="44.18652" lon="3.11663">
        <ele>614</ele>
        <time>2010-01-01T01:22:41Z</time>
      </trkpt>
      <trkpt lat="44.1866" lon="3.11652">
        <ele>615</ele>
        <time>2010-01-01T01:22:45Z</time>
      </trkpt>
      <trkpt lat="44.18669" lon="3.11643">
        <ele>615</ele>
        <time>2010-01-01T01:22:49Z</time>
      </trkpt>
      <trkpt lat="44.18678" lon="3.11634">
        <ele>616</ele>
        <time>2010-01-01T01:22:54Z</time>
      </trkpt>
      <trkpt lat="44.18687" lon="3.11625">
        <ele>616</ele>
        <time>2010-01-01T01:22:58Z</time>
      </trkpt>
      <trkpt lat="44.18696" lon="3.11616">
        <ele>616</ele>
        <time>2010-01-01T01:23:03Z</time>
      </trkpt>
      <trkpt lat="44.18705" lon="3.11608">
        <ele>616</ele>
        <time>2010-01-01T01:23:07Z</time>
      </trkpt>
      <trkpt lat="44.18715" lon="3.116">
        <ele>616</ele>
        <time>2010-01-01T01:23:12Z</time>
      </trkpt>
      <trkpt lat="44.18724" lon="3.11593">
        <ele>615</ele>
        <time>2010-01-01T01:23:16Z</time>
      </trkpt>
      <trkpt lat="44.18732" lon="3.11588">
        <ele>615</ele>
        <time>2010-01-01T01:23:19Z</time>
      </trkpt>
      <trkpt lat="44.18742" lon="3.11582">
        <ele>615</ele>
        <time>2010-01-01T01:23:24Z</time>
      </trkpt>
      <trkpt lat="44.18753" lon="3.11577">
        <ele>615</ele>
        <time>2010-01-01T01:23:28Z</time>
      </trkpt>
      <trkpt lat="44.18764" lon="3.1157">
        <ele>616</ele>
        <time>2010-01-01T01:23:33Z</time>
      </trkpt>
      <trkpt lat="44.18775" lon="3.11564">
        <ele>616</ele>
        <time>2010-01-01T01:23:38Z</time>
      </trkpt>
      <trkpt lat="44.18785" lon="3.11558">
        <ele>615</ele>
        <time>2010-01-01T01:23:42Z</time>
      </trkpt>
      <trkpt lat="44.18795" lon="3.11551">
        <ele>615</ele>
        <time>2010-01-01T01:23:47Z</time>
      </trkpt>
      <trkpt lat="44.18805" lon="3.11545">
        <ele>614</ele>
        <time>2010-01-01T01:23:51Z</time>
      </trkpt>
      <trkpt lat="44.18815" lon="3.11538">
        <ele>613</ele>
        <time>2010-01-01T01:23:56Z</time>
      </trkpt>
      <trkpt lat="44.18826" lon="3.11531">
        <ele>611</ele>
        <time>2010-01-01T01:24:00Z</time>
      </trkpt>
      <trkpt lat="44.18838" lon="3.11525">
        <ele>608</ele>
        <time>2010-01-01T01:24:06Z</time>
      </trkpt>
      <trkpt lat="44.18851" lon="3.11519">
        <ele>607</ele>
        <time>2010-01-01T01:24:11Z</time>
      </trkpt>
      <trkpt lat="44.18861" lon="3.11513">
        <ele>607</ele>
        <time>2010-01-01T01:24:16Z</time>
      </trkpt>
      <trkpt lat="44.18868" lon="3.11509">
        <ele>607</ele>
        <time>2010-01-01T01:24:19Z</time>
      </trkpt>
      <trkpt lat="44.18873" lon="3.11507">
        <ele>606</ele>
        <time>2010-01-01T01:24:21Z</time>
      </trkpt>
      <trkpt lat="44.18878" lon="3.11505">
        <ele>606</ele>
        <time>2010-01-01T01:24:23Z</time>
      </trkpt>
      <trkpt lat="44.18882" lon="3.11502">
        <ele>606</ele>
        <time>2010-01-01T01:24:24Z</time>
      </trkpt>
      <trkpt lat="44.18886" lon="3.11501">
        <ele>606</ele>
        <time>2010-01-01T01:24:26Z</time>
      </trkpt>
      <trkpt lat="44.18891" lon="3.115">
        <ele>605</ele>
        <time>2010-01-01T01:24:28Z</time>
      </trkpt>
      <trkpt lat="44.18897" lon="3.11498">
        <ele>606</ele>
        <time>2010-01-01T01:24:30Z</time>
      </trkpt>
      <trkpt lat="44.18902" lon="3.11496">
        <ele>606</ele>
        <time>2010-01-01T01:24:32Z</time>
      </trkpt>
      <trkpt lat="44.18907" lon="3.11493">
        <ele>606</ele>
        <time>2010-01-01T01:24:35Z</time>
      </trkpt>
      <trkpt lat="44.18912" lon="3.11491">
        <ele>606</ele>
        <time>2010-01-01T01:24:37Z</time>
      </trkpt>
      <trkpt lat="44.18917" lon="3.11487">
        <ele>607</ele>
        <time>2010-01-01T01:24:39Z</time>
      </trkpt>
      <trkpt lat="44.18923" lon="3.11484">
        <ele>607</ele>
        <time>2010-01-01T01:24:42Z</time>
      </trkpt>
      <trkpt lat="44.18928" lon="3.1148">
        <ele>607</ele>
        <time>2010-01-01T01:24:44Z</time>
      </trkpt>
      <trkpt lat="44.18934" lon="3.11476">
        <ele>608</ele>
        <time>2010-01-01T01:24:47Z</time>
      </trkpt>
      <trkpt lat="44.18939" lon="3.11474">
        <ele>608</ele>
        <time>2010-01-01T01:24:49Z</time>
      </trkpt>
      <trkpt lat="44.18944" lon="3.1147">
        <ele>608</ele>
        <time>2010-01-01T01:24:51Z</time>
      </trkpt>
      <trkpt lat="44.1895" lon="3.11467">
        <ele>608</ele>
        <time>2010-01-01T01:24:53Z</time>
      </trkpt>
      <trkpt lat="44.18955" lon="3.11465">
        <ele>608</ele>
        <time>2010-01-01T01:24:56Z</time>
      </trkpt>
      <trkpt lat="44.18961" lon="3.11461">
        <ele>607</ele>
        <time>2010-01-01T01:24:58Z</time>
      </trkpt>
      <trkpt lat="44.18966" lon="3.11457">
        <ele>607</ele>
        <time>2010-01-01T01:25:00Z</time>
      </trkpt>
      <trkpt lat="44.18971" lon="3.11452">
        <ele>608</ele>
        <time>2010-01-01T01:25:03Z</time>
      </trkpt>
      <trkpt lat="44.18975" lon="3.11447">
        <ele>608</ele>
        <time>2010-01-01T01:25:05Z</time>
      </trkpt>
      <trkpt lat="44.1898" lon="3.11441">
        <ele>609</ele>
        <time>2010-01-01T01:25:08Z</time>
      </trkpt>
      <trkpt lat="44.18984" lon="3.11434">
        <ele>609</ele>
        <time>2010-01-01T01:25:10Z</time>
      </trkpt>
      <trkpt lat="44.18989" lon="3.11428">
        <ele>610</ele>
        <time>2010-01-01T01:25:13Z</time>
      </trkpt>
      <trkpt lat="44.18993" lon="3.11422">
        <ele>610</ele>
        <time>2010-01-01T01:25:16Z</time>
      </trkpt>
      <trkpt lat="44.18997" lon="3.11415">
        <ele>611</ele>
        <time>2010-01-01T01:25:18Z</time>
      </trkpt>
      <trkpt lat="44.19001" lon="3.11408">
        <ele>611</ele>
        <time>2010-01-01T01:25:21Z</time>
      </trkpt>
      <trkpt lat="44.19004" lon="3.11401">
        <ele>612</ele>
        <time>2010-01-01T01:25:23Z</time>
      </trkpt>
      <trkpt lat="44.19008" lon="3.11395">
        <ele>612</ele>
        <time>2010-01-01T01:25:25Z</time>
      </trkpt>
      <trkpt lat="44.19011" lon="3.11389">
        <ele>612</ele>
        <time>2010-01-01T01:25:27Z</time>
      </trkpt>
      <trkpt lat="44.19014" lon="3.11382">
        <ele>612</ele>
        <time>2010-01-01T01:25:30Z</time>
      </trkpt>
      <trkpt lat="44.19017" lon="3.11376">
        <ele>612</ele>
        <time>2010-01-01T01:25:32Z</time>
      </trkpt>
      <trkpt lat="44.19019" lon="3.11372">
        <ele>612</ele>
        <time>2010-01-01T01:25:33Z</time>
      </trkpt>
      <trkpt lat="44.19019" lon="3.11371">
        <ele>612</ele>
        <time>2010-01-01T01:25:34Z</time>
      </trkpt>
      <trkpt lat="44.1902" lon="3.1137">
        <ele>612</ele>
        <time>2010-01-01T01:25:34Z</time>
      </trkpt>
      <trkpt lat="44.1902" lon="3.1137">
        <ele>611</ele>
        <time>2010-01-01T01:25:34Z</time>
      </trkpt>
      <trkpt lat="44.19022" lon="3.11368">
        <ele>611</ele>
        <time>2010-01-01T01:25:35Z</time>
      </trkpt>
      <trkpt lat="44.19023" lon="3.11361">
        <ele>611</ele>
        <time>2010-01-01T01:25:37Z</time>
      </trkpt>
      <trkpt lat="44.19024" lon="3.11353">
        <ele>611</ele>
        <time>2010-01-01T01:25:39Z</time>
      </trkpt>
      <trkpt lat="44.19027" lon="3.11345">
        <ele>610</ele>
        <time>2010-01-01T01:25:42Z</time>
      </trkpt>
      <trkpt lat="44.19029" lon="3.11336">
        <ele>609</ele>
        <time>2010-01-01T01:25:45Z</time>
      </trkpt>
      <trkpt lat="44.19032" lon="3.11327">
        <ele>609</ele>
        <time>2010-01-01T01:25:47Z</time>
      </trkpt>
      <trkpt lat="44.19034" lon="3.11318">
        <ele>608</ele>
        <time>2010-01-01T01:25:50Z</time>
      </trkpt>
      <trkpt lat="44.19036" lon="3.11307">
        <ele>607</ele>
        <time>2010-01-01T01:25:53Z</time>
      </trkpt>
      <trkpt lat="44.19039" lon="3.11296">
        <ele>607</ele>
        <time>2010-01-01T01:25:57Z</time>
      </trkpt>
      <trkpt lat="44.19041" lon="3.11285">
        <ele>607</ele>
        <time>2010-01-01T01:26:00Z</time>
      </trkpt>
      <trkpt lat="44.19044" lon="3.11274">
        <ele>607</ele>
        <time>2010-01-01T01:26:03Z</time>
      </trkpt>
      <trkpt lat="44.19047" lon="3.11263">
        <ele>607</ele>
        <time>2010-01-01T01:26:07Z</time>
      </trkpt>
      <trkpt lat="44.1905" lon="3.11251">
        <ele>607</ele>
        <time>2010-01-01T01:26:10Z</time>
      </trkpt>
      <trkpt lat="44.19052" lon="3.1124">
        <ele>607</ele>
        <time>2010-01-01T01:26:14Z</time>
      </trkpt>
      <trkpt lat="44.19056" lon="3.11229">
        <ele>608</ele>
        <time>2010-01-01T01:26:17Z</time>
      </trkpt>
      <trkpt lat="44.1906" lon="3.11219">
        <ele>608</ele>
        <time>2010-01-01T01:26:20Z</time>
      </trkpt>
      <trkpt lat="44.19064" lon="3.1121">
        <ele>608</ele>
        <time>2010-01-01T01:26:24Z</time>
      </trkpt>
      <trkpt lat="44.19069" lon="3.11201">
        <ele>609</ele>
        <time>2010-01-01T01:26:27Z</time>
      </trkpt>
      <trkpt lat="44.19073" lon="3.11193">
        <ele>609</ele>
        <time>2010-01-01T01:26:30Z</time>
      </trkpt>
      <trkpt lat="44.19078" lon="3.11183">
        <ele>609</ele>
        <time>2010-01-01T01:26:33Z</time>
      </trkpt>
      <trkpt lat="44.19083" lon="3.11175">
        <ele>609</ele>
        <time>2010-01-01T01:26:36Z</time>
      </trkpt>
      <trkpt lat="44.19089" lon="3.11166">
        <ele>610</ele>
        <time>2010-01-01T01:26:40Z</time>
      </trkpt>
      <trkpt lat="44.19094" lon="3.11156">
        <ele>610</ele>
        <time>2010-01-01T01:26:43Z</time>
      </trkpt>
      <trkpt lat="44.191" lon="3.11149">
        <ele>610</ele>
        <time>2010-01-01T01:26:46Z</time>
      </trkpt>
      <trkpt lat="44.19107" lon="3.11143">
        <ele>609</ele>
        <time>2010-01-01T01:26:49Z</time>
      </trkpt>
      <trkpt lat="44.19114" lon="3.11138">
        <ele>609</ele>
        <time>2010-01-01T01:26:53Z</time>
      </trkpt>
      <trkpt lat="44.19122" lon="3.11136">
        <ele>609</ele>
        <time>2010-01-01T01:26:56Z</time>
      </trkpt>
      <trkpt lat="44.19129" lon="3.11136">
        <ele>608</ele>
        <time>2010-01-01T01:26:59Z</time>
      </trkpt>
      <trkpt lat="44.19136" lon="3.11136">
        <ele>607</ele>
        <time>2010-01-01T01:27:02Z</time>
      </trkpt>
      <trkpt lat="44.19144" lon="3.11136">
        <ele>606</ele>
        <time>2010-01-01T01:27:05Z</time>
      </trkpt>
      <trkpt lat="44.19151" lon="3.11136">
        <ele>605</ele>
        <time>2010-01-01T01:27:08Z</time>
      </trkpt>
      <trkpt lat="44.19158" lon="3.11134">
        <ele>605</ele>
        <time>2010-01-01T01:27:10Z</time>
      </trkpt>
      <trkpt lat="44.19164" lon="3.11131">
        <ele>604</ele>
        <time>2010-01-01T01:27:13Z</time>
      </trkpt>
      <trkpt lat="44.1917" lon="3.11128">
        <ele>604</ele>
        <time>2010-01-01T01:27:16Z</time>
      </trkpt>
      <trkpt lat="44.19176" lon="3.11125">
        <ele>605</ele>
        <time>2010-01-01T01:27:18Z</time>
      </trkpt>
      <trkpt lat="44.19182" lon="3.11121">
        <ele>605</ele>
        <time>2010-01-01T01:27:21Z</time>
      </trkpt>
      <trkpt lat="44.19187" lon="3.11114">
        <ele>606</ele>
        <time>2010-01-01T01:27:23Z</time>
      </trkpt>
      <trkpt lat="44.19191" lon="3.11107">
        <ele>606</ele>
        <time>2010-01-01T01:27:26Z</time>
      </trkpt>
      <trkpt lat="44.19195" lon="3.11098">
        <ele>607</ele>
        <time>2010-01-01T01:27:29Z</time>
      </trkpt>
      <trkpt lat="44.19197" lon="3.11089">
        <ele>608</ele>
        <time>2010-01-01T01:27:32Z</time>
      </trkpt>
      <trkpt lat="44.19199" lon="3.1108">
        <ele>609</ele>
        <time>2010-01-01T01:27:35Z</time>
      </trkpt>
      <trkpt lat="44.192" lon="3.1107">
        <ele>610</ele>
        <time>2010-01-01T01:27:37Z</time>
      </trkpt>
      <trkpt lat="44.19201" lon="3.11061">
        <ele>610</ele>
        <time>2010-01-01T01:27:40Z</time>
      </trkpt>
      <trkpt lat="44.19202" lon="3.11051">
        <ele>610</ele>
        <time>2010-01-01T01:27:43Z</time>
      </trkpt>
      <trkpt lat="44.19202" lon="3.11041">
        <ele>610</ele>
        <time>2010-01-01T01:27:46Z</time>
      </trkpt>
      <trkpt lat="44.19203" lon="3.1103">
        <ele>609</ele>
        <time>2010-01-01T01:27:49Z</time>
      </trkpt>
      <trkpt lat="44.19204" lon="3.1102">
        <ele>609</ele>
        <time>2010-01-01T01:27:52Z</time>
      </trkpt>
      <trkpt lat="44.19207" lon="3.1101">
        <ele>609</ele>
        <time>2010-01-01T01:27:55Z</time>
      </trkpt>
      <trkpt lat="44.1921" lon="3.11001">
        <ele>609</ele>
        <time>2010-01-01T01:27:58Z</time>
      </trkpt>
      <trkpt lat="44.19215" lon="3.10992">
        <ele>609</ele>
        <time>2010-01-01T01:28:01Z</time>
      </trkpt>
      <trkpt lat="44.19221" lon="3.10986">
        <ele>609</ele>
        <time>2010-01-01T01:28:04Z</time>
      </trkpt>
      <trkpt lat="44.19228" lon="3.10981">
        <ele>609</ele>
        <time>2010-01-01T01:28:07Z</time>
      </trkpt>
      <trkpt lat="44.19234" lon="3.10975">
        <ele>609</ele>
        <time>2010-01-01T01:28:10Z</time>
      </trkpt>
      <trkpt lat="44.1924" lon="3.10968">
        <ele>610</ele>
        <time>2010-01-01T01:28:13Z</time>
      </trkpt>
      <trkpt lat="44.19245" lon="3.10961">
        <ele>610</ele>
        <time>2010-01-01T01:28:16Z</time>
      </trkpt>
      <trkpt lat="44.19249" lon="3.10955">
        <ele>611</ele>
        <time>2010-01-01T01:28:19Z</time>
      </trkpt>
      <trkpt lat="44.19254" lon="3.10949">
        <ele>611</ele>
        <time>2010-01-01T01:28:21Z</time>
      </trkpt>
      <trkpt lat="44.19259" lon="3.10943">
        <ele>611</ele>
        <time>2010-01-01T01:28:24Z</time>
      </trkpt>
      <trkpt lat="44.19264" lon="3.10937">
        <ele>611</ele>
        <time>2010-01-01T01:28:26Z</time>
      </trkpt>
      <trkpt lat="44.19268" lon="3.10931">
        <ele>612</ele>
        <time>2010-01-01T01:28:29Z</time>
      </trkpt>
      <trkpt lat="44.19273" lon="3.10923">
        <ele>612</ele>
        <time>2010-01-01T01:28:32Z</time>
      </trkpt>
      <trkpt lat="44.19276" lon="3.10915">
        <ele>612</ele>
        <time>2010-01-01T01:28:35Z</time>
      </trkpt>
      <trkpt lat="44.19279" lon="3.10906">
        <ele>613</ele>
        <time>2010-01-01T01:28:37Z</time>
      </trkpt>
      <trkpt lat="44.19282" lon="3.10897">
        <ele>613</ele>
        <time>2010-01-01T01:28:40Z</time>
      </trkpt>
      <trkpt lat="44.19285" lon="3.10888">
        <ele>614</ele>
        <time>2010-01-01T01:28:43Z</time>
      </trkpt>
      <trkpt lat="44.19288" lon="3.10879">
        <ele>615</ele>
        <time>2010-01-01T01:28:46Z</time>
      </trkpt>
      <trkpt lat="44.19291" lon="3.1087">
        <ele>616</ele>
        <time>2010-01-01T01:28:49Z</time>
      </trkpt>
      <trkpt lat="44.19294" lon="3.10862">
        <ele>616</ele>
        <time>2010-01-01T01:28:51Z</time>
      </trkpt>
      <trkpt lat="44.19297" lon="3.10855">
        <ele>617</ele>
        <time>2010-01-01T01:28:54Z</time>
      </trkpt>
      <trkpt lat="44.193" lon="3.10848">
        <ele>617</ele>
        <time>2010-01-01T01:28:56Z</time>
      </trkpt>
      <trkpt lat="44.19303" lon="3.10841">
        <ele>617</ele>
        <time>2010-01-01T01:28:58Z</time>
      </trkpt>
      <trkpt lat="44.19306" lon="3.10836">
        <ele>617</ele>
        <time>2010-01-01T01:29:00Z</time>
      </trkpt>
      <trkpt lat="44.19308" lon="3.1083">
        <ele>617</ele>
        <time>2010-01-01T01:29:02Z</time>
      </trkpt>
      <trkpt lat="44.1931" lon="3.10822">
        <ele>616</ele>
        <time>2010-01-01T01:29:04Z</time>
      </trkpt>
      <trkpt lat="44.19313" lon="3.10815">
        <ele>616</ele>
        <time>2010-01-01T01:29:07Z</time>
      </trkpt>
      <trkpt lat="44.19316" lon="3.10807">
        <ele>615</ele>
        <time>2010-01-01T01:29:09Z</time>
      </trkpt>
      <trkpt lat="44.19319" lon="3.108">
        <ele>615</ele>
        <time>2010-01-01T01:29:12Z</time>
      </trkpt>
      <trkpt lat="44.19323" lon="3.10793">
        <ele>616</ele>
        <time>2010-01-01T01:29:14Z</time>
      </trkpt>
      <trkpt lat="44.19327" lon="3.10786">
        <ele>616</ele>
        <time>2010-01-01T01:29:17Z</time>
      </trkpt>
      <trkpt lat="44.19331" lon="3.10779">
        <ele>616</ele>
        <time>2010-01-01T01:29:19Z</time>
      </trkpt>
      <trkpt lat="44.19334" lon="3.10772">
        <ele>616</ele>
        <time>2010-01-01T01:29:22Z</time>
      </trkpt>
      <trkpt lat="44.19338" lon="3.10764">
        <ele>617</ele>
        <time>2010-01-01T01:29:25Z</time>
      </trkpt>
      <trkpt lat="44.19341" lon="3.10756">
        <ele>617</ele>
        <time>2010-01-01T01:29:27Z</time>
      </trkpt>
      <trkpt lat="44.19345" lon="3.10746">
        <ele>618</ele>
        <time>2010-01-01T01:29:30Z</time>
      </trkpt>
      <trkpt lat="44.1935" lon="3.10736">
        <ele>618</ele>
        <time>2010-01-01T01:29:34Z</time>
      </trkpt>
      <trkpt lat="44.19355" lon="3.10726">
        <ele>618</ele>
        <time>2010-01-01T01:29:37Z</time>
      </trkpt>
      <trkpt lat="44.1936" lon="3.10715">
        <ele>617</ele>
        <time>2010-01-01T01:29:41Z</time>
      </trkpt>
      <trkpt lat="44.19367" lon="3.10704">
        <ele>616</ele>
        <time>2010-01-01T01:29:46Z</time>
      </trkpt>
      <trkpt lat="44.19375" lon="3.10692">
        <ele>615</ele>
        <time>2010-01-01T01:29:50Z</time>
      </trkpt>
      <trkpt lat="44.19383" lon="3.1068">
        <ele>615</ele>
        <time>2010-01-01T01:29:55Z</time>
      </trkpt>
      <trkpt lat="44.19391" lon="3.10668">
        <ele>615</ele>
        <time>2010-01-01T01:30:00Z</time>
      </trkpt>
      <trkpt lat="44.19402" lon="3.10657">
        <ele>616</ele>
        <time>2010-01-01T01:30:05Z</time>
      </trkpt>
      <trkpt lat="44.19414" lon="3.10647">
        <ele>616</ele>
        <time>2010-01-01T01:30:11Z</time>
      </trkpt>
      <trkpt lat="44.19428" lon="3.1064">
        <ele>616</ele>
        <time>2010-01-01T01:30:17Z</time>
      </trkpt>
      <trkpt lat="44.19442" lon="3.10639">
        <ele>614</ele>
        <time>2010-01-01T01:30:22Z</time>
      </trkpt>
      <trkpt lat="44.19454" lon="3.10639">
        <ele>612</ele>
        <time>2010-01-01T01:30:27Z</time>
      </trkpt>
      <trkpt lat="44.19466" lon="3.10639">
        <ele>611</ele>
        <time>2010-01-01T01:30:32Z</time>
      </trkpt>
      <trkpt lat="44.19477" lon="3.10639">
        <ele>610</ele>
        <time>2010-01-01T01:30:36Z</time>
      </trkpt>
      <trkpt lat="44.1949" lon="3.10639">
        <ele>609</ele>
        <time>2010-01-01T01:30:41Z</time>
      </trkpt>
      <trkpt lat="44.19503" lon="3.10638">
        <ele>607</ele>
        <time>2010-01-01T01:30:46Z</time>
      </trkpt>
      <trkpt lat="44.19514" lon="3.10635">
        <ele>607</ele>
        <time>2010-01-01T01:30:51Z</time>
      </trkpt>
      <trkpt lat="44.1952" lon="3.10632">
        <ele>606</ele>
        <time>2010-01-01T01:30:54Z</time>
      </trkpt>
      <trkpt lat="44.19526" lon="3.10628">
        <ele>606</ele>
        <time>2010-01-01T01:30:56Z</time>
      </trkpt>
      <trkpt lat="44.19531" lon="3.10623">
        <ele>606</ele>
        <time>2010-01-01T01:30:59Z</time>
      </trkpt>
      <trkpt lat="44.19537" lon="3.10617">
        <ele>606</ele>
        <time>2010-01-01T01:31:02Z</time>
      </trkpt>
      <trkpt lat="44.19543" lon="3.10608">
        <ele>605</ele>
        <time>2010-01-01T01:31:05Z</time>
      </trkpt>
      <trkpt lat="44.19549" lon="3.10598">
        <ele>604</ele>
        <time>2010-01-01T01:31:09Z</time>
      </trkpt>
      <trkpt lat="44.19555" lon="3.10587">
        <ele>603</ele>
        <time>2010-01-01T01:31:13Z</time>
      </trkpt>
      <trkpt lat="44.19561" lon="3.10575">
        <ele>602</ele>
        <time>2010-01-01T01:31:17Z</time>
      </trkpt>
      <trkpt lat="44.19565" lon="3.10558">
        <ele>601</ele>
        <time>2010-01-01T01:31:22Z</time>
      </trkpt>
      <trkpt lat="44.19566" lon="3.10538">
        <ele>601</ele>
        <time>2010-01-01T01:31:28Z</time>
      </trkpt>
      <trkpt lat="44.19563" lon="3.10517">
        <ele>601</ele>
        <time>2010-01-01T01:31:34Z</time>
      </trkpt>
      <trkpt lat="44.19562" lon="3.10497">
        <ele>601</ele>
        <time>2010-01-01T01:31:40Z</time>
      </trkpt>
      <trkpt lat="44.19564" lon="3.10477">
        <ele>601</ele>
        <time>2010-01-01T01:31:46Z</time>
      </trkpt>
      <trkpt lat="44.1957" lon="3.10457">
        <ele>600</ele>
        <time>2010-01-01T01:31:52Z</time>
      </trkpt>
      <trkpt lat="44.19582" lon="3.10441">
        <ele>597</ele>
        <time>2010-01-01T01:31:58Z</time>
      </trkpt>
      <trkpt lat="44.19596" lon="3.10426">
        <ele>595</ele>
        <time>2010-01-01T01:32:05Z</time>
      </trkpt>
      <trkpt lat="44.19608" lon="3.10414">
        <ele>594</ele>
        <time>2010-01-01T01:32:11Z</time>
      </trkpt>
      <trkpt lat="44.19618" lon="3.10405">
        <ele>592</ele>
        <time>2010-01-01T01:32:16Z</time>
      </trkpt>
      <trkpt lat="44.19625" lon="3.10392">
        <ele>592</ele>
        <time>2010-01-01T01:32:21Z</time>
      </trkpt>
      <trkpt lat="44.19633" lon="3.10375">
        <ele>592</ele>
        <time>2010-01-01T01:32:26Z</time>
      </trkpt>
      <trkpt lat="44.19639" lon="3.10356">
        <ele>592</ele>
        <time>2010-01-01T01:32:33Z</time>
      </trkpt>
      <trkpt lat="44.19645" lon="3.10336">
        <ele>591</ele>
        <time>2010-01-01T01:32:39Z</time>
      </trkpt>
      <trkpt lat="44.19651" lon="3.10316">
        <ele>591</ele>
        <time>2010-01-01T01:32:45Z</time>
      </trkpt>
      <trkpt lat="44.19656" lon="3.10296">
        <ele>591</ele>
        <time>2010-01-01T01:32:51Z</time>
      </trkpt>
      <trkpt lat="44.19662" lon="3.10276">
        <ele>590</ele>
        <time>2010-01-01T01:32:57Z</time>
      </trkpt>
      <trkpt lat="44.19669" lon="3.10258">
        <ele>590</ele>
        <time>2010-01-01T01:33:03Z</time>
      </trkpt>
      <trkpt lat="44.19675" lon="3.10245">
        <ele>590</ele>
        <time>2010-01-01T01:33:08Z</time>
      </trkpt>
      <trkpt lat="44.19679" lon="3.10235">
        <ele>590</ele>
        <time>2010-01-01T01:33:11Z</time>
      </trkpt>
      <trkpt lat="44.19682" lon="3.10228">
        <ele>590</ele>
        <time>2010-01-01T01:33:13Z</time>
      </trkpt>
      <trkpt lat="44.19685" lon="3.10221">
        <ele>590</ele>
        <time>2010-01-01T01:33:16Z</time>
      </trkpt>
      <trkpt lat="44.19688" lon="3.10215">
        <ele>590</ele>
        <time>2010-01-01T01:33:18Z</time>
      </trkpt>
      <trkpt lat="44.19691" lon="3.10209">
        <ele>590</ele>
        <time>2010-01-01T01:33:20Z</time>
      </trkpt>
      <trkpt lat="44.19695" lon="3.10203">
        <ele>589</ele>
        <time>2010-01-01T01:33:22Z</time>
      </trkpt>
      <trkpt lat="44.19698" lon="3.10197">
        <ele>589</ele>
        <time>2010-01-01T01:33:24Z</time>
      </trkpt>
      <trkpt lat="44.19702" lon="3.10192">
        <ele>590</ele>
        <time>2010-01-01T01:33:26Z</time>
      </trkpt>
      <trkpt lat="44.19706" lon="3.10186">
        <ele>590</ele>
        <time>2010-01-01T01:33:29Z</time>
      </trkpt>
      <trkpt lat="44.19709" lon="3.10181">
        <ele>590</ele>
        <time>2010-01-01T01:33:31Z</time>
      </trkpt>
      <trkpt lat="44.19713" lon="3.10176">
        <ele>590</ele>
        <time>2010-01-01T01:33:33Z</time>
      </trkpt>
      <trkpt lat="44.19717" lon="3.1017">
        <ele>590</ele>
        <time>2010-01-01T01:33:35Z</time>
      </trkpt>
      <trkpt lat="44.19721" lon="3.10165">
        <ele>590</ele>
        <time>2010-01-01T01:33:37Z</time>
      </trkpt>
      <trkpt lat="44.19726" lon="3.10159">
        <ele>590</ele>
        <time>2010-01-01T01:33:40Z</time>
      </trkpt>
      <trkpt lat="44.19731" lon="3.10153">
        <ele>590</ele>
        <time>2010-01-01T01:33:42Z</time>
      </trkpt>
      <trkpt lat="44.19735" lon="3.10148">
        <ele>591</ele>
        <time>2010-01-01T01:33:45Z</time>
      </trkpt>
      <trkpt lat="44.19739" lon="3.10142">
        <ele>591</ele>
        <time>2010-01-01T01:33:47Z</time>
      </trkpt>
      <trkpt lat="44.19744" lon="3.10136">
        <ele>592</ele>
        <time>2010-01-01T01:33:50Z</time>
      </trkpt>
      <trkpt lat="44.19745" lon="3.10128">
        <ele>592</ele>
        <time>2010-01-01T01:33:52Z</time>
      </trkpt>
      <trkpt lat="44.19744" lon="3.10124">
        <ele>593</ele>
        <time>2010-01-01T01:33:53Z</time>
      </trkpt>
      <trkpt lat="44.1974" lon="3.10123">
        <ele>593</ele>
        <time>2010-01-01T01:33:55Z</time>
      </trkpt>
      <trkpt lat="44.19737" lon="3.10121">
        <ele>593</ele>
        <time>2010-01-01T01:33:56Z</time>
      </trkpt>
      <trkpt lat="44.19733" lon="3.10119">
        <ele>594</ele>
        <time>2010-01-01T01:33:58Z</time>
      </trkpt>
      <trkpt lat="44.1973" lon="3.10117">
        <ele>594</ele>
        <time>2010-01-01T01:33:59Z</time>
      </trkpt>
      <trkpt lat="44.19726" lon="3.10114">
        <ele>595</ele>
        <time>2010-01-01T01:34:01Z</time>
      </trkpt>
      <trkpt lat="44.19723" lon="3.10111">
        <ele>595</ele>
        <time>2010-01-01T01:34:03Z</time>
      </trkpt>
      <trkpt lat="44.19719" lon="3.10109">
        <ele>596</ele>
        <time>2010-01-01T01:34:04Z</time>
      </trkpt>
      <trkpt lat="44.19716" lon="3.10107">
        <ele>596</ele>
        <time>2010-01-01T01:34:05Z</time>
      </trkpt>
      <trkpt lat="44.19713" lon="3.10106">
        <ele>597</ele>
        <time>2010-01-01T01:34:07Z</time>
      </trkpt>
      <trkpt lat="44.19709" lon="3.10104">
        <ele>597</ele>
        <time>2010-01-01T01:34:08Z</time>
      </trkpt>
      <trkpt lat="44.19706" lon="3.10102">
        <ele>598</ele>
        <time>2010-01-01T01:34:10Z</time>
      </trkpt>
      <trkpt lat="44.19702" lon="3.101">
        <ele>598</ele>
        <time>2010-01-01T01:34:11Z</time>
      </trkpt>
      <trkpt lat="44.19699" lon="3.10098">
        <ele>598</ele>
        <time>2010-01-01T01:34:13Z</time>
      </trkpt>
      <trkpt lat="44.19696" lon="3.10096">
        <ele>599</ele>
        <time>2010-01-01T01:34:14Z</time>
      </trkpt>
      <trkpt lat="44.19692" lon="3.10095">
        <ele>599</ele>
        <time>2010-01-01T01:34:16Z</time>
      </trkpt>
      <trkpt lat="44.19689" lon="3.10093">
        <ele>600</ele>
        <time>2010-01-01T01:34:17Z</time>
      </trkpt>
      <trkpt lat="44.19685" lon="3.10092">
        <ele>600</ele>
        <time>2010-01-01T01:34:19Z</time>
      </trkpt>
      <trkpt lat="44.19681" lon="3.10092">
        <ele>600</ele>
        <time>2010-01-01T01:34:20Z</time>
      </trkpt>
      <trkpt lat="44.19678" lon="3.10092">
        <ele>601</ele>
        <time>2010-01-01T01:34:22Z</time>
      </trkpt>
      <trkpt lat="44.19674" lon="3.10092">
        <ele>601</ele>
        <time>2010-01-01T01:34:23Z</time>
      </trkpt>
      <trkpt lat="44.1967" lon="3.10091">
        <ele>601</ele>
        <time>2010-01-01T01:34:25Z</time>
      </trkpt>
      <trkpt lat="44.19667" lon="3.10092">
        <ele>602</ele>
        <time>2010-01-01T01:34:26Z</time>
      </trkpt>
      <trkpt lat="44.19663" lon="3.10092">
        <ele>602</ele>
        <time>2010-01-01T01:34:27Z</time>
      </trkpt>
      <trkpt lat="44.1966" lon="3.10093">
        <ele>602</ele>
        <time>2010-01-01T01:34:29Z</time>
      </trkpt>
      <trkpt lat="44.19657" lon="3.10093">
        <ele>602</ele>
        <time>2010-01-01T01:34:30Z</time>
      </trkpt>
      <trkpt lat="44.19654" lon="3.10094">
        <ele>603</ele>
        <time>2010-01-01T01:34:31Z</time>
      </trkpt>
      <trkpt lat="44.19651" lon="3.10094">
        <ele>603</ele>
        <time>2010-01-01T01:34:32Z</time>
      </trkpt>
      <trkpt lat="44.19648" lon="3.10094">
        <ele>603</ele>
        <time>2010-01-01T01:34:33Z</time>
      </trkpt>
      <trkpt lat="44.19645" lon="3.10095">
        <ele>604</ele>
        <time>2010-01-01T01:34:35Z</time>
      </trkpt>
      <trkpt lat="44.19643" lon="3.10096">
        <ele>604</ele>
        <time>2010-01-01T01:34:36Z</time>
      </trkpt>
      <trkpt lat="44.1964" lon="3.10096">
        <ele>604</ele>
        <time>2010-01-01T01:34:37Z</time>
      </trkpt>
      <trkpt lat="44.19637" lon="3.10096">
        <ele>604</ele>
        <time>2010-01-01T01:34:38Z</time>
      </trkpt>
      <trkpt lat="44.19634" lon="3.10096">
        <ele>604</ele>
        <time>2010-01-01T01:34:39Z</time>
      </trkpt>
      <trkpt lat="44.19631" lon="3.10096">
        <ele>605</ele>
        <time>2010-01-01T01:34:40Z</time>
      </trkpt>
      <trkpt lat="44.19628" lon="3.10095">
        <ele>605</ele>
        <time>2010-01-01T01:34:41Z</time>
      </trkpt>
      <trkpt lat="44.19626" lon="3.10095">
        <ele>605</ele>
        <time>2010-01-01T01:34:43Z</time>
      </trkpt>
      <trkpt lat="44.19623" lon="3.10094">
        <ele>605</ele>
        <time>2010-01-01T01:34:44Z</time>
      </trkpt>
      <trkpt lat="44.1962" lon="3.10093">
        <ele>606</ele>
        <time>2010-01-01T01:34:45Z</time>
      </trkpt>
      <trkpt lat="44.19617" lon="3.10093">
        <ele>606</ele>
        <time>2010-01-01T01:34:46Z</time>
      </trkpt>
      <trkpt lat="44.19615" lon="3.10092">
        <ele>606</ele>
        <time>2010-01-01T01:34:47Z</time>
      </trkpt>
      <trkpt lat="44.19612" lon="3.10091">
        <ele>607</ele>
        <time>2010-01-01T01:34:48Z</time>
      </trkpt>
      <trkpt lat="44.1961" lon="3.10089">
        <ele>607</ele>
        <time>2010-01-01T01:34:49Z</time>
      </trkpt>
      <trkpt lat="44.19607" lon="3.10086">
        <ele>608</ele>
        <time>2010-01-01T01:34:51Z</time>
      </trkpt>
      <trkpt lat="44.19605" lon="3.10083">
        <ele>608</ele>
        <time>2010-01-01T01:34:52Z</time>
      </trkpt>
      <trkpt lat="44.19603" lon="3.10081">
        <ele>609</ele>
        <time>2010-01-01T01:34:53Z</time>
      </trkpt>
      <trkpt lat="44.19601" lon="3.10078">
        <ele>609</ele>
        <time>2010-01-01T01:34:54Z</time>
      </trkpt>
      <trkpt lat="44.19598" lon="3.10075">
        <ele>610</ele>
        <time>2010-01-01T01:34:55Z</time>
      </trkpt>
      <trkpt lat="44.19596" lon="3.10073">
        <ele>610</ele>
        <time>2010-01-01T01:34:56Z</time>
      </trkpt>
      <trkpt lat="44.19593" lon="3.10071">
        <ele>611</ele>
        <time>2010-01-01T01:34:58Z</time>
      </trkpt>
      <trkpt lat="44.1959" lon="3.10068">
        <ele>611</ele>
        <time>2010-01-01T01:34:59Z</time>
      </trkpt>
      <trkpt lat="44.19588" lon="3.10066">
        <ele>612</ele>
        <time>2010-01-01T01:35:00Z</time>
      </trkpt>
      <trkpt lat="44.19585" lon="3.10064">
        <ele>612</ele>
        <time>2010-01-01T01:35:02Z</time>
      </trkpt>
      <trkpt lat="44.19582" lon="3.10063">
        <ele>613</ele>
        <time>2010-01-01T01:35:03Z</time>
      </trkpt>
      <trkpt lat="44.19579" lon="3.10062">
        <ele>613</ele>
        <time>2010-01-01T01:35:04Z</time>
      </trkpt>
      <trkpt lat="44.19576" lon="3.10061">
        <ele>614</ele>
        <time>2010-01-01T01:35:05Z</time>
      </trkpt>
      <trkpt lat="44.19574" lon="3.10058">
        <ele>615</ele>
        <time>2010-01-01T01:35:06Z</time>
      </trkpt>
      <trkpt lat="44.19571" lon="3.10056">
        <ele>615</ele>
        <time>2010-01-01T01:35:08Z</time>
      </trkpt>
      <trkpt lat="44.19567" lon="3.10054">
        <ele>616</ele>
        <time>2010-01-01T01:35:09Z</time>
      </trkpt>
      <trkpt lat="44.19564" lon="3.10052">
        <ele>617</ele>
        <time>2010-01-01T01:35:10Z</time>
      </trkpt>
      <trkpt lat="44.19561" lon="3.10051">
        <ele>617</ele>
        <time>2010-01-01T01:35:12Z</time>
      </trkpt>
      <trkpt lat="44.19558" lon="3.10049">
        <ele>618</ele>
        <time>2010-01-01T01:35:13Z</time>
      </trkpt>
      <trkpt lat="44.19555" lon="3.10047">
        <ele>619</ele>
        <time>2010-01-01T01:35:15Z</time>
      </trkpt>
      <trkpt lat="44.19552" lon="3.10044">
        <ele>619</ele>
        <time>2010-01-01T01:35:16Z</time>
      </trkpt>
      <trkpt lat="44.19549" lon="3.10042">
        <ele>620</ele>
        <time>2010-01-01T01:35:17Z</time>
      </trkpt>
      <trkpt lat="44.19546" lon="3.1004">
        <ele>621</ele>
        <time>2010-01-01T01:35:19Z</time>
      </trkpt>
      <trkpt lat="44.19543" lon="3.10038">
        <ele>621</ele>
        <time>2010-01-01T01:35:20Z</time>
      </trkpt>
      <trkpt lat="44.19539" lon="3.10037">
        <ele>621</ele>
        <time>2010-01-01T01:35:21Z</time>
      </trkpt>
      <trkpt lat="44.19536" lon="3.10035">
        <ele>622</ele>
        <time>2010-01-01T01:35:23Z</time>
      </trkpt>
      <trkpt lat="44.19533" lon="3.10032">
        <ele>622</ele>
        <time>2010-01-01T01:35:24Z</time>
      </trkpt>
      <trkpt lat="44.1953" lon="3.10029">
        <ele>622</ele>
        <time>2010-01-01T01:35:26Z</time>
      </trkpt>
      <trkpt lat="44.19527" lon="3.10027">
        <ele>623</ele>
        <time>2010-01-01T01:35:27Z</time>
      </trkpt>
      <trkpt lat="44.19524" lon="3.10025">
        <ele>623</ele>
        <time>2010-01-01T01:35:29Z</time>
      </trkpt>
      <trkpt lat="44.19521" lon="3.10023">
        <ele>623</ele>
        <time>2010-01-01T01:35:30Z</time>
      </trkpt>
      <trkpt lat="44.19518" lon="3.10021">
        <ele>623</ele>
        <time>2010-01-01T01:35:31Z</time>
      </trkpt>
      <trkpt lat="44.19515" lon="3.10019">
        <ele>623</ele>
        <time>2010-01-01T01:35:33Z</time>
      </trkpt>
      <trkpt lat="44.19512" lon="3.10017">
        <ele>624</ele>
        <time>2010-01-01T01:35:34Z</time>
      </trkpt>
      <trkpt lat="44.19509" lon="3.10015">
        <ele>624</ele>
        <time>2010-01-01T01:35:35Z</time>
      </trkpt>
      <trkpt lat="44.19505" lon="3.10013">
        <ele>624</ele>
        <time>2010-01-01T01:35:37Z</time>
      </trkpt>
      <trkpt lat="44.19502" lon="3.1001">
        <ele>624</ele>
        <time>2010-01-01T01:35:38Z</time>
      </trkpt>
      <trkpt lat="44.19499" lon="3.10006">
        <ele>624</ele>
        <time>2010-01-01T01:35:40Z</time>
      </trkpt>
      <trkpt lat="44.19496" lon="3.10002">
        <ele>624</ele>
        <time>2010-01-01T01:35:41Z</time>
      </trkpt>
      <trkpt lat="44.19493" lon="3.09999">
        <ele>624</ele>
        <time>2010-01-01T01:35:43Z</time>
      </trkpt>
      <trkpt lat="44.1949" lon="3.09995">
        <ele>624</ele>
        <time>2010-01-01T01:35:45Z</time>
      </trkpt>
      <trkpt lat="44.19487" lon="3.09991">
        <ele>624</ele>
        <time>2010-01-01T01:35:46Z</time>
      </trkpt>
      <trkpt lat="44.19484" lon="3.09987">
        <ele>623</ele>
        <time>2010-01-01T01:35:48Z</time>
      </trkpt>
      <trkpt lat="44.19481" lon="3.09982">
        <ele>623</ele>
        <time>2010-01-01T01:35:50Z</time>
      </trkpt>
      <trkpt lat="44.19477" lon="3.09976">
        <ele>622</ele>
        <time>2010-01-01T01:35:52Z</time>
      </trkpt>
      <trkpt lat="44.19471" lon="3.09967">
        <ele>621</ele>
        <time>2010-01-01T01:35:56Z</time>
      </trkpt>
      <trkpt lat="44.19463" lon="3.09957">
        <ele>619</ele>
        <time>2010-01-01T01:36:00Z</time>
      </trkpt>
      <trkpt lat="44.19456" lon="3.09947">
        <ele>617</ele>
        <time>2010-01-01T01:36:04Z</time>
      </trkpt>
      <trkpt lat="44.19448" lon="3.09938">
        <ele>615</ele>
        <time>2010-01-01T01:36:08Z</time>
      </trkpt>
      <trkpt lat="44.1944" lon="3.09927">
        <ele>613</ele>
        <time>2010-01-01T01:36:13Z</time>
      </trkpt>
      <trkpt lat="44.19433" lon="3.09914">
        <ele>611</ele>
        <time>2010-01-01T01:36:17Z</time>
      </trkpt>
      <trkpt lat="44.1943" lon="3.09901">
        <ele>610</ele>
        <time>2010-01-01T01:36:21Z</time>
      </trkpt>
      <trkpt lat="44.19431" lon="3.09887">
        <ele>609</ele>
        <time>2010-01-01T01:36:25Z</time>
      </trkpt>
      <trkpt lat="44.19431" lon="3.09874">
        <ele>608</ele>
        <time>2010-01-01T01:36:29Z</time>
      </trkpt>
      <trkpt lat="44.19427" lon="3.09861">
        <ele>607</ele>
        <time>2010-01-01T01:36:33Z</time>
      </trkpt>
      <trkpt lat="44.1942" lon="3.0985">
        <ele>606</ele>
        <time>2010-01-01T01:36:37Z</time>
      </trkpt>
      <trkpt lat="44.19407" lon="3.09845">
        <ele>604</ele>
        <time>2010-01-01T01:36:43Z</time>
      </trkpt>
      <trkpt lat="44.19395" lon="3.09838">
        <ele>603</ele>
        <time>2010-01-01T01:36:48Z</time>
      </trkpt>
      <trkpt lat="44.19389" lon="3.09824">
        <ele>601</ele>
        <time>2010-01-01T01:36:53Z</time>
      </trkpt>
      <trkpt lat="44.19384" lon="3.0981">
        <ele>600</ele>
        <time>2010-01-01T01:36:57Z</time>
      </trkpt>
      <trkpt lat="44.19377" lon="3.09797">
        <ele>599</ele>
        <time>2010-01-01T01:37:02Z</time>
      </trkpt>
      <trkpt lat="44.19368" lon="3.09787">
        <ele>599</ele>
        <time>2010-01-01T01:37:06Z</time>
      </trkpt>
      <trkpt lat="44.19358" lon="3.09779">
        <ele>600</ele>
        <time>2010-01-01T01:37:11Z</time>
      </trkpt>
      <trkpt lat="44.19354" lon="3.09766">
        <ele>601</ele>
        <time>2010-01-01T01:37:15Z</time>
      </trkpt>
      <trkpt lat="44.19354" lon="3.09755">
        <ele>601</ele>
        <time>2010-01-01T01:37:18Z</time>
      </trkpt>
      <trkpt lat="44.19354" lon="3.09748">
        <ele>601</ele>
        <time>2010-01-01T01:37:20Z</time>
      </trkpt>
      <trkpt lat="44.19355" lon="3.09744">
        <ele>601</ele>
        <time>2010-01-01T01:37:21Z</time>
      </trkpt>
      <trkpt lat="44.19356" lon="3.09739">
        <ele>602</ele>
        <time>2010-01-01T01:37:23Z</time>
      </trkpt>
      <trkpt lat="44.19357" lon="3.09734">
        <ele>602</ele>
        <time>2010-01-01T01:37:24Z</time>
      </trkpt>
      <trkpt lat="44.19357" lon="3.09729">
        <ele>603</ele>
        <time>2010-01-01T01:37:26Z</time>
      </trkpt>
      <trkpt lat="44.19359" lon="3.09724">
        <ele>603</ele>
        <time>2010-01-01T01:37:27Z</time>
      </trkpt>
      <trkpt lat="44.1936" lon="3.09719">
        <ele>603</ele>
        <time>2010-01-01T01:37:29Z</time>
      </trkpt>
      <trkpt lat="44.19361" lon="3.09714">
        <ele>603</ele>
        <time>2010-01-01T01:37:30Z</time>
      </trkpt>
      <trkpt lat="44.19362" lon="3.09709">
        <ele>603</ele>
        <time>2010-01-01T01:37:32Z</time>
      </trkpt>
      <trkpt lat="44.19363" lon="3.09704">
        <ele>603</ele>
        <time>2010-01-01T01:37:33Z</time>
      </trkpt>
      <trkpt lat="44.19365" lon="3.097">
        <ele>602</ele>
        <time>2010-01-01T01:37:35Z</time>
      </trkpt>
      <trkpt lat="44.19366" lon="3.09695">
        <ele>602</ele>
        <time>2010-01-01T01:37:36Z</time>
      </trkpt>
      <trkpt lat="44.19366" lon="3.09691">
        <ele>603</ele>
        <time>2010-01-01T01:37:37Z</time>
      </trkpt>
      <trkpt lat="44.19366" lon="3.09686">
        <ele>603</ele>
        <time>2010-01-01T01:37:39Z</time>
      </trkpt>
      <trkpt lat="44.19367" lon="3.09681">
        <ele>603</ele>
        <time>2010-01-01T01:37:40Z</time>
      </trkpt>
      <trkpt lat="44.19369" lon="3.09676">
        <ele>603</ele>
        <time>2010-01-01T01:37:42Z</time>
      </trkpt>
      <trkpt lat="44.1937" lon="3.09672">
        <ele>603</ele>
        <time>2010-01-01T01:37:43Z</time>
      </trkpt>
      <trkpt lat="44.19369" lon="3.09667">
        <ele>604</ele>
        <time>2010-01-01T01:37:44Z</time>
      </trkpt>
      <trkpt lat="44.1937" lon="3.09663">
        <ele>604</ele>
        <time>2010-01-01T01:37:46Z</time>
      </trkpt>
      <trkpt lat="44.19371" lon="3.09658">
        <ele>604</ele>
        <time>2010-01-01T01:37:47Z</time>
      </trkpt>
      <trkpt lat="44.19372" lon="3.09653">
        <ele>605</ele>
        <time>2010-01-01T01:37:49Z</time>
      </trkpt>
      <trkpt lat="44.19374" lon="3.09648">
        <ele>605</ele>
        <time>2010-01-01T01:37:50Z</time>
      </trkpt>
      <trkpt lat="44.19375" lon="3.09643">
        <ele>605</ele>
        <time>2010-01-01T01:37:52Z</time>
      </trkpt>
      <trkpt lat="44.19377" lon="3.09639">
        <ele>605</ele>
        <time>2010-01-01T01:37:53Z</time>
      </trkpt>
      <trkpt lat="44.19378" lon="3.09633">
        <ele>606</ele>
        <time>2010-01-01T01:37:55Z</time>
      </trkpt>
      <trkpt lat="44.19379" lon="3.09628">
        <ele>607</ele>
        <time>2010-01-01T01:37:56Z</time>
      </trkpt>
      <trkpt lat="44.1938" lon="3.09623">
        <ele>608</ele>
        <time>2010-01-01T01:37:58Z</time>
      </trkpt>
      <trkpt lat="44.19381" lon="3.09618">
        <ele>608</ele>
        <time>2010-01-01T01:37:59Z</time>
      </trkpt>
      <trkpt lat="44.19383" lon="3.09613">
        <ele>609</ele>
        <time>2010-01-01T01:38:01Z</time>
      </trkpt>
      <trkpt lat="44.19384" lon="3.09608">
        <ele>609</ele>
        <time>2010-01-01T01:38:02Z</time>
      </trkpt>
      <trkpt lat="44.19385" lon="3.09603">
        <ele>609</ele>
        <time>2010-01-01T01:38:04Z</time>
      </trkpt>
      <trkpt lat="44.19386" lon="3.09598">
        <ele>609</ele>
        <time>2010-01-01T01:38:05Z</time>
      </trkpt>
      <trkpt lat="44.19386" lon="3.09593">
        <ele>610</ele>
        <time>2010-01-01T01:38:07Z</time>
      </trkpt>
      <trkpt lat="44.19387" lon="3.09588">
        <ele>610</ele>
        <time>2010-01-01T01:38:08Z</time>
      </trkpt>
      <trkpt lat="44.19387" lon="3.09583">
        <ele>610</ele>
        <time>2010-01-01T01:38:10Z</time>
      </trkpt>
      <trkpt lat="44.19387" lon="3.09578">
        <ele>610</ele>
        <time>2010-01-01T01:38:11Z</time>
      </trkpt>
      <trkpt lat="44.19388" lon="3.09572">
        <ele>611</ele>
        <time>2010-01-01T01:38:13Z</time>
      </trkpt>
      <trkpt lat="44.19389" lon="3.09565">
        <ele>611</ele>
        <time>2010-01-01T01:38:15Z</time>
      </trkpt>
      <trkpt lat="44.1939" lon="3.09558">
        <ele>611</ele>
        <time>2010-01-01T01:38:17Z</time>
      </trkpt>
      <trkpt lat="44.19391" lon="3.09552">
        <ele>611</ele>
        <time>2010-01-01T01:38:19Z</time>
      </trkpt>
      <trkpt lat="44.19391" lon="3.09545">
        <ele>611</ele>
        <time>2010-01-01T01:38:21Z</time>
      </trkpt>
      <trkpt lat="44.19392" lon="3.09538">
        <ele>611</ele>
        <time>2010-01-01T01:38:23Z</time>
      </trkpt>
      <trkpt lat="44.19391" lon="3.09531">
        <ele>612</ele>
        <time>2010-01-01T01:38:25Z</time>
      </trkpt>
      <trkpt lat="44.1939" lon="3.09525">
        <ele>612</ele>
        <time>2010-01-01T01:38:26Z</time>
      </trkpt>
      <trkpt lat="44.1939" lon="3.09519">
        <ele>612</ele>
        <time>2010-01-01T01:38:28Z</time>
      </trkpt>
      <trkpt lat="44.19389" lon="3.09513">
        <ele>612</ele>
        <time>2010-01-01T01:38:30Z</time>
      </trkpt>
      <trkpt lat="44.19388" lon="3.09508">
        <ele>612</ele>
        <time>2010-01-01T01:38:31Z</time>
      </trkpt>
      <trkpt lat="44.19386" lon="3.09504">
        <ele>612</ele>
        <time>2010-01-01T01:38:33Z</time>
      </trkpt>
      <trkpt lat="44.19383" lon="3.095">
        <ele>613</ele>
        <time>2010-01-01T01:38:35Z</time>
      </trkpt>
      <trkpt lat="44.19379" lon="3.09497">
        <ele>613</ele>
        <time>2010-01-01T01:38:36Z</time>
      </trkpt>
      <trkpt lat="44.19374" lon="3.09494">
        <ele>613</ele>
        <time>2010-01-01T01:38:38Z</time>
      </trkpt>
      <trkpt lat="44.19368" lon="3.09491">
        <ele>613</ele>
        <time>2010-01-01T01:38:41Z</time>
      </trkpt>
      <trkpt lat="44.19361" lon="3.09486">
        <ele>614</ele>
        <time>2010-01-01T01:38:44Z</time>
      </trkpt>
      <trkpt lat="44.19354" lon="3.0948">
        <ele>613</ele>
        <time>2010-01-01T01:38:48Z</time>
      </trkpt>
      <trkpt lat="44.19347" lon="3.09475">
        <ele>612</ele>
        <time>2010-01-01T01:38:51Z</time>
      </trkpt>
      <trkpt lat="44.19338" lon="3.09469">
        <ele>611</ele>
        <time>2010-01-01T01:38:55Z</time>
      </trkpt>
      <trkpt lat="44.19328" lon="3.09464">
        <ele>610</ele>
        <time>2010-01-01T01:38:59Z</time>
      </trkpt>
      <trkpt lat="44.19319" lon="3.09458">
        <ele>610</ele>
        <time>2010-01-01T01:39:03Z</time>
      </trkpt>
      <trkpt lat="44.19311" lon="3.09451">
        <ele>610</ele>
        <time>2010-01-01T01:39:07Z</time>
      </trkpt>
      <trkpt lat="44.19305" lon="3.09444">
        <ele>610</ele>
        <time>2010-01-01T01:39:10Z</time>
      </trkpt>
      <trkpt lat="44.19301" lon="3.09437">
        <ele>609</ele>
        <time>2010-01-01T01:39:12Z</time>
      </trkpt>
      <trkpt lat="44.19298" lon="3.09432">
        <ele>608</ele>
        <time>2010-01-01T01:39:14Z</time>
      </trkpt>
      <trkpt lat="44.19295" lon="3.09426">
        <ele>607</ele>
        <time>2010-01-01T01:39:16Z</time>
      </trkpt>
      <trkpt lat="44.19291" lon="3.0942">
        <ele>607</ele>
        <time>2010-01-01T01:39:19Z</time>
      </trkpt>
      <trkpt lat="44.19288" lon="3.09414">
        <ele>607</ele>
        <time>2010-01-01T01:39:21Z</time>
      </trkpt>
      <trkpt lat="44.19283" lon="3.09408">
        <ele>606</ele>
        <time>2010-01-01T01:39:24Z</time>
      </trkpt>
      <trkpt lat="44.19278" lon="3.09401">
        <ele>607</ele>
        <time>2010-01-01T01:39:26Z</time>
      </trkpt>
      <trkpt lat="44.19272" lon="3.09395">
        <ele>607</ele>
        <time>2010-01-01T01:39:29Z</time>
      </trkpt>
      <trkpt lat="44.19267" lon="3.09389">
        <ele>607</ele>
        <time>2010-01-01T01:39:32Z</time>
      </trkpt>
      <trkpt lat="44.19261" lon="3.09383">
        <ele>607</ele>
        <time>2010-01-01T01:39:35Z</time>
      </trkpt>
      <trkpt lat="44.19254" lon="3.09378">
        <ele>607</ele>
        <time>2010-01-01T01:39:38Z</time>
      </trkpt>
      <trkpt lat="44.19248" lon="3.09373">
        <ele>608</ele>
        <time>2010-01-01T01:39:41Z</time>
      </trkpt>
      <trkpt lat="44.19242" lon="3.09369">
        <ele>608</ele>
        <time>2010-01-01T01:39:44Z</time>
      </trkpt>
      <trkpt lat="44.19236" lon="3.09364">
        <ele>607</ele>
        <time>2010-01-01T01:39:46Z</time>
      </trkpt>
      <trkpt lat="44.1923" lon="3.09356">
        <ele>607</ele>
        <time>2010-01-01T01:39:50Z</time>
      </trkpt>
      <trkpt lat="44.19222" lon="3.09349">
        <ele>606</ele>
        <time>2010-01-01T01:39:53Z</time>
      </trkpt>
      <trkpt lat="44.19214" lon="3.09342">
        <ele>605</ele>
        <time>2010-01-01T01:39:57Z</time>
      </trkpt>
      <trkpt lat="44.19206" lon="3.09335">
        <ele>604</ele>
        <time>2010-01-01T01:40:01Z</time>
      </trkpt>
      <trkpt lat="44.19198" lon="3.09328">
        <ele>604</ele>
        <time>2010-01-01T01:40:05Z</time>
      </trkpt>
      <trkpt lat="44.19189" lon="3.09321">
        <ele>602</ele>
        <time>2010-01-01T01:40:09Z</time>
      </trkpt>
      <trkpt lat="44.19181" lon="3.09311">
        <ele>601</ele>
        <time>2010-01-01T01:40:13Z</time>
      </trkpt>
      <trkpt lat="44.19174" lon="3.093">
        <ele>599</ele>
        <time>2010-01-01T01:40:17Z</time>
      </trkpt>
      <trkpt lat="44.19168" lon="3.09288">
        <ele>598</ele>
        <time>2010-01-01T01:40:22Z</time>
      </trkpt>
      <trkpt lat="44.19162" lon="3.09275">
        <ele>597</ele>
        <time>2010-01-01T01:40:26Z</time>
      </trkpt>
      <trkpt lat="44.19154" lon="3.09264">
        <ele>596</ele>
        <time>2010-01-01T01:40:30Z</time>
      </trkpt>
      <trkpt lat="44.19147" lon="3.09254">
        <ele>595</ele>
        <time>2010-01-01T01:40:35Z</time>
      </trkpt>
      <trkpt lat="44.19139" lon="3.09246">
        <ele>594</ele>
        <time>2010-01-01T01:40:38Z</time>
      </trkpt>
      <trkpt lat="44.19136" lon="3.09239">
        <ele>593</ele>
        <time>2010-01-01T01:40:41Z</time>
      </trkpt>
      <trkpt lat="44.19139" lon="3.09232">
        <ele>593</ele>
        <time>2010-01-01T01:40:43Z</time>
      </trkpt>
      <trkpt lat="44.19147" lon="3.09224">
        <ele>591</ele>
        <time>2010-01-01T01:40:47Z</time>
      </trkpt>
      <trkpt lat="44.19156" lon="3.09211">
        <ele>589</ele>
        <time>2010-01-01T01:40:52Z</time>
      </trkpt>
      <trkpt lat="44.19166" lon="3.09193">
        <ele>586</ele>
        <time>2010-01-01T01:40:59Z</time>
      </trkpt>
      <trkpt lat="44.19176" lon="3.0917">
        <ele>585</ele>
        <time>2010-01-01T01:41:06Z</time>
      </trkpt>
      <trkpt lat="44.19187" lon="3.09148">
        <ele>585</ele>
        <time>2010-01-01T01:41:14Z</time>
      </trkpt>
      <trkpt lat="44.19199" lon="3.09128">
        <ele>585</ele>
        <time>2010-01-01T01:41:22Z</time>
      </trkpt>
      <trkpt lat="44.19213" lon="3.09115">
        <ele>586</ele>
        <time>2010-01-01T01:41:28Z</time>
      </trkpt>
      <trkpt lat="44.19225" lon="3.09113">
        <ele>587</ele>
        <time>2010-01-01T01:41:33Z</time>
      </trkpt>
      <trkpt lat="44.19232" lon="3.09113">
        <ele>589</ele>
        <time>2010-01-01T01:41:36Z</time>
      </trkpt>
      <trkpt lat="44.19237" lon="3.09111">
        <ele>590</ele>
        <time>2010-01-01T01:41:38Z</time>
      </trkpt>
      <trkpt lat="44.19242" lon="3.09106">
        <ele>591</ele>
        <time>2010-01-01T01:41:41Z</time>
      </trkpt>
      <trkpt lat="44.19245" lon="3.091">
        <ele>591</ele>
        <time>2010-01-01T01:41:43Z</time>
      </trkpt>
      <trkpt lat="44.19247" lon="3.09093">
        <ele>592</ele>
        <time>2010-01-01T01:41:45Z</time>
      </trkpt>
      <trkpt lat="44.19247" lon="3.09086">
        <ele>592</ele>
        <time>2010-01-01T01:41:47Z</time>
      </trkpt>
      <trkpt lat="44.19248" lon="3.09079">
        <ele>592</ele>
        <time>2010-01-01T01:41:49Z</time>
      </trkpt>
      <trkpt lat="44.19248" lon="3.0907">
        <ele>592</ele>
        <time>2010-01-01T01:41:51Z</time>
      </trkpt>
      <trkpt lat="44.19247" lon="3.09061">
        <ele>592</ele>
        <time>2010-01-01T01:41:54Z</time>
      </trkpt>
      <trkpt lat="44.19245" lon="3.09051">
        <ele>591</ele>
        <time>2010-01-01T01:41:57Z</time>
      </trkpt>
      <trkpt lat="44.19244" lon="3.09041">
        <ele>590</ele>
        <time>2010-01-01T01:42:00Z</time>
      </trkpt>
      <trkpt lat="44.1924" lon="3.09032">
        <ele>589</ele>
        <time>2010-01-01T01:42:03Z</time>
      </trkpt>
      <trkpt lat="44.19235" lon="3.0902">
        <ele>588</ele>
        <time>2010-01-01T01:42:07Z</time>
      </trkpt>
      <trkpt lat="44.19229" lon="3.09006">
        <ele>586</ele>
        <time>2010-01-01T01:42:11Z</time>
      </trkpt>
      <trkpt lat="44.19225" lon="3.08994">
        <ele>584</ele>
        <time>2010-01-01T01:42:15Z</time>
      </trkpt>
      <trkpt lat="44.19226" lon="3.08983">
        <ele>584</ele>
        <time>2010-01-01T01:42:18Z</time>
      </trkpt>
      <trkpt lat="44.19227" lon="3.08975">
        <ele>583</ele>
        <time>2010-01-01T01:42:21Z</time>
      </trkpt>
      <trkpt lat="44.19227" lon="3.0897">
        <ele>583</ele>
        <time>2010-01-01T01:42:22Z</time>
      </trkpt>
      <trkpt lat="44.19225" lon="3.08966">
        <ele>583</ele>
        <time>2010-01-01T01:42:24Z</time>
      </trkpt>
      <trkpt lat="44.1922" lon="3.08967">
        <ele>582</ele>
        <time>2010-01-01T01:42:25Z</time>
      </trkpt>
      <trkpt lat="44.19216" lon="3.08974">
        <ele>582</ele>
        <time>2010-01-01T01:42:28Z</time>
      </trkpt>
      <trkpt lat="44.19209" lon="3.08981">
        <ele>581</ele>
        <time>2010-01-01T01:42:31Z</time>
      </trkpt>
      <trkpt lat="44.192" lon="3.08991">
        <ele>580</ele>
        <time>2010-01-01T01:42:36Z</time>
      </trkpt>
      <trkpt lat="44.1919" lon="3.09003">
        <ele>579</ele>
        <time>2010-01-01T01:42:41Z</time>
      </trkpt>
      <trkpt lat="44.1918" lon="3.09015">
        <ele>577</ele>
        <time>2010-01-01T01:42:47Z</time>
      </trkpt>
      <trkpt lat="44.19169" lon="3.09028">
        <ele>576</ele>
        <time>2010-01-01T01:42:52Z</time>
      </trkpt>
      <trkpt lat="44.19158" lon="3.09041">
        <ele>576</ele>
        <time>2010-01-01T01:42:58Z</time>
      </trkpt>
      <trkpt lat="44.19149" lon="3.09052">
        <ele>577</ele>
        <time>2010-01-01T01:43:03Z</time>
      </trkpt>
      <trkpt lat="44.1914" lon="3.09063">
        <ele>577</ele>
        <time>2010-01-01T01:43:08Z</time>
      </trkpt>
      <trkpt lat="44.19129" lon="3.09071">
        <ele>578</ele>
        <time>2010-01-01T01:43:13Z</time>
      </trkpt>
      <trkpt lat="44.19117" lon="3.09076">
        <ele>578</ele>
        <time>2010-01-01T01:43:17Z</time>
      </trkpt>
      <trkpt lat="44.19108" lon="3.09079">
        <ele>579</ele>
        <time>2010-01-01T01:43:21Z</time>
      </trkpt>
      <trkpt lat="44.19099" lon="3.09081">
        <ele>579</ele>
        <time>2010-01-01T01:43:25Z</time>
      </trkpt>
      <trkpt lat="44.1909" lon="3.09082">
        <ele>579</ele>
        <time>2010-01-01T01:43:29Z</time>
      </trkpt>
      <trkpt lat="44.19081" lon="3.09082">
        <ele>579</ele>
        <time>2010-01-01T01:43:32Z</time>
      </trkpt>
      <trkpt lat="44.19074" lon="3.09082">
        <ele>579</ele>
        <time>2010-01-01T01:43:35Z</time>
      </trkpt>
      <trkpt lat="44.19066" lon="3.09081">
        <ele>579</ele>
        <time>2010-01-01T01:43:38Z</time>
      </trkpt>
      <trkpt lat="44.19059" lon="3.0908">
        <ele>579</ele>
        <time>2010-01-01T01:43:41Z</time>
      </trkpt>
      <trkpt lat="44.19052" lon="3.09076">
        <ele>579</ele>
        <time>2010-01-01T01:43:44Z</time>
      </trkpt>
      <trkpt lat="44.19045" lon="3.09071">
        <ele>578</ele>
        <time>2010-01-01T01:43:47Z</time>
      </trkpt>
      <trkpt lat="44.19039" lon="3.09064">
        <ele>578</ele>
        <time>2010-01-01T01:43:50Z</time>
      </trkpt>
      <trkpt lat="44.19032" lon="3.09056">
        <ele>577</ele>
        <time>2010-01-01T01:43:54Z</time>
      </trkpt>
      <trkpt lat="44.19024" lon="3.09049">
        <ele>577</ele>
        <time>2010-01-01T01:43:58Z</time>
      </trkpt>
      <trkpt lat="44.19017" lon="3.09039">
        <ele>577</ele>
        <time>2010-01-01T01:44:02Z</time>
      </trkpt>
      <trkpt lat="44.19008" lon="3.09029">
        <ele>577</ele>
        <time>2010-01-01T01:44:06Z</time>
      </trkpt>
      <trkpt lat="44.18998" lon="3.09017">
        <ele>576</ele>
        <time>2010-01-01T01:44:11Z</time>
      </trkpt>
      <trkpt lat="44.18988" lon="3.09005">
        <ele>575</ele>
        <time>2010-01-01T01:44:17Z</time>
      </trkpt>
      <trkpt lat="44.18977" lon="3.08994">
        <ele>574</ele>
        <time>2010-01-01T01:44:22Z</time>
      </trkpt>
      <trkpt lat="44.18963" lon="3.08986">
        <ele>572</ele>
        <time>2010-01-01T01:44:28Z</time>
      </trkpt>
      <trkpt lat="44.18949" lon="3.08982">
        <ele>570</ele>
        <time>2010-01-01T01:44:34Z</time>
      </trkpt>
      <trkpt lat="44.18935" lon="3.0898">
        <ele>569</ele>
        <time>2010-01-01T01:44:40Z</time>
      </trkpt>
      <trkpt lat="44.18921" lon="3.08978">
        <ele>569</ele>
        <time>2010-01-01T01:44:45Z</time>
      </trkpt>
      <trkpt lat="44.18907" lon="3.08973">
        <ele>567</ele>
        <time>2010-01-01T01:44:51Z</time>
      </trkpt>
      <trkpt lat="44.18897" lon="3.08968">
        <ele>566</ele>
        <time>2010-01-01T01:44:55Z</time>
      </trkpt>
      <trkpt lat="44.18889" lon="3.08964">
        <ele>565</ele>
        <time>2010-01-01T01:44:59Z</time>
      </trkpt>
      <trkpt lat="44.18882" lon="3.08959">
        <ele>564</ele>
        <time>2010-01-01T01:45:02Z</time>
      </trkpt>
      <trkpt lat="44.18872" lon="3.08952">
        <ele>563</ele>
        <time>2010-01-01T01:45:06Z</time>
      </trkpt>
      <trkpt lat="44.18862" lon="3.08944">
        <ele>562</ele>
        <time>2010-01-01T01:45:11Z</time>
      </trkpt>
      <trkpt lat="44.18849" lon="3.08934">
        <ele>560</ele>
        <time>2010-01-01T01:45:17Z</time>
      </trkpt>
      <trkpt lat="44.18836" lon="3.08923">
        <ele>559</ele>
        <time>2010-01-01T01:45:23Z</time>
      </trkpt>
      <trkpt lat="44.18821" lon="3.08911">
        <ele>559</ele>
        <time>2010-01-01T01:45:30Z</time>
      </trkpt>
      <trkpt lat="44.18806" lon="3.08899">
        <ele>559</ele>
        <time>2010-01-01T01:45:37Z</time>
      </trkpt>
      <trkpt lat="44.18789" lon="3.08886">
        <ele>558</ele>
        <time>2010-01-01T01:45:44Z</time>
      </trkpt>
      <trkpt lat="44.18772" lon="3.08874">
        <ele>556</ele>
        <time>2010-01-01T01:45:52Z</time>
      </trkpt>
      <trkpt lat="44.18753" lon="3.08859">
        <ele>553</ele>
        <time>2010-01-01T01:46:01Z</time>
      </trkpt>
      <trkpt lat="44.18733" lon="3.08843">
        <ele>550</ele>
        <time>2010-01-01T01:46:10Z</time>
      </trkpt>
      <trkpt lat="44.18713" lon="3.08828">
        <ele>548</ele>
        <time>2010-01-01T01:46:19Z</time>
      </trkpt>
      <trkpt lat="44.18695" lon="3.08809">
        <ele>548</ele>
        <time>2010-01-01T01:46:28Z</time>
      </trkpt>
      <trkpt lat="44.18681" lon="3.08786">
        <ele>548</ele>
        <time>2010-01-01T01:46:37Z</time>
      </trkpt>
      <trkpt lat="44.18673" lon="3.08762">
        <ele>549</ele>
        <time>2010-01-01T01:46:45Z</time>
      </trkpt>
      <trkpt lat="44.18668" lon="3.08739">
        <ele>550</ele>
        <time>2010-01-01T01:46:51Z</time>
      </trkpt>
      <trkpt lat="44.18665" lon="3.0872">
        <ele>550</ele>
        <time>2010-01-01T01:46:57Z</time>
      </trkpt>
      <trkpt lat="44.18662" lon="3.08705">
        <ele>551</ele>
        <time>2010-01-01T01:47:02Z</time>
      </trkpt>
      <trkpt lat="44.18658" lon="3.08693">
        <ele>552</ele>
        <time>2010-01-01T01:47:05Z</time>
      </trkpt>
      <trkpt lat="44.18655" lon="3.08683">
        <ele>552</ele>
        <time>2010-01-01T01:47:08Z</time>
      </trkpt>
      <trkpt lat="44.18652" lon="3.08673">
        <ele>553</ele>
        <time>2010-01-01T01:47:12Z</time>
      </trkpt>
      <trkpt lat="44.18647" lon="3.08664">
        <ele>553</ele>
        <time>2010-01-01T01:47:15Z</time>
      </trkpt>
      <trkpt lat="44.18643" lon="3.08656">
        <ele>553</ele>
        <time>2010-01-01T01:47:18Z</time>
      </trkpt>
      <trkpt lat="44.18638" lon="3.08647">
        <ele>554</ele>
        <time>2010-01-01T01:47:21Z</time>
      </trkpt>
      <trkpt lat="44.18634" lon="3.08639">
        <ele>554</ele>
        <time>2010-01-01T01:47:24Z</time>
      </trkpt>
      <trkpt lat="44.18629" lon="3.08631">
        <ele>554</ele>
        <time>2010-01-01T01:47:27Z</time>
      </trkpt>
      <trkpt lat="44.18624" lon="3.08624">
        <ele>554</ele>
        <time>2010-01-01T01:47:30Z</time>
      </trkpt>
      <trkpt lat="44.18619" lon="3.08616">
        <ele>554</ele>
        <time>2010-01-01T01:47:32Z</time>
      </trkpt>
      <trkpt lat="44.18615" lon="3.08608">
        <ele>554</ele>
        <time>2010-01-01T01:47:35Z</time>
      </trkpt>
      <trkpt lat="44.1861" lon="3.08601">
        <ele>554</ele>
        <time>2010-01-01T01:47:38Z</time>
      </trkpt>
      <trkpt lat="44.18605" lon="3.08594">
        <ele>553</ele>
        <time>2010-01-01T01:47:41Z</time>
      </trkpt>
      <trkpt lat="44.18601" lon="3.08586">
        <ele>553</ele>
        <time>2010-01-01T01:47:44Z</time>
      </trkpt>
      <trkpt lat="44.18596" lon="3.0858">
        <ele>553</ele>
        <time>2010-01-01T01:47:46Z</time>
      </trkpt>
      <trkpt lat="44.18592" lon="3.08574">
        <ele>553</ele>
        <time>2010-01-01T01:47:49Z</time>
      </trkpt>
      <trkpt lat="44.18588" lon="3.08568">
        <ele>553</ele>
        <time>2010-01-01T01:47:51Z</time>
      </trkpt>
      <trkpt lat="44.18584" lon="3.08562">
        <ele>553</ele>
        <time>2010-01-01T01:47:54Z</time>
      </trkpt>
      <trkpt lat="44.18579" lon="3.08555">
        <ele>554</ele>
        <time>2010-01-01T01:47:56Z</time>
      </trkpt>
      <trkpt lat="44.18574" lon="3.08549">
        <ele>554</ele>
        <time>2010-01-01T01:47:59Z</time>
      </trkpt>
      <trkpt lat="44.1857" lon="3.08542">
        <ele>554</ele>
        <time>2010-01-01T01:48:01Z</time>
      </trkpt>
      <trkpt lat="44.18566" lon="3.08535">
        <ele>554</ele>
        <time>2010-01-01T01:48:04Z</time>
      </trkpt>
      <trkpt lat="44.18561" lon="3.08529">
        <ele>555</ele>
        <time>2010-01-01T01:48:07Z</time>
      </trkpt>
      <trkpt lat="44.18557" lon="3.08522">
        <ele>555</ele>
        <time>2010-01-01T01:48:09Z</time>
      </trkpt>
      <trkpt lat="44.18553" lon="3.08514">
        <ele>555</ele>
        <time>2010-01-01T01:48:12Z</time>
      </trkpt>
      <trkpt lat="44.18548" lon="3.08507">
        <ele>555</ele>
        <time>2010-01-01T01:48:15Z</time>
      </trkpt>
      <trkpt lat="44.18544" lon="3.085">
        <ele>555</ele>
        <time>2010-01-01T01:48:17Z</time>
      </trkpt>
      <trkpt lat="44.1854" lon="3.08492">
        <ele>555</ele>
        <time>2010-01-01T01:48:20Z</time>
      </trkpt>
      <trkpt lat="44.18536" lon="3.08485">
        <ele>555</ele>
        <time>2010-01-01T01:48:23Z</time>
      </trkpt>
      <trkpt lat="44.18531" lon="3.08477">
        <ele>555</ele>
        <time>2010-01-01T01:48:26Z</time>
      </trkpt>
      <trkpt lat="44.18527" lon="3.0847">
        <ele>555</ele>
        <time>2010-01-01T01:48:28Z</time>
      </trkpt>
      <trkpt lat="44.18523" lon="3.08462">
        <ele>555</ele>
        <time>2010-01-01T01:48:31Z</time>
      </trkpt>
      <trkpt lat="44.18517" lon="3.08454">
        <ele>554</ele>
        <time>2010-01-01T01:48:34Z</time>
      </trkpt>
      <trkpt lat="44.18512" lon="3.08444">
        <ele>554</ele>
        <time>2010-01-01T01:48:38Z</time>
      </trkpt>
      <trkpt lat="44.18506" lon="3.08435">
        <ele>554</ele>
        <time>2010-01-01T01:48:41Z</time>
      </trkpt>
      <trkpt lat="44.18499" lon="3.08425">
        <ele>553</ele>
        <time>2010-01-01T01:48:46Z</time>
      </trkpt>
      <trkpt lat="44.18491" lon="3.08415">
        <ele>553</ele>
        <time>2010-01-01T01:48:50Z</time>
      </trkpt>
      <trkpt lat="44.18482" lon="3.08405">
        <ele>552</ele>
        <time>2010-01-01T01:48:54Z</time>
      </trkpt>
      <trkpt lat="44.18474" lon="3.08396">
        <ele>551</ele>
        <time>2010-01-01T01:48:59Z</time>
      </trkpt>
      <trkpt lat="44.18466" lon="3.08388">
        <ele>550</ele>
        <time>2010-01-01T01:49:02Z</time>
      </trkpt>
      <trkpt lat="44.18461" lon="3.08383">
        <ele>549</ele>
        <time>2010-01-01T01:49:05Z</time>
      </trkpt>
      <trkpt lat="44.18459" lon="3.08379">
        <ele>549</ele>
        <time>2010-01-01T01:49:06Z</time>
      </trkpt>
      <trkpt lat="44.18458" lon="3.08378">
        <ele>548</ele>
        <time>2010-01-01T01:49:07Z</time>
      </trkpt>
      <trkpt lat="44.18457" lon="3.08378">
        <ele>549</ele>
        <time>2010-01-01T01:49:07Z</time>
      </trkpt>
      <trkpt lat="44.18458" lon="3.08377">
        <ele>548</ele>
        <time>2010-01-01T01:49:07Z</time>
      </trkpt>
      <trkpt lat="44.18451" lon="3.0837">
        <ele>548</ele>
        <time>2010-01-01T01:49:11Z</time>
      </trkpt>
      <trkpt lat="44.18446" lon="3.08365">
        <ele>547</ele>
        <time>2010-01-01T01:49:13Z</time>
      </trkpt>
      <trkpt lat="44.18438" lon="3.08358">
        <ele>547</ele>
        <time>2010-01-01T01:49:17Z</time>
      </trkpt>
      <trkpt lat="44.18429" lon="3.08352">
        <ele>547</ele>
        <time>2010-01-01T01:49:21Z</time>
      </trkpt>
      <trkpt lat="44.1842" lon="3.08346">
        <ele>548</ele>
        <time>2010-01-01T01:49:25Z</time>
      </trkpt>
      <trkpt lat="44.18411" lon="3.0834">
        <ele>548</ele>
        <time>2010-01-01T01:49:29Z</time>
      </trkpt>
      <trkpt lat="44.18404" lon="3.08336">
        <ele>548</ele>
        <time>2010-01-01T01:49:32Z</time>
      </trkpt>
      <trkpt lat="44.18397" lon="3.08333">
        <ele>548</ele>
        <time>2010-01-01T01:49:35Z</time>
      </trkpt>
      <trkpt lat="44.18391" lon="3.0833">
        <ele>548</ele>
        <time>2010-01-01T01:49:38Z</time>
      </trkpt>
      <trkpt lat="44.18386" lon="3.08327">
        <ele>548</ele>
        <time>2010-01-01T01:49:40Z</time>
      </trkpt>
      <trkpt lat="44.18382" lon="3.08323">
        <ele>547</ele>
        <time>2010-01-01T01:49:42Z</time>
      </trkpt>
      <trkpt lat="44.18379" lon="3.08321">
        <ele>547</ele>
        <time>2010-01-01T01:49:43Z</time>
      </trkpt>
      <trkpt lat="44.18376" lon="3.08321">
        <ele>546</ele>
        <time>2010-01-01T01:49:44Z</time>
      </trkpt>
      <trkpt lat="44.18373" lon="3.0832">
        <ele>546</ele>
        <time>2010-01-01T01:49:45Z</time>
      </trkpt>
      <trkpt lat="44.18372" lon="3.0832">
        <ele>546</ele>
        <time>2010-01-01T01:49:46Z</time>
      </trkpt>
      <trkpt lat="44.18372" lon="3.0832">
        <ele>546</ele>
        <time>2010-01-01T01:49:46Z</time>
      </trkpt>
      <trkpt lat="44.18372" lon="3.0832">
        <ele>546</ele>
        <time>2010-01-01T01:49:46Z</time>
      </trkpt>
      <trkpt lat="44.18372" lon="3.0832">
        <ele>546</ele>
        <time>2010-01-01T01:49:46Z</time>
      </trkpt>
      <trkpt lat="44.18372" lon="3.0833">
        <ele>546</ele>
        <time>2010-01-01T01:49:49Z</time>
      </trkpt>
      <trkpt lat="44.18368" lon="3.08331">
        <ele>545</ele>
        <time>2010-01-01T01:49:50Z</time>
      </trkpt>
      <trkpt lat="44.18366" lon="3.08333">
        <ele>545</ele>
        <time>2010-01-01T01:49:51Z</time>
      </trkpt>
      <trkpt lat="44.18364" lon="3.08336">
        <ele>545</ele>
        <time>2010-01-01T01:49:52Z</time>
      </trkpt>
      <trkpt lat="44.18362" lon="3.0834">
        <ele>545</ele>
        <time>2010-01-01T01:49:54Z</time>
      </trkpt>
      <trkpt lat="44.18359" lon="3.08346">
        <ele>545</ele>
        <time>2010-01-01T01:49:56Z</time>
      </trkpt>
      <trkpt lat="44.18357" lon="3.08352">
        <ele>545</ele>
        <time>2010-01-01T01:49:58Z</time>
      </trkpt>
      <trkpt lat="44.18355" lon="3.08358">
        <ele>545</ele>
        <time>2010-01-01T01:50:00Z</time>
      </trkpt>
      <trkpt lat="44.18352" lon="3.08364">
        <ele>545</ele>
        <time>2010-01-01T01:50:02Z</time>
      </trkpt>
      <trkpt lat="44.18351" lon="3.0837">
        <ele>546</ele>
        <time>2010-01-01T01:50:04Z</time>
      </trkpt>
      <trkpt lat="44.1835" lon="3.08376">
        <ele>546</ele>
        <time>2010-01-01T01:50:06Z</time>
      </trkpt>
      <trkpt lat="44.18351" lon="3.08382">
        <ele>546</ele>
        <time>2010-01-01T01:50:07Z</time>
      </trkpt>
      <trkpt lat="44.18351" lon="3.08388">
        <ele>547</ele>
        <time>2010-01-01T01:50:09Z</time>
      </trkpt>
      <trkpt lat="44.18351" lon="3.08393">
        <ele>547</ele>
        <time>2010-01-01T01:50:10Z</time>
      </trkpt>
      <trkpt lat="44.18351" lon="3.084">
        <ele>548</ele>
        <time>2010-01-01T01:50:12Z</time>
      </trkpt>
      <trkpt lat="44.1835" lon="3.08409">
        <ele>548</ele>
        <time>2010-01-01T01:50:15Z</time>
      </trkpt>
      <trkpt lat="44.18349" lon="3.08417">
        <ele>548</ele>
        <time>2010-01-01T01:50:17Z</time>
      </trkpt>
      <trkpt lat="44.18348" lon="3.08426">
        <ele>548</ele>
        <time>2010-01-01T01:50:20Z</time>
      </trkpt>
      <trkpt lat="44.18348" lon="3.08435">
        <ele>548</ele>
        <time>2010-01-01T01:50:22Z</time>
      </trkpt>
      <trkpt lat="44.18347" lon="3.08443">
        <ele>547</ele>
        <time>2010-01-01T01:50:25Z</time>
      </trkpt>
      <trkpt lat="44.18345" lon="3.08452">
        <ele>547</ele>
        <time>2010-01-01T01:50:27Z</time>
      </trkpt>
      <trkpt lat="44.18344" lon="3.08462">
        <ele>548</ele>
        <time>2010-01-01T01:50:30Z</time>
      </trkpt>
      <trkpt lat="44.18342" lon="3.08471">
        <ele>548</ele>
        <time>2010-01-01T01:50:33Z</time>
      </trkpt>
      <trkpt lat="44.18339" lon="3.08481">
        <ele>547</ele>
        <time>2010-01-01T01:50:36Z</time>
      </trkpt>
      <trkpt lat="44.18334" lon="3.08489">
        <ele>546</ele>
        <time>2010-01-01T01:50:39Z</time>
      </trkpt>
      <trkpt lat="44.1833" lon="3.08497">
        <ele>546</ele>
        <time>2010-01-01T01:50:42Z</time>
      </trkpt>
      <trkpt lat="44.18328" lon="3.08501">
        <ele>546</ele>
        <time>2010-01-01T01:50:44Z</time>
      </trkpt>
      <trkpt lat="44.18329" lon="3.08503">
        <ele>546</ele>
        <time>2010-01-01T01:50:44Z</time>
      </trkpt>
      <trkpt lat="44.18327" lon="3.08508">
        <ele>546</ele>
        <time>2010-01-01T01:50:46Z</time>
      </trkpt>
      <trkpt lat="44.18323" lon="3.08515">
        <ele>545</ele>
        <time>2010-01-01T01:50:48Z</time>
      </trkpt>
      <trkpt lat="44.1832" lon="3.08524">
        <ele>545</ele>
        <time>2010-01-01T01:50:51Z</time>
      </trkpt>
      <trkpt lat="44.18315" lon="3.08534">
        <ele>544</ele>
        <time>2010-01-01T01:50:55Z</time>
      </trkpt>
      <trkpt lat="44.1831" lon="3.08545">
        <ele>544</ele>
        <time>2010-01-01T01:50:58Z</time>
      </trkpt>
      <trkpt lat="44.18307" lon="3.08557">
        <ele>544</ele>
        <time>2010-01-01T01:51:02Z</time>
      </trkpt>
      <trkpt lat="44.18302" lon="3.08567">
        <ele>543</ele>
        <time>2010-01-01T01:51:05Z</time>
      </trkpt>
      <trkpt lat="44.18298" lon="3.08577">
        <ele>543</ele>
        <time>2010-01-01T01:51:09Z</time>
      </trkpt>
      <trkpt lat="44.18294" lon="3.08587">
        <ele>542</ele>
        <time>2010-01-01T01:51:12Z</time>
      </trkpt>
      <trkpt lat="44.1829" lon="3.08597">
        <ele>542</ele>
        <time>2010-01-01T01:51:15Z</time>
      </trkpt>
      <trkpt lat="44.18287" lon="3.08606">
        <ele>541</ele>
        <time>2010-01-01T01:51:18Z</time>
      </trkpt>
      <trkpt lat="44.18285" lon="3.08617">
        <ele>541</ele>
        <time>2010-01-01T01:51:21Z</time>
      </trkpt>
      <trkpt lat="44.18282" lon="3.08629">
        <ele>540</ele>
        <time>2010-01-01T01:51:25Z</time>
      </trkpt>
      <trkpt lat="44.18279" lon="3.0864">
        <ele>539</ele>
        <time>2010-01-01T01:51:28Z</time>
      </trkpt>
      <trkpt lat="44.18279" lon="3.08651">
        <ele>538</ele>
        <time>2010-01-01T01:51:32Z</time>
      </trkpt>
      <trkpt lat="44.18281" lon="3.0866">
        <ele>537</ele>
        <time>2010-01-01T01:51:34Z</time>
      </trkpt>
      <trkpt lat="44.18283" lon="3.08665">
        <ele>537</ele>
        <time>2010-01-01T01:51:36Z</time>
      </trkpt>
      <trkpt lat="44.18283" lon="3.08668">
        <ele>537</ele>
        <time>2010-01-01T01:51:37Z</time>
      </trkpt>
      <trkpt lat="44.18283" lon="3.0867">
        <ele>536</ele>
        <time>2010-01-01T01:51:37Z</time>
      </trkpt>
      <trkpt lat="44.18283" lon="3.08673">
        <ele>536</ele>
        <time>2010-01-01T01:51:38Z</time>
      </trkpt>
      <trkpt lat="44.18286" lon="3.08677">
        <ele>536</ele>
        <time>2010-01-01T01:51:40Z</time>
      </trkpt>
      <trkpt lat="44.18287" lon="3.08681">
        <ele>535</ele>
        <time>2010-01-01T01:51:41Z</time>
      </trkpt>
      <trkpt lat="44.18289" lon="3.08685">
        <ele>535</ele>
        <time>2010-01-01T01:51:42Z</time>
      </trkpt>
      <trkpt lat="44.18291" lon="3.08689">
        <ele>535</ele>
        <time>2010-01-01T01:51:44Z</time>
      </trkpt>
      <trkpt lat="44.18293" lon="3.08697">
        <ele>535</ele>
        <time>2010-01-01T01:51:46Z</time>
      </trkpt>
      <trkpt lat="44.18295" lon="3.08708">
        <ele>534</ele>
        <time>2010-01-01T01:51:49Z</time>
      </trkpt>
      <trkpt lat="44.18296" lon="3.08722">
        <ele>532</ele>
        <time>2010-01-01T01:51:53Z</time>
      </trkpt>
      <trkpt lat="44.18297" lon="3.08737">
        <ele>530</ele>
        <time>2010-01-01T01:51:58Z</time>
      </trkpt>
      <trkpt lat="44.183" lon="3.08751">
        <ele>530</ele>
        <time>2010-01-01T01:52:02Z</time>
      </trkpt>
      <trkpt lat="44.18303" lon="3.08762">
        <ele>529</ele>
        <time>2010-01-01T01:52:05Z</time>
      </trkpt>
      <trkpt lat="44.18309" lon="3.08772">
        <ele>530</ele>
        <time>2010-01-01T01:52:09Z</time>
      </trkpt>
      <trkpt lat="44.18317" lon="3.0878">
        <ele>530</ele>
        <time>2010-01-01T01:52:13Z</time>
      </trkpt>
      <trkpt lat="44.18325" lon="3.08787">
        <ele>531</ele>
        <time>2010-01-01T01:52:17Z</time>
      </trkpt>
      <trkpt lat="44.18333" lon="3.08795">
        <ele>531</ele>
        <time>2010-01-01T01:52:21Z</time>
      </trkpt>
      <trkpt lat="44.18343" lon="3.08803">
        <ele>531</ele>
        <time>2010-01-01T01:52:25Z</time>
      </trkpt>
      <trkpt lat="44.18352" lon="3.0881">
        <ele>531</ele>
        <time>2010-01-01T01:52:30Z</time>
      </trkpt>
      <trkpt lat="44.18363" lon="3.08816">
        <ele>531</ele>
        <time>2010-01-01T01:52:34Z</time>
      </trkpt>
      <trkpt lat="44.18373" lon="3.0882">
        <ele>531</ele>
        <time>2010-01-01T01:52:38Z</time>
      </trkpt>
      <trkpt lat="44.18384" lon="3.08823">
        <ele>532</ele>
        <time>2010-01-01T01:52:43Z</time>
      </trkpt>
      <trkpt lat="44.18394" lon="3.08824">
        <ele>532</ele>
        <time>2010-01-01T01:52:47Z</time>
      </trkpt>
      <trkpt lat="44.18405" lon="3.08825">
        <ele>533</ele>
        <time>2010-01-01T01:52:51Z</time>
      </trkpt>
      <trkpt lat="44.18416" lon="3.08827">
        <ele>533</ele>
        <time>2010-01-01T01:52:56Z</time>
      </trkpt>
      <trkpt lat="44.18425" lon="3.08832">
        <ele>534</ele>
        <time>2010-01-01T01:53:00Z</time>
      </trkpt>
      <trkpt lat="44.18432" lon="3.08842">
        <ele>533</ele>
        <time>2010-01-01T01:53:03Z</time>
      </trkpt>
      <trkpt lat="44.18437" lon="3.08852">
        <ele>533</ele>
        <time>2010-01-01T01:53:07Z</time>
      </trkpt>
      <trkpt lat="44.18441" lon="3.08862">
        <ele>533</ele>
        <time>2010-01-01T01:53:10Z</time>
      </trkpt>
      <trkpt lat="44.18445" lon="3.08869">
        <ele>533</ele>
        <time>2010-01-01T01:53:13Z</time>
      </trkpt>
      <trkpt lat="44.18449" lon="3.08873">
        <ele>533</ele>
        <time>2010-01-01T01:53:15Z</time>
      </trkpt>
      <trkpt lat="44.18453" lon="3.08878">
        <ele>533</ele>
        <time>2010-01-01T01:53:17Z</time>
      </trkpt>
      <trkpt lat="44.18458" lon="3.08882">
        <ele>533</ele>
        <time>2010-01-01T01:53:19Z</time>
      </trkpt>
      <trkpt lat="44.18465" lon="3.08886">
        <ele>533</ele>
        <time>2010-01-01T01:53:22Z</time>
      </trkpt>
      <trkpt lat="44.18471" lon="3.0889">
        <ele>533</ele>
        <time>2010-01-01T01:53:25Z</time>
      </trkpt>
      <trkpt lat="44.18478" lon="3.08893">
        <ele>534</ele>
        <time>2010-01-01T01:53:28Z</time>
      </trkpt>
      <trkpt lat="44.18486" lon="3.08896">
        <ele>534</ele>
        <time>2010-01-01T01:53:31Z</time>
      </trkpt>
      <trkpt lat="44.18495" lon="3.08899">
        <ele>534</ele>
        <time>2010-01-01T01:53:35Z</time>
      </trkpt>
      <trkpt lat="44.18504" lon="3.08901">
        <ele>535</ele>
        <time>2010-01-01T01:53:38Z</time>
      </trkpt>
      <trkpt lat="44.18513" lon="3.08904">
        <ele>535</ele>
        <time>2010-01-01T01:53:42Z</time>
      </trkpt>
      <trkpt lat="44.18522" lon="3.08907">
        <ele>535</ele>
        <time>2010-01-01T01:53:46Z</time>
      </trkpt>
      <trkpt lat="44.18532" lon="3.08911">
        <ele>535</ele>
        <time>2010-01-01T01:53:50Z</time>
      </trkpt>
      <trkpt lat="44.18542" lon="3.08914">
        <ele>535</ele>
        <time>2010-01-01T01:53:54Z</time>
      </trkpt>
      <trkpt lat="44.18552" lon="3.08917">
        <ele>534</ele>
        <time>2010-01-01T01:53:58Z</time>
      </trkpt>
      <trkpt lat="44.18563" lon="3.0892">
        <ele>535</ele>
        <time>2010-01-01T01:54:03Z</time>
      </trkpt>
      <trkpt lat="44.18573" lon="3.08924">
        <ele>535</ele>
        <time>2010-01-01T01:54:07Z</time>
      </trkpt>
      <trkpt lat="44.18581" lon="3.08931">
        <ele>535</ele>
        <time>2010-01-01T01:54:11Z</time>
      </trkpt>
      <trkpt lat="44.18588" lon="3.08941">
        <ele>536</ele>
        <time>2010-01-01T01:54:15Z</time>
      </trkpt>
      <trkpt lat="44.18592" lon="3.08953">
        <ele>536</ele>
        <time>2010-01-01T01:54:19Z</time>
      </trkpt>
      <trkpt lat="44.18596" lon="3.08966">
        <ele>537</ele>
        <time>2010-01-01T01:54:23Z</time>
      </trkpt>
      <trkpt lat="44.18599" lon="3.0898">
        <ele>538</ele>
        <time>2010-01-01T01:54:27Z</time>
      </trkpt>
      <trkpt lat="44.18602" lon="3.08995">
        <ele>538</ele>
        <time>2010-01-01T01:54:31Z</time>
      </trkpt>
      <trkpt lat="44.18605" lon="3.09009">
        <ele>539</ele>
        <time>2010-01-01T01:54:35Z</time>
      </trkpt>
      <trkpt lat="44.18609" lon="3.09022">
        <ele>539</ele>
        <time>2010-01-01T01:54:40Z</time>
      </trkpt>
      <trkpt lat="44.18613" lon="3.09035">
        <ele>539</ele>
        <time>2010-01-01T01:54:44Z</time>
      </trkpt>
      <trkpt lat="44.18614" lon="3.09047">
        <ele>539</ele>
        <time>2010-01-01T01:54:47Z</time>
      </trkpt>
      <trkpt lat="44.18608" lon="3.09053">
        <ele>539</ele>
        <time>2010-01-01T01:54:50Z</time>
      </trkpt>
      <trkpt lat="44.18603" lon="3.09052">
        <ele>539</ele>
        <time>2010-01-01T01:54:52Z</time>
      </trkpt>
      <trkpt lat="44.18597" lon="3.09049">
        <ele>539</ele>
        <time>2010-01-01T01:54:55Z</time>
      </trkpt>
      <trkpt lat="44.18592" lon="3.09043">
        <ele>538</ele>
        <time>2010-01-01T01:54:57Z</time>
      </trkpt>
      <trkpt lat="44.18588" lon="3.09036">
        <ele>538</ele>
        <time>2010-01-01T01:55:00Z</time>
      </trkpt>
      <trkpt lat="44.18585" lon="3.09024">
        <ele>537</ele>
        <time>2010-01-01T01:55:03Z</time>
      </trkpt>
      <trkpt lat="44.18582" lon="3.09011">
        <ele>536</ele>
        <time>2010-01-01T01:55:07Z</time>
      </trkpt>
      <trkpt lat="44.18577" lon="3.08999">
        <ele>535</ele>
        <time>2010-01-01T01:55:11Z</time>
      </trkpt>
      <trkpt lat="44.1857" lon="3.0899">
        <ele>533</ele>
        <time>2010-01-01T01:55:15Z</time>
      </trkpt>
      <trkpt lat="44.18561" lon="3.08986">
        <ele>531</ele>
        <time>2010-01-01T01:55:19Z</time>
      </trkpt>
      <trkpt lat="44.18553" lon="3.08986">
        <ele>531</ele>
        <time>2010-01-01T01:55:22Z</time>
      </trkpt>
      <trkpt lat="44.18545" lon="3.08989">
        <ele>531</ele>
        <time>2010-01-01T01:55:25Z</time>
      </trkpt>
      <trkpt lat="44.18537" lon="3.08993">
        <ele>532</ele>
        <time>2010-01-01T01:55:29Z</time>
      </trkpt>
      <trkpt lat="44.18529" lon="3.08996">
        <ele>533</ele>
        <time>2010-01-01T01:55:32Z</time>
      </trkpt>
      <trkpt lat="44.18521" lon="3.08999">
        <ele>533</ele>
        <time>2010-01-01T01:55:35Z</time>
      </trkpt>
      <trkpt lat="44.18512" lon="3.09001">
        <ele>534</ele>
        <time>2010-01-01T01:55:39Z</time>
      </trkpt>
      <trkpt lat="44.18503" lon="3.09003">
        <ele>534</ele>
        <time>2010-01-01T01:55:43Z</time>
      </trkpt>
      <trkpt lat="44.18493" lon="3.09005">
        <ele>534</ele>
        <time>2010-01-01T01:55:47Z</time>
      </trkpt>
      <trkpt lat="44.18483" lon="3.09008">
        <ele>533</ele>
        <time>2010-01-01T01:55:51Z</time>
      </trkpt>
      <trkpt lat="44.18473" lon="3.09011">
        <ele>533</ele>
        <time>2010-01-01T01:55:55Z</time>
      </trkpt>
      <trkpt lat="44.18462" lon="3.09012">
        <ele>532</ele>
        <time>2010-01-01T01:55:59Z</time>
      </trkpt>
      <trkpt lat="44.1845" lon="3.09013">
        <ele>532</ele>
        <time>2010-01-01T01:56:04Z</time>
      </trkpt>
      <trkpt lat="44.18438" lon="3.09013">
        <ele>531</ele>
        <time>2010-01-01T01:56:09Z</time>
      </trkpt>
      <trkpt lat="44.18425" lon="3.09012">
        <ele>530</ele>
        <time>2010-01-01T01:56:14Z</time>
      </trkpt>
      <trkpt lat="44.18413" lon="3.09015">
        <ele>530</ele>
        <time>2010-01-01T01:56:19Z</time>
      </trkpt>
      <trkpt lat="44.18404" lon="3.09026">
        <ele>530</ele>
        <time>2010-01-01T01:56:24Z</time>
      </trkpt>
      <trkpt lat="44.18396" lon="3.09041">
        <ele>531</ele>
        <time>2010-01-01T01:56:29Z</time>
      </trkpt>
      <trkpt lat="44.18385" lon="3.0905">
        <ele>532</ele>
        <time>2010-01-01T01:56:34Z</time>
      </trkpt>
      <trkpt lat="44.18374" lon="3.09046">
        <ele>532</ele>
        <time>2010-01-01T01:56:39Z</time>
      </trkpt>
      <trkpt lat="44.18366" lon="3.09037">
        <ele>530</ele>
        <time>2010-01-01T01:56:43Z</time>
      </trkpt>
      <trkpt lat="44.18359" lon="3.09028">
        <ele>529</ele>
        <time>2010-01-01T01:56:47Z</time>
      </trkpt>
      <trkpt lat="44.1835" lon="3.09021">
        <ele>529</ele>
        <time>2010-01-01T01:56:51Z</time>
      </trkpt>
      <trkpt lat="44.18342" lon="3.09015">
        <ele>529</ele>
        <time>2010-01-01T01:56:55Z</time>
      </trkpt>
      <trkpt lat="44.18333" lon="3.09011">
        <ele>529</ele>
        <time>2010-01-01T01:56:58Z</time>
      </trkpt>
      <trkpt lat="44.18325" lon="3.09008">
        <ele>529</ele>
        <time>2010-01-01T01:57:02Z</time>
      </trkpt>
      <trkpt lat="44.18316" lon="3.09005">
        <ele>528</ele>
        <time>2010-01-01T01:57:05Z</time>
      </trkpt>
      <trkpt lat="44.18307" lon="3.09003">
        <ele>528</ele>
        <time>2010-01-01T01:57:09Z</time>
      </trkpt>
      <trkpt lat="44.18298" lon="3.09">
        <ele>527</ele>
        <time>2010-01-01T01:57:13Z</time>
      </trkpt>
      <trkpt lat="44.18288" lon="3.08998">
        <ele>526</ele>
        <time>2010-01-01T01:57:16Z</time>
      </trkpt>
      <trkpt lat="44.1828" lon="3.08996">
        <ele>525</ele>
        <time>2010-01-01T01:57:20Z</time>
      </trkpt>
      <trkpt lat="44.18272" lon="3.08995">
        <ele>522</ele>
        <time>2010-01-01T01:57:23Z</time>
      </trkpt>
      <trkpt lat="44.18263" lon="3.08996">
        <ele>520</ele>
        <time>2010-01-01T01:57:27Z</time>
      </trkpt>
      <trkpt lat="44.18254" lon="3.09003">
        <ele>520</ele>
        <time>2010-01-01T01:57:31Z</time>
      </trkpt>
      <trkpt lat="44.18247" lon="3.09016">
        <ele>521</ele>
        <time>2010-01-01T01:57:35Z</time>
      </trkpt>
      <trkpt lat="44.18241" lon="3.09032">
        <ele>523</ele>
        <time>2010-01-01T01:57:41Z</time>
      </trkpt>
      <trkpt lat="44.18236" lon="3.0905">
        <ele>523</ele>
        <time>2010-01-01T01:57:46Z</time>
      </trkpt>
      <trkpt lat="44.18229" lon="3.0907">
        <ele>522</ele>
        <time>2010-01-01T01:57:53Z</time>
      </trkpt>
      <trkpt lat="44.18224" lon="3.09091">
        <ele>521</ele>
        <time>2010-01-01T01:57:59Z</time>
      </trkpt>
      <trkpt lat="44.18221" lon="3.09111">
        <ele>521</ele>
        <time>2010-01-01T01:58:05Z</time>
      </trkpt>
      <trkpt lat="44.18223" lon="3.09107">
        <ele>521</ele>
        <time>2010-01-01T01:58:06Z</time>
      </trkpt>
      <trkpt lat="44.18224" lon="3.09103">
        <ele>522</ele>
        <time>2010-01-01T01:58:07Z</time>
      </trkpt>
      <trkpt lat="44.18226" lon="3.091">
        <ele>523</ele>
        <time>2010-01-01T01:58:09Z</time>
      </trkpt>
      <trkpt lat="44.18228" lon="3.09097">
        <ele>524</ele>
        <time>2010-01-01T01:58:10Z</time>
      </trkpt>
      <trkpt lat="44.1823" lon="3.09094">
        <ele>524</ele>
        <time>2010-01-01T01:58:11Z</time>
      </trkpt>
      <trkpt lat="44.18232" lon="3.09091">
        <ele>525</ele>
        <time>2010-01-01T01:58:12Z</time>
      </trkpt>
      <trkpt lat="44.18233" lon="3.09088">
        <ele>525</ele>
        <time>2010-01-01T01:58:13Z</time>
      </trkpt>
      <trkpt lat="44.18234" lon="3.09085">
        <ele>526</ele>
        <time>2010-01-01T01:58:14Z</time>
      </trkpt>
      <trkpt lat="44.18236" lon="3.09082">
        <ele>526</ele>
        <time>2010-01-01T01:58:15Z</time>
      </trkpt>
      <trkpt lat="44.18237" lon="3.09079">
        <ele>527</ele>
        <time>2010-01-01T01:58:16Z</time>
      </trkpt>
      <trkpt lat="44.18239" lon="3.09076">
        <ele>527</ele>
        <time>2010-01-01T01:58:17Z</time>
      </trkpt>
      <trkpt lat="44.18241" lon="3.09074">
        <ele>528</ele>
        <time>2010-01-01T01:58:18Z</time>
      </trkpt>
      <trkpt lat="44.18243" lon="3.09071">
        <ele>528</ele>
        <time>2010-01-01T01:58:19Z</time>
      </trkpt>
      <trkpt lat="44.18244" lon="3.09068">
        <ele>529</ele>
        <time>2010-01-01T01:58:20Z</time>
      </trkpt>
      <trkpt lat="44.18245" lon="3.09066">
        <ele>529</ele>
        <time>2010-01-01T01:58:21Z</time>
      </trkpt>
      <trkpt lat="44.18247" lon="3.09063">
        <ele>530</ele>
        <time>2010-01-01T01:58:22Z</time>
      </trkpt>
      <trkpt lat="44.18249" lon="3.09061">
        <ele>530</ele>
        <time>2010-01-01T01:58:23Z</time>
      </trkpt>
      <trkpt lat="44.18251" lon="3.09059">
        <ele>531</ele>
        <time>2010-01-01T01:58:24Z</time>
      </trkpt>
      <trkpt lat="44.18253" lon="3.09057">
        <ele>531</ele>
        <time>2010-01-01T01:58:25Z</time>
      </trkpt>
      <trkpt lat="44.18255" lon="3.09056">
        <ele>532</ele>
        <time>2010-01-01T01:58:26Z</time>
      </trkpt>
      <trkpt lat="44.18257" lon="3.09054">
        <ele>532</ele>
        <time>2010-01-01T01:58:27Z</time>
      </trkpt>
      <trkpt lat="44.18258" lon="3.09053">
        <ele>532</ele>
        <time>2010-01-01T01:58:28Z</time>
      </trkpt>
      <trkpt lat="44.1826" lon="3.09051">
        <ele>533</ele>
        <time>2010-01-01T01:58:29Z</time>
      </trkpt>
      <trkpt lat="44.18262" lon="3.09049">
        <ele>533</ele>
        <time>2010-01-01T01:58:29Z</time>
      </trkpt>
      <trkpt lat="44.18264" lon="3.09047">
        <ele>533</ele>
        <time>2010-01-01T01:58:30Z</time>
      </trkpt>
      <trkpt lat="44.18266" lon="3.09046">
        <ele>533</ele>
        <time>2010-01-01T01:58:31Z</time>
      </trkpt>
      <trkpt lat="44.18267" lon="3.09045">
        <ele>534</ele>
        <time>2010-01-01T01:58:32Z</time>
      </trkpt>
      <trkpt lat="44.18269" lon="3.09044">
        <ele>534</ele>
        <time>2010-01-01T01:58:33Z</time>
      </trkpt>
      <trkpt lat="44.18271" lon="3.09042">
        <ele>534</ele>
        <time>2010-01-01T01:58:34Z</time>
      </trkpt>
      <trkpt lat="44.18272" lon="3.09039">
        <ele>534</ele>
        <time>2010-01-01T01:58:35Z</time>
      </trkpt>
      <trkpt lat="44.18274" lon="3.09038">
        <ele>534</ele>
        <time>2010-01-01T01:58:35Z</time>
      </trkpt>
      <trkpt lat="44.18276" lon="3.09038">
        <ele>535</ele>
        <time>2010-01-01T01:58:36Z</time>
      </trkpt>
      <trkpt lat="44.18279" lon="3.09038">
        <ele>535</ele>
        <time>2010-01-01T01:58:37Z</time>
      </trkpt>
      <trkpt lat="44.18281" lon="3.09039">
        <ele>536</ele>
        <time>2010-01-01T01:58:38Z</time>
      </trkpt>
      <trkpt lat="44.18283" lon="3.0904">
        <ele>537</ele>
        <time>2010-01-01T01:58:39Z</time>
      </trkpt>
      <trkpt lat="44.18286" lon="3.09042">
        <ele>538</ele>
        <time>2010-01-01T01:58:40Z</time>
      </trkpt>
      <trkpt lat="44.18288" lon="3.09044">
        <ele>538</ele>
        <time>2010-01-01T01:58:41Z</time>
      </trkpt>
      <trkpt lat="44.18289" lon="3.09047">
        <ele>539</ele>
        <time>2010-01-01T01:58:42Z</time>
      </trkpt>
      <trkpt lat="44.1829" lon="3.09049">
        <ele>540</ele>
        <time>2010-01-01T01:58:43Z</time>
      </trkpt>
      <trkpt lat="44.18291" lon="3.09052">
        <ele>541</ele>
        <time>2010-01-01T01:58:44Z</time>
      </trkpt>
      <trkpt lat="44.18292" lon="3.09055">
        <ele>541</ele>
        <time>2010-01-01T01:58:45Z</time>
      </trkpt>
      <trkpt lat="44.18293" lon="3.09058">
        <ele>542</ele>
        <time>2010-01-01T01:58:46Z</time>
      </trkpt>
      <trkpt lat="44.18294" lon="3.09061">
        <ele>543</ele>
        <time>2010-01-01T01:58:47Z</time>
      </trkpt>
      <trkpt lat="44.18294" lon="3.09064">
        <ele>544</ele>
        <time>2010-01-01T01:58:48Z</time>
      </trkpt>
      <trkpt lat="44.18294" lon="3.09068">
        <ele>544</ele>
        <time>2010-01-01T01:58:49Z</time>
      </trkpt>
      <trkpt lat="44.18294" lon="3.09071">
        <ele>545</ele>
        <time>2010-01-01T01:58:49Z</time>
      </trkpt>
      <trkpt lat="44.18294" lon="3.09074">
        <ele>545</ele>
        <time>2010-01-01T01:58:50Z</time>
      </trkpt>
      <trkpt lat="44.18294" lon="3.09077">
        <ele>546</ele>
        <time>2010-01-01T01:58:51Z</time>
      </trkpt>
      <trkpt lat="44.18293" lon="3.09081">
        <ele>546</ele>
        <time>2010-01-01T01:58:52Z</time>
      </trkpt>
      <trkpt lat="44.18293" lon="3.09084">
        <ele>547</ele>
        <time>2010-01-01T01:58:53Z</time>
      </trkpt>
      <trkpt lat="44.18293" lon="3.09087">
        <ele>547</ele>
        <time>2010-01-01T01:58:54Z</time>
      </trkpt>
      <trkpt lat="44.18293" lon="3.0909">
        <ele>548</ele>
        <time>2010-01-01T01:58:55Z</time>
      </trkpt>
      <trkpt lat="44.18294" lon="3.09094">
        <ele>548</ele>
        <time>2010-01-01T01:58:56Z</time>
      </trkpt>
      <trkpt lat="44.18294" lon="3.09097">
        <ele>548</ele>
        <time>2010-01-01T01:58:57Z</time>
      </trkpt>
      <trkpt lat="44.18294" lon="3.09101">
        <ele>549</ele>
        <time>2010-01-01T01:58:58Z</time>
      </trkpt>
      <trkpt lat="44.18294" lon="3.09104">
        <ele>549</ele>
        <time>2010-01-01T01:58:59Z</time>
      </trkpt>
      <trkpt lat="44.18294" lon="3.09108">
        <ele>549</ele>
        <time>2010-01-01T01:59:00Z</time>
      </trkpt>
      <trkpt lat="44.18294" lon="3.09111">
        <ele>549</ele>
        <time>2010-01-01T01:59:01Z</time>
      </trkpt>
      <trkpt lat="44.18294" lon="3.09114">
        <ele>550</ele>
        <time>2010-01-01T01:59:02Z</time>
      </trkpt>
      <trkpt lat="44.18294" lon="3.09118">
        <ele>550</ele>
        <time>2010-01-01T01:59:03Z</time>
      </trkpt>
      <trkpt lat="44.18294" lon="3.09121">
        <ele>550</ele>
        <time>2010-01-01T01:59:04Z</time>
      </trkpt>
      <trkpt lat="44.18295" lon="3.09124">
        <ele>550</ele>
        <time>2010-01-01T01:59:05Z</time>
      </trkpt>
      <trkpt lat="44.18295" lon="3.09127">
        <ele>550</ele>
        <time>2010-01-01T01:59:06Z</time>
      </trkpt>
      <trkpt lat="44.18296" lon="3.0913">
        <ele>551</ele>
        <time>2010-01-01T01:59:07Z</time>
      </trkpt>
      <trkpt lat="44.18297" lon="3.09134">
        <ele>551</ele>
        <time>2010-01-01T01:59:08Z</time>
      </trkpt>
      <trkpt lat="44.18297" lon="3.09137">
        <ele>551</ele>
        <time>2010-01-01T01:59:09Z</time>
      </trkpt>
      <trkpt lat="44.18298" lon="3.09141">
        <ele>551</ele>
        <time>2010-01-01T01:59:10Z</time>
      </trkpt>
      <trkpt lat="44.18298" lon="3.09144">
        <ele>552</ele>
        <time>2010-01-01T01:59:11Z</time>
      </trkpt>
      <trkpt lat="44.18299" lon="3.09147">
        <ele>552</ele>
        <time>2010-01-01T01:59:12Z</time>
      </trkpt>
      <trkpt lat="44.183" lon="3.0915">
        <ele>552</ele>
        <time>2010-01-01T01:59:13Z</time>
      </trkpt>
      <trkpt lat="44.183" lon="3.09154">
        <ele>552</ele>
        <time>2010-01-01T01:59:14Z</time>
      </trkpt>
      <trkpt lat="44.18301" lon="3.09158">
        <ele>552</ele>
        <time>2010-01-01T01:59:15Z</time>
      </trkpt>
      <trkpt lat="44.18302" lon="3.09162">
        <ele>552</ele>
        <time>2010-01-01T01:59:16Z</time>
      </trkpt>
      <trkpt lat="44.18303" lon="3.09166">
        <ele>552</ele>
        <time>2010-01-01T01:59:17Z</time>
      </trkpt>
      <trkpt lat="44.18304" lon="3.0917">
        <ele>552</ele>
        <time>2010-01-01T01:59:19Z</time>
      </trkpt>
      <trkpt lat="44.18305" lon="3.09174">
        <ele>552</ele>
        <time>2010-01-01T01:59:20Z</time>
      </trkpt>
      <trkpt lat="44.18306" lon="3.09178">
        <ele>553</ele>
        <time>2010-01-01T01:59:21Z</time>
      </trkpt>
      <trkpt lat="44.18307" lon="3.09182">
        <ele>553</ele>
        <time>2010-01-01T01:59:22Z</time>
      </trkpt>
      <trkpt lat="44.18308" lon="3.09186">
        <ele>553</ele>
        <time>2010-01-01T01:59:24Z</time>
      </trkpt>
      <trkpt lat="44.18309" lon="3.0919">
        <ele>553</ele>
        <time>2010-01-01T01:59:25Z</time>
      </trkpt>
      <trkpt lat="44.18311" lon="3.09194">
        <ele>553</ele>
        <time>2010-01-01T01:59:26Z</time>
      </trkpt>
      <trkpt lat="44.18312" lon="3.09198">
        <ele>554</ele>
        <time>2010-01-01T01:59:27Z</time>
      </trkpt>
      <trkpt lat="44.18314" lon="3.09202">
        <ele>554</ele>
        <time>2010-01-01T01:59:29Z</time>
      </trkpt>
      <trkpt lat="44.18315" lon="3.09206">
        <ele>555</ele>
        <time>2010-01-01T01:59:30Z</time>
      </trkpt>
      <trkpt lat="44.18317" lon="3.0921">
        <ele>555</ele>
        <time>2010-01-01T01:59:31Z</time>
      </trkpt>
      <trkpt lat="44.18319" lon="3.09214">
        <ele>556</ele>
        <time>2010-01-01T01:59:33Z</time>
      </trkpt>
      <trkpt lat="44.18321" lon="3.09218">
        <ele>557</ele>
        <time>2010-01-01T01:59:34Z</time>
      </trkpt>
      <trkpt lat="44.18323" lon="3.09223">
        <ele>558</ele>
        <time>2010-01-01T01:59:36Z</time>
      </trkpt>
      <trkpt lat="44.18326" lon="3.09227">
        <ele>558</ele>
        <time>2010-01-01T01:59:37Z</time>
      </trkpt>
      <trkpt lat="44.18328" lon="3.09231">
        <ele>559</ele>
        <time>2010-01-01T01:59:39Z</time>
      </trkpt>
      <trkpt lat="44.18329" lon="3.09235">
        <ele>560</ele>
        <time>2010-01-01T01:59:40Z</time>
      </trkpt>
      <trkpt lat="44.18331" lon="3.09239">
        <ele>560</ele>
        <time>2010-01-01T01:59:41Z</time>
      </trkpt>
      <trkpt lat="44.18334" lon="3.09243">
        <ele>561</ele>
        <time>2010-01-01T01:59:43Z</time>
      </trkpt>
      <trkpt lat="44.18336" lon="3.09246">
        <ele>562</ele>
        <time>2010-01-01T01:59:44Z</time>
      </trkpt>
      <trkpt lat="44.18339" lon="3.09251">
        <ele>563</ele>
        <time>2010-01-01T01:59:46Z</time>
      </trkpt>
      <trkpt lat="44.18341" lon="3.09255">
        <ele>564</ele>
        <time>2010-01-01T01:59:47Z</time>
      </trkpt>
      <trkpt lat="44.18343" lon="3.0926">
        <ele>564</ele>
        <time>2010-01-01T01:59:49Z</time>
      </trkpt>
      <trkpt lat="44.18345" lon="3.09264">
        <ele>565</ele>
        <time>2010-01-01T01:59:50Z</time>
      </trkpt>
      <trkpt lat="44.18347" lon="3.09268">
        <ele>566</ele>
        <time>2010-01-01T01:59:52Z</time>
      </trkpt>
      <trkpt lat="44.18349" lon="3.09272">
        <ele>567</ele>
        <time>2010-01-01T01:59:53Z</time>
      </trkpt>
      <trkpt lat="44.18351" lon="3.09276">
        <ele>568</ele>
        <time>2010-01-01T01:59:55Z</time>
      </trkpt>
      <trkpt lat="44.18353" lon="3.09281">
        <ele>569</ele>
        <time>2010-01-01T01:59:56Z</time>
      </trkpt>
      <trkpt lat="44.18354" lon="3.09286">
        <ele>569</ele>
        <time>2010-01-01T01:59:58Z</time>
      </trkpt>
      <trkpt lat="44.18355" lon="3.09291">
        <ele>570</ele>
        <time>2010-01-01T01:59:59Z</time>
      </trkpt>
      <trkpt lat="44.18355" lon="3.09296">
        <ele>571</ele>
        <time>2010-01-01T02:00:01Z</time>
      </trkpt>
      <trkpt lat="44.18355" lon="3.09301">
        <ele>571</ele>
        <time>2010-01-01T02:00:02Z</time>
      </trkpt>
      <trkpt lat="44.18355" lon="3.09306">
        <ele>572</ele>
        <time>2010-01-01T02:00:03Z</time>
      </trkpt>
      <trkpt lat="44.18354" lon="3.09311">
        <ele>572</ele>
        <time>2010-01-01T02:00:05Z</time>
      </trkpt>
      <trkpt lat="44.18353" lon="3.09317">
        <ele>572</ele>
        <time>2010-01-01T02:00:07Z</time>
      </trkpt>
      <trkpt lat="44.18351" lon="3.09322">
        <ele>572</ele>
        <time>2010-01-01T02:00:08Z</time>
      </trkpt>
      <trkpt lat="44.1835" lon="3.09326">
        <ele>572</ele>
        <time>2010-01-01T02:00:10Z</time>
      </trkpt>
      <trkpt lat="44.18349" lon="3.09331">
        <ele>573</ele>
        <time>2010-01-01T02:00:11Z</time>
      </trkpt>
      <trkpt lat="44.18348" lon="3.09336">
        <ele>573</ele>
        <time>2010-01-01T02:00:13Z</time>
      </trkpt>
      <trkpt lat="44.18346" lon="3.09341">
        <ele>573</ele>
        <time>2010-01-01T02:00:14Z</time>
      </trkpt>
      <trkpt lat="44.18345" lon="3.09345">
        <ele>573</ele>
        <time>2010-01-01T02:00:15Z</time>
      </trkpt>
      <trkpt lat="44.18344" lon="3.0935">
        <ele>573</ele>
        <time>2010-01-01T02:00:17Z</time>
      </trkpt>
      <trkpt lat="44.18343" lon="3.09355">
        <ele>573</ele>
        <time>2010-01-01T02:00:18Z</time>
      </trkpt>
      <trkpt lat="44.18342" lon="3.09359">
        <ele>574</ele>
        <time>2010-01-01T02:00:20Z</time>
      </trkpt>
      <trkpt lat="44.18341" lon="3.09364">
        <ele>574</ele>
        <time>2010-01-01T02:00:21Z</time>
      </trkpt>
      <trkpt lat="44.18339" lon="3.09369">
        <ele>574</ele>
        <time>2010-01-01T02:00:23Z</time>
      </trkpt>
      <trkpt lat="44.18338" lon="3.09374">
        <ele>575</ele>
        <time>2010-01-01T02:00:24Z</time>
      </trkpt>
      <trkpt lat="44.18337" lon="3.09379">
        <ele>576</ele>
        <time>2010-01-01T02:00:26Z</time>
      </trkpt>
      <trkpt lat="44.18336" lon="3.09384">
        <ele>576</ele>
        <time>2010-01-01T02:00:27Z</time>
      </trkpt>
      <trkpt lat="44.18335" lon="3.0939">
        <ele>577</ele>
        <time>2010-01-01T02:00:29Z</time>
      </trkpt>
      <trkpt lat="44.18333" lon="3.09396">
        <ele>578</ele>
        <time>2010-01-01T02:00:31Z</time>
      </trkpt>
      <trkpt lat="44.18332" lon="3.09401">
        <ele>579</ele>
        <time>2010-01-01T02:00:32Z</time>
      </trkpt>
      <trkpt lat="44.18331" lon="3.09407">
        <ele>579</ele>
        <time>2010-01-01T02:00:34Z</time>
      </trkpt>
      <trkpt lat="44.18329" lon="3.09413">
        <ele>580</ele>
        <time>2010-01-01T02:00:36Z</time>
      </trkpt>
      <trkpt lat="44.18327" lon="3.0942">
        <ele>581</ele>
        <time>2010-01-01T02:00:38Z</time>
      </trkpt>
      <trkpt lat="44.18325" lon="3.09426">
        <ele>581</ele>
        <time>2010-01-01T02:00:40Z</time>
      </trkpt>
      <trkpt lat="44.18323" lon="3.09432">
        <ele>581</ele>
        <time>2010-01-01T02:00:42Z</time>
      </trkpt>
      <trkpt lat="44.1832" lon="3.09438">
        <ele>581</ele>
        <time>2010-01-01T02:00:44Z</time>
      </trkpt>
      <trkpt lat="44.18317" lon="3.09444">
        <ele>581</ele>
        <time>2010-01-01T02:00:46Z</time>
      </trkpt>
      <trkpt lat="44.18315" lon="3.09449">
        <ele>581</ele>
        <time>2010-01-01T02:00:48Z</time>
      </trkpt>
      <trkpt lat="44.18312" lon="3.09455">
        <ele>582</ele>
        <time>2010-01-01T02:00:50Z</time>
      </trkpt>
      <trkpt lat="44.18308" lon="3.09459">
        <ele>582</ele>
        <time>2010-01-01T02:00:52Z</time>
      </trkpt>
      <trkpt lat="44.18305" lon="3.09464">
        <ele>582</ele>
        <time>2010-01-01T02:00:54Z</time>
      </trkpt>
      <trkpt lat="44.18302" lon="3.09468">
        <ele>581</ele>
        <time>2010-01-01T02:00:55Z</time>
      </trkpt>
      <trkpt lat="44.18298" lon="3.09473">
        <ele>581</ele>
        <time>2010-01-01T02:00:57Z</time>
      </trkpt>
      <trkpt lat="44.18294" lon="3.09477">
        <ele>580</ele>
        <time>2010-01-01T02:00:59Z</time>
      </trkpt>
      <trkpt lat="44.1829" lon="3.09482">
        <ele>580</ele>
        <time>2010-01-01T02:01:02Z</time>
      </trkpt>
      <trkpt lat="44.18285" lon="3.09487">
        <ele>580</ele>
        <time>2010-01-01T02:01:04Z</time>
      </trkpt>
      <trkpt lat="44.18282" lon="3.09493">
        <ele>580</ele>
        <time>2010-01-01T02:01:06Z</time>
      </trkpt>
      <trkpt lat="44.18278" lon="3.09498">
        <ele>580</ele>
        <time>2010-01-01T02:01:08Z</time>
      </trkpt>
      <trkpt lat="44.18274" lon="3.09504">
        <ele>580</ele>
        <time>2010-01-01T02:01:11Z</time>
      </trkpt>
      <trkpt lat="44.18272" lon="3.09511">
        <ele>579</ele>
        <time>2010-01-01T02:01:13Z</time>
      </trkpt>
      <trkpt lat="44.1827" lon="3.09517">
        <ele>579</ele>
        <time>2010-01-01T02:01:15Z</time>
      </trkpt>
      <trkpt lat="44.18269" lon="3.09525">
        <ele>580</ele>
        <time>2010-01-01T02:01:17Z</time>
      </trkpt>
      <trkpt lat="44.18268" lon="3.09532">
        <ele>580</ele>
        <time>2010-01-01T02:01:19Z</time>
      </trkpt>
      <trkpt lat="44.18269" lon="3.0954">
        <ele>580</ele>
        <time>2010-01-01T02:01:21Z</time>
      </trkpt>
      <trkpt lat="44.1827" lon="3.09548">
        <ele>581</ele>
        <time>2010-01-01T02:01:24Z</time>
      </trkpt>
      <trkpt lat="44.18271" lon="3.09557">
        <ele>582</ele>
        <time>2010-01-01T02:01:26Z</time>
      </trkpt>
      <trkpt lat="44.18273" lon="3.09567">
        <ele>583</ele>
        <time>2010-01-01T02:01:29Z</time>
      </trkpt>
      <trkpt lat="44.18275" lon="3.0958">
        <ele>583</ele>
        <time>2010-01-01T02:01:33Z</time>
      </trkpt>
      <trkpt lat="44.18279" lon="3.09597">
        <ele>583</ele>
        <time>2010-01-01T02:01:38Z</time>
      </trkpt>
      <trkpt lat="44.18282" lon="3.09615">
        <ele>582</ele>
        <time>2010-01-01T02:01:43Z</time>
      </trkpt>
      <trkpt lat="44.18284" lon="3.0963">
        <ele>580</ele>
        <time>2010-01-01T02:01:48Z</time>
      </trkpt>
      <trkpt lat="44.18285" lon="3.09644">
        <ele>579</ele>
        <time>2010-01-01T02:01:52Z</time>
      </trkpt>
      <trkpt lat="44.18285" lon="3.09657">
        <ele>579</ele>
        <time>2010-01-01T02:01:56Z</time>
      </trkpt>
      <trkpt lat="44.18286" lon="3.09669">
        <ele>578</ele>
        <time>2010-01-01T02:01:59Z</time>
      </trkpt>
      <trkpt lat="44.18287" lon="3.09676">
        <ele>578</ele>
        <time>2010-01-01T02:02:01Z</time>
      </trkpt>
      <trkpt lat="44.18288" lon="3.09683">
        <ele>578</ele>
        <time>2010-01-01T02:02:03Z</time>
      </trkpt>
      <trkpt lat="44.1829" lon="3.09691">
        <ele>578</ele>
        <time>2010-01-01T02:02:05Z</time>
      </trkpt>
      <trkpt lat="44.18291" lon="3.09699">
        <ele>579</ele>
        <time>2010-01-01T02:02:08Z</time>
      </trkpt>
      <trkpt lat="44.18292" lon="3.09708">
        <ele>579</ele>
        <time>2010-01-01T02:02:11Z</time>
      </trkpt>
      <trkpt lat="44.18292" lon="3.09717">
        <ele>579</ele>
        <time>2010-01-01T02:02:13Z</time>
      </trkpt>
      <trkpt lat="44.18289" lon="3.09726">
        <ele>578</ele>
        <time>2010-01-01T02:02:16Z</time>
      </trkpt>
      <trkpt lat="44.18285" lon="3.09733">
        <ele>578</ele>
        <time>2010-01-01T02:02:19Z</time>
      </trkpt>
      <trkpt lat="44.18279" lon="3.09741">
        <ele>578</ele>
        <time>2010-01-01T02:02:22Z</time>
      </trkpt>
      <trkpt lat="44.18273" lon="3.09749">
        <ele>578</ele>
        <time>2010-01-01T02:02:25Z</time>
      </trkpt>
      <trkpt lat="44.18267" lon="3.09757">
        <ele>578</ele>
        <time>2010-01-01T02:02:29Z</time>
      </trkpt>
      <trkpt lat="44.18262" lon="3.09765">
        <ele>578</ele>
        <time>2010-01-01T02:02:32Z</time>
      </trkpt>
      <trkpt lat="44.18261" lon="3.09774">
        <ele>579</ele>
        <time>2010-01-01T02:02:34Z</time>
      </trkpt>
      <trkpt lat="44.18261" lon="3.09784">
        <ele>580</ele>
        <time>2010-01-01T02:02:37Z</time>
      </trkpt>
      <trkpt lat="44.1826" lon="3.09793">
        <ele>581</ele>
        <time>2010-01-01T02:02:40Z</time>
      </trkpt>
      <trkpt lat="44.18258" lon="3.09801">
        <ele>582</ele>
        <time>2010-01-01T02:02:42Z</time>
      </trkpt>
      <trkpt lat="44.18254" lon="3.09806">
        <ele>582</ele>
        <time>2010-01-01T02:02:44Z</time>
      </trkpt>
      <trkpt lat="44.18251" lon="3.0981">
        <ele>582</ele>
        <time>2010-01-01T02:02:46Z</time>
      </trkpt>
      <trkpt lat="44.18248" lon="3.09814">
        <ele>583</ele>
        <time>2010-01-01T02:02:47Z</time>
      </trkpt>
      <trkpt lat="44.18244" lon="3.09818">
        <ele>583</ele>
        <time>2010-01-01T02:02:49Z</time>
      </trkpt>
      <trkpt lat="44.1824" lon="3.09821">
        <ele>584</ele>
        <time>2010-01-01T02:02:51Z</time>
      </trkpt>
      <trkpt lat="44.18235" lon="3.09823">
        <ele>584</ele>
        <time>2010-01-01T02:02:53Z</time>
      </trkpt>
      <trkpt lat="44.18231" lon="3.09825">
        <ele>584</ele>
        <time>2010-01-01T02:02:55Z</time>
      </trkpt>
      <trkpt lat="44.18227" lon="3.09828">
        <ele>584</ele>
        <time>2010-01-01T02:02:57Z</time>
      </trkpt>
      <trkpt lat="44.18223" lon="3.0983">
        <ele>585</ele>
        <time>2010-01-01T02:02:58Z</time>
      </trkpt>
      <trkpt lat="44.18218" lon="3.09832">
        <ele>586</ele>
        <time>2010-01-01T02:03:00Z</time>
      </trkpt>
      <trkpt lat="44.18214" lon="3.09831">
        <ele>586</ele>
        <time>2010-01-01T02:03:02Z</time>
      </trkpt>
      <trkpt lat="44.1821" lon="3.0983">
        <ele>586</ele>
        <time>2010-01-01T02:03:04Z</time>
      </trkpt>
      <trkpt lat="44.18206" lon="3.09827">
        <ele>586</ele>
        <time>2010-01-01T02:03:06Z</time>
      </trkpt>
      <trkpt lat="44.18202" lon="3.09824">
        <ele>586</ele>
        <time>2010-01-01T02:03:07Z</time>
      </trkpt>
      <trkpt lat="44.18198" lon="3.09821">
        <ele>586</ele>
        <time>2010-01-01T02:03:09Z</time>
      </trkpt>
      <trkpt lat="44.18195" lon="3.09817">
        <ele>586</ele>
        <time>2010-01-01T02:03:11Z</time>
      </trkpt>
      <trkpt lat="44.18192" lon="3.09813">
        <ele>585</ele>
        <time>2010-01-01T02:03:13Z</time>
      </trkpt>
      <trkpt lat="44.18188" lon="3.09809">
        <ele>585</ele>
        <time>2010-01-01T02:03:14Z</time>
      </trkpt>
      <trkpt lat="44.18185" lon="3.09805">
        <ele>585</ele>
        <time>2010-01-01T02:03:16Z</time>
      </trkpt>
      <trkpt lat="44.18182" lon="3.09802">
        <ele>585</ele>
        <time>2010-01-01T02:03:18Z</time>
      </trkpt>
      <trkpt lat="44.18178" lon="3.098">
        <ele>584</ele>
        <time>2010-01-01T02:03:19Z</time>
      </trkpt>
      <trkpt lat="44.18174" lon="3.09798">
        <ele>585</ele>
        <time>2010-01-01T02:03:21Z</time>
      </trkpt>
      <trkpt lat="44.1817" lon="3.09799">
        <ele>585</ele>
        <time>2010-01-01T02:03:23Z</time>
      </trkpt>
      <trkpt lat="44.18167" lon="3.098">
        <ele>586</ele>
        <time>2010-01-01T02:03:24Z</time>
      </trkpt>
      <trkpt lat="44.18165" lon="3.09801">
        <ele>586</ele>
        <time>2010-01-01T02:03:25Z</time>
      </trkpt>
      <trkpt lat="44.18162" lon="3.09804">
        <ele>586</ele>
        <time>2010-01-01T02:03:26Z</time>
      </trkpt>
      <trkpt lat="44.18161" lon="3.09806">
        <ele>587</ele>
        <time>2010-01-01T02:03:27Z</time>
      </trkpt>
      <trkpt lat="44.18159" lon="3.09809">
        <ele>587</ele>
        <time>2010-01-01T02:03:28Z</time>
      </trkpt>
      <trkpt lat="44.18159" lon="3.09812">
        <ele>588</ele>
        <time>2010-01-01T02:03:29Z</time>
      </trkpt>
      <trkpt lat="44.18158" lon="3.09816">
        <ele>588</ele>
        <time>2010-01-01T02:03:30Z</time>
      </trkpt>
      <trkpt lat="44.18158" lon="3.09819">
        <ele>589</ele>
        <time>2010-01-01T02:03:31Z</time>
      </trkpt>
      <trkpt lat="44.18157" lon="3.09823">
        <ele>589</ele>
        <time>2010-01-01T02:03:32Z</time>
      </trkpt>
      <trkpt lat="44.18157" lon="3.09827">
        <ele>590</ele>
        <time>2010-01-01T02:03:33Z</time>
      </trkpt>
      <trkpt lat="44.18157" lon="3.0983">
        <ele>590</ele>
        <time>2010-01-01T02:03:34Z</time>
      </trkpt>
      <trkpt lat="44.18158" lon="3.09833">
        <ele>591</ele>
        <time>2010-01-01T02:03:35Z</time>
      </trkpt>
      <trkpt lat="44.18159" lon="3.09837">
        <ele>591</ele>
        <time>2010-01-01T02:03:36Z</time>
      </trkpt>
      <trkpt lat="44.1816" lon="3.0984">
        <ele>592</ele>
        <time>2010-01-01T02:03:37Z</time>
      </trkpt>
      <trkpt lat="44.18161" lon="3.09843">
        <ele>592</ele>
        <time>2010-01-01T02:03:38Z</time>
      </trkpt>
      <trkpt lat="44.18162" lon="3.09846">
        <ele>592</ele>
        <time>2010-01-01T02:03:39Z</time>
      </trkpt>
      <trkpt lat="44.18163" lon="3.09849">
        <ele>593</ele>
        <time>2010-01-01T02:03:40Z</time>
      </trkpt>
      <trkpt lat="44.18164" lon="3.09853">
        <ele>593</ele>
        <time>2010-01-01T02:03:41Z</time>
      </trkpt>
      <trkpt lat="44.18165" lon="3.09855">
        <ele>593</ele>
        <time>2010-01-01T02:03:42Z</time>
      </trkpt>
      <trkpt lat="44.18166" lon="3.09859">
        <ele>593</ele>
        <time>2010-01-01T02:03:43Z</time>
      </trkpt>
      <trkpt lat="44.18167" lon="3.09861">
        <ele>593</ele>
        <time>2010-01-01T02:03:44Z</time>
      </trkpt>
      <trkpt lat="44.18168" lon="3.09865">
        <ele>594</ele>
        <time>2010-01-01T02:03:45Z</time>
      </trkpt>
      <trkpt lat="44.18169" lon="3.09868">
        <ele>595</ele>
        <time>2010-01-01T02:03:46Z</time>
      </trkpt>
      <trkpt lat="44.18169" lon="3.09872">
        <ele>595</ele>
        <time>2010-01-01T02:03:47Z</time>
      </trkpt>
      <trkpt lat="44.1817" lon="3.09875">
        <ele>596</ele>
        <time>2010-01-01T02:03:48Z</time>
      </trkpt>
      <trkpt lat="44.1817" lon="3.09878">
        <ele>596</ele>
        <time>2010-01-01T02:03:49Z</time>
      </trkpt>
      <trkpt lat="44.18171" lon="3.09881">
        <ele>596</ele>
        <time>2010-01-01T02:03:50Z</time>
      </trkpt>
      <trkpt lat="44.18171" lon="3.09885">
        <ele>597</ele>
        <time>2010-01-01T02:03:51Z</time>
      </trkpt>
      <trkpt lat="44.18172" lon="3.09888">
        <ele>598</ele>
        <time>2010-01-01T02:03:52Z</time>
      </trkpt>
      <trkpt lat="44.18172" lon="3.09891">
        <ele>598</ele>
        <time>2010-01-01T02:03:53Z</time>
      </trkpt>
      <trkpt lat="44.18172" lon="3.09895">
        <ele>599</ele>
        <time>2010-01-01T02:03:54Z</time>
      </trkpt>
      <trkpt lat="44.18173" lon="3.09898">
        <ele>599</ele>
        <time>2010-01-01T02:03:55Z</time>
      </trkpt>
      <trkpt lat="44.18173" lon="3.09901">
        <ele>600</ele>
        <time>2010-01-01T02:03:56Z</time>
      </trkpt>
      <trkpt lat="44.18173" lon="3.09905">
        <ele>600</ele>
        <time>2010-01-01T02:03:57Z</time>
      </trkpt>
      <trkpt lat="44.18174" lon="3.09908">
        <ele>601</ele>
        <time>2010-01-01T02:03:58Z</time>
      </trkpt>
      <trkpt lat="44.18174" lon="3.09911">
        <ele>601</ele>
        <time>2010-01-01T02:03:59Z</time>
      </trkpt>
      <trkpt lat="44.18174" lon="3.09915">
        <ele>602</ele>
        <time>2010-01-01T02:04:00Z</time>
      </trkpt>
      <trkpt lat="44.18173" lon="3.09918">
        <ele>603</ele>
        <time>2010-01-01T02:04:01Z</time>
      </trkpt>
      <trkpt lat="44.18173" lon="3.09921">
        <ele>603</ele>
        <time>2010-01-01T02:04:02Z</time>
      </trkpt>
      <trkpt lat="44.18173" lon="3.09925">
        <ele>604</ele>
        <time>2010-01-01T02:04:03Z</time>
      </trkpt>
      <trkpt lat="44.18171" lon="3.09928">
        <ele>604</ele>
        <time>2010-01-01T02:04:04Z</time>
      </trkpt>
      <trkpt lat="44.18169" lon="3.09931">
        <ele>605</ele>
        <time>2010-01-01T02:04:05Z</time>
      </trkpt>
      <trkpt lat="44.18167" lon="3.09933">
        <ele>605</ele>
        <time>2010-01-01T02:04:06Z</time>
      </trkpt>
      <trkpt lat="44.18164" lon="3.09934">
        <ele>605</ele>
        <time>2010-01-01T02:04:07Z</time>
      </trkpt>
      <trkpt lat="44.18162" lon="3.09934">
        <ele>606</ele>
        <time>2010-01-01T02:04:08Z</time>
      </trkpt>
      <trkpt lat="44.18159" lon="3.09935">
        <ele>606</ele>
        <time>2010-01-01T02:04:09Z</time>
      </trkpt>
      <trkpt lat="44.18156" lon="3.09935">
        <ele>606</ele>
        <time>2010-01-01T02:04:11Z</time>
      </trkpt>
      <trkpt lat="44.18152" lon="3.09935">
        <ele>606</ele>
        <time>2010-01-01T02:04:12Z</time>
      </trkpt>
      <trkpt lat="44.18149" lon="3.09936">
        <ele>606</ele>
        <time>2010-01-01T02:04:13Z</time>
      </trkpt>
      <trkpt lat="44.18146" lon="3.09937">
        <ele>606</ele>
        <time>2010-01-01T02:04:15Z</time>
      </trkpt>
      <trkpt lat="44.18143" lon="3.09937">
        <ele>606</ele>
        <time>2010-01-01T02:04:16Z</time>
      </trkpt>
      <trkpt lat="44.18141" lon="3.09938">
        <ele>606</ele>
        <time>2010-01-01T02:04:17Z</time>
      </trkpt>
      <trkpt lat="44.18138" lon="3.09938">
        <ele>607</ele>
        <time>2010-01-01T02:04:18Z</time>
      </trkpt>
      <trkpt lat="44.18135" lon="3.09939">
        <ele>607</ele>
        <time>2010-01-01T02:04:19Z</time>
      </trkpt>
      <trkpt lat="44.18132" lon="3.09939">
        <ele>607</ele>
        <time>2010-01-01T02:04:20Z</time>
      </trkpt>
      <trkpt lat="44.1813" lon="3.0994">
        <ele>607</ele>
        <time>2010-01-01T02:04:21Z</time>
      </trkpt>
      <trkpt lat="44.18127" lon="3.09941">
        <ele>607</ele>
        <time>2010-01-01T02:04:22Z</time>
      </trkpt>
      <trkpt lat="44.18124" lon="3.09942">
        <ele>607</ele>
        <time>2010-01-01T02:04:23Z</time>
      </trkpt>
      <trkpt lat="44.18122" lon="3.09943">
        <ele>607</ele>
        <time>2010-01-01T02:04:24Z</time>
      </trkpt>
      <trkpt lat="44.1812" lon="3.09944">
        <ele>607</ele>
        <time>2010-01-01T02:04:25Z</time>
      </trkpt>
      <trkpt lat="44.18117" lon="3.09946">
        <ele>607</ele>
        <time>2010-01-01T02:04:26Z</time>
      </trkpt>
      <trkpt lat="44.18114" lon="3.09948">
        <ele>607</ele>
        <time>2010-01-01T02:04:28Z</time>
      </trkpt>
      <trkpt lat="44.18112" lon="3.0995">
        <ele>607</ele>
        <time>2010-01-01T02:04:29Z</time>
      </trkpt>
      <trkpt lat="44.18109" lon="3.09952">
        <ele>607</ele>
        <time>2010-01-01T02:04:30Z</time>
      </trkpt>
      <trkpt lat="44.18107" lon="3.09955">
        <ele>608</ele>
        <time>2010-01-01T02:04:31Z</time>
      </trkpt>
      <trkpt lat="44.18105" lon="3.09957">
        <ele>608</ele>
        <time>2010-01-01T02:04:32Z</time>
      </trkpt>
      <trkpt lat="44.18102" lon="3.0996">
        <ele>609</ele>
        <time>2010-01-01T02:04:34Z</time>
      </trkpt>
      <trkpt lat="44.181" lon="3.09962">
        <ele>609</ele>
        <time>2010-01-01T02:04:35Z</time>
      </trkpt>
      <trkpt lat="44.18098" lon="3.09965">
        <ele>609</ele>
        <time>2010-01-01T02:04:36Z</time>
      </trkpt>
      <trkpt lat="44.18095" lon="3.09967">
        <ele>610</ele>
        <time>2010-01-01T02:04:37Z</time>
      </trkpt>
      <trkpt lat="44.18093" lon="3.09969">
        <ele>610</ele>
        <time>2010-01-01T02:04:38Z</time>
      </trkpt>
      <trkpt lat="44.1809" lon="3.09971">
        <ele>611</ele>
        <time>2010-01-01T02:04:39Z</time>
      </trkpt>
      <trkpt lat="44.18088" lon="3.09973">
        <ele>611</ele>
        <time>2010-01-01T02:04:40Z</time>
      </trkpt>
      <trkpt lat="44.18085" lon="3.09975">
        <ele>612</ele>
        <time>2010-01-01T02:04:42Z</time>
      </trkpt>
      <trkpt lat="44.18082" lon="3.09977">
        <ele>612</ele>
        <time>2010-01-01T02:04:43Z</time>
      </trkpt>
      <trkpt lat="44.18078" lon="3.09978">
        <ele>613</ele>
        <time>2010-01-01T02:04:45Z</time>
      </trkpt>
      <trkpt lat="44.18074" lon="3.09978">
        <ele>613</ele>
        <time>2010-01-01T02:04:46Z</time>
      </trkpt>
      <trkpt lat="44.1807" lon="3.09979">
        <ele>614</ele>
        <time>2010-01-01T02:04:48Z</time>
      </trkpt>
      <trkpt lat="44.18066" lon="3.09978">
        <ele>614</ele>
        <time>2010-01-01T02:04:49Z</time>
      </trkpt>
      <trkpt lat="44.18062" lon="3.09976">
        <ele>614</ele>
        <time>2010-01-01T02:04:51Z</time>
      </trkpt>
      <trkpt lat="44.18057" lon="3.09974">
        <ele>615</ele>
        <time>2010-01-01T02:04:53Z</time>
      </trkpt>
      <trkpt lat="44.18053" lon="3.09973">
        <ele>615</ele>
        <time>2010-01-01T02:04:55Z</time>
      </trkpt>
      <trkpt lat="44.18049" lon="3.09971">
        <ele>615</ele>
        <time>2010-01-01T02:04:57Z</time>
      </trkpt>
      <trkpt lat="44.18044" lon="3.09969">
        <ele>615</ele>
        <time>2010-01-01T02:04:59Z</time>
      </trkpt>
      <trkpt lat="44.1804" lon="3.09968">
        <ele>616</ele>
        <time>2010-01-01T02:05:00Z</time>
      </trkpt>
      <trkpt lat="44.18036" lon="3.09966">
        <ele>616</ele>
        <time>2010-01-01T02:05:02Z</time>
      </trkpt>
      <trkpt lat="44.18032" lon="3.09965">
        <ele>616</ele>
        <time>2010-01-01T02:05:04Z</time>
      </trkpt>
      <trkpt lat="44.18028" lon="3.09964">
        <ele>616</ele>
        <time>2010-01-01T02:05:05Z</time>
      </trkpt>
      <trkpt lat="44.18023" lon="3.09963">
        <ele>616</ele>
        <time>2010-01-01T02:05:07Z</time>
      </trkpt>
      <trkpt lat="44.18019" lon="3.09962">
        <ele>616</ele>
        <time>2010-01-01T02:05:09Z</time>
      </trkpt>
      <trkpt lat="44.18014" lon="3.09962">
        <ele>616</ele>
        <time>2010-01-01T02:05:11Z</time>
      </trkpt>
      <trkpt lat="44.1801" lon="3.09962">
        <ele>616</ele>
        <time>2010-01-01T02:05:12Z</time>
      </trkpt>
      <trkpt lat="44.18006" lon="3.09963">
        <ele>616</ele>
        <time>2010-01-01T02:05:14Z</time>
      </trkpt>
      <trkpt lat="44.18002" lon="3.09965">
        <ele>616</ele>
        <time>2010-01-01T02:05:16Z</time>
      </trkpt>
      <trkpt lat="44.17998" lon="3.09967">
        <ele>617</ele>
        <time>2010-01-01T02:05:17Z</time>
      </trkpt>
      <trkpt lat="44.17994" lon="3.09968">
        <ele>617</ele>
        <time>2010-01-01T02:05:19Z</time>
      </trkpt>
      <trkpt lat="44.17991" lon="3.09969">
        <ele>617</ele>
        <time>2010-01-01T02:05:20Z</time>
      </trkpt>
      <trkpt lat="44.17988" lon="3.0997">
        <ele>618</ele>
        <time>2010-01-01T02:05:22Z</time>
      </trkpt>
      <trkpt lat="44.17985" lon="3.09971">
        <ele>618</ele>
        <time>2010-01-01T02:05:23Z</time>
      </trkpt>
      <trkpt lat="44.17981" lon="3.09971">
        <ele>618</ele>
        <time>2010-01-01T02:05:24Z</time>
      </trkpt>
      <trkpt lat="44.17978" lon="3.09971">
        <ele>618</ele>
        <time>2010-01-01T02:05:26Z</time>
      </trkpt>
      <trkpt lat="44.17974" lon="3.09971">
        <ele>618</ele>
        <time>2010-01-01T02:05:27Z</time>
      </trkpt>
      <trkpt lat="44.17971" lon="3.09971">
        <ele>618</ele>
        <time>2010-01-01T02:05:28Z</time>
      </trkpt>
      <trkpt lat="44.17968" lon="3.09971">
        <ele>619</ele>
        <time>2010-01-01T02:05:30Z</time>
      </trkpt>
      <trkpt lat="44.17965" lon="3.09971">
        <ele>619</ele>
        <time>2010-01-01T02:05:31Z</time>
      </trkpt>
      <trkpt lat="44.17962" lon="3.09971">
        <ele>619</ele>
        <time>2010-01-01T02:05:32Z</time>
      </trkpt>
      <trkpt lat="44.17959" lon="3.09972">
        <ele>620</ele>
        <time>2010-01-01T02:05:33Z</time>
      </trkpt>
      <trkpt lat="44.17956" lon="3.09972">
        <ele>620</ele>
        <time>2010-01-01T02:05:34Z</time>
      </trkpt>
      <trkpt lat="44.17953" lon="3.09973">
        <ele>621</ele>
        <time>2010-01-01T02:05:36Z</time>
      </trkpt>
      <trkpt lat="44.1795" lon="3.09973">
        <ele>621</ele>
        <time>2010-01-01T02:05:37Z</time>
      </trkpt>
      <trkpt lat="44.17948" lon="3.09974">
        <ele>622</ele>
        <time>2010-01-01T02:05:38Z</time>
      </trkpt>
      <trkpt lat="44.17945" lon="3.09975">
        <ele>622</ele>
        <time>2010-01-01T02:05:39Z</time>
      </trkpt>
      <trkpt lat="44.17942" lon="3.09976">
        <ele>623</ele>
        <time>2010-01-01T02:05:40Z</time>
      </trkpt>
      <trkpt lat="44.17939" lon="3.09976">
        <ele>623</ele>
        <time>2010-01-01T02:05:41Z</time>
      </trkpt>
      <trkpt lat="44.17936" lon="3.09977">
        <ele>623</ele>
        <time>2010-01-01T02:05:43Z</time>
      </trkpt>
      <trkpt lat="44.17933" lon="3.09977">
        <ele>624</ele>
        <time>2010-01-01T02:05:44Z</time>
      </trkpt>
      <trkpt lat="44.17931" lon="3.09979">
        <ele>625</ele>
        <time>2010-01-01T02:05:45Z</time>
      </trkpt>
      <trkpt lat="44.17928" lon="3.09979">
        <ele>625</ele>
        <time>2010-01-01T02:05:46Z</time>
      </trkpt>
      <trkpt lat="44.17925" lon="3.0998">
        <ele>626</ele>
        <time>2010-01-01T02:05:47Z</time>
      </trkpt>
      <trkpt lat="44.17921" lon="3.0998">
        <ele>626</ele>
        <time>2010-01-01T02:05:49Z</time>
      </trkpt>
      <trkpt lat="44.17918" lon="3.0998">
        <ele>627</ele>
        <time>2010-01-01T02:05:50Z</time>
      </trkpt>
      <trkpt lat="44.17915" lon="3.09979">
        <ele>627</ele>
        <time>2010-01-01T02:05:51Z</time>
      </trkpt>
      <trkpt lat="44.17913" lon="3.09977">
        <ele>627</ele>
        <time>2010-01-01T02:05:52Z</time>
      </trkpt>
      <trkpt lat="44.1791" lon="3.09975">
        <ele>627</ele>
        <time>2010-01-01T02:05:54Z</time>
      </trkpt>
      <trkpt lat="44.17907" lon="3.09973">
        <ele>627</ele>
        <time>2010-01-01T02:05:55Z</time>
      </trkpt>
      <trkpt lat="44.17904" lon="3.09972">
        <ele>627</ele>
        <time>2010-01-01T02:05:56Z</time>
      </trkpt>
      <trkpt lat="44.17901" lon="3.0997">
        <ele>627</ele>
        <time>2010-01-01T02:05:58Z</time>
      </trkpt>
      <trkpt lat="44.17898" lon="3.09967">
        <ele>627</ele>
        <time>2010-01-01T02:05:59Z</time>
      </trkpt>
      <trkpt lat="44.17895" lon="3.09965">
        <ele>628</ele>
        <time>2010-01-01T02:06:00Z</time>
      </trkpt>
      <trkpt lat="44.17891" lon="3.09962">
        <ele>628</ele>
        <time>2010-01-01T02:06:02Z</time>
      </trkpt>
      <trkpt lat="44.17888" lon="3.0996">
        <ele>628</ele>
        <time>2010-01-01T02:06:03Z</time>
      </trkpt>
      <trkpt lat="44.17884" lon="3.09957">
        <ele>628</ele>
        <time>2010-01-01T02:06:05Z</time>
      </trkpt>
      <trkpt lat="44.17879" lon="3.09953">
        <ele>628</ele>
        <time>2010-01-01T02:06:08Z</time>
      </trkpt>
      <trkpt lat="44.17873" lon="3.09948">
        <ele>628</ele>
        <time>2010-01-01T02:06:10Z</time>
      </trkpt>
      <trkpt lat="44.17869" lon="3.09942">
        <ele>628</ele>
        <time>2010-01-01T02:06:12Z</time>
      </trkpt>
      <trkpt lat="44.17866" lon="3.09937">
        <ele>628</ele>
        <time>2010-01-01T02:06:15Z</time>
      </trkpt>
      <trkpt lat="44.17863" lon="3.0993">
        <ele>628</ele>
        <time>2010-01-01T02:06:17Z</time>
      </trkpt>
      <trkpt lat="44.17859" lon="3.09923">
        <ele>628</ele>
        <time>2010-01-01T02:06:19Z</time>
      </trkpt>
      <trkpt lat="44.17857" lon="3.09915">
        <ele>627</ele>
        <time>2010-01-01T02:06:22Z</time>
      </trkpt>
      <trkpt lat="44.17854" lon="3.09906">
        <ele>627</ele>
        <time>2010-01-01T02:06:25Z</time>
      </trkpt>
      <trkpt lat="44.17853" lon="3.09897">
        <ele>625</ele>
        <time>2010-01-01T02:06:27Z</time>
      </trkpt>
      <trkpt lat="44.17849" lon="3.09888">
        <ele>624</ele>
        <time>2010-01-01T02:06:30Z</time>
      </trkpt>
      <trkpt lat="44.17843" lon="3.09881">
        <ele>624</ele>
        <time>2010-01-01T02:06:34Z</time>
      </trkpt>
      <trkpt lat="44.17836" lon="3.09871">
        <ele>624</ele>
        <time>2010-01-01T02:06:37Z</time>
      </trkpt>
      <trkpt lat="44.17831" lon="3.09861">
        <ele>624</ele>
        <time>2010-01-01T02:06:41Z</time>
      </trkpt>
      <trkpt lat="44.17827" lon="3.09852">
        <ele>625</ele>
        <time>2010-01-01T02:06:44Z</time>
      </trkpt>
      <trkpt lat="44.17822" lon="3.09844">
        <ele>626</ele>
        <time>2010-01-01T02:06:47Z</time>
      </trkpt>
      <trkpt lat="44.17818" lon="3.09837">
        <ele>626</ele>
        <time>2010-01-01T02:06:49Z</time>
      </trkpt>
      <trkpt lat="44.17815" lon="3.09831">
        <ele>627</ele>
        <time>2010-01-01T02:06:52Z</time>
      </trkpt>
      <trkpt lat="44.17813" lon="3.09825">
        <ele>627</ele>
        <time>2010-01-01T02:06:54Z</time>
      </trkpt>
      <trkpt lat="44.1781" lon="3.09819">
        <ele>628</ele>
        <time>2010-01-01T02:06:56Z</time>
      </trkpt>
      <trkpt lat="44.17808" lon="3.09813">
        <ele>628</ele>
        <time>2010-01-01T02:06:57Z</time>
      </trkpt>
      <trkpt lat="44.17806" lon="3.09807">
        <ele>628</ele>
        <time>2010-01-01T02:06:59Z</time>
      </trkpt>
      <trkpt lat="44.17804" lon="3.09801">
        <ele>628</ele>
        <time>2010-01-01T02:07:01Z</time>
      </trkpt>
      <trkpt lat="44.17802" lon="3.09795">
        <ele>628</ele>
        <time>2010-01-01T02:07:03Z</time>
      </trkpt>
      <trkpt lat="44.178" lon="3.09789">
        <ele>627</ele>
        <time>2010-01-01T02:07:05Z</time>
      </trkpt>
      <trkpt lat="44.17798" lon="3.09784">
        <ele>626</ele>
        <time>2010-01-01T02:07:07Z</time>
      </trkpt>
      <trkpt lat="44.17797" lon="3.09776">
        <ele>626</ele>
        <time>2010-01-01T02:07:09Z</time>
      </trkpt>
      <trkpt lat="44.17795" lon="3.09769">
        <ele>625</ele>
        <time>2010-01-01T02:07:11Z</time>
      </trkpt>
      <trkpt lat="44.17792" lon="3.09761">
        <ele>624</ele>
        <time>2010-01-01T02:07:14Z</time>
      </trkpt>
      <trkpt lat="44.17788" lon="3.09754">
        <ele>624</ele>
        <time>2010-01-01T02:07:16Z</time>
      </trkpt>
      <trkpt lat="44.17785" lon="3.09745">
        <ele>623</ele>
        <time>2010-01-01T02:07:19Z</time>
      </trkpt>
      <trkpt lat="44.17783" lon="3.09736">
        <ele>622</ele>
        <time>2010-01-01T02:07:22Z</time>
      </trkpt>
      <trkpt lat="44.17782" lon="3.09728">
        <ele>620</ele>
        <time>2010-01-01T02:07:24Z</time>
      </trkpt>
      <trkpt lat="44.17784" lon="3.09721">
        <ele>619</ele>
        <time>2010-01-01T02:07:27Z</time>
      </trkpt>
      <trkpt lat="44.17785" lon="3.09714">
        <ele>619</ele>
        <time>2010-01-01T02:07:29Z</time>
      </trkpt>
      <trkpt lat="44.17785" lon="3.09709">
        <ele>618</ele>
        <time>2010-01-01T02:07:30Z</time>
      </trkpt>
      <trkpt lat="44.17785" lon="3.09707">
        <ele>618</ele>
        <time>2010-01-01T02:07:31Z</time>
      </trkpt>
      <trkpt lat="44.17785" lon="3.09706">
        <ele>618</ele>
        <time>2010-01-01T02:07:31Z</time>
      </trkpt>
      <trkpt lat="44.17784" lon="3.09704">
        <ele>617</ele>
        <time>2010-01-01T02:07:31Z</time>
      </trkpt>
      <trkpt lat="44.17784" lon="3.09704">
        <ele>617</ele>
        <time>2010-01-01T02:07:32Z</time>
      </trkpt>
      <trkpt lat="44.17784" lon="3.09704">
        <ele>617</ele>
        <time>2010-01-01T02:07:32Z</time>
      </trkpt>
      <trkpt lat="44.17784" lon="3.09703">
        <ele>617</ele>
        <time>2010-01-01T02:07:32Z</time>
      </trkpt>
      <trkpt lat="44.17783" lon="3.09695">
        <ele>616</ele>
        <time>2010-01-01T02:07:34Z</time>
      </trkpt>
      <trkpt lat="44.17779" lon="3.09685">
        <ele>614</ele>
        <time>2010-01-01T02:07:38Z</time>
      </trkpt>
      <trkpt lat="44.17771" lon="3.09672">
        <ele>612</ele>
        <time>2010-01-01T02:07:42Z</time>
      </trkpt>
      <trkpt lat="44.17762" lon="3.09657">
        <ele>611</ele>
        <time>2010-01-01T02:07:48Z</time>
      </trkpt>
      <trkpt lat="44.17751" lon="3.09641">
        <ele>610</ele>
        <time>2010-01-01T02:07:54Z</time>
      </trkpt>
      <trkpt lat="44.1774" lon="3.09626">
        <ele>609</ele>
        <time>2010-01-01T02:08:00Z</time>
      </trkpt>
      <trkpt lat="44.17729" lon="3.09613">
        <ele>607</ele>
        <time>2010-01-01T02:08:06Z</time>
      </trkpt>
      <trkpt lat="44.17718" lon="3.09599">
        <ele>607</ele>
        <time>2010-01-01T02:08:12Z</time>
      </trkpt>
      <trkpt lat="44.1771" lon="3.09583">
        <ele>606</ele>
        <time>2010-01-01T02:08:18Z</time>
      </trkpt>
      <trkpt lat="44.17702" lon="3.09562">
        <ele>605</ele>
        <time>2010-01-01T02:08:25Z</time>
      </trkpt>
      <trkpt lat="44.17694" lon="3.09542">
        <ele>604</ele>
        <time>2010-01-01T02:08:31Z</time>
      </trkpt>
      <trkpt lat="44.17688" lon="3.09522">
        <ele>604</ele>
        <time>2010-01-01T02:08:37Z</time>
      </trkpt>
      <trkpt lat="44.17683" lon="3.09505">
        <ele>604</ele>
        <time>2010-01-01T02:08:43Z</time>
      </trkpt>
      <trkpt lat="44.17679" lon="3.0949">
        <ele>604</ele>
        <time>2010-01-01T02:08:47Z</time>
      </trkpt>
      <trkpt lat="44.17674" lon="3.09477">
        <ele>604</ele>
        <time>2010-01-01T02:08:51Z</time>
      </trkpt>
      <trkpt lat="44.17669" lon="3.09466">
        <ele>604</ele>
        <time>2010-01-01T02:08:55Z</time>
      </trkpt>
      <trkpt lat="44.17661" lon="3.09456">
        <ele>603</ele>
        <time>2010-01-01T02:09:00Z</time>
      </trkpt>
      <trkpt lat="44.17651" lon="3.09447">
        <ele>603</ele>
        <time>2010-01-01T02:09:04Z</time>
      </trkpt>
      <trkpt lat="44.1764" lon="3.09443">
        <ele>603</ele>
        <time>2010-01-01T02:09:09Z</time>
      </trkpt>
      <trkpt lat="44.17629" lon="3.09441">
        <ele>602</ele>
        <time>2010-01-01T02:09:13Z</time>
      </trkpt>
      <trkpt lat="44.17619" lon="3.09442">
        <ele>602</ele>
        <time>2010-01-01T02:09:17Z</time>
      </trkpt>
      <trkpt lat="44.17611" lon="3.09443">
        <ele>602</ele>
        <time>2010-01-01T02:09:21Z</time>
      </trkpt>
      <trkpt lat="44.17603" lon="3.09445">
        <ele>603</ele>
        <time>2010-01-01T02:09:24Z</time>
      </trkpt>
      <trkpt lat="44.17595" lon="3.09448">
        <ele>603</ele>
        <time>2010-01-01T02:09:27Z</time>
      </trkpt>
      <trkpt lat="44.17589" lon="3.0945">
        <ele>604</ele>
        <time>2010-01-01T02:09:30Z</time>
      </trkpt>
      <trkpt lat="44.17587" lon="3.09449">
        <ele>604</ele>
        <time>2010-01-01T02:09:30Z</time>
      </trkpt>
      <trkpt lat="44.17587" lon="3.09449">
        <ele>604</ele>
        <time>2010-01-01T02:09:30Z</time>
      </trkpt>
      <trkpt lat="44.17587" lon="3.09449">
        <ele>604</ele>
        <time>2010-01-01T02:09:30Z</time>
      </trkpt>
      <trkpt lat="44.17587" lon="3.0945">
        <ele>604</ele>
        <time>2010-01-01T02:09:31Z</time>
      </trkpt>
      <trkpt lat="44.17583" lon="3.09452">
        <ele>604</ele>
        <time>2010-01-01T02:09:32Z</time>
      </trkpt>
      <trkpt lat="44.1758" lon="3.09454">
        <ele>604</ele>
        <time>2010-01-01T02:09:34Z</time>
      </trkpt>
      <trkpt lat="44.17576" lon="3.09454">
        <ele>604</ele>
        <time>2010-01-01T02:09:35Z</time>
      </trkpt>
      <trkpt lat="44.17572" lon="3.09456">
        <ele>603</ele>
        <time>2010-01-01T02:09:37Z</time>
      </trkpt>
      <trkpt lat="44.17567" lon="3.09458">
        <ele>603</ele>
        <time>2010-01-01T02:09:39Z</time>
      </trkpt>
      <trkpt lat="44.17562" lon="3.0946">
        <ele>603</ele>
        <time>2010-01-01T02:09:41Z</time>
      </trkpt>
      <trkpt lat="44.17557" lon="3.09462">
        <ele>603</ele>
        <time>2010-01-01T02:09:43Z</time>
      </trkpt>
      <trkpt lat="44.17552" lon="3.09466">
        <ele>602</ele>
        <time>2010-01-01T02:09:46Z</time>
      </trkpt>
      <trkpt lat="44.17546" lon="3.09468">
        <ele>602</ele>
        <time>2010-01-01T02:09:48Z</time>
      </trkpt>
      <trkpt lat="44.1754" lon="3.09473">
        <ele>601</ele>
        <time>2010-01-01T02:09:50Z</time>
      </trkpt>
      <trkpt lat="44.17533" lon="3.09478">
        <ele>601</ele>
        <time>2010-01-01T02:09:54Z</time>
      </trkpt>
      <trkpt lat="44.17527" lon="3.09483">
        <ele>601</ele>
        <time>2010-01-01T02:09:57Z</time>
      </trkpt>
      <trkpt lat="44.17521" lon="3.09488">
        <ele>600</ele>
        <time>2010-01-01T02:09:59Z</time>
      </trkpt>
      <trkpt lat="44.17517" lon="3.0949">
        <ele>600</ele>
        <time>2010-01-01T02:10:01Z</time>
      </trkpt>
      <trkpt lat="44.17516" lon="3.09491">
        <ele>600</ele>
        <time>2010-01-01T02:10:02Z</time>
      </trkpt>
      <trkpt lat="44.17516" lon="3.09491">
        <ele>600</ele>
        <time>2010-01-01T02:10:02Z</time>
      </trkpt>
      <trkpt lat="44.17514" lon="3.09496">
        <ele>600</ele>
        <time>2010-01-01T02:10:03Z</time>
      </trkpt>
      <trkpt lat="44.17509" lon="3.09499">
        <ele>600</ele>
        <time>2010-01-01T02:10:05Z</time>
      </trkpt>
      <trkpt lat="44.17503" lon="3.09504">
        <ele>600</ele>
        <time>2010-01-01T02:10:08Z</time>
      </trkpt>
      <trkpt lat="44.17495" lon="3.0951">
        <ele>599</ele>
        <time>2010-01-01T02:10:12Z</time>
      </trkpt>
      <trkpt lat="44.17487" lon="3.09517">
        <ele>598</ele>
        <time>2010-01-01T02:10:16Z</time>
      </trkpt>
      <trkpt lat="44.17478" lon="3.09523">
        <ele>597</ele>
        <time>2010-01-01T02:10:20Z</time>
      </trkpt>
      <trkpt lat="44.17469" lon="3.09528">
        <ele>596</ele>
        <time>2010-01-01T02:10:23Z</time>
      </trkpt>
      <trkpt lat="44.17461" lon="3.09533">
        <ele>594</ele>
        <time>2010-01-01T02:10:27Z</time>
      </trkpt>
      <trkpt lat="44.17451" lon="3.09536">
        <ele>592</ele>
        <time>2010-01-01T02:10:31Z</time>
      </trkpt>
      <trkpt lat="44.1744" lon="3.09538">
        <ele>590</ele>
        <time>2010-01-01T02:10:35Z</time>
      </trkpt>
      <trkpt lat="44.17427" lon="3.09538">
        <ele>589</ele>
        <time>2010-01-01T02:10:41Z</time>
      </trkpt>
      <trkpt lat="44.17413" lon="3.09537">
        <ele>588</ele>
        <time>2010-01-01T02:10:46Z</time>
      </trkpt>
      <trkpt lat="44.174" lon="3.09537">
        <ele>585</ele>
        <time>2010-01-01T02:10:51Z</time>
      </trkpt>
      <trkpt lat="44.17389" lon="3.09537">
        <ele>583</ele>
        <time>2010-01-01T02:10:56Z</time>
      </trkpt>
      <trkpt lat="44.17378" lon="3.09537">
        <ele>580</ele>
        <time>2010-01-01T02:11:00Z</time>
      </trkpt>
      <trkpt lat="44.17366" lon="3.09537">
        <ele>577</ele>
        <time>2010-01-01T02:11:05Z</time>
      </trkpt>
      <trkpt lat="44.17352" lon="3.09538">
        <ele>575</ele>
        <time>2010-01-01T02:11:11Z</time>
      </trkpt>
      <trkpt lat="44.17337" lon="3.09541">
        <ele>574</ele>
        <time>2010-01-01T02:11:17Z</time>
      </trkpt>
      <trkpt lat="44.17321" lon="3.09542">
        <ele>572</ele>
        <time>2010-01-01T02:11:23Z</time>
      </trkpt>
      <trkpt lat="44.17304" lon="3.09545">
        <ele>570</ele>
        <time>2010-01-01T02:11:30Z</time>
      </trkpt>
      <trkpt lat="44.17286" lon="3.09553">
        <ele>571</ele>
        <time>2010-01-01T02:11:38Z</time>
      </trkpt>
      <trkpt lat="44.17268" lon="3.09562">
        <ele>571</ele>
        <time>2010-01-01T02:11:45Z</time>
      </trkpt>
      <trkpt lat="44.17251" lon="3.09567">
        <ele>571</ele>
        <time>2010-01-01T02:11:52Z</time>
      </trkpt>
      <trkpt lat="44.17236" lon="3.09568">
        <ele>571</ele>
        <time>2010-01-01T02:11:58Z</time>
      </trkpt>
      <trkpt lat="44.17221" lon="3.09562">
        <ele>570</ele>
        <time>2010-01-01T02:12:04Z</time>
      </trkpt>
      <trkpt lat="44.17208" lon="3.09552">
        <ele>568</ele>
        <time>2010-01-01T02:12:10Z</time>
      </trkpt>
      <trkpt lat="44.17195" lon="3.09546">
        <ele>568</ele>
        <time>2010-01-01T02:12:16Z</time>
      </trkpt>
      <trkpt lat="44.17183" lon="3.09545">
        <ele>567</ele>
        <time>2010-01-01T02:12:21Z</time>
      </trkpt>
      <trkpt lat="44.1717" lon="3.09548">
        <ele>567</ele>
        <time>2010-01-01T02:12:26Z</time>
      </trkpt>
      <trkpt lat="44.17158" lon="3.0955">
        <ele>565</ele>
        <time>2010-01-01T02:12:31Z</time>
      </trkpt>
      <trkpt lat="44.17146" lon="3.09554">
        <ele>564</ele>
        <time>2010-01-01T02:12:36Z</time>
      </trkpt>
      <trkpt lat="44.17133" lon="3.09561">
        <ele>561</ele>
        <time>2010-01-01T02:12:41Z</time>
      </trkpt>
      <trkpt lat="44.17118" lon="3.09575">
        <ele>557</ele>
        <time>2010-01-01T02:12:48Z</time>
      </trkpt>
      <trkpt lat="44.17103" lon="3.09595">
        <ele>554</ele>
        <time>2010-01-01T02:12:57Z</time>
      </trkpt>
      <trkpt lat="44.17087" lon="3.09617">
        <ele>553</ele>
        <time>2010-01-01T02:13:06Z</time>
      </trkpt>
      <trkpt lat="44.17072" lon="3.09639">
        <ele>552</ele>
        <time>2010-01-01T02:13:15Z</time>
      </trkpt>
      <trkpt lat="44.17054" lon="3.09658">
        <ele>552</ele>
        <time>2010-01-01T02:13:24Z</time>
      </trkpt>
      <trkpt lat="44.17035" lon="3.09671">
        <ele>551</ele>
        <time>2010-01-01T02:13:32Z</time>
      </trkpt>
      <trkpt lat="44.17017" lon="3.09682">
        <ele>550</ele>
        <time>2010-01-01T02:13:40Z</time>
      </trkpt>
      <trkpt lat="44.17" lon="3.09697">
        <ele>550</ele>
        <time>2010-01-01T02:13:48Z</time>
      </trkpt>
      <trkpt lat="44.16985" lon="3.09712">
        <ele>547</ele>
        <time>2010-01-01T02:13:55Z</time>
      </trkpt>
      <trkpt lat="44.16971" lon="3.09726">
        <ele>545</ele>
        <time>2010-01-01T02:14:02Z</time>
      </trkpt>
      <trkpt lat="44.16958" lon="3.09739">
        <ele>543</ele>
        <time>2010-01-01T02:14:09Z</time>
      </trkpt>
      <trkpt lat="44.16946" lon="3.09754">
        <ele>542</ele>
        <time>2010-01-01T02:14:15Z</time>
      </trkpt>
      <trkpt lat="44.16937" lon="3.0977">
        <ele>544</ele>
        <time>2010-01-01T02:14:21Z</time>
      </trkpt>
      <trkpt lat="44.1693" lon="3.09787">
        <ele>545</ele>
        <time>2010-01-01T02:14:27Z</time>
      </trkpt>
      <trkpt lat="44.16922" lon="3.09804">
        <ele>546</ele>
        <time>2010-01-01T02:14:32Z</time>
      </trkpt>
      <trkpt lat="44.16913" lon="3.09817">
        <ele>546</ele>
        <time>2010-01-01T02:14:38Z</time>
      </trkpt>
      <trkpt lat="44.16903" lon="3.0983">
        <ele>547</ele>
        <time>2010-01-01T02:14:43Z</time>
      </trkpt>
      <trkpt lat="44.16894" lon="3.09843">
        <ele>549</ele>
        <time>2010-01-01T02:14:48Z</time>
      </trkpt>
      <trkpt lat="44.16886" lon="3.09855">
        <ele>551</ele>
        <time>2010-01-01T02:14:53Z</time>
      </trkpt>
      <trkpt lat="44.16878" lon="3.09868">
        <ele>553</ele>
        <time>2010-01-01T02:14:58Z</time>
      </trkpt>
      <trkpt lat="44.16871" lon="3.0988">
        <ele>554</ele>
        <time>2010-01-01T02:15:03Z</time>
      </trkpt>
      <trkpt lat="44.16864" lon="3.09892">
        <ele>555</ele>
        <time>2010-01-01T02:15:07Z</time>
      </trkpt>
      <trkpt lat="44.16857" lon="3.09903">
        <ele>555</ele>
        <time>2010-01-01T02:15:11Z</time>
      </trkpt>
      <trkpt lat="44.1685" lon="3.09912">
        <ele>555</ele>
        <time>2010-01-01T02:15:15Z</time>
      </trkpt>
      <trkpt lat="44.16844" lon="3.09909">
        <ele>554</ele>
        <time>2010-01-01T02:15:17Z</time>
      </trkpt>
      <trkpt lat="44.1684" lon="3.09899">
        <ele>553</ele>
        <time>2010-01-01T02:15:21Z</time>
      </trkpt>
      <trkpt lat="44.16839" lon="3.09887">
        <ele>552</ele>
        <time>2010-01-01T02:15:24Z</time>
      </trkpt>
      <trkpt lat="44.16841" lon="3.09873">
        <ele>551</ele>
        <time>2010-01-01T02:15:28Z</time>
      </trkpt>
      <trkpt lat="44.16844" lon="3.09859">
        <ele>550</ele>
        <time>2010-01-01T02:15:32Z</time>
      </trkpt>
      <trkpt lat="44.16847" lon="3.09844">
        <ele>548</ele>
        <time>2010-01-01T02:15:37Z</time>
      </trkpt>
      <trkpt lat="44.1685" lon="3.09829">
        <ele>546</ele>
        <time>2010-01-01T02:15:41Z</time>
      </trkpt>
      <trkpt lat="44.16852" lon="3.09813">
        <ele>544</ele>
        <time>2010-01-01T02:15:46Z</time>
      </trkpt>
      <trkpt lat="44.16853" lon="3.09801">
        <ele>542</ele>
        <time>2010-01-01T02:15:50Z</time>
      </trkpt>
      <trkpt lat="44.16851" lon="3.09797">
        <ele>541</ele>
        <time>2010-01-01T02:15:51Z</time>
      </trkpt>
      <trkpt lat="44.16847" lon="3.09793">
        <ele>540</ele>
        <time>2010-01-01T02:15:53Z</time>
      </trkpt>
      <trkpt lat="44.16842" lon="3.09786">
        <ele>540</ele>
        <time>2010-01-01T02:15:56Z</time>
      </trkpt>
      <trkpt lat="44.16836" lon="3.09779">
        <ele>539</ele>
        <time>2010-01-01T02:15:59Z</time>
      </trkpt>
      <trkpt lat="44.16831" lon="3.09772">
        <ele>538</ele>
        <time>2010-01-01T02:16:02Z</time>
      </trkpt>
      <trkpt lat="44.16826" lon="3.09766">
        <ele>537</ele>
        <time>2010-01-01T02:16:05Z</time>
      </trkpt>
      <trkpt lat="44.1682" lon="3.09758">
        <ele>536</ele>
        <time>2010-01-01T02:16:08Z</time>
      </trkpt>
      <trkpt lat="44.16815" lon="3.09751">
        <ele>535</ele>
        <time>2010-01-01T02:16:11Z</time>
      </trkpt>
      <trkpt lat="44.16809" lon="3.09744">
        <ele>534</ele>
        <time>2010-01-01T02:16:14Z</time>
      </trkpt>
      <trkpt lat="44.16803" lon="3.09736">
        <ele>534</ele>
        <time>2010-01-01T02:16:17Z</time>
      </trkpt>
      <trkpt lat="44.16796" lon="3.09729">
        <ele>533</ele>
        <time>2010-01-01T02:16:21Z</time>
      </trkpt>
      <trkpt lat="44.16789" lon="3.09721">
        <ele>533</ele>
        <time>2010-01-01T02:16:24Z</time>
      </trkpt>
      <trkpt lat="44.1678" lon="3.09714">
        <ele>532</ele>
        <time>2010-01-01T02:16:28Z</time>
      </trkpt>
      <trkpt lat="44.16771" lon="3.09708">
        <ele>533</ele>
        <time>2010-01-01T02:16:32Z</time>
      </trkpt>
      <trkpt lat="44.16763" lon="3.097">
        <ele>532</ele>
        <time>2010-01-01T02:16:36Z</time>
      </trkpt>
      <trkpt lat="44.16755" lon="3.0969">
        <ele>532</ele>
        <time>2010-01-01T02:16:41Z</time>
      </trkpt>
      <trkpt lat="44.16744" lon="3.0968">
        <ele>531</ele>
        <time>2010-01-01T02:16:46Z</time>
      </trkpt>
      <trkpt lat="44.16735" lon="3.09671">
        <ele>530</ele>
        <time>2010-01-01T02:16:50Z</time>
      </trkpt>
      <trkpt lat="44.16726" lon="3.09667">
        <ele>530</ele>
        <time>2010-01-01T02:16:54Z</time>
      </trkpt>
      <trkpt lat="44.16718" lon="3.09665">
        <ele>529</ele>
        <time>2010-01-01T02:16:57Z</time>
      </trkpt>
      <trkpt lat="44.16711" lon="3.09662">
        <ele>527</ele>
        <time>2010-01-01T02:17:00Z</time>
      </trkpt>
      <trkpt lat="44.16702" lon="3.09658">
        <ele>526</ele>
        <time>2010-01-01T02:17:04Z</time>
      </trkpt>
      <trkpt lat="44.16692" lon="3.09655">
        <ele>525</ele>
        <time>2010-01-01T02:17:08Z</time>
      </trkpt>
      <trkpt lat="44.16682" lon="3.09654">
        <ele>524</ele>
        <time>2010-01-01T02:17:12Z</time>
      </trkpt>
      <trkpt lat="44.16671" lon="3.09653">
        <ele>524</ele>
        <time>2010-01-01T02:17:16Z</time>
      </trkpt>
      <trkpt lat="44.16661" lon="3.09654">
        <ele>524</ele>
        <time>2010-01-01T02:17:21Z</time>
      </trkpt>
      <trkpt lat="44.16652" lon="3.09655">
        <ele>524</ele>
        <time>2010-01-01T02:17:24Z</time>
      </trkpt>
      <trkpt lat="44.16642" lon="3.09655">
        <ele>524</ele>
        <time>2010-01-01T02:17:28Z</time>
      </trkpt>
      <trkpt lat="44.16632" lon="3.09656">
        <ele>523</ele>
        <time>2010-01-01T02:17:32Z</time>
      </trkpt>
      <trkpt lat="44.1662" lon="3.09655">
        <ele>520</ele>
        <time>2010-01-01T02:17:37Z</time>
      </trkpt>
      <trkpt lat="44.1661" lon="3.09654">
        <ele>517</ele>
        <time>2010-01-01T02:17:41Z</time>
      </trkpt>
      <trkpt lat="44.16601" lon="3.09653">
        <ele>515</ele>
        <time>2010-01-01T02:17:45Z</time>
      </trkpt>
      <trkpt lat="44.16591" lon="3.09654">
        <ele>514</ele>
        <time>2010-01-01T02:17:49Z</time>
      </trkpt>
      <trkpt lat="44.16581" lon="3.09657">
        <ele>514</ele>
        <time>2010-01-01T02:17:53Z</time>
      </trkpt>
      <trkpt lat="44.16571" lon="3.0966">
        <ele>513</ele>
        <time>2010-01-01T02:17:57Z</time>
      </trkpt>
      <trkpt lat="44.16562" lon="3.09664">
        <ele>512</ele>
        <time>2010-01-01T02:18:00Z</time>
      </trkpt>
      <trkpt lat="44.16554" lon="3.09668">
        <ele>512</ele>
        <time>2010-01-01T02:18:04Z</time>
      </trkpt>
      <trkpt lat="44.16546" lon="3.09672">
        <ele>510</ele>
        <time>2010-01-01T02:18:07Z</time>
      </trkpt>
      <trkpt lat="44.16538" lon="3.09676">
        <ele>509</ele>
        <time>2010-01-01T02:18:11Z</time>
      </trkpt>
      <trkpt lat="44.16532" lon="3.0968">
        <ele>509</ele>
        <time>2010-01-01T02:18:13Z</time>
      </trkpt>
      <trkpt lat="44.16526" lon="3.09681">
        <ele>507</ele>
        <time>2010-01-01T02:18:16Z</time>
      </trkpt>
      <trkpt lat="44.16518" lon="3.09684">
        <ele>506</ele>
        <time>2010-01-01T02:18:19Z</time>
      </trkpt>
      <trkpt lat="44.16511" lon="3.09689">
        <ele>506</ele>
        <time>2010-01-01T02:18:22Z</time>
      </trkpt>
      <trkpt lat="44.16504" lon="3.09694">
        <ele>505</ele>
        <time>2010-01-01T02:18:25Z</time>
      </trkpt>
      <trkpt lat="44.16496" lon="3.09697">
        <ele>504</ele>
        <time>2010-01-01T02:18:29Z</time>
      </trkpt>
      <trkpt lat="44.16489" lon="3.09698">
        <ele>502</ele>
        <time>2010-01-01T02:18:32Z</time>
      </trkpt>
      <trkpt lat="44.16482" lon="3.09699">
        <ele>500</ele>
        <time>2010-01-01T02:18:34Z</time>
      </trkpt>
      <trkpt lat="44.16476" lon="3.09701">
        <ele>499</ele>
        <time>2010-01-01T02:18:37Z</time>
      </trkpt>
      <trkpt lat="44.1647" lon="3.09703">
        <ele>498</ele>
        <time>2010-01-01T02:18:39Z</time>
      </trkpt>
      <trkpt lat="44.16465" lon="3.09705">
        <ele>497</ele>
        <time>2010-01-01T02:18:41Z</time>
      </trkpt>
      <trkpt lat="44.16458" lon="3.09708">
        <ele>496</ele>
        <time>2010-01-01T02:18:44Z</time>
      </trkpt>
      <trkpt lat="44.16451" lon="3.09712">
        <ele>495</ele>
        <time>2010-01-01T02:18:47Z</time>
      </trkpt>
      <trkpt lat="44.16443" lon="3.09716">
        <ele>494</ele>
        <time>2010-01-01T02:18:50Z</time>
      </trkpt>
      <trkpt lat="44.16436" lon="3.09719">
        <ele>493</ele>
        <time>2010-01-01T02:18:54Z</time>
      </trkpt>
      <trkpt lat="44.16429" lon="3.09724">
        <ele>492</ele>
        <time>2010-01-01T02:18:57Z</time>
      </trkpt>
      <trkpt lat="44.16422" lon="3.09729">
        <ele>492</ele>
        <time>2010-01-01T02:19:00Z</time>
      </trkpt>
      <trkpt lat="44.16415" lon="3.09735">
        <ele>491</ele>
        <time>2010-01-01T02:19:03Z</time>
      </trkpt>
      <trkpt lat="44.16406" lon="3.0974">
        <ele>490</ele>
        <time>2010-01-01T02:19:07Z</time>
      </trkpt>
      <trkpt lat="44.16397" lon="3.09744">
        <ele>488</ele>
        <time>2010-01-01T02:19:11Z</time>
      </trkpt>
      <trkpt lat="44.16388" lon="3.09749">
        <ele>486</ele>
        <time>2010-01-01T02:19:15Z</time>
      </trkpt>
      <trkpt lat="44.16378" lon="3.09755">
        <ele>485</ele>
        <time>2010-01-01T02:19:19Z</time>
      </trkpt>
      <trkpt lat="44.16368" lon="3.0976">
        <ele>483</ele>
        <time>2010-01-01T02:19:23Z</time>
      </trkpt>
      <trkpt lat="44.16359" lon="3.09769">
        <ele>482</ele>
        <time>2010-01-01T02:19:28Z</time>
      </trkpt>
      <trkpt lat="44.1635" lon="3.09777">
        <ele>481</ele>
        <time>2010-01-01T02:19:32Z</time>
      </trkpt>
      <trkpt lat="44.16341" lon="3.09783">
        <ele>479</ele>
        <time>2010-01-01T02:19:36Z</time>
      </trkpt>
      <trkpt lat="44.16333" lon="3.09786">
        <ele>477</ele>
        <time>2010-01-01T02:19:39Z</time>
      </trkpt>
      <trkpt lat="44.16325" lon="3.09788">
        <ele>476</ele>
        <time>2010-01-01T02:19:42Z</time>
      </trkpt>
      <trkpt lat="44.16318" lon="3.09789">
        <ele>475</ele>
        <time>2010-01-01T02:19:45Z</time>
      </trkpt>
      <trkpt lat="44.16313" lon="3.09791">
        <ele>474</ele>
        <time>2010-01-01T02:19:48Z</time>
      </trkpt>
      <trkpt lat="44.16308" lon="3.09794">
        <ele>474</ele>
        <time>2010-01-01T02:19:50Z</time>
      </trkpt>
      <trkpt lat="44.16302" lon="3.09798">
        <ele>473</ele>
        <time>2010-01-01T02:19:52Z</time>
      </trkpt>
      <trkpt lat="44.16296" lon="3.09804">
        <ele>473</ele>
        <time>2010-01-01T02:19:55Z</time>
      </trkpt>
      <trkpt lat="44.16291" lon="3.09811">
        <ele>472</ele>
        <time>2010-01-01T02:19:58Z</time>
      </trkpt>
      <trkpt lat="44.16286" lon="3.0982">
        <ele>472</ele>
        <time>2010-01-01T02:20:01Z</time>
      </trkpt>
      <trkpt lat="44.16283" lon="3.09827">
        <ele>471</ele>
        <time>2010-01-01T02:20:04Z</time>
      </trkpt>
      <trkpt lat="44.16282" lon="3.09833">
        <ele>471</ele>
        <time>2010-01-01T02:20:05Z</time>
      </trkpt>
      <trkpt lat="44.1628" lon="3.09837">
        <ele>471</ele>
        <time>2010-01-01T02:20:07Z</time>
      </trkpt>
      <trkpt lat="44.16279" lon="3.0984">
        <ele>472</ele>
        <time>2010-01-01T02:20:08Z</time>
      </trkpt>
      <trkpt lat="44.16278" lon="3.09842">
        <ele>472</ele>
        <time>2010-01-01T02:20:08Z</time>
      </trkpt>
      <trkpt lat="44.16277" lon="3.09844">
        <ele>472</ele>
        <time>2010-01-01T02:20:09Z</time>
      </trkpt>
      <trkpt lat="44.16277" lon="3.09847">
        <ele>472</ele>
        <time>2010-01-01T02:20:10Z</time>
      </trkpt>
      <trkpt lat="44.16275" lon="3.09851">
        <ele>472</ele>
        <time>2010-01-01T02:20:11Z</time>
      </trkpt>
      <trkpt lat="44.16272" lon="3.09856">
        <ele>472</ele>
        <time>2010-01-01T02:20:13Z</time>
      </trkpt>
      <trkpt lat="44.16267" lon="3.0986">
        <ele>472</ele>
        <time>2010-01-01T02:20:16Z</time>
      </trkpt>
      <trkpt lat="44.16261" lon="3.09866">
        <ele>471</ele>
        <time>2010-01-01T02:20:18Z</time>
      </trkpt>
      <trkpt lat="44.16254" lon="3.09871">
        <ele>471</ele>
        <time>2010-01-01T02:20:21Z</time>
      </trkpt>
      <trkpt lat="44.16246" lon="3.09874">
        <ele>470</ele>
        <time>2010-01-01T02:20:25Z</time>
      </trkpt>
      <trkpt lat="44.16236" lon="3.09877">
        <ele>469</ele>
        <time>2010-01-01T02:20:29Z</time>
      </trkpt>
      <trkpt lat="44.16223" lon="3.09882">
        <ele>468</ele>
        <time>2010-01-01T02:20:34Z</time>
      </trkpt>
      <trkpt lat="44.16209" lon="3.09889">
        <ele>467</ele>
        <time>2010-01-01T02:20:40Z</time>
      </trkpt>
      <trkpt lat="44.16194" lon="3.09898">
        <ele>468</ele>
        <time>2010-01-01T02:20:47Z</time>
      </trkpt>
      <trkpt lat="44.16179" lon="3.09908">
        <ele>466</ele>
        <time>2010-01-01T02:20:54Z</time>
      </trkpt>
      <trkpt lat="44.16165" lon="3.09918">
        <ele>463</ele>
        <time>2010-01-01T02:21:00Z</time>
      </trkpt>
      <trkpt lat="44.16152" lon="3.09927">
        <ele>463</ele>
        <time>2010-01-01T02:21:06Z</time>
      </trkpt>
      <trkpt lat="44.16142" lon="3.09933">
        <ele>462</ele>
        <time>2010-01-01T02:21:10Z</time>
      </trkpt>
      <trkpt lat="44.16134" lon="3.09936">
        <ele>461</ele>
        <time>2010-01-01T02:21:13Z</time>
      </trkpt>
      <trkpt lat="44.16128" lon="3.09932">
        <ele>459</ele>
        <time>2010-01-01T02:21:16Z</time>
      </trkpt>
      <trkpt lat="44.16121" lon="3.09934">
        <ele>457</ele>
        <time>2010-01-01T02:21:19Z</time>
      </trkpt>
      <trkpt lat="44.16113" lon="3.09944">
        <ele>458</ele>
        <time>2010-01-01T02:21:23Z</time>
      </trkpt>
      <trkpt lat="44.16104" lon="3.09957">
        <ele>457</ele>
        <time>2010-01-01T02:21:28Z</time>
      </trkpt>
      <trkpt lat="44.16097" lon="3.09974">
        <ele>457</ele>
        <time>2010-01-01T02:21:34Z</time>
      </trkpt>
      <trkpt lat="44.16092" lon="3.09993">
        <ele>457</ele>
        <time>2010-01-01T02:21:40Z</time>
      </trkpt>
      <trkpt lat="44.16088" lon="3.10013">
        <ele>458</ele>
        <time>2010-01-01T02:21:46Z</time>
      </trkpt>
      <trkpt lat="44.16082" lon="3.10032">
        <ele>457</ele>
        <time>2010-01-01T02:21:52Z</time>
      </trkpt>
      <trkpt lat="44.16074" lon="3.10051">
        <ele>455</ele>
        <time>2010-01-01T02:21:58Z</time>
      </trkpt>
      <trkpt lat="44.16069" lon="3.10072">
        <ele>454</ele>
        <time>2010-01-01T02:22:05Z</time>
      </trkpt>
      <trkpt lat="44.16066" lon="3.10095">
        <ele>453</ele>
        <time>2010-01-01T02:22:11Z</time>
      </trkpt>
      <trkpt lat="44.16062" lon="3.10117">
        <ele>453</ele>
        <time>2010-01-01T02:22:18Z</time>
      </trkpt>
      <trkpt lat="44.16057" lon="3.10135">
        <ele>452</ele>
        <time>2010-01-01T02:22:23Z</time>
      </trkpt>
      <trkpt lat="44.16052" lon="3.10146">
        <ele>451</ele>
        <time>2010-01-01T02:22:27Z</time>
      </trkpt>
      <trkpt lat="44.1605" lon="3.10147">
        <ele>450</ele>
        <time>2010-01-01T02:22:28Z</time>
      </trkpt>
      <trkpt lat="44.16051" lon="3.10147">
        <ele>450</ele>
        <time>2010-01-01T02:22:28Z</time>
      </trkpt>
      <trkpt lat="44.1605" lon="3.10146">
        <ele>450</ele>
        <time>2010-01-01T02:22:28Z</time>
      </trkpt>
      <trkpt lat="44.1605" lon="3.10143">
        <ele>449</ele>
        <time>2010-01-01T02:22:29Z</time>
      </trkpt>
      <trkpt lat="44.16049" lon="3.10141">
        <ele>449</ele>
        <time>2010-01-01T02:22:30Z</time>
      </trkpt>
      <trkpt lat="44.16048" lon="3.1014">
        <ele>449</ele>
        <time>2010-01-01T02:22:30Z</time>
      </trkpt>
      <trkpt lat="44.16048" lon="3.10138">
        <ele>449</ele>
        <time>2010-01-01T02:22:31Z</time>
      </trkpt>
      <trkpt lat="44.16047" lon="3.10133">
        <ele>448</ele>
        <time>2010-01-01T02:22:33Z</time>
      </trkpt>
      <trkpt lat="44.16045" lon="3.10126">
        <ele>447</ele>
        <time>2010-01-01T02:22:34Z</time>
      </trkpt>
      <trkpt lat="44.16045" lon="3.10123">
        <ele>447</ele>
        <time>2010-01-01T02:22:36Z</time>
      </trkpt>
      <trkpt lat="44.16044" lon="3.10122">
        <ele>446</ele>
        <time>2010-01-01T02:22:36Z</time>
      </trkpt>
      <trkpt lat="44.16044" lon="3.10119">
        <ele>446</ele>
        <time>2010-01-01T02:22:37Z</time>
      </trkpt>
      <trkpt lat="44.16042" lon="3.1011">
        <ele>445</ele>
        <time>2010-01-01T02:22:40Z</time>
      </trkpt>
      <trkpt lat="44.16037" lon="3.10098">
        <ele>443</ele>
        <time>2010-01-01T02:22:43Z</time>
      </trkpt>
      <trkpt lat="44.1603" lon="3.10087">
        <ele>440</ele>
        <time>2010-01-01T02:22:48Z</time>
      </trkpt>
      <trkpt lat="44.16024" lon="3.10074">
        <ele>438</ele>
        <time>2010-01-01T02:22:52Z</time>
      </trkpt>
      <trkpt lat="44.16019" lon="3.10059">
        <ele>436</ele>
        <time>2010-01-01T02:22:57Z</time>
      </trkpt>
      <trkpt lat="44.16015" lon="3.10048">
        <ele>434</ele>
        <time>2010-01-01T02:23:00Z</time>
      </trkpt>
      <trkpt lat="44.1601" lon="3.10038">
        <ele>433</ele>
        <time>2010-01-01T02:23:04Z</time>
      </trkpt>
      <trkpt lat="44.16006" lon="3.10024">
        <ele>431</ele>
        <time>2010-01-01T02:23:08Z</time>
      </trkpt>
      <trkpt lat="44.16003" lon="3.10008">
        <ele>429</ele>
        <time>2010-01-01T02:23:13Z</time>
      </trkpt>
      <trkpt lat="44.16001" lon="3.09992">
        <ele>427</ele>
        <time>2010-01-01T02:23:17Z</time>
      </trkpt>
      <trkpt lat="44.15996" lon="3.09977">
        <ele>425</ele>
        <time>2010-01-01T02:23:22Z</time>
      </trkpt>
      <trkpt lat="44.15989" lon="3.09962">
        <ele>422</ele>
        <time>2010-01-01T02:23:27Z</time>
      </trkpt>
      <trkpt lat="44.15982" lon="3.09948">
        <ele>420</ele>
        <time>2010-01-01T02:23:33Z</time>
      </trkpt>
      <trkpt lat="44.15972" lon="3.09936">
        <ele>418</ele>
        <time>2010-01-01T02:23:37Z</time>
      </trkpt>
      <trkpt lat="44.15962" lon="3.0993">
        <ele>415</ele>
        <time>2010-01-01T02:23:42Z</time>
      </trkpt>
      <trkpt lat="44.15951" lon="3.09928">
        <ele>412</ele>
        <time>2010-01-01T02:23:46Z</time>
      </trkpt>
      <trkpt lat="44.15943" lon="3.09927">
        <ele>410</ele>
        <time>2010-01-01T02:23:49Z</time>
      </trkpt>
      <trkpt lat="44.15937" lon="3.09933">
        <ele>408</ele>
        <time>2010-01-01T02:23:53Z</time>
      </trkpt>
      <trkpt lat="44.15931" lon="3.09942">
        <ele>406</ele>
        <time>2010-01-01T02:23:56Z</time>
      </trkpt>
      <trkpt lat="44.15924" lon="3.0995">
        <ele>404</ele>
        <time>2010-01-01T02:24:00Z</time>
      </trkpt>
      <trkpt lat="44.15919" lon="3.09958">
        <ele>403</ele>
        <time>2010-01-01T02:24:03Z</time>
      </trkpt>
      <trkpt lat="44.15913" lon="3.0996">
        <ele>402</ele>
        <time>2010-01-01T02:24:05Z</time>
      </trkpt>
      <trkpt lat="44.15908" lon="3.09953">
        <ele>400</ele>
        <time>2010-01-01T02:24:08Z</time>
      </trkpt>
      <trkpt lat="44.15903" lon="3.09945">
        <ele>399</ele>
        <time>2010-01-01T02:24:11Z</time>
      </trkpt>
      <trkpt lat="44.15897" lon="3.09945">
        <ele>397</ele>
        <time>2010-01-01T02:24:13Z</time>
      </trkpt>
      <trkpt lat="44.15893" lon="3.09949">
        <ele>397</ele>
        <time>2010-01-01T02:24:15Z</time>
      </trkpt>
      <trkpt lat="44.1589" lon="3.09954">
        <ele>397</ele>
        <time>2010-01-01T02:24:17Z</time>
      </trkpt>
      <trkpt lat="44.15888" lon="3.0996">
        <ele>396</ele>
        <time>2010-01-01T02:24:19Z</time>
      </trkpt>
      <trkpt lat="44.15886" lon="3.09969">
        <ele>396</ele>
        <time>2010-01-01T02:24:22Z</time>
      </trkpt>
      <trkpt lat="44.15887" lon="3.09979">
        <ele>397</ele>
        <time>2010-01-01T02:24:25Z</time>
      </trkpt>
      <trkpt lat="44.15889" lon="3.0999">
        <ele>398</ele>
        <time>2010-01-01T02:24:28Z</time>
      </trkpt>
      <trkpt lat="44.15891" lon="3.10002">
        <ele>399</ele>
        <time>2010-01-01T02:24:32Z</time>
      </trkpt>
      <trkpt lat="44.15891" lon="3.10014">
        <ele>399</ele>
        <time>2010-01-01T02:24:35Z</time>
      </trkpt>
      <trkpt lat="44.15885" lon="3.10027">
        <ele>398</ele>
        <time>2010-01-01T02:24:39Z</time>
      </trkpt>
      <trkpt lat="44.15877" lon="3.10042">
        <ele>394</ele>
        <time>2010-01-01T02:24:45Z</time>
      </trkpt>
      <trkpt lat="44.15869" lon="3.10057">
        <ele>390</ele>
        <time>2010-01-01T02:24:50Z</time>
      </trkpt>
      <trkpt lat="44.15864" lon="3.10074">
        <ele>387</ele>
        <time>2010-01-01T02:24:55Z</time>
      </trkpt>
      <trkpt lat="44.15859" lon="3.10089">
        <ele>385</ele>
        <time>2010-01-01T02:25:00Z</time>
      </trkpt>
      <trkpt lat="44.15851" lon="3.10093">
        <ele>384</ele>
        <time>2010-01-01T02:25:03Z</time>
      </trkpt>
      <trkpt lat="44.15841" lon="3.10086">
        <ele>383</ele>
        <time>2010-01-01T02:25:08Z</time>
      </trkpt>
      <trkpt lat="44.15828" lon="3.10072">
        <ele>381</ele>
        <time>2010-01-01T02:25:15Z</time>
      </trkpt>
      <trkpt lat="44.1581" lon="3.10063">
        <ele>378</ele>
        <time>2010-01-01T02:25:22Z</time>
      </trkpt>
      <trkpt lat="44.15797" lon="3.10057">
        <ele>376</ele>
        <time>2010-01-01T02:25:28Z</time>
      </trkpt>
      <trkpt lat="44.15791" lon="3.10052">
        <ele>375</ele>
        <time>2010-01-01T02:25:30Z</time>
      </trkpt>
      <trkpt lat="44.15788" lon="3.10045">
        <ele>375</ele>
        <time>2010-01-01T02:25:33Z</time>
      </trkpt>
      <trkpt lat="44.15786" lon="3.10036">
        <ele>375</ele>
        <time>2010-01-01T02:25:36Z</time>
      </trkpt>
      <trkpt lat="44.15783" lon="3.10024">
        <ele>375</ele>
        <time>2010-01-01T02:25:39Z</time>
      </trkpt>
      <trkpt lat="44.15779" lon="3.10012">
        <ele>374</ele>
        <time>2010-01-01T02:25:43Z</time>
      </trkpt>
      <trkpt lat="44.15775" lon="3.1">
        <ele>373</ele>
        <time>2010-01-01T02:25:47Z</time>
      </trkpt>
      <trkpt lat="44.1577" lon="3.09988">
        <ele>373</ele>
        <time>2010-01-01T02:25:51Z</time>
      </trkpt>
      <trkpt lat="44.15765" lon="3.09975">
        <ele>372</ele>
        <time>2010-01-01T02:25:55Z</time>
      </trkpt>
      <trkpt lat="44.15758" lon="3.09964">
        <ele>372</ele>
        <time>2010-01-01T02:25:59Z</time>
      </trkpt>
      <trkpt lat="44.15751" lon="3.09953">
        <ele>372</ele>
        <time>2010-01-01T02:26:03Z</time>
      </trkpt>
      <trkpt lat="44.15744" lon="3.09942">
        <ele>373</ele>
        <time>2010-01-01T02:26:08Z</time>
      </trkpt>
      <trkpt lat="44.15736" lon="3.0993">
        <ele>374</ele>
        <time>2010-01-01T02:26:12Z</time>
      </trkpt>
      <trkpt lat="44.15727" lon="3.09917">
        <ele>375</ele>
        <time>2010-01-01T02:26:18Z</time>
      </trkpt>
      <trkpt lat="44.15718" lon="3.09901">
        <ele>375</ele>
        <time>2010-01-01T02:26:23Z</time>
      </trkpt>
      <trkpt lat="44.15707" lon="3.09885">
        <ele>376</ele>
        <time>2010-01-01T02:26:30Z</time>
      </trkpt>
      <trkpt lat="44.15696" lon="3.0987">
        <ele>377</ele>
        <time>2010-01-01T02:26:36Z</time>
      </trkpt>
      <trkpt lat="44.15683" lon="3.09862">
        <ele>378</ele>
        <time>2010-01-01T02:26:42Z</time>
      </trkpt>
      <trkpt lat="44.15669" lon="3.09859">
        <ele>379</ele>
        <time>2010-01-01T02:26:47Z</time>
      </trkpt>
      <trkpt lat="44.15655" lon="3.09859">
        <ele>379</ele>
        <time>2010-01-01T02:26:53Z</time>
      </trkpt>
      <trkpt lat="44.15641" lon="3.09857">
        <ele>379</ele>
        <time>2010-01-01T02:26:58Z</time>
      </trkpt>
      <trkpt lat="44.15628" lon="3.09856">
        <ele>378</ele>
        <time>2010-01-01T02:27:04Z</time>
      </trkpt>
      <trkpt lat="44.15615" lon="3.09856">
        <ele>378</ele>
        <time>2010-01-01T02:27:09Z</time>
      </trkpt>
      <trkpt lat="44.15601" lon="3.09855">
        <ele>377</ele>
        <time>2010-01-01T02:27:15Z</time>
      </trkpt>
      <trkpt lat="44.15586" lon="3.09854">
        <ele>376</ele>
        <time>2010-01-01T02:27:20Z</time>
      </trkpt>
      <trkpt lat="44.15571" lon="3.09851">
        <ele>375</ele>
        <time>2010-01-01T02:27:27Z</time>
      </trkpt>
      <trkpt lat="44.15556" lon="3.09846">
        <ele>375</ele>
        <time>2010-01-01T02:27:33Z</time>
      </trkpt>
      <trkpt lat="44.15543" lon="3.0984">
        <ele>375</ele>
        <time>2010-01-01T02:27:38Z</time>
      </trkpt>
      <trkpt lat="44.1553" lon="3.09833">
        <ele>376</ele>
        <time>2010-01-01T02:27:44Z</time>
      </trkpt>
      <trkpt lat="44.1552" lon="3.09824">
        <ele>376</ele>
        <time>2010-01-01T02:27:49Z</time>
      </trkpt>
      <trkpt lat="44.15515" lon="3.09812">
        <ele>376</ele>
        <time>2010-01-01T02:27:53Z</time>
      </trkpt>
      <trkpt lat="44.15506" lon="3.09803">
        <ele>376</ele>
        <time>2010-01-01T02:27:57Z</time>
      </trkpt>
      <trkpt lat="44.15495" lon="3.09799">
        <ele>377</ele>
        <time>2010-01-01T02:28:02Z</time>
      </trkpt>
      <trkpt lat="44.15483" lon="3.09797">
        <ele>377</ele>
        <time>2010-01-01T02:28:07Z</time>
      </trkpt>
      <trkpt lat="44.1547" lon="3.09796">
        <ele>377</ele>
        <time>2010-01-01T02:28:12Z</time>
      </trkpt>
      <trkpt lat="44.15458" lon="3.09796">
        <ele>377</ele>
        <time>2010-01-01T02:28:16Z</time>
      </trkpt>
      <trkpt lat="44.15446" lon="3.09795">
        <ele>377</ele>
        <time>2010-01-01T02:28:21Z</time>
      </trkpt>
      <trkpt lat="44.15434" lon="3.09794">
        <ele>377</ele>
        <time>2010-01-01T02:28:26Z</time>
      </trkpt>
      <trkpt lat="44.15421" lon="3.09793">
        <ele>377</ele>
        <time>2010-01-01T02:28:31Z</time>
      </trkpt>
      <trkpt lat="44.15408" lon="3.09792">
        <ele>377</ele>
        <time>2010-01-01T02:28:36Z</time>
      </trkpt>
      <trkpt lat="44.15395" lon="3.09791">
        <ele>377</ele>
        <time>2010-01-01T02:28:42Z</time>
      </trkpt>
      <trkpt lat="44.15382" lon="3.0979">
        <ele>376</ele>
        <time>2010-01-01T02:28:47Z</time>
      </trkpt>
      <trkpt lat="44.1537" lon="3.0979">
        <ele>376</ele>
        <time>2010-01-01T02:28:52Z</time>
      </trkpt>
      <trkpt lat="44.15357" lon="3.09789">
        <ele>376</ele>
        <time>2010-01-01T02:28:57Z</time>
      </trkpt>
      <trkpt lat="44.15345" lon="3.09789">
        <ele>375</ele>
        <time>2010-01-01T02:29:02Z</time>
      </trkpt>
      <trkpt lat="44.15334" lon="3.09791">
        <ele>375</ele>
        <time>2010-01-01T02:29:06Z</time>
      </trkpt>
      <trkpt lat="44.15324" lon="3.09797">
        <ele>374</ele>
        <time>2010-01-01T02:29:10Z</time>
      </trkpt>
      <trkpt lat="44.15314" lon="3.09802">
        <ele>373</ele>
        <time>2010-01-01T02:29:15Z</time>
      </trkpt>
      <trkpt lat="44.15302" lon="3.09807">
        <ele>372</ele>
        <time>2010-01-01T02:29:20Z</time>
      </trkpt>
      <trkpt lat="44.15289" lon="3.09812">
        <ele>372</ele>
        <time>2010-01-01T02:29:25Z</time>
      </trkpt>
      <trkpt lat="44.15276" lon="3.09817">
        <ele>371</ele>
        <time>2010-01-01T02:29:31Z</time>
      </trkpt>
      <trkpt lat="44.15263" lon="3.09821">
        <ele>371</ele>
        <time>2010-01-01T02:29:36Z</time>
      </trkpt>
      <trkpt lat="44.15249" lon="3.09825">
        <ele>371</ele>
        <time>2010-01-01T02:29:42Z</time>
      </trkpt>
      <trkpt lat="44.15236" lon="3.09829">
        <ele>371</ele>
        <time>2010-01-01T02:29:47Z</time>
      </trkpt>
      <trkpt lat="44.15222" lon="3.09834">
        <ele>371</ele>
        <time>2010-01-01T02:29:53Z</time>
      </trkpt>
      <trkpt lat="44.15209" lon="3.09837">
        <ele>371</ele>
        <time>2010-01-01T02:29:58Z</time>
      </trkpt>
      <trkpt lat="44.15196" lon="3.09842">
        <ele>371</ele>
        <time>2010-01-01T02:30:03Z</time>
      </trkpt>
      <trkpt lat="44.15183" lon="3.09847">
        <ele>371</ele>
        <time>2010-01-01T02:30:09Z</time>
      </trkpt>
      <trkpt lat="44.15171" lon="3.09852">
        <ele>371</ele>
        <time>2010-01-01T02:30:14Z</time>
      </trkpt>
      <trkpt lat="44.15159" lon="3.09859">
        <ele>371</ele>
        <time>2010-01-01T02:30:19Z</time>
      </trkpt>
      <trkpt lat="44.15147" lon="3.09866">
        <ele>370</ele>
        <time>2010-01-01T02:30:24Z</time>
      </trkpt>
      <trkpt lat="44.15135" lon="3.09874">
        <ele>370</ele>
        <time>2010-01-01T02:30:29Z</time>
      </trkpt>
      <trkpt lat="44.15123" lon="3.09881">
        <ele>370</ele>
        <time>2010-01-01T02:30:35Z</time>
      </trkpt>
      <trkpt lat="44.15111" lon="3.09888">
        <ele>371</ele>
        <time>2010-01-01T02:30:40Z</time>
      </trkpt>
      <trkpt lat="44.15098" lon="3.09894">
        <ele>371</ele>
        <time>2010-01-01T02:30:46Z</time>
      </trkpt>
      <trkpt lat="44.15085" lon="3.099">
        <ele>372</ele>
        <time>2010-01-01T02:30:51Z</time>
      </trkpt>
      <trkpt lat="44.15072" lon="3.09905">
        <ele>371</ele>
        <time>2010-01-01T02:30:56Z</time>
      </trkpt>
      <trkpt lat="44.1506" lon="3.09908">
        <ele>371</ele>
        <time>2010-01-01T02:31:01Z</time>
      </trkpt>
      <trkpt lat="44.15047" lon="3.09912">
        <ele>371</ele>
        <time>2010-01-01T02:31:06Z</time>
      </trkpt>
      <trkpt lat="44.15035" lon="3.09916">
        <ele>371</ele>
        <time>2010-01-01T02:31:12Z</time>
      </trkpt>
      <trkpt lat="44.15022" lon="3.09921">
        <ele>370</ele>
        <time>2010-01-01T02:31:17Z</time>
      </trkpt>
      <trkpt lat="44.15008" lon="3.09925">
        <ele>370</ele>
        <time>2010-01-01T02:31:22Z</time>
      </trkpt>
      <trkpt lat="44.14995" lon="3.09928">
        <ele>370</ele>
        <time>2010-01-01T02:31:28Z</time>
      </trkpt>
      <trkpt lat="44.1498" lon="3.09929">
        <ele>371</ele>
        <time>2010-01-01T02:31:34Z</time>
      </trkpt>
      <trkpt lat="44.14965" lon="3.09929">
        <ele>371</ele>
        <time>2010-01-01T02:31:40Z</time>
      </trkpt>
      <trkpt lat="44.14949" lon="3.09928">
        <ele>372</ele>
        <time>2010-01-01T02:31:46Z</time>
      </trkpt>
      <trkpt lat="44.14933" lon="3.09926">
        <ele>372</ele>
        <time>2010-01-01T02:31:53Z</time>
      </trkpt>
      <trkpt lat="44.14917" lon="3.09923">
        <ele>371</ele>
        <time>2010-01-01T02:31:59Z</time>
      </trkpt>
      <trkpt lat="44.14901" lon="3.09922">
        <ele>371</ele>
        <time>2010-01-01T02:32:06Z</time>
      </trkpt>
      <trkpt lat="44.14886" lon="3.09926">
        <ele>370</ele>
        <time>2010-01-01T02:32:12Z</time>
      </trkpt>
      <trkpt lat="44.14872" lon="3.09937">
        <ele>368</ele>
        <time>2010-01-01T02:32:18Z</time>
      </trkpt>
      <trkpt lat="44.14863" lon="3.09953">
        <ele>367</ele>
        <time>2010-01-01T02:32:24Z</time>
      </trkpt>
      <trkpt lat="44.14856" lon="3.09972">
        <ele>366</ele>
        <time>2010-01-01T02:32:30Z</time>
      </trkpt>
      <trkpt lat="44.14852" lon="3.09993">
        <ele>366</ele>
        <time>2010-01-01T02:32:36Z</time>
      </trkpt>
      <trkpt lat="44.1485" lon="3.10014">
        <ele>366</ele>
        <time>2010-01-01T02:32:42Z</time>
      </trkpt>
      <trkpt lat="44.14853" lon="3.10032">
        <ele>367</ele>
        <time>2010-01-01T02:32:48Z</time>
      </trkpt>
      <trkpt lat="44.1486" lon="3.10046">
        <ele>368</ele>
        <time>2010-01-01T02:32:53Z</time>
      </trkpt>
      <trkpt lat="44.14871" lon="3.10054">
        <ele>369</ele>
        <time>2010-01-01T02:32:58Z</time>
      </trkpt>
      <trkpt lat="44.14882" lon="3.10056">
        <ele>369</ele>
        <time>2010-01-01T02:33:02Z</time>
      </trkpt>
      <trkpt lat="44.14893" lon="3.10055">
        <ele>369</ele>
        <time>2010-01-01T02:33:07Z</time>
      </trkpt>
      <trkpt lat="44.14904" lon="3.10054">
        <ele>369</ele>
        <time>2010-01-01T02:33:11Z</time>
      </trkpt>
      <trkpt lat="44.14915" lon="3.10055">
        <ele>369</ele>
        <time>2010-01-01T02:33:15Z</time>
      </trkpt>
      <trkpt lat="44.14925" lon="3.1006">
        <ele>368</ele>
        <time>2010-01-01T02:33:20Z</time>
      </trkpt>
      <trkpt lat="44.14931" lon="3.1007">
        <ele>368</ele>
        <time>2010-01-01T02:33:23Z</time>
      </trkpt>
      <trkpt lat="44.14932" lon="3.10083">
        <ele>368</ele>
        <time>2010-01-01T02:33:27Z</time>
      </trkpt>
      <trkpt lat="44.14933" lon="3.10097">
        <ele>368</ele>
        <time>2010-01-01T02:33:31Z</time>
      </trkpt>
      <trkpt lat="44.14934" lon="3.10112">
        <ele>368</ele>
        <time>2010-01-01T02:33:35Z</time>
      </trkpt>
      <trkpt lat="44.14935" lon="3.10127">
        <ele>369</ele>
        <time>2010-01-01T02:33:40Z</time>
      </trkpt>
      <trkpt lat="44.14935" lon="3.10142">
        <ele>369</ele>
        <time>2010-01-01T02:33:44Z</time>
      </trkpt>
      <trkpt lat="44.14935" lon="3.10159">
        <ele>369</ele>
        <time>2010-01-01T02:33:49Z</time>
      </trkpt>
      <trkpt lat="44.14938" lon="3.10174">
        <ele>370</ele>
        <time>2010-01-01T02:33:53Z</time>
      </trkpt>
      <trkpt lat="44.14945" lon="3.10187">
        <ele>371</ele>
        <time>2010-01-01T02:33:58Z</time>
      </trkpt>
      <trkpt lat="44.14954" lon="3.10195">
        <ele>372</ele>
        <time>2010-01-01T02:34:02Z</time>
      </trkpt>
      <trkpt lat="44.14965" lon="3.102">
        <ele>373</ele>
        <time>2010-01-01T02:34:07Z</time>
      </trkpt>
      <trkpt lat="44.14976" lon="3.10205">
        <ele>374</ele>
        <time>2010-01-01T02:34:12Z</time>
      </trkpt>
      <trkpt lat="44.14986" lon="3.10209">
        <ele>376</ele>
        <time>2010-01-01T02:34:16Z</time>
      </trkpt>
      <trkpt lat="44.14997" lon="3.10212">
        <ele>378</ele>
        <time>2010-01-01T02:34:20Z</time>
      </trkpt>
      <trkpt lat="44.15008" lon="3.10215">
        <ele>380</ele>
        <time>2010-01-01T02:34:25Z</time>
      </trkpt>
      <trkpt lat="44.15019" lon="3.1022">
        <ele>381</ele>
        <time>2010-01-01T02:34:30Z</time>
      </trkpt>
      <trkpt lat="44.1503" lon="3.10224">
        <ele>383</ele>
        <time>2010-01-01T02:34:34Z</time>
      </trkpt>
      <trkpt lat="44.15042" lon="3.10227">
        <ele>383</ele>
        <time>2010-01-01T02:34:39Z</time>
      </trkpt>
      <trkpt lat="44.15052" lon="3.10231">
        <ele>383</ele>
        <time>2010-01-01T02:34:43Z</time>
      </trkpt>
      <trkpt lat="44.15063" lon="3.10233">
        <ele>383</ele>
        <time>2010-01-01T02:34:47Z</time>
      </trkpt>
      <trkpt lat="44.15073" lon="3.10238">
        <ele>383</ele>
        <time>2010-01-01T02:34:52Z</time>
      </trkpt>
      <trkpt lat="44.15083" lon="3.10241">
        <ele>383</ele>
        <time>2010-01-01T02:34:56Z</time>
      </trkpt>
      <trkpt lat="44.15092" lon="3.10244">
        <ele>384</ele>
        <time>2010-01-01T02:34:59Z</time>
      </trkpt>
      <trkpt lat="44.15099" lon="3.10246">
        <ele>385</ele>
        <time>2010-01-01T02:35:02Z</time>
      </trkpt>
      <trkpt lat="44.15105" lon="3.10253">
        <ele>387</ele>
        <time>2010-01-01T02:35:05Z</time>
      </trkpt>
      <trkpt lat="44.15105" lon="3.10262">
        <ele>388</ele>
        <time>2010-01-01T02:35:08Z</time>
      </trkpt>
      <trkpt lat="44.151" lon="3.10268">
        <ele>389</ele>
        <time>2010-01-01T02:35:11Z</time>
      </trkpt>
      <trkpt lat="44.15093" lon="3.1027">
        <ele>389</ele>
        <time>2010-01-01T02:35:14Z</time>
      </trkpt>
      <trkpt lat="44.15084" lon="3.10267">
        <ele>388</ele>
        <time>2010-01-01T02:35:17Z</time>
      </trkpt>
      <trkpt lat="44.15076" lon="3.10261">
        <ele>387</ele>
        <time>2010-01-01T02:35:21Z</time>
      </trkpt>
      <trkpt lat="44.15068" lon="3.10255">
        <ele>386</ele>
        <time>2010-01-01T02:35:25Z</time>
      </trkpt>
      <trkpt lat="44.15059" lon="3.10249">
        <ele>386</ele>
        <time>2010-01-01T02:35:28Z</time>
      </trkpt>
      <trkpt lat="44.1505" lon="3.10244">
        <ele>386</ele>
        <time>2010-01-01T02:35:32Z</time>
      </trkpt>
      <trkpt lat="44.1504" lon="3.10241">
        <ele>386</ele>
        <time>2010-01-01T02:35:36Z</time>
      </trkpt>
      <trkpt lat="44.1503" lon="3.10239">
        <ele>386</ele>
        <time>2010-01-01T02:35:40Z</time>
      </trkpt>
      <trkpt lat="44.1502" lon="3.1024">
        <ele>386</ele>
        <time>2010-01-01T02:35:44Z</time>
      </trkpt>
      <trkpt lat="44.1501" lon="3.10242">
        <ele>385</ele>
        <time>2010-01-01T02:35:48Z</time>
      </trkpt>
      <trkpt lat="44.15001" lon="3.10244">
        <ele>385</ele>
        <time>2010-01-01T02:35:52Z</time>
      </trkpt>
      <trkpt lat="44.14991" lon="3.10246">
        <ele>385</ele>
        <time>2010-01-01T02:35:56Z</time>
      </trkpt>
      <trkpt lat="44.14982" lon="3.10248">
        <ele>384</ele>
        <time>2010-01-01T02:36:00Z</time>
      </trkpt>
      <trkpt lat="44.14973" lon="3.10251">
        <ele>384</ele>
        <time>2010-01-01T02:36:03Z</time>
      </trkpt>
      <trkpt lat="44.14964" lon="3.10255">
        <ele>383</ele>
        <time>2010-01-01T02:36:07Z</time>
      </trkpt>
      <trkpt lat="44.14954" lon="3.10259">
        <ele>383</ele>
        <time>2010-01-01T02:36:11Z</time>
      </trkpt>
      <trkpt lat="44.14945" lon="3.10264">
        <ele>383</ele>
        <time>2010-01-01T02:36:15Z</time>
      </trkpt>
      <trkpt lat="44.14935" lon="3.10269">
        <ele>383</ele>
        <time>2010-01-01T02:36:19Z</time>
      </trkpt>
      <trkpt lat="44.14926" lon="3.10275">
        <ele>384</ele>
        <time>2010-01-01T02:36:24Z</time>
      </trkpt>
      <trkpt lat="44.14916" lon="3.10281">
        <ele>384</ele>
        <time>2010-01-01T02:36:28Z</time>
      </trkpt>
      <trkpt lat="44.14906" lon="3.10286">
        <ele>384</ele>
        <time>2010-01-01T02:36:32Z</time>
      </trkpt>
      <trkpt lat="44.14897" lon="3.10291">
        <ele>384</ele>
        <time>2010-01-01T02:36:36Z</time>
      </trkpt>
      <trkpt lat="44.14887" lon="3.10294">
        <ele>384</ele>
        <time>2010-01-01T02:36:40Z</time>
      </trkpt>
      <trkpt lat="44.14876" lon="3.10296">
        <ele>384</ele>
        <time>2010-01-01T02:36:44Z</time>
      </trkpt>
      <trkpt lat="44.14866" lon="3.10297">
        <ele>384</ele>
        <time>2010-01-01T02:36:49Z</time>
      </trkpt>
      <trkpt lat="44.14855" lon="3.10299">
        <ele>383</ele>
        <time>2010-01-01T02:36:53Z</time>
      </trkpt>
      <trkpt lat="44.14844" lon="3.10301">
        <ele>384</ele>
        <time>2010-01-01T02:36:57Z</time>
      </trkpt>
      <trkpt lat="44.14834" lon="3.10304">
        <ele>384</ele>
        <time>2010-01-01T02:37:02Z</time>
      </trkpt>
      <trkpt lat="44.14823" lon="3.10306">
        <ele>384</ele>
        <time>2010-01-01T02:37:06Z</time>
      </trkpt>
      <trkpt lat="44.14813" lon="3.1031">
        <ele>384</ele>
        <time>2010-01-01T02:37:10Z</time>
      </trkpt>
      <trkpt lat="44.14802" lon="3.10314">
        <ele>383</ele>
        <time>2010-01-01T02:37:15Z</time>
      </trkpt>
      <trkpt lat="44.14791" lon="3.10317">
        <ele>381</ele>
        <time>2010-01-01T02:37:19Z</time>
      </trkpt>
      <trkpt lat="44.14779" lon="3.10322">
        <ele>379</ele>
        <time>2010-01-01T02:37:24Z</time>
      </trkpt>
      <trkpt lat="44.14766" lon="3.10326">
        <ele>380</ele>
        <time>2010-01-01T02:37:29Z</time>
      </trkpt>
      <trkpt lat="44.14753" lon="3.10329">
        <ele>380</ele>
        <time>2010-01-01T02:37:35Z</time>
      </trkpt>
      <trkpt lat="44.14739" lon="3.1033">
        <ele>382</ele>
        <time>2010-01-01T02:37:40Z</time>
      </trkpt>
      <trkpt lat="44.14725" lon="3.10328">
        <ele>383</ele>
        <time>2010-01-01T02:37:46Z</time>
      </trkpt>
      <trkpt lat="44.14712" lon="3.10323">
        <ele>383</ele>
        <time>2010-01-01T02:37:51Z</time>
      </trkpt>
      <trkpt lat="44.14699" lon="3.10317">
        <ele>382</ele>
        <time>2010-01-01T02:37:57Z</time>
      </trkpt>
      <trkpt lat="44.14687" lon="3.10311">
        <ele>381</ele>
        <time>2010-01-01T02:38:02Z</time>
      </trkpt>
      <trkpt lat="44.14675" lon="3.10305">
        <ele>380</ele>
        <time>2010-01-01T02:38:07Z</time>
      </trkpt>
      <trkpt lat="44.14663" lon="3.10299">
        <ele>379</ele>
        <time>2010-01-01T02:38:12Z</time>
      </trkpt>
      <trkpt lat="44.1465" lon="3.10294">
        <ele>380</ele>
        <time>2010-01-01T02:38:17Z</time>
      </trkpt>
      <trkpt lat="44.14637" lon="3.1029">
        <ele>381</ele>
        <time>2010-01-01T02:38:23Z</time>
      </trkpt>
      <trkpt lat="44.14623" lon="3.10287">
        <ele>380</ele>
        <time>2010-01-01T02:38:29Z</time>
      </trkpt>
      <trkpt lat="44.14609" lon="3.10284">
        <ele>380</ele>
        <time>2010-01-01T02:38:34Z</time>
      </trkpt>
      <trkpt lat="44.14596" lon="3.10283">
        <ele>379</ele>
        <time>2010-01-01T02:38:39Z</time>
      </trkpt>
      <trkpt lat="44.14582" lon="3.10285">
        <ele>379</ele>
        <time>2010-01-01T02:38:45Z</time>
      </trkpt>
      <trkpt lat="44.14569" lon="3.1029">
        <ele>379</ele>
        <time>2010-01-01T02:38:50Z</time>
      </trkpt>
      <trkpt lat="44.14558" lon="3.10299">
        <ele>380</ele>
        <time>2010-01-01T02:38:56Z</time>
      </trkpt>
      <trkpt lat="44.14547" lon="3.1031">
        <ele>380</ele>
        <time>2010-01-01T02:39:01Z</time>
      </trkpt>
      <trkpt lat="44.14538" lon="3.10322">
        <ele>382</ele>
        <time>2010-01-01T02:39:06Z</time>
      </trkpt>
      <trkpt lat="44.14528" lon="3.10335">
        <ele>383</ele>
        <time>2010-01-01T02:39:11Z</time>
      </trkpt>
      <trkpt lat="44.14519" lon="3.10346">
        <ele>383</ele>
        <time>2010-01-01T02:39:16Z</time>
      </trkpt>
      <trkpt lat="44.14509" lon="3.10356">
        <ele>383</ele>
        <time>2010-01-01T02:39:21Z</time>
      </trkpt>
      <trkpt lat="44.14498" lon="3.10365">
        <ele>383</ele>
        <time>2010-01-01T02:39:26Z</time>
      </trkpt>
      <trkpt lat="44.14486" lon="3.10371">
        <ele>383</ele>
        <time>2010-01-01T02:39:31Z</time>
      </trkpt>
      <trkpt lat="44.14473" lon="3.10376">
        <ele>383</ele>
        <time>2010-01-01T02:39:37Z</time>
      </trkpt>
      <trkpt lat="44.14461" lon="3.1038">
        <ele>384</ele>
        <time>2010-01-01T02:39:42Z</time>
      </trkpt>
      <trkpt lat="44.14448" lon="3.10384">
        <ele>384</ele>
        <time>2010-01-01T02:39:47Z</time>
      </trkpt>
      <trkpt lat="44.14435" lon="3.10387">
        <ele>385</ele>
        <time>2010-01-01T02:39:52Z</time>
      </trkpt>
      <trkpt lat="44.14422" lon="3.10388">
        <ele>385</ele>
        <time>2010-01-01T02:39:58Z</time>
      </trkpt>
      <trkpt lat="44.14409" lon="3.10389">
        <ele>385</ele>
        <time>2010-01-01T02:40:03Z</time>
      </trkpt>
      <trkpt lat="44.14396" lon="3.10389">
        <ele>384</ele>
        <time>2010-01-01T02:40:08Z</time>
      </trkpt>
      <trkpt lat="44.14383" lon="3.10388">
        <ele>384</ele>
        <time>2010-01-01T02:40:13Z</time>
      </trkpt>
      <trkpt lat="44.1437" lon="3.10387">
        <ele>384</ele>
        <time>2010-01-01T02:40:18Z</time>
      </trkpt>
      <trkpt lat="44.14357" lon="3.10386">
        <ele>385</ele>
        <time>2010-01-01T02:40:23Z</time>
      </trkpt>
      <trkpt lat="44.14344" lon="3.10385">
        <ele>386</ele>
        <time>2010-01-01T02:40:29Z</time>
      </trkpt>
      <trkpt lat="44.1433" lon="3.10381">
        <ele>386</ele>
        <time>2010-01-01T02:40:34Z</time>
      </trkpt>
      <trkpt lat="44.14317" lon="3.10374">
        <ele>385</ele>
        <time>2010-01-01T02:40:40Z</time>
      </trkpt>
      <trkpt lat="44.14306" lon="3.10364">
        <ele>384</ele>
        <time>2010-01-01T02:40:45Z</time>
      </trkpt>
      <trkpt lat="44.14295" lon="3.10352">
        <ele>382</ele>
        <time>2010-01-01T02:40:51Z</time>
      </trkpt>
      <trkpt lat="44.14284" lon="3.10341">
        <ele>381</ele>
        <time>2010-01-01T02:40:56Z</time>
      </trkpt>
      <trkpt lat="44.14273" lon="3.1033">
        <ele>381</ele>
        <time>2010-01-01T02:41:02Z</time>
      </trkpt>
      <trkpt lat="44.14261" lon="3.10322">
        <ele>381</ele>
        <time>2010-01-01T02:41:07Z</time>
      </trkpt>
      <trkpt lat="44.14247" lon="3.10315">
        <ele>381</ele>
        <time>2010-01-01T02:41:13Z</time>
      </trkpt>
      <trkpt lat="44.14234" lon="3.1031">
        <ele>382</ele>
        <time>2010-01-01T02:41:18Z</time>
      </trkpt>
      <trkpt lat="44.14219" lon="3.10305">
        <ele>382</ele>
        <time>2010-01-01T02:41:24Z</time>
      </trkpt>
      <trkpt lat="44.14205" lon="3.10302">
        <ele>381</ele>
        <time>2010-01-01T02:41:30Z</time>
      </trkpt>
      <trkpt lat="44.14191" lon="3.103">
        <ele>381</ele>
        <time>2010-01-01T02:41:36Z</time>
      </trkpt>
      <trkpt lat="44.14176" lon="3.10301">
        <ele>380</ele>
        <time>2010-01-01T02:41:42Z</time>
      </trkpt>
      <trkpt lat="44.14161" lon="3.10305">
        <ele>380</ele>
        <time>2010-01-01T02:41:48Z</time>
      </trkpt>
      <trkpt lat="44.14146" lon="3.1031">
        <ele>380</ele>
        <time>2010-01-01T02:41:54Z</time>
      </trkpt>
      <trkpt lat="44.14129" lon="3.10313">
        <ele>380</ele>
        <time>2010-01-01T02:42:01Z</time>
      </trkpt>
      <trkpt lat="44.14113" lon="3.10317">
        <ele>380</ele>
        <time>2010-01-01T02:42:07Z</time>
      </trkpt>
      <trkpt lat="44.14096" lon="3.10319">
        <ele>380</ele>
        <time>2010-01-01T02:42:14Z</time>
      </trkpt>
      <trkpt lat="44.1408" lon="3.10321">
        <ele>379</ele>
        <time>2010-01-01T02:42:21Z</time>
      </trkpt>
      <trkpt lat="44.14063" lon="3.10321">
        <ele>379</ele>
        <time>2010-01-01T02:42:28Z</time>
      </trkpt>
      <trkpt lat="44.14045" lon="3.10319">
        <ele>378</ele>
        <time>2010-01-01T02:42:35Z</time>
      </trkpt>
      <trkpt lat="44.14028" lon="3.10316">
        <ele>377</ele>
        <time>2010-01-01T02:42:42Z</time>
      </trkpt>
      <trkpt lat="44.14011" lon="3.10311">
        <ele>376</ele>
        <time>2010-01-01T02:42:49Z</time>
      </trkpt>
      <trkpt lat="44.13994" lon="3.10308">
        <ele>375</ele>
        <time>2010-01-01T02:42:55Z</time>
      </trkpt>
      <trkpt lat="44.13977" lon="3.10302">
        <ele>374</ele>
        <time>2010-01-01T02:43:02Z</time>
      </trkpt>
      <trkpt lat="44.13961" lon="3.10295">
        <ele>372</ele>
        <time>2010-01-01T02:43:09Z</time>
      </trkpt>
      <trkpt lat="44.13945" lon="3.10285">
        <ele>371</ele>
        <time>2010-01-01T02:43:16Z</time>
      </trkpt>
      <trkpt lat="44.13931" lon="3.10275">
        <ele>373</ele>
        <time>2010-01-01T02:43:22Z</time>
      </trkpt>
      <trkpt lat="44.13917" lon="3.10265">
        <ele>374</ele>
        <time>2010-01-01T02:43:29Z</time>
      </trkpt>
      <trkpt lat="44.13904" lon="3.10255">
        <ele>374</ele>
        <time>2010-01-01T02:43:35Z</time>
      </trkpt>
      <trkpt lat="44.1389" lon="3.10249">
        <ele>374</ele>
        <time>2010-01-01T02:43:40Z</time>
      </trkpt>
      <trkpt lat="44.13876" lon="3.10244">
        <ele>374</ele>
        <time>2010-01-01T02:43:46Z</time>
      </trkpt>
      <trkpt lat="44.13863" lon="3.1024">
        <ele>373</ele>
        <time>2010-01-01T02:43:52Z</time>
      </trkpt>
      <trkpt lat="44.13849" lon="3.10235">
        <ele>373</ele>
        <time>2010-01-01T02:43:57Z</time>
      </trkpt>
      <trkpt lat="44.13836" lon="3.10229">
        <ele>373</ele>
        <time>2010-01-01T02:44:03Z</time>
      </trkpt>
      <trkpt lat="44.13823" lon="3.10221">
        <ele>372</ele>
        <time>2010-01-01T02:44:09Z</time>
      </trkpt>
      <trkpt lat="44.1381" lon="3.10213">
        <ele>372</ele>
        <time>2010-01-01T02:44:14Z</time>
      </trkpt>
      <trkpt lat="44.13797" lon="3.10204">
        <ele>371</ele>
        <time>2010-01-01T02:44:20Z</time>
      </trkpt>
      <trkpt lat="44.13784" lon="3.10197">
        <ele>371</ele>
        <time>2010-01-01T02:44:25Z</time>
      </trkpt>
      <trkpt lat="44.13771" lon="3.1019">
        <ele>371</ele>
        <time>2010-01-01T02:44:31Z</time>
      </trkpt>
      <trkpt lat="44.13758" lon="3.10184">
        <ele>372</ele>
        <time>2010-01-01T02:44:37Z</time>
      </trkpt>
      <trkpt lat="44.13744" lon="3.10178">
        <ele>372</ele>
        <time>2010-01-01T02:44:43Z</time>
      </trkpt>
      <trkpt lat="44.1373" lon="3.10172">
        <ele>372</ele>
        <time>2010-01-01T02:44:48Z</time>
      </trkpt>
      <trkpt lat="44.13716" lon="3.10167">
        <ele>371</ele>
        <time>2010-01-01T02:44:54Z</time>
      </trkpt>
      <trkpt lat="44.13702" lon="3.10164">
        <ele>370</ele>
        <time>2010-01-01T02:45:00Z</time>
      </trkpt>
      <trkpt lat="44.13687" lon="3.10161">
        <ele>371</ele>
        <time>2010-01-01T02:45:06Z</time>
      </trkpt>
      <trkpt lat="44.13673" lon="3.10158">
        <ele>371</ele>
        <time>2010-01-01T02:45:12Z</time>
      </trkpt>
      <trkpt lat="44.13659" lon="3.10156">
        <ele>372</ele>
        <time>2010-01-01T02:45:17Z</time>
      </trkpt>
      <trkpt lat="44.13645" lon="3.10154">
        <ele>371</ele>
        <time>2010-01-01T02:45:23Z</time>
      </trkpt>
      <trkpt lat="44.1363" lon="3.10151">
        <ele>371</ele>
        <time>2010-01-01T02:45:29Z</time>
      </trkpt>
      <trkpt lat="44.13616" lon="3.1015">
        <ele>370</ele>
        <time>2010-01-01T02:45:35Z</time>
      </trkpt>
      <trkpt lat="44.13601" lon="3.10148">
        <ele>370</ele>
        <time>2010-01-01T02:45:41Z</time>
      </trkpt>
      <trkpt lat="44.13586" lon="3.10146">
        <ele>369</ele>
        <time>2010-01-01T02:45:47Z</time>
      </trkpt>
      <trkpt lat="44.13572" lon="3.10145">
        <ele>368</ele>
        <time>2010-01-01T02:45:52Z</time>
      </trkpt>
      <trkpt lat="44.13557" lon="3.10143">
        <ele>366</ele>
        <time>2010-01-01T02:45:58Z</time>
      </trkpt>
      <trkpt lat="44.13543" lon="3.10142">
        <ele>366</ele>
        <time>2010-01-01T02:46:04Z</time>
      </trkpt>
      <trkpt lat="44.13529" lon="3.10141">
        <ele>367</ele>
        <time>2010-01-01T02:46:09Z</time>
      </trkpt>
      <trkpt lat="44.13515" lon="3.1014">
        <ele>367</ele>
        <time>2010-01-01T02:46:15Z</time>
      </trkpt>
      <trkpt lat="44.13501" lon="3.10141">
        <ele>368</ele>
        <time>2010-01-01T02:46:21Z</time>
      </trkpt>
      <trkpt lat="44.13486" lon="3.10141">
        <ele>367</ele>
        <time>2010-01-01T02:46:27Z</time>
      </trkpt>
      <trkpt lat="44.13472" lon="3.10141">
        <ele>367</ele>
        <time>2010-01-01T02:46:32Z</time>
      </trkpt>
      <trkpt lat="44.13459" lon="3.10142">
        <ele>368</ele>
        <time>2010-01-01T02:46:38Z</time>
      </trkpt>
      <trkpt lat="44.13445" lon="3.10142">
        <ele>368</ele>
        <time>2010-01-01T02:46:43Z</time>
      </trkpt>
      <trkpt lat="44.13432" lon="3.10141">
        <ele>371</ele>
        <time>2010-01-01T02:46:48Z</time>
      </trkpt>
      <trkpt lat="44.13418" lon="3.10138">
        <ele>373</ele>
        <time>2010-01-01T02:46:54Z</time>
      </trkpt>
      <trkpt lat="44.13404" lon="3.10134">
        <ele>374</ele>
        <time>2010-01-01T02:47:00Z</time>
      </trkpt>
      <trkpt lat="44.13391" lon="3.10129">
        <ele>374</ele>
        <time>2010-01-01T02:47:05Z</time>
      </trkpt>
      <trkpt lat="44.13377" lon="3.10123">
        <ele>375</ele>
        <time>2010-01-01T02:47:11Z</time>
      </trkpt>
      <trkpt lat="44.13363" lon="3.10118">
        <ele>375</ele>
        <time>2010-01-01T02:47:17Z</time>
      </trkpt>
      <trkpt lat="44.1335" lon="3.10111">
        <ele>374</ele>
        <time>2010-01-01T02:47:22Z</time>
      </trkpt>
      <trkpt lat="44.13337" lon="3.10103">
        <ele>373</ele>
        <time>2010-01-01T02:47:28Z</time>
      </trkpt>
      <trkpt lat="44.13324" lon="3.10093">
        <ele>373</ele>
        <time>2010-01-01T02:47:34Z</time>
      </trkpt>
      <trkpt lat="44.13313" lon="3.10081">
        <ele>372</ele>
        <time>2010-01-01T02:47:39Z</time>
      </trkpt>
      <trkpt lat="44.13302" lon="3.1007">
        <ele>370</ele>
        <time>2010-01-01T02:47:45Z</time>
      </trkpt>
      <trkpt lat="44.1329" lon="3.1006">
        <ele>369</ele>
        <time>2010-01-01T02:47:51Z</time>
      </trkpt>
      <trkpt lat="44.13277" lon="3.10051">
        <ele>368</ele>
        <time>2010-01-01T02:47:56Z</time>
      </trkpt>
      <trkpt lat="44.13265" lon="3.10043">
        <ele>367</ele>
        <time>2010-01-01T02:48:02Z</time>
      </trkpt>
      <trkpt lat="44.13252" lon="3.10035">
        <ele>367</ele>
        <time>2010-01-01T02:48:07Z</time>
      </trkpt>
      <trkpt lat="44.1324" lon="3.10029">
        <ele>367</ele>
        <time>2010-01-01T02:48:12Z</time>
      </trkpt>
      <trkpt lat="44.13227" lon="3.10024">
        <ele>369</ele>
        <time>2010-01-01T02:48:18Z</time>
      </trkpt>
      <trkpt lat="44.13215" lon="3.10019">
        <ele>370</ele>
        <time>2010-01-01T02:48:23Z</time>
      </trkpt>
      <trkpt lat="44.13203" lon="3.10014">
        <ele>370</ele>
        <time>2010-01-01T02:48:28Z</time>
      </trkpt>
      <trkpt lat="44.13191" lon="3.10009">
        <ele>371</ele>
        <time>2010-01-01T02:48:33Z</time>
      </trkpt>
      <trkpt lat="44.13179" lon="3.10004">
        <ele>371</ele>
        <time>2010-01-01T02:48:38Z</time>
      </trkpt>
      <trkpt lat="44.13167" lon="3.09999">
        <ele>370</ele>
        <time>2010-01-01T02:48:43Z</time>
      </trkpt>
      <trkpt lat="44.13155" lon="3.09996">
        <ele>370</ele>
        <time>2010-01-01T02:48:48Z</time>
      </trkpt>
      <trkpt lat="44.13144" lon="3.09993">
        <ele>370</ele>
        <time>2010-01-01T02:48:52Z</time>
      </trkpt>
      <trkpt lat="44.13132" lon="3.09991">
        <ele>370</ele>
        <time>2010-01-01T02:48:57Z</time>
      </trkpt>
      <trkpt lat="44.13121" lon="3.0999">
        <ele>369</ele>
        <time>2010-01-01T02:49:02Z</time>
      </trkpt>
      <trkpt lat="44.13109" lon="3.09989">
        <ele>368</ele>
        <time>2010-01-01T02:49:06Z</time>
      </trkpt>
      <trkpt lat="44.13098" lon="3.09988">
        <ele>369</ele>
        <time>2010-01-01T02:49:11Z</time>
      </trkpt>
      <trkpt lat="44.13086" lon="3.09987">
        <ele>369</ele>
        <time>2010-01-01T02:49:16Z</time>
      </trkpt>
      <trkpt lat="44.13074" lon="3.09986">
        <ele>370</ele>
        <time>2010-01-01T02:49:21Z</time>
      </trkpt>
      <trkpt lat="44.13062" lon="3.09985">
        <ele>371</ele>
        <time>2010-01-01T02:49:25Z</time>
      </trkpt>
      <trkpt lat="44.1305" lon="3.09984">
        <ele>371</ele>
        <time>2010-01-01T02:49:30Z</time>
      </trkpt>
      <trkpt lat="44.13038" lon="3.09983">
        <ele>371</ele>
        <time>2010-01-01T02:49:35Z</time>
      </trkpt>
      <trkpt lat="44.13027" lon="3.09982">
        <ele>371</ele>
        <time>2010-01-01T02:49:39Z</time>
      </trkpt>
      <trkpt lat="44.13015" lon="3.09982">
        <ele>371</ele>
        <time>2010-01-01T02:49:44Z</time>
      </trkpt>
      <trkpt lat="44.13004" lon="3.09982">
        <ele>371</ele>
        <time>2010-01-01T02:49:48Z</time>
      </trkpt>
      <trkpt lat="44.12993" lon="3.09982">
        <ele>370</ele>
        <time>2010-01-01T02:49:53Z</time>
      </trkpt>
      <trkpt lat="44.12981" lon="3.09983">
        <ele>370</ele>
        <time>2010-01-01T02:49:58Z</time>
      </trkpt>
      <trkpt lat="44.12969" lon="3.09985">
        <ele>369</ele>
        <time>2010-01-01T02:50:02Z</time>
      </trkpt>
      <trkpt lat="44.12958" lon="3.09987">
        <ele>370</ele>
        <time>2010-01-01T02:50:07Z</time>
      </trkpt>
      <trkpt lat="44.12947" lon="3.09991">
        <ele>371</ele>
        <time>2010-01-01T02:50:12Z</time>
      </trkpt>
      <trkpt lat="44.12936" lon="3.09994">
        <ele>371</ele>
        <time>2010-01-01T02:50:16Z</time>
      </trkpt>
      <trkpt lat="44.12925" lon="3.09999">
        <ele>372</ele>
        <time>2010-01-01T02:50:21Z</time>
      </trkpt>
      <trkpt lat="44.12914" lon="3.10002">
        <ele>373</ele>
        <time>2010-01-01T02:50:25Z</time>
      </trkpt>
      <trkpt lat="44.12903" lon="3.10006">
        <ele>374</ele>
        <time>2010-01-01T02:50:30Z</time>
      </trkpt>
      <trkpt lat="44.12891" lon="3.1001">
        <ele>375</ele>
        <time>2010-01-01T02:50:35Z</time>
      </trkpt>
      <trkpt lat="44.12879" lon="3.10014">
        <ele>375</ele>
        <time>2010-01-01T02:50:39Z</time>
      </trkpt>
      <trkpt lat="44.12868" lon="3.10017">
        <ele>376</ele>
        <time>2010-01-01T02:50:44Z</time>
      </trkpt>
      <trkpt lat="44.12856" lon="3.10022">
        <ele>376</ele>
        <time>2010-01-01T02:50:49Z</time>
      </trkpt>
      <trkpt lat="44.12844" lon="3.10027">
        <ele>375</ele>
        <time>2010-01-01T02:50:54Z</time>
      </trkpt>
      <trkpt lat="44.12831" lon="3.10032">
        <ele>374</ele>
        <time>2010-01-01T02:50:59Z</time>
      </trkpt>
      <trkpt lat="44.12819" lon="3.10037">
        <ele>373</ele>
        <time>2010-01-01T02:51:04Z</time>
      </trkpt>
      <trkpt lat="44.12808" lon="3.10041">
        <ele>372</ele>
        <time>2010-01-01T02:51:09Z</time>
      </trkpt>
      <trkpt lat="44.12796" lon="3.10046">
        <ele>372</ele>
        <time>2010-01-01T02:51:14Z</time>
      </trkpt>
      <trkpt lat="44.12784" lon="3.1005">
        <ele>372</ele>
        <time>2010-01-01T02:51:19Z</time>
      </trkpt>
      <trkpt lat="44.12772" lon="3.10053">
        <ele>372</ele>
        <time>2010-01-01T02:51:24Z</time>
      </trkpt>
      <trkpt lat="44.1276" lon="3.10056">
        <ele>371</ele>
        <time>2010-01-01T02:51:29Z</time>
      </trkpt>
      <trkpt lat="44.12748" lon="3.10058">
        <ele>371</ele>
        <time>2010-01-01T02:51:34Z</time>
      </trkpt>
      <trkpt lat="44.12735" lon="3.10059">
        <ele>371</ele>
        <time>2010-01-01T02:51:39Z</time>
      </trkpt>
      <trkpt lat="44.12723" lon="3.1006">
        <ele>370</ele>
        <time>2010-01-01T02:51:43Z</time>
      </trkpt>
      <trkpt lat="44.12711" lon="3.1006">
        <ele>371</ele>
        <time>2010-01-01T02:51:48Z</time>
      </trkpt>
      <trkpt lat="44.12699" lon="3.1006">
        <ele>371</ele>
        <time>2010-01-01T02:51:53Z</time>
      </trkpt>
      <trkpt lat="44.12687" lon="3.1006">
        <ele>371</ele>
        <time>2010-01-01T02:51:58Z</time>
      </trkpt>
      <trkpt lat="44.12675" lon="3.10061">
        <ele>371</ele>
        <time>2010-01-01T02:52:03Z</time>
      </trkpt>
      <trkpt lat="44.12662" lon="3.10061">
        <ele>370</ele>
        <time>2010-01-01T02:52:08Z</time>
      </trkpt>
      <trkpt lat="44.1265" lon="3.10063">
        <ele>369</ele>
        <time>2010-01-01T02:52:13Z</time>
      </trkpt>
      <trkpt lat="44.12638" lon="3.10062">
        <ele>369</ele>
        <time>2010-01-01T02:52:18Z</time>
      </trkpt>
      <trkpt lat="44.12626" lon="3.10062">
        <ele>369</ele>
        <time>2010-01-01T02:52:23Z</time>
      </trkpt>
      <trkpt lat="44.12613" lon="3.10061">
        <ele>370</ele>
        <time>2010-01-01T02:52:28Z</time>
      </trkpt>
      <trkpt lat="44.12601" lon="3.1006">
        <ele>370</ele>
        <time>2010-01-01T02:52:32Z</time>
      </trkpt>
      <trkpt lat="44.12589" lon="3.10058">
        <ele>370</ele>
        <time>2010-01-01T02:52:37Z</time>
      </trkpt>
      <trkpt lat="44.12577" lon="3.10057">
        <ele>370</ele>
        <time>2010-01-01T02:52:42Z</time>
      </trkpt>
      <trkpt lat="44.12565" lon="3.10054">
        <ele>370</ele>
        <time>2010-01-01T02:52:47Z</time>
      </trkpt>
      <trkpt lat="44.12554" lon="3.1005">
        <ele>370</ele>
        <time>2010-01-01T02:52:52Z</time>
      </trkpt>
      <trkpt lat="44.12542" lon="3.10047">
        <ele>370</ele>
        <time>2010-01-01T02:52:56Z</time>
      </trkpt>
      <trkpt lat="44.12531" lon="3.10043">
        <ele>370</ele>
        <time>2010-01-01T02:53:01Z</time>
      </trkpt>
      <trkpt lat="44.1252" lon="3.10038">
        <ele>370</ele>
        <time>2010-01-01T02:53:06Z</time>
      </trkpt>
      <trkpt lat="44.12509" lon="3.10031">
        <ele>371</ele>
        <time>2010-01-01T02:53:10Z</time>
      </trkpt>
      <trkpt lat="44.12499" lon="3.10025">
        <ele>371</ele>
        <time>2010-01-01T02:53:15Z</time>
      </trkpt>
      <trkpt lat="44.12489" lon="3.10019">
        <ele>372</ele>
        <time>2010-01-01T02:53:19Z</time>
      </trkpt>
      <trkpt lat="44.1248" lon="3.10013">
        <ele>373</ele>
        <time>2010-01-01T02:53:23Z</time>
      </trkpt>
      <trkpt lat="44.1247" lon="3.10006">
        <ele>373</ele>
        <time>2010-01-01T02:53:28Z</time>
      </trkpt>
      <trkpt lat="44.12461" lon="3.09998">
        <ele>373</ele>
        <time>2010-01-01T02:53:32Z</time>
      </trkpt>
      <trkpt lat="44.12453" lon="3.09989">
        <ele>373</ele>
        <time>2010-01-01T02:53:36Z</time>
      </trkpt>
      <trkpt lat="44.12445" lon="3.09979">
        <ele>373</ele>
        <time>2010-01-01T02:53:41Z</time>
      </trkpt>
      <trkpt lat="44.12437" lon="3.09968">
        <ele>374</ele>
        <time>2010-01-01T02:53:45Z</time>
      </trkpt>
      <trkpt lat="44.1243" lon="3.09956">
        <ele>374</ele>
        <time>2010-01-01T02:53:49Z</time>
      </trkpt>
      <trkpt lat="44.12423" lon="3.09943">
        <ele>375</ele>
        <time>2010-01-01T02:53:54Z</time>
      </trkpt>
      <trkpt lat="44.12416" lon="3.09931">
        <ele>374</ele>
        <time>2010-01-01T02:53:58Z</time>
      </trkpt>
      <trkpt lat="44.1241" lon="3.09917">
        <ele>374</ele>
        <time>2010-01-01T02:54:03Z</time>
      </trkpt>
      <trkpt lat="44.12404" lon="3.09903">
        <ele>373</ele>
        <time>2010-01-01T02:54:08Z</time>
      </trkpt>
      <trkpt lat="44.12399" lon="3.09888">
        <ele>372</ele>
        <time>2010-01-01T02:54:12Z</time>
      </trkpt>
      <trkpt lat="44.12395" lon="3.09873">
        <ele>372</ele>
        <time>2010-01-01T02:54:17Z</time>
      </trkpt>
      <trkpt lat="44.12391" lon="3.09857">
        <ele>372</ele>
        <time>2010-01-01T02:54:22Z</time>
      </trkpt>
      <trkpt lat="44.12388" lon="3.09842">
        <ele>371</ele>
        <time>2010-01-01T02:54:27Z</time>
      </trkpt>
      <trkpt lat="44.12383" lon="3.09827">
        <ele>371</ele>
        <time>2010-01-01T02:54:31Z</time>
      </trkpt>
      <trkpt lat="44.12379" lon="3.09812">
        <ele>370</ele>
        <time>2010-01-01T02:54:36Z</time>
      </trkpt>
      <trkpt lat="44.12374" lon="3.09798">
        <ele>369</ele>
        <time>2010-01-01T02:54:40Z</time>
      </trkpt>
      <trkpt lat="44.12368" lon="3.09783">
        <ele>368</ele>
        <time>2010-01-01T02:54:45Z</time>
      </trkpt>
      <trkpt lat="44.12362" lon="3.09769">
        <ele>368</ele>
        <time>2010-01-01T02:54:50Z</time>
      </trkpt>
      <trkpt lat="44.12356" lon="3.09755">
        <ele>368</ele>
        <time>2010-01-01T02:54:55Z</time>
      </trkpt>
      <trkpt lat="44.12349" lon="3.09741">
        <ele>369</ele>
        <time>2010-01-01T02:54:59Z</time>
      </trkpt>
      <trkpt lat="44.12341" lon="3.09729">
        <ele>370</ele>
        <time>2010-01-01T02:55:04Z</time>
      </trkpt>
      <trkpt lat="44.12332" lon="3.09717">
        <ele>371</ele>
        <time>2010-01-01T02:55:09Z</time>
      </trkpt>
      <trkpt lat="44.12323" lon="3.09705">
        <ele>372</ele>
        <time>2010-01-01T02:55:14Z</time>
      </trkpt>
      <trkpt lat="44.12314" lon="3.09694">
        <ele>373</ele>
        <time>2010-01-01T02:55:19Z</time>
      </trkpt>
      <trkpt lat="44.12305" lon="3.09682">
        <ele>374</ele>
        <time>2010-01-01T02:55:24Z</time>
      </trkpt>
      <trkpt lat="44.12296" lon="3.09671">
        <ele>373</ele>
        <time>2010-01-01T02:55:29Z</time>
      </trkpt>
      <trkpt lat="44.12287" lon="3.09659">
        <ele>372</ele>
        <time>2010-01-01T02:55:34Z</time>
      </trkpt>
      <trkpt lat="44.12278" lon="3.09648">
        <ele>371</ele>
        <time>2010-01-01T02:55:38Z</time>
      </trkpt>
      <trkpt lat="44.12269" lon="3.09637">
        <ele>370</ele>
        <time>2010-01-01T02:55:43Z</time>
      </trkpt>
      <trkpt lat="44.1226" lon="3.09626">
        <ele>369</ele>
        <time>2010-01-01T02:55:48Z</time>
      </trkpt>
      <trkpt lat="44.12251" lon="3.09614">
        <ele>368</ele>
        <time>2010-01-01T02:55:53Z</time>
      </trkpt>
      <trkpt lat="44.12242" lon="3.09603">
        <ele>368</ele>
        <time>2010-01-01T02:55:58Z</time>
      </trkpt>
      <trkpt lat="44.12232" lon="3.09592">
        <ele>369</ele>
        <time>2010-01-01T02:56:03Z</time>
      </trkpt>
      <trkpt lat="44.12223" lon="3.09581">
        <ele>368</ele>
        <time>2010-01-01T02:56:08Z</time>
      </trkpt>
      <trkpt lat="44.12214" lon="3.0957">
        <ele>368</ele>
        <time>2010-01-01T02:56:13Z</time>
      </trkpt>
      <trkpt lat="44.12204" lon="3.09559">
        <ele>367</ele>
        <time>2010-01-01T02:56:18Z</time>
      </trkpt>
      <trkpt lat="44.12194" lon="3.09547">
        <ele>366</ele>
        <time>2010-01-01T02:56:23Z</time>
      </trkpt>
      <trkpt lat="44.12185" lon="3.09535">
        <ele>366</ele>
        <time>2010-01-01T02:56:28Z</time>
      </trkpt>
      <trkpt lat="44.12176" lon="3.09523">
        <ele>366</ele>
        <time>2010-01-01T02:56:33Z</time>
      </trkpt>
      <trkpt lat="44.12168" lon="3.09511">
        <ele>367</ele>
        <time>2010-01-01T02:56:38Z</time>
      </trkpt>
      <trkpt lat="44.12159" lon="3.09498">
        <ele>367</ele>
        <time>2010-01-01T02:56:43Z</time>
      </trkpt>
      <trkpt lat="44.12151" lon="3.09485">
        <ele>367</ele>
        <time>2010-01-01T02:56:48Z</time>
      </trkpt>
      <trkpt lat="44.12144" lon="3.09471">
        <ele>368</ele>
        <time>2010-01-01T02:56:53Z</time>
      </trkpt>
      <trkpt lat="44.12136" lon="3.09458">
        <ele>367</ele>
        <time>2010-01-01T02:56:58Z</time>
      </trkpt>
      <trkpt lat="44.12129" lon="3.09444">
        <ele>367</ele>
        <time>2010-01-01T02:57:02Z</time>
      </trkpt>
      <trkpt lat="44.12122" lon="3.0943">
        <ele>368</ele>
        <time>2010-01-01T02:57:07Z</time>
      </trkpt>
      <trkpt lat="44.12114" lon="3.09417">
        <ele>368</ele>
        <time>2010-01-01T02:57:12Z</time>
      </trkpt>
      <trkpt lat="44.12107" lon="3.09403">
        <ele>368</ele>
        <time>2010-01-01T02:57:17Z</time>
      </trkpt>
      <trkpt lat="44.12099" lon="3.09389">
        <ele>368</ele>
        <time>2010-01-01T02:57:22Z</time>
      </trkpt>
      <trkpt lat="44.12092" lon="3.09375">
        <ele>368</ele>
        <time>2010-01-01T02:57:27Z</time>
      </trkpt>
      <trkpt lat="44.12085" lon="3.09361">
        <ele>368</ele>
        <time>2010-01-01T02:57:32Z</time>
      </trkpt>
      <trkpt lat="44.12078" lon="3.09347">
        <ele>368</ele>
        <time>2010-01-01T02:57:37Z</time>
      </trkpt>
      <trkpt lat="44.1207" lon="3.09335">
        <ele>369</ele>
        <time>2010-01-01T02:57:42Z</time>
      </trkpt>
      <trkpt lat="44.12062" lon="3.09323">
        <ele>369</ele>
        <time>2010-01-01T02:57:46Z</time>
      </trkpt>
      <trkpt lat="44.12053" lon="3.09312">
        <ele>370</ele>
        <time>2010-01-01T02:57:51Z</time>
      </trkpt>
      <trkpt lat="44.12044" lon="3.093">
        <ele>371</ele>
        <time>2010-01-01T02:57:56Z</time>
      </trkpt>
      <trkpt lat="44.12035" lon="3.09289">
        <ele>371</ele>
        <time>2010-01-01T02:58:01Z</time>
      </trkpt>
      <trkpt lat="44.12027" lon="3.09277">
        <ele>372</ele>
        <time>2010-01-01T02:58:06Z</time>
      </trkpt>
      <trkpt lat="44.12018" lon="3.09265">
        <ele>372</ele>
        <time>2010-01-01T02:58:11Z</time>
      </trkpt>
      <trkpt lat="44.12011" lon="3.09251">
        <ele>373</ele>
        <time>2010-01-01T02:58:16Z</time>
      </trkpt>
      <trkpt lat="44.12004" lon="3.09236">
        <ele>372</ele>
        <time>2010-01-01T02:58:21Z</time>
      </trkpt>
      <trkpt lat="44.11996" lon="3.0922">
        <ele>371</ele>
        <time>2010-01-01T02:58:26Z</time>
      </trkpt>
      <trkpt lat="44.11989" lon="3.09204">
        <ele>371</ele>
        <time>2010-01-01T02:58:32Z</time>
      </trkpt>
      <trkpt lat="44.1198" lon="3.09188">
        <ele>370</ele>
        <time>2010-01-01T02:58:37Z</time>
      </trkpt>
      <trkpt lat="44.11972" lon="3.09174">
        <ele>368</ele>
        <time>2010-01-01T02:58:43Z</time>
      </trkpt>
      <trkpt lat="44.11963" lon="3.0916">
        <ele>366</ele>
        <time>2010-01-01T02:58:48Z</time>
      </trkpt>
      <trkpt lat="44.11953" lon="3.09145">
        <ele>365</ele>
        <time>2010-01-01T02:58:54Z</time>
      </trkpt>
      <trkpt lat="44.11942" lon="3.0913">
        <ele>364</ele>
        <time>2010-01-01T02:59:00Z</time>
      </trkpt>
      <trkpt lat="44.11932" lon="3.09115">
        <ele>364</ele>
        <time>2010-01-01T02:59:06Z</time>
      </trkpt>
      <trkpt lat="44.11922" lon="3.091">
        <ele>364</ele>
        <time>2010-01-01T02:59:12Z</time>
      </trkpt>
      <trkpt lat="44.11912" lon="3.09086">
        <ele>363</ele>
        <time>2010-01-01T02:59:18Z</time>
      </trkpt>
      <trkpt lat="44.11902" lon="3.09072">
        <ele>364</ele>
        <time>2010-01-01T02:59:23Z</time>
      </trkpt>
      <trkpt lat="44.11892" lon="3.09058">
        <ele>364</ele>
        <time>2010-01-01T02:59:29Z</time>
      </trkpt>
      <trkpt lat="44.11882" lon="3.09045">
        <ele>365</ele>
        <time>2010-01-01T02:59:34Z</time>
      </trkpt>
      <trkpt lat="44.11872" lon="3.09032">
        <ele>366</ele>
        <time>2010-01-01T02:59:40Z</time>
      </trkpt>
      <trkpt lat="44.11863" lon="3.09018">
        <ele>366</ele>
        <time>2010-01-01T02:59:45Z</time>
      </trkpt>
      <trkpt lat="44.11854" lon="3.09006">
        <ele>366</ele>
        <time>2010-01-01T02:59:50Z</time>
      </trkpt>
      <trkpt lat="44.11845" lon="3.08993">
        <ele>366</ele>
        <time>2010-01-01T02:59:55Z</time>
      </trkpt>
      <trkpt lat="44.11836" lon="3.08981">
        <ele>366</ele>
        <time>2010-01-01T03:00:00Z</time>
      </trkpt>
      <trkpt lat="44.11828" lon="3.08969">
        <ele>365</ele>
        <time>2010-01-01T03:00:05Z</time>
      </trkpt>
      <trkpt lat="44.11819" lon="3.08956">
        <ele>365</ele>
        <time>2010-01-01T03:00:10Z</time>
      </trkpt>
      <trkpt lat="44.11809" lon="3.08944">
        <ele>364</ele>
        <time>2010-01-01T03:00:15Z</time>
      </trkpt>
      <trkpt lat="44.118" lon="3.08933">
        <ele>364</ele>
        <time>2010-01-01T03:00:20Z</time>
      </trkpt>
      <trkpt lat="44.11791" lon="3.08921">
        <ele>364</ele>
        <time>2010-01-01T03:00:25Z</time>
      </trkpt>
      <trkpt lat="44.11782" lon="3.0891">
        <ele>363</ele>
        <time>2010-01-01T03:00:30Z</time>
      </trkpt>
      <trkpt lat="44.11774" lon="3.08899">
        <ele>363</ele>
        <time>2010-01-01T03:00:35Z</time>
      </trkpt>
      <trkpt lat="44.11765" lon="3.08888">
        <ele>363</ele>
        <time>2010-01-01T03:00:39Z</time>
      </trkpt>
      <trkpt lat="44.11757" lon="3.08877">
        <ele>363</ele>
        <time>2010-01-01T03:00:44Z</time>
      </trkpt>
      <trkpt lat="44.11748" lon="3.08867">
        <ele>363</ele>
        <time>2010-01-01T03:00:48Z</time>
      </trkpt>
      <trkpt lat="44.1174" lon="3.08858">
        <ele>363</ele>
        <time>2010-01-01T03:00:53Z</time>
      </trkpt>
      <trkpt lat="44.11731" lon="3.0885">
        <ele>363</ele>
        <time>2010-01-01T03:00:57Z</time>
      </trkpt>
      <trkpt lat="44.11722" lon="3.08842">
        <ele>363</ele>
        <time>2010-01-01T03:01:01Z</time>
      </trkpt>
      <trkpt lat="44.11713" lon="3.08835">
        <ele>363</ele>
        <time>2010-01-01T03:01:05Z</time>
      </trkpt>
      <trkpt lat="44.11704" lon="3.08827">
        <ele>364</ele>
        <time>2010-01-01T03:01:10Z</time>
      </trkpt>
      <trkpt lat="44.11695" lon="3.08821">
        <ele>364</ele>
        <time>2010-01-01T03:01:14Z</time>
      </trkpt>
      <trkpt lat="44.11686" lon="3.08815">
        <ele>363</ele>
        <time>2010-01-01T03:01:18Z</time>
      </trkpt>
      <trkpt lat="44.11677" lon="3.08809">
        <ele>363</ele>
        <time>2010-01-01T03:01:22Z</time>
      </trkpt>
      <trkpt lat="44.11667" lon="3.08804">
        <ele>362</ele>
        <time>2010-01-01T03:01:26Z</time>
      </trkpt>
      <trkpt lat="44.11658" lon="3.08798">
        <ele>362</ele>
        <time>2010-01-01T03:01:30Z</time>
      </trkpt>
      <trkpt lat="44.11649" lon="3.08791">
        <ele>362</ele>
        <time>2010-01-01T03:01:34Z</time>
      </trkpt>
      <trkpt lat="44.11639" lon="3.08785">
        <ele>362</ele>
        <time>2010-01-01T03:01:38Z</time>
      </trkpt>
      <trkpt lat="44.1163" lon="3.08779">
        <ele>362</ele>
        <time>2010-01-01T03:01:42Z</time>
      </trkpt>
      <trkpt lat="44.1162" lon="3.08773">
        <ele>363</ele>
        <time>2010-01-01T03:01:47Z</time>
      </trkpt>
      <trkpt lat="44.1161" lon="3.08767">
        <ele>364</ele>
        <time>2010-01-01T03:01:51Z</time>
      </trkpt>
      <trkpt lat="44.11601" lon="3.08761">
        <ele>364</ele>
        <time>2010-01-01T03:01:55Z</time>
      </trkpt>
      <trkpt lat="44.11591" lon="3.08755">
        <ele>364</ele>
        <time>2010-01-01T03:01:59Z</time>
      </trkpt>
      <trkpt lat="44.11582" lon="3.08749">
        <ele>364</ele>
        <time>2010-01-01T03:02:03Z</time>
      </trkpt>
      <trkpt lat="44.11573" lon="3.08743">
        <ele>364</ele>
        <time>2010-01-01T03:02:07Z</time>
      </trkpt>
      <trkpt lat="44.11563" lon="3.08738">
        <ele>364</ele>
        <time>2010-01-01T03:02:11Z</time>
      </trkpt>
      <trkpt lat="44.11554" lon="3.08732">
        <ele>363</ele>
        <time>2010-01-01T03:02:15Z</time>
      </trkpt>
      <trkpt lat="44.11545" lon="3.08726">
        <ele>363</ele>
        <time>2010-01-01T03:02:20Z</time>
      </trkpt>
      <trkpt lat="44.11536" lon="3.0872">
        <ele>363</ele>
        <time>2010-01-01T03:02:24Z</time>
      </trkpt>
      <trkpt lat="44.11526" lon="3.08715">
        <ele>362</ele>
        <time>2010-01-01T03:02:28Z</time>
      </trkpt>
      <trkpt lat="44.11516" lon="3.0871">
        <ele>362</ele>
        <time>2010-01-01T03:02:32Z</time>
      </trkpt>
      <trkpt lat="44.11506" lon="3.08704">
        <ele>361</ele>
        <time>2010-01-01T03:02:36Z</time>
      </trkpt>
      <trkpt lat="44.11497" lon="3.08698">
        <ele>361</ele>
        <time>2010-01-01T03:02:41Z</time>
      </trkpt>
      <trkpt lat="44.11487" lon="3.08693">
        <ele>362</ele>
        <time>2010-01-01T03:02:45Z</time>
      </trkpt>
      <trkpt lat="44.11477" lon="3.08687">
        <ele>362</ele>
        <time>2010-01-01T03:02:49Z</time>
      </trkpt>
      <trkpt lat="44.11467" lon="3.08683">
        <ele>361</ele>
        <time>2010-01-01T03:02:53Z</time>
      </trkpt>
      <trkpt lat="44.11457" lon="3.08678">
        <ele>361</ele>
        <time>2010-01-01T03:02:57Z</time>
      </trkpt>
      <trkpt lat="44.11447" lon="3.08675">
        <ele>361</ele>
        <time>2010-01-01T03:03:02Z</time>
      </trkpt>
      <trkpt lat="44.11437" lon="3.08672">
        <ele>360</ele>
        <time>2010-01-01T03:03:06Z</time>
      </trkpt>
      <trkpt lat="44.11426" lon="3.08669">
        <ele>360</ele>
        <time>2010-01-01T03:03:10Z</time>
      </trkpt>
      <trkpt lat="44.11415" lon="3.08666">
        <ele>361</ele>
        <time>2010-01-01T03:03:14Z</time>
      </trkpt>
      <trkpt lat="44.11405" lon="3.08664">
        <ele>361</ele>
        <time>2010-01-01T03:03:19Z</time>
      </trkpt>
      <trkpt lat="44.11394" lon="3.08661">
        <ele>361</ele>
        <time>2010-01-01T03:03:23Z</time>
      </trkpt>
      <trkpt lat="44.11384" lon="3.08658">
        <ele>361</ele>
        <time>2010-01-01T03:03:27Z</time>
      </trkpt>
      <trkpt lat="44.11373" lon="3.08654">
        <ele>361</ele>
        <time>2010-01-01T03:03:32Z</time>
      </trkpt>
      <trkpt lat="44.11363" lon="3.08649">
        <ele>361</ele>
        <time>2010-01-01T03:03:36Z</time>
      </trkpt>
      <trkpt lat="44.11352" lon="3.08644">
        <ele>361</ele>
        <time>2010-01-01T03:03:40Z</time>
      </trkpt>
      <trkpt lat="44.11342" lon="3.08639">
        <ele>361</ele>
        <time>2010-01-01T03:03:45Z</time>
      </trkpt>
      <trkpt lat="44.11331" lon="3.08635">
        <ele>361</ele>
        <time>2010-01-01T03:03:49Z</time>
      </trkpt>
      <trkpt lat="44.11321" lon="3.08632">
        <ele>360</ele>
        <time>2010-01-01T03:03:54Z</time>
      </trkpt>
      <trkpt lat="44.1131" lon="3.08629">
        <ele>360</ele>
        <time>2010-01-01T03:03:58Z</time>
      </trkpt>
      <trkpt lat="44.11299" lon="3.08628">
        <ele>360</ele>
        <time>2010-01-01T03:04:02Z</time>
      </trkpt>
      <trkpt lat="44.11288" lon="3.08627">
        <ele>360</ele>
        <time>2010-01-01T03:04:07Z</time>
      </trkpt>
      <trkpt lat="44.11277" lon="3.08627">
        <ele>360</ele>
        <time>2010-01-01T03:04:11Z</time>
      </trkpt>
      <trkpt lat="44.11266" lon="3.08627">
        <ele>360</ele>
        <time>2010-01-01T03:04:16Z</time>
      </trkpt>
      <trkpt lat="44.11255" lon="3.08627">
        <ele>360</ele>
        <time>2010-01-01T03:04:20Z</time>
      </trkpt>
      <trkpt lat="44.11244" lon="3.08627">
        <ele>360</ele>
        <time>2010-01-01T03:04:24Z</time>
      </trkpt>
      <trkpt lat="44.11233" lon="3.08627">
        <ele>360</ele>
        <time>2010-01-01T03:04:29Z</time>
      </trkpt>
      <trkpt lat="44.11222" lon="3.08627">
        <ele>359</ele>
        <time>2010-01-01T03:04:33Z</time>
      </trkpt>
      <trkpt lat="44.11211" lon="3.08627">
        <ele>359</ele>
        <time>2010-01-01T03:04:38Z</time>
      </trkpt>
      <trkpt lat="44.112" lon="3.08627">
        <ele>359</ele>
        <time>2010-01-01T03:04:42Z</time>
      </trkpt>
      <trkpt lat="44.11189" lon="3.08627">
        <ele>359</ele>
        <time>2010-01-01T03:04:46Z</time>
      </trkpt>
      <trkpt lat="44.11179" lon="3.08628">
        <ele>359</ele>
        <time>2010-01-01T03:04:51Z</time>
      </trkpt>
      <trkpt lat="44.11168" lon="3.08631">
        <ele>358</ele>
        <time>2010-01-01T03:04:55Z</time>
      </trkpt>
      <trkpt lat="44.11158" lon="3.08635">
        <ele>358</ele>
        <time>2010-01-01T03:04:59Z</time>
      </trkpt>
      <trkpt lat="44.11147" lon="3.08641">
        <ele>359</ele>
        <time>2010-01-01T03:05:04Z</time>
      </trkpt>
      <trkpt lat="44.11137" lon="3.08647">
        <ele>359</ele>
        <time>2010-01-01T03:05:08Z</time>
      </trkpt>
      <trkpt lat="44.11127" lon="3.08654">
        <ele>359</ele>
        <time>2010-01-01T03:05:13Z</time>
      </trkpt>
      <trkpt lat="44.11117" lon="3.08661">
        <ele>360</ele>
        <time>2010-01-01T03:05:17Z</time>
      </trkpt>
      <trkpt lat="44.11107" lon="3.08669">
        <ele>361</ele>
        <time>2010-01-01T03:05:22Z</time>
      </trkpt>
      <trkpt lat="44.11096" lon="3.08676">
        <ele>361</ele>
        <time>2010-01-01T03:05:27Z</time>
      </trkpt>
      <trkpt lat="44.11086" lon="3.08684">
        <ele>361</ele>
        <time>2010-01-01T03:05:31Z</time>
      </trkpt>
      <trkpt lat="44.11076" lon="3.08691">
        <ele>360</ele>
        <time>2010-01-01T03:05:36Z</time>
      </trkpt>
      <trkpt lat="44.11066" lon="3.08699">
        <ele>361</ele>
        <time>2010-01-01T03:05:40Z</time>
      </trkpt>
      <trkpt lat="44.11056" lon="3.08706">
        <ele>361</ele>
        <time>2010-01-01T03:05:45Z</time>
      </trkpt>
      <trkpt lat="44.11045" lon="3.08712">
        <ele>361</ele>
        <time>2010-01-01T03:05:49Z</time>
      </trkpt>
      <trkpt lat="44.11035" lon="3.08717">
        <ele>361</ele>
        <time>2010-01-01T03:05:54Z</time>
      </trkpt>
      <trkpt lat="44.11024" lon="3.08722">
        <ele>361</ele>
        <time>2010-01-01T03:05:58Z</time>
      </trkpt>
      <trkpt lat="44.11014" lon="3.08726">
        <ele>361</ele>
        <time>2010-01-01T03:06:03Z</time>
      </trkpt>
      <trkpt lat="44.11003" lon="3.08731">
        <ele>361</ele>
        <time>2010-01-01T03:06:07Z</time>
      </trkpt>
      <trkpt lat="44.10992" lon="3.08735">
        <ele>361</ele>
        <time>2010-01-01T03:06:12Z</time>
      </trkpt>
      <trkpt lat="44.10981" lon="3.08739">
        <ele>361</ele>
        <time>2010-01-01T03:06:16Z</time>
      </trkpt>
      <trkpt lat="44.1097" lon="3.08743">
        <ele>361</ele>
        <time>2010-01-01T03:06:21Z</time>
      </trkpt>
      <trkpt lat="44.10959" lon="3.08747">
        <ele>362</ele>
        <time>2010-01-01T03:06:25Z</time>
      </trkpt>
      <trkpt lat="44.10948" lon="3.0875">
        <ele>362</ele>
        <time>2010-01-01T03:06:30Z</time>
      </trkpt>
      <trkpt lat="44.10937" lon="3.08754">
        <ele>363</ele>
        <time>2010-01-01T03:06:34Z</time>
      </trkpt>
      <trkpt lat="44.10926" lon="3.08758">
        <ele>363</ele>
        <time>2010-01-01T03:06:39Z</time>
      </trkpt>
      <trkpt lat="44.10915" lon="3.08761">
        <ele>363</ele>
        <time>2010-01-01T03:06:43Z</time>
      </trkpt>
      <trkpt lat="44.10904" lon="3.08764">
        <ele>363</ele>
        <time>2010-01-01T03:06:48Z</time>
      </trkpt>
      <trkpt lat="44.10893" lon="3.08768">
        <ele>363</ele>
        <time>2010-01-01T03:06:52Z</time>
      </trkpt>
      <trkpt lat="44.10882" lon="3.08771">
        <ele>363</ele>
        <time>2010-01-01T03:06:57Z</time>
      </trkpt>
      <trkpt lat="44.10871" lon="3.08773">
        <ele>363</ele>
        <time>2010-01-01T03:07:01Z</time>
      </trkpt>
      <trkpt lat="44.1086" lon="3.08775">
        <ele>363</ele>
        <time>2010-01-01T03:07:06Z</time>
      </trkpt>
      <trkpt lat="44.10849" lon="3.08776">
        <ele>363</ele>
        <time>2010-01-01T03:07:10Z</time>
      </trkpt>
      <trkpt lat="44.10838" lon="3.08778">
        <ele>363</ele>
        <time>2010-01-01T03:07:15Z</time>
      </trkpt>
      <trkpt lat="44.10827" lon="3.08779">
        <ele>363</ele>
        <time>2010-01-01T03:07:19Z</time>
      </trkpt>
      <trkpt lat="44.10816" lon="3.08781">
        <ele>363</ele>
        <time>2010-01-01T03:07:24Z</time>
      </trkpt>
      <trkpt lat="44.10805" lon="3.08782">
        <ele>363</ele>
        <time>2010-01-01T03:07:28Z</time>
      </trkpt>
      <trkpt lat="44.10794" lon="3.08782">
        <ele>364</ele>
        <time>2010-01-01T03:07:33Z</time>
      </trkpt>
      <trkpt lat="44.10782" lon="3.08783">
        <ele>365</ele>
        <time>2010-01-01T03:07:37Z</time>
      </trkpt>
      <trkpt lat="44.10771" lon="3.08783">
        <ele>366</ele>
        <time>2010-01-01T03:07:42Z</time>
      </trkpt>
      <trkpt lat="44.10759" lon="3.08784">
        <ele>366</ele>
        <time>2010-01-01T03:07:46Z</time>
      </trkpt>
      <trkpt lat="44.10747" lon="3.08784">
        <ele>366</ele>
        <time>2010-01-01T03:07:51Z</time>
      </trkpt>
      <trkpt lat="44.10735" lon="3.08785">
        <ele>365</ele>
        <time>2010-01-01T03:07:56Z</time>
      </trkpt>
      <trkpt lat="44.10724" lon="3.08785">
        <ele>365</ele>
        <time>2010-01-01T03:08:00Z</time>
      </trkpt>
      <trkpt lat="44.10712" lon="3.08786">
        <ele>364</ele>
        <time>2010-01-01T03:08:05Z</time>
      </trkpt>
      <trkpt lat="44.10701" lon="3.08787">
        <ele>363</ele>
        <time>2010-01-01T03:08:10Z</time>
      </trkpt>
      <trkpt lat="44.1069" lon="3.08789">
        <ele>362</ele>
        <time>2010-01-01T03:08:14Z</time>
      </trkpt>
      <trkpt lat="44.10679" lon="3.08791">
        <ele>362</ele>
        <time>2010-01-01T03:08:19Z</time>
      </trkpt>
      <trkpt lat="44.10668" lon="3.08794">
        <ele>362</ele>
        <time>2010-01-01T03:08:23Z</time>
      </trkpt>
      <trkpt lat="44.10657" lon="3.08796">
        <ele>361</ele>
        <time>2010-01-01T03:08:27Z</time>
      </trkpt>
      <trkpt lat="44.10646" lon="3.08798">
        <ele>360</ele>
        <time>2010-01-01T03:08:32Z</time>
      </trkpt>
      <trkpt lat="44.10635" lon="3.08801">
        <ele>360</ele>
        <time>2010-01-01T03:08:36Z</time>
      </trkpt>
      <trkpt lat="44.10624" lon="3.08805">
        <ele>360</ele>
        <time>2010-01-01T03:08:41Z</time>
      </trkpt>
      <trkpt lat="44.10614" lon="3.0881">
        <ele>360</ele>
        <time>2010-01-01T03:08:45Z</time>
      </trkpt>
      <trkpt lat="44.10604" lon="3.08815">
        <ele>360</ele>
        <time>2010-01-01T03:08:49Z</time>
      </trkpt>
      <trkpt lat="44.10594" lon="3.08821">
        <ele>360</ele>
        <time>2010-01-01T03:08:54Z</time>
      </trkpt>
      <trkpt lat="44.10583" lon="3.08827">
        <ele>360</ele>
        <time>2010-01-01T03:08:58Z</time>
      </trkpt>
      <trkpt lat="44.10572" lon="3.08832">
        <ele>360</ele>
        <time>2010-01-01T03:09:03Z</time>
      </trkpt>
      <trkpt lat="44.10561" lon="3.08837">
        <ele>360</ele>
        <time>2010-01-01T03:09:08Z</time>
      </trkpt>
      <trkpt lat="44.1055" lon="3.08841">
        <ele>361</ele>
        <time>2010-01-01T03:09:12Z</time>
      </trkpt>
      <trkpt lat="44.10539" lon="3.08845">
        <ele>361</ele>
        <time>2010-01-01T03:09:17Z</time>
      </trkpt>
      <trkpt lat="44.10528" lon="3.08849">
        <ele>361</ele>
        <time>2010-01-01T03:09:21Z</time>
      </trkpt>
      <trkpt lat="44.10517" lon="3.08852">
        <ele>360</ele>
        <time>2010-01-01T03:09:26Z</time>
      </trkpt>
      <trkpt lat="44.10505" lon="3.08854">
        <ele>360</ele>
        <time>2010-01-01T03:09:31Z</time>
      </trkpt>
      <trkpt lat="44.10494" lon="3.08856">
        <ele>360</ele>
        <time>2010-01-01T03:09:35Z</time>
      </trkpt>
      <trkpt lat="44.10483" lon="3.08857">
        <ele>360</ele>
        <time>2010-01-01T03:09:40Z</time>
      </trkpt>
      <trkpt lat="44.10471" lon="3.08857">
        <ele>359</ele>
        <time>2010-01-01T03:09:44Z</time>
      </trkpt>
      <trkpt lat="44.10459" lon="3.08857">
        <ele>359</ele>
        <time>2010-01-01T03:09:49Z</time>
      </trkpt>
      <trkpt lat="44.10447" lon="3.08857">
        <ele>358</ele>
        <time>2010-01-01T03:09:54Z</time>
      </trkpt>
      <trkpt lat="44.10436" lon="3.08858">
        <ele>358</ele>
        <time>2010-01-01T03:09:58Z</time>
      </trkpt>
      <trkpt lat="44.10425" lon="3.08858">
        <ele>358</ele>
        <time>2010-01-01T03:10:03Z</time>
      </trkpt>
      <trkpt lat="44.10414" lon="3.08858">
        <ele>358</ele>
        <time>2010-01-01T03:10:07Z</time>
      </trkpt>
      <trkpt lat="44.10403" lon="3.08858">
        <ele>358</ele>
        <time>2010-01-01T03:10:12Z</time>
      </trkpt>
      <trkpt lat="44.10392" lon="3.08859">
        <ele>358</ele>
        <time>2010-01-01T03:10:16Z</time>
      </trkpt>
      <trkpt lat="44.10381" lon="3.08859">
        <ele>359</ele>
        <time>2010-01-01T03:10:20Z</time>
      </trkpt>
      <trkpt lat="44.10372" lon="3.08859">
        <ele>360</ele>
        <time>2010-01-01T03:10:24Z</time>
      </trkpt>
      <trkpt lat="44.10363" lon="3.08856">
        <ele>360</ele>
        <time>2010-01-01T03:10:28Z</time>
      </trkpt>
      <trkpt lat="44.10354" lon="3.0885">
        <ele>359</ele>
        <time>2010-01-01T03:10:32Z</time>
      </trkpt>
      <trkpt lat="44.10346" lon="3.08843">
        <ele>358</ele>
        <time>2010-01-01T03:10:35Z</time>
      </trkpt>
      <trkpt lat="44.10338" lon="3.08836">
        <ele>358</ele>
        <time>2010-01-01T03:10:39Z</time>
      </trkpt>
      <trkpt lat="44.10332" lon="3.08827">
        <ele>357</ele>
        <time>2010-01-01T03:10:43Z</time>
      </trkpt>
      <trkpt lat="44.10326" lon="3.08816">
        <ele>357</ele>
        <time>2010-01-01T03:10:47Z</time>
      </trkpt>
    </trkseg>
  </trk>
</gpx>